<?xml version="1.0" encoding="UTF-8" standalone="no" ?>
<gpx xmlns="http://www.topografix.com/GPX/1/1" xmlns:xsi="http://www.w3.org/2001/XMLSchema-instance" xsi:schemaLocation="http://www.topografix.com/GPX/1/1 http://www.topografix.com/GPX/1/1/gpx.xsd" version="1.1" creator="VisuGPX - https://www.visugpx.com">
  <metadata>
    <name>Le Colomby de Gex depuis La Faucille</name>
  </metadata>
  <trk>
    <name><![CDATA[Le Colomby de Gex depuis La Faucille_1]]></name>
    <extensions>
      <line xmlns="http://www.topografix.com/GPX/gpx_style/0/2">
        <color>0000FF</color>
        <width>4</width>
      </line>
    </extensions>
    <trkseg>
      <trkpt lat="46.36757" lon="6.01658">
        <ele>1317.9</ele>
        <time>2022-07-07T07:09:05Z</time>
      </trkpt>
      <trkpt lat="46.36762" lon="6.0166">
        <ele>1317.2</ele>
        <time>2022-07-07T07:09:50Z</time>
      </trkpt>
      <trkpt lat="46.36762" lon="6.01654">
        <ele>1316.2</ele>
        <time>2022-07-07T07:10:18Z</time>
      </trkpt>
      <trkpt lat="46.36758" lon="6.01654">
        <ele>1318.5</ele>
        <time>2022-07-07T07:10:39Z</time>
      </trkpt>
      <trkpt lat="46.36753" lon="6.01655">
        <ele>1318.1</ele>
        <time>2022-07-07T07:10:54Z</time>
      </trkpt>
      <trkpt lat="46.36749" lon="6.01653">
        <ele>1317</ele>
        <time>2022-07-07T07:11:00Z</time>
      </trkpt>
      <trkpt lat="46.3675" lon="6.01659">
        <ele>1322.1</ele>
        <time>2022-07-07T07:12:37Z</time>
      </trkpt>
      <trkpt lat="46.36745" lon="6.0166">
        <ele>1320.3</ele>
        <time>2022-07-07T07:12:49Z</time>
      </trkpt>
      <trkpt lat="46.3674" lon="6.01659">
        <ele>1320.1</ele>
        <time>2022-07-07T07:12:54Z</time>
      </trkpt>
      <trkpt lat="46.36735" lon="6.01659">
        <ele>1319.8</ele>
        <time>2022-07-07T07:13:00Z</time>
      </trkpt>
      <trkpt lat="46.36731" lon="6.01654">
        <ele>1319.8</ele>
        <time>2022-07-07T07:13:05Z</time>
      </trkpt>
      <trkpt lat="46.36726" lon="6.01651">
        <ele>1319.7</ele>
        <time>2022-07-07T07:13:10Z</time>
      </trkpt>
      <trkpt lat="46.36721" lon="6.0165">
        <ele>1319.6</ele>
        <time>2022-07-07T07:13:16Z</time>
      </trkpt>
      <trkpt lat="46.36718" lon="6.01646">
        <ele>1319.7</ele>
        <time>2022-07-07T07:13:23Z</time>
      </trkpt>
      <trkpt lat="46.36717" lon="6.01639">
        <ele>1319.3</ele>
        <time>2022-07-07T07:13:30Z</time>
      </trkpt>
      <trkpt lat="46.36715" lon="6.01633">
        <ele>1319.2</ele>
        <time>2022-07-07T07:13:37Z</time>
      </trkpt>
      <trkpt lat="46.36711" lon="6.01629">
        <ele>1319</ele>
        <time>2022-07-07T07:13:44Z</time>
      </trkpt>
      <trkpt lat="46.36707" lon="6.01625">
        <ele>1318.6</ele>
        <time>2022-07-07T07:13:50Z</time>
      </trkpt>
      <trkpt lat="46.36703" lon="6.01621">
        <ele>1318.2</ele>
        <time>2022-07-07T07:13:57Z</time>
      </trkpt>
      <trkpt lat="46.36698" lon="6.0162">
        <ele>1317.9</ele>
        <time>2022-07-07T07:14:03Z</time>
      </trkpt>
      <trkpt lat="46.36693" lon="6.01621">
        <ele>1318.1</ele>
        <time>2022-07-07T07:14:09Z</time>
      </trkpt>
      <trkpt lat="46.36689" lon="6.01624">
        <ele>1318.5</ele>
        <time>2022-07-07T07:14:14Z</time>
      </trkpt>
      <trkpt lat="46.36684" lon="6.01627">
        <ele>1318.1</ele>
        <time>2022-07-07T07:14:27Z</time>
      </trkpt>
      <trkpt lat="46.36679" lon="6.01628">
        <ele>1317.6</ele>
        <time>2022-07-07T07:14:32Z</time>
      </trkpt>
      <trkpt lat="46.36674" lon="6.01629">
        <ele>1317.2</ele>
        <time>2022-07-07T07:14:36Z</time>
      </trkpt>
      <trkpt lat="46.36668" lon="6.01628">
        <ele>1316.5</ele>
        <time>2022-07-07T07:14:40Z</time>
      </trkpt>
      <trkpt lat="46.36664" lon="6.01625">
        <ele>1315.6</ele>
        <time>2022-07-07T07:14:44Z</time>
      </trkpt>
      <trkpt lat="46.3666" lon="6.01621">
        <ele>1315.1</ele>
        <time>2022-07-07T07:14:48Z</time>
      </trkpt>
      <trkpt lat="46.36657" lon="6.01615">
        <ele>1316.4</ele>
        <time>2022-07-07T07:14:54Z</time>
      </trkpt>
      <trkpt lat="46.36654" lon="6.0161">
        <ele>1318.1</ele>
        <time>2022-07-07T07:15:03Z</time>
      </trkpt>
      <trkpt lat="46.3665" lon="6.01607">
        <ele>1318</ele>
        <time>2022-07-07T07:15:08Z</time>
      </trkpt>
      <trkpt lat="46.36648" lon="6.01601">
        <ele>1318.3</ele>
        <time>2022-07-07T07:15:12Z</time>
      </trkpt>
      <trkpt lat="46.36646" lon="6.01595">
        <ele>1319</ele>
        <time>2022-07-07T07:15:16Z</time>
      </trkpt>
      <trkpt lat="46.36645" lon="6.01587">
        <ele>1319.9</ele>
        <time>2022-07-07T07:15:21Z</time>
      </trkpt>
      <trkpt lat="46.36644" lon="6.0158">
        <ele>1320.8</ele>
        <time>2022-07-07T07:15:25Z</time>
      </trkpt>
      <trkpt lat="46.36641" lon="6.01574">
        <ele>1322.6</ele>
        <time>2022-07-07T07:15:30Z</time>
      </trkpt>
      <trkpt lat="46.36639" lon="6.01567">
        <ele>1324.2</ele>
        <time>2022-07-07T07:15:35Z</time>
      </trkpt>
      <trkpt lat="46.36638" lon="6.01559">
        <ele>1325.8</ele>
        <time>2022-07-07T07:15:40Z</time>
      </trkpt>
      <trkpt lat="46.36636" lon="6.01552">
        <ele>1327.4</ele>
        <time>2022-07-07T07:15:46Z</time>
      </trkpt>
      <trkpt lat="46.36634" lon="6.01546">
        <ele>1328.5</ele>
        <time>2022-07-07T07:15:51Z</time>
      </trkpt>
      <trkpt lat="46.36632" lon="6.01539">
        <ele>1329.2</ele>
        <time>2022-07-07T07:15:56Z</time>
      </trkpt>
      <trkpt lat="46.36631" lon="6.01533">
        <ele>1329.7</ele>
        <time>2022-07-07T07:16:01Z</time>
      </trkpt>
      <trkpt lat="46.36628" lon="6.01527">
        <ele>1330.2</ele>
        <time>2022-07-07T07:16:07Z</time>
      </trkpt>
      <trkpt lat="46.36627" lon="6.0152">
        <ele>1330.9</ele>
        <time>2022-07-07T07:16:13Z</time>
      </trkpt>
      <trkpt lat="46.36625" lon="6.01513">
        <ele>1330.8</ele>
        <time>2022-07-07T07:16:18Z</time>
      </trkpt>
      <trkpt lat="46.36624" lon="6.01507">
        <ele>1330.4</ele>
        <time>2022-07-07T07:16:23Z</time>
      </trkpt>
      <trkpt lat="46.36623" lon="6.015">
        <ele>1330.1</ele>
        <time>2022-07-07T07:16:28Z</time>
      </trkpt>
      <trkpt lat="46.3662" lon="6.01494">
        <ele>1329.5</ele>
        <time>2022-07-07T07:16:34Z</time>
      </trkpt>
      <trkpt lat="46.36617" lon="6.01489">
        <ele>1329.3</ele>
        <time>2022-07-07T07:16:39Z</time>
      </trkpt>
      <trkpt lat="46.36613" lon="6.01483">
        <ele>1329.4</ele>
        <time>2022-07-07T07:16:43Z</time>
      </trkpt>
      <trkpt lat="46.3661" lon="6.01477">
        <ele>1329.6</ele>
        <time>2022-07-07T07:16:47Z</time>
      </trkpt>
      <trkpt lat="46.36607" lon="6.01472">
        <ele>1330.3</ele>
        <time>2022-07-07T07:16:51Z</time>
      </trkpt>
      <trkpt lat="46.36604" lon="6.01466">
        <ele>1331.2</ele>
        <time>2022-07-07T07:16:56Z</time>
      </trkpt>
      <trkpt lat="46.366" lon="6.0146">
        <ele>1332.2</ele>
        <time>2022-07-07T07:17:01Z</time>
      </trkpt>
      <trkpt lat="46.36596" lon="6.01456">
        <ele>1332.7</ele>
        <time>2022-07-07T07:17:06Z</time>
      </trkpt>
      <trkpt lat="46.36593" lon="6.0145">
        <ele>1332.9</ele>
        <time>2022-07-07T07:17:12Z</time>
      </trkpt>
      <trkpt lat="46.36589" lon="6.01445">
        <ele>1333.3</ele>
        <time>2022-07-07T07:17:18Z</time>
      </trkpt>
      <trkpt lat="46.36586" lon="6.01439">
        <ele>1333.6</ele>
        <time>2022-07-07T07:17:24Z</time>
      </trkpt>
      <trkpt lat="46.36582" lon="6.01434">
        <ele>1333.7</ele>
        <time>2022-07-07T07:17:30Z</time>
      </trkpt>
      <trkpt lat="46.36578" lon="6.01428">
        <ele>1334.1</ele>
        <time>2022-07-07T07:17:36Z</time>
      </trkpt>
      <trkpt lat="46.36574" lon="6.01424">
        <ele>1334.2</ele>
        <time>2022-07-07T07:17:43Z</time>
      </trkpt>
      <trkpt lat="46.3657" lon="6.0142">
        <ele>1334.6</ele>
        <time>2022-07-07T07:17:47Z</time>
      </trkpt>
      <trkpt lat="46.36568" lon="6.01414">
        <ele>1334.9</ele>
        <time>2022-07-07T07:17:53Z</time>
      </trkpt>
      <trkpt lat="46.36567" lon="6.01408">
        <ele>1335</ele>
        <time>2022-07-07T07:18:00Z</time>
      </trkpt>
      <trkpt lat="46.36564" lon="6.01402">
        <ele>1334.3</ele>
        <time>2022-07-07T07:18:05Z</time>
      </trkpt>
      <trkpt lat="46.36561" lon="6.01396">
        <ele>1333.9</ele>
        <time>2022-07-07T07:18:11Z</time>
      </trkpt>
      <trkpt lat="46.36559" lon="6.01388">
        <ele>1334.3</ele>
        <time>2022-07-07T07:18:16Z</time>
      </trkpt>
      <trkpt lat="46.36557" lon="6.01381">
        <ele>1335.4</ele>
        <time>2022-07-07T07:18:21Z</time>
      </trkpt>
      <trkpt lat="46.36555" lon="6.01375">
        <ele>1336.6</ele>
        <time>2022-07-07T07:18:25Z</time>
      </trkpt>
      <trkpt lat="46.36552" lon="6.01368">
        <ele>1337.8</ele>
        <time>2022-07-07T07:18:30Z</time>
      </trkpt>
      <trkpt lat="46.36551" lon="6.01361">
        <ele>1339.4</ele>
        <time>2022-07-07T07:18:36Z</time>
      </trkpt>
      <trkpt lat="46.3655" lon="6.01354">
        <ele>1340.7</ele>
        <time>2022-07-07T07:18:42Z</time>
      </trkpt>
      <trkpt lat="46.3655" lon="6.01348">
        <ele>1341.8</ele>
        <time>2022-07-07T07:18:48Z</time>
      </trkpt>
      <trkpt lat="46.3655" lon="6.01341">
        <ele>1342.9</ele>
        <time>2022-07-07T07:18:55Z</time>
      </trkpt>
      <trkpt lat="46.36548" lon="6.01333">
        <ele>1344.1</ele>
        <time>2022-07-07T07:19:00Z</time>
      </trkpt>
      <trkpt lat="46.36546" lon="6.01326">
        <ele>1344.3</ele>
        <time>2022-07-07T07:19:06Z</time>
      </trkpt>
      <trkpt lat="46.36545" lon="6.0132">
        <ele>1343.5</ele>
        <time>2022-07-07T07:19:11Z</time>
      </trkpt>
      <trkpt lat="46.36545" lon="6.01312">
        <ele>1343.1</ele>
        <time>2022-07-07T07:19:16Z</time>
      </trkpt>
      <trkpt lat="46.36544" lon="6.01304">
        <ele>1342.6</ele>
        <time>2022-07-07T07:19:21Z</time>
      </trkpt>
      <trkpt lat="46.36543" lon="6.01297">
        <ele>1342.4</ele>
        <time>2022-07-07T07:19:25Z</time>
      </trkpt>
      <trkpt lat="46.36541" lon="6.01289">
        <ele>1342.5</ele>
        <time>2022-07-07T07:19:30Z</time>
      </trkpt>
      <trkpt lat="46.3654" lon="6.01283">
        <ele>1342.8</ele>
        <time>2022-07-07T07:19:34Z</time>
      </trkpt>
      <trkpt lat="46.3654" lon="6.01275">
        <ele>1343.5</ele>
        <time>2022-07-07T07:19:40Z</time>
      </trkpt>
      <trkpt lat="46.36539" lon="6.01268">
        <ele>1343.9</ele>
        <time>2022-07-07T07:19:45Z</time>
      </trkpt>
      <trkpt lat="46.3654" lon="6.01261">
        <ele>1344.1</ele>
        <time>2022-07-07T07:19:51Z</time>
      </trkpt>
      <trkpt lat="46.3654" lon="6.01255">
        <ele>1344.2</ele>
        <time>2022-07-07T07:19:56Z</time>
      </trkpt>
      <trkpt lat="46.36542" lon="6.01247">
        <ele>1344.2</ele>
        <time>2022-07-07T07:20:01Z</time>
      </trkpt>
      <trkpt lat="46.36544" lon="6.01242">
        <ele>1344.2</ele>
        <time>2022-07-07T07:20:06Z</time>
      </trkpt>
      <trkpt lat="46.36544" lon="6.01234">
        <ele>1344</ele>
        <time>2022-07-07T07:20:11Z</time>
      </trkpt>
      <trkpt lat="46.36541" lon="6.01228">
        <ele>1343.9</ele>
        <time>2022-07-07T07:20:15Z</time>
      </trkpt>
      <trkpt lat="46.36539" lon="6.01222">
        <ele>1344.2</ele>
        <time>2022-07-07T07:20:29Z</time>
      </trkpt>
      <trkpt lat="46.36539" lon="6.01215">
        <ele>1343.9</ele>
        <time>2022-07-07T07:20:34Z</time>
      </trkpt>
      <trkpt lat="46.36536" lon="6.0121">
        <ele>1343.8</ele>
        <time>2022-07-07T07:20:39Z</time>
      </trkpt>
      <trkpt lat="46.36531" lon="6.01206">
        <ele>1343.3</ele>
        <time>2022-07-07T07:20:45Z</time>
      </trkpt>
      <trkpt lat="46.36526" lon="6.01206">
        <ele>1342.6</ele>
        <time>2022-07-07T07:20:49Z</time>
      </trkpt>
      <trkpt lat="46.36521" lon="6.01206">
        <ele>1341.1</ele>
        <time>2022-07-07T07:20:54Z</time>
      </trkpt>
      <trkpt lat="46.36515" lon="6.01207">
        <ele>1340.1</ele>
        <time>2022-07-07T07:20:59Z</time>
      </trkpt>
      <trkpt lat="46.3651" lon="6.01205">
        <ele>1339.1</ele>
        <time>2022-07-07T07:21:03Z</time>
      </trkpt>
      <trkpt lat="46.36506" lon="6.01201">
        <ele>1338.2</ele>
        <time>2022-07-07T07:21:09Z</time>
      </trkpt>
      <trkpt lat="46.36504" lon="6.01194">
        <ele>1338.1</ele>
        <time>2022-07-07T07:21:17Z</time>
      </trkpt>
      <trkpt lat="46.365" lon="6.01189">
        <ele>1339</ele>
        <time>2022-07-07T07:21:23Z</time>
      </trkpt>
      <trkpt lat="46.36496" lon="6.01184">
        <ele>1340.2</ele>
        <time>2022-07-07T07:21:28Z</time>
      </trkpt>
      <trkpt lat="46.36493" lon="6.01179">
        <ele>1341.3</ele>
        <time>2022-07-07T07:21:33Z</time>
      </trkpt>
      <trkpt lat="46.36491" lon="6.01172">
        <ele>1343.3</ele>
        <time>2022-07-07T07:21:38Z</time>
      </trkpt>
      <trkpt lat="46.36487" lon="6.01167">
        <ele>1344.8</ele>
        <time>2022-07-07T07:21:42Z</time>
      </trkpt>
      <trkpt lat="46.36483" lon="6.01163">
        <ele>1346.3</ele>
        <time>2022-07-07T07:21:46Z</time>
      </trkpt>
      <trkpt lat="46.36478" lon="6.01159">
        <ele>1347.9</ele>
        <time>2022-07-07T07:21:51Z</time>
      </trkpt>
      <trkpt lat="46.36476" lon="6.01154">
        <ele>1349.6</ele>
        <time>2022-07-07T07:21:57Z</time>
      </trkpt>
      <trkpt lat="46.36471" lon="6.01155">
        <ele>1351.1</ele>
        <time>2022-07-07T07:22:03Z</time>
      </trkpt>
      <trkpt lat="46.36466" lon="6.01157">
        <ele>1352.5</ele>
        <time>2022-07-07T07:22:07Z</time>
      </trkpt>
      <trkpt lat="46.36463" lon="6.01161">
        <ele>1353.7</ele>
        <time>2022-07-07T07:22:12Z</time>
      </trkpt>
      <trkpt lat="46.3646" lon="6.01167">
        <ele>1354.4</ele>
        <time>2022-07-07T07:22:17Z</time>
      </trkpt>
      <trkpt lat="46.36457" lon="6.01173">
        <ele>1355.4</ele>
        <time>2022-07-07T07:22:23Z</time>
      </trkpt>
      <trkpt lat="46.36456" lon="6.0118">
        <ele>1356.7</ele>
        <time>2022-07-07T07:22:27Z</time>
      </trkpt>
      <trkpt lat="46.36452" lon="6.01184">
        <ele>1357.4</ele>
        <time>2022-07-07T07:22:33Z</time>
      </trkpt>
      <trkpt lat="46.36448" lon="6.01182">
        <ele>1354.9</ele>
        <time>2022-07-07T07:22:38Z</time>
      </trkpt>
      <trkpt lat="46.36443" lon="6.01182">
        <ele>1351.6</ele>
        <time>2022-07-07T07:22:42Z</time>
      </trkpt>
      <trkpt lat="46.36438" lon="6.01181">
        <ele>1348.4</ele>
        <time>2022-07-07T07:22:46Z</time>
      </trkpt>
      <trkpt lat="46.36435" lon="6.01175">
        <ele>1346.6</ele>
        <time>2022-07-07T07:22:51Z</time>
      </trkpt>
      <trkpt lat="46.36431" lon="6.01171">
        <ele>1346.2</ele>
        <time>2022-07-07T07:22:55Z</time>
      </trkpt>
      <trkpt lat="46.36427" lon="6.01168">
        <ele>1346.4</ele>
        <time>2022-07-07T07:22:59Z</time>
      </trkpt>
      <trkpt lat="46.36423" lon="6.01165">
        <ele>1347.5</ele>
        <time>2022-07-07T07:23:05Z</time>
      </trkpt>
      <trkpt lat="46.36418" lon="6.01162">
        <ele>1348.8</ele>
        <time>2022-07-07T07:23:10Z</time>
      </trkpt>
      <trkpt lat="46.36414" lon="6.01158">
        <ele>1350.3</ele>
        <time>2022-07-07T07:23:16Z</time>
      </trkpt>
      <trkpt lat="46.3641" lon="6.01154">
        <ele>1351.9</ele>
        <time>2022-07-07T07:23:21Z</time>
      </trkpt>
      <trkpt lat="46.36406" lon="6.0115">
        <ele>1353.5</ele>
        <time>2022-07-07T07:23:26Z</time>
      </trkpt>
      <trkpt lat="46.36402" lon="6.01148">
        <ele>1354.8</ele>
        <time>2022-07-07T07:23:32Z</time>
      </trkpt>
      <trkpt lat="46.36398" lon="6.01143">
        <ele>1354.6</ele>
        <time>2022-07-07T07:23:40Z</time>
      </trkpt>
      <trkpt lat="46.36394" lon="6.01138">
        <ele>1353.8</ele>
        <time>2022-07-07T07:23:46Z</time>
      </trkpt>
      <trkpt lat="46.36392" lon="6.01131">
        <ele>1353.5</ele>
        <time>2022-07-07T07:23:52Z</time>
      </trkpt>
      <trkpt lat="46.36389" lon="6.01126">
        <ele>1353.9</ele>
        <time>2022-07-07T07:23:57Z</time>
      </trkpt>
      <trkpt lat="46.36385" lon="6.01121">
        <ele>1354.6</ele>
        <time>2022-07-07T07:24:03Z</time>
      </trkpt>
      <trkpt lat="46.36381" lon="6.01117">
        <ele>1354.8</ele>
        <time>2022-07-07T07:24:08Z</time>
      </trkpt>
      <trkpt lat="46.36376" lon="6.01113">
        <ele>1354.7</ele>
        <time>2022-07-07T07:24:13Z</time>
      </trkpt>
      <trkpt lat="46.36371" lon="6.01111">
        <ele>1354.4</ele>
        <time>2022-07-07T07:24:18Z</time>
      </trkpt>
      <trkpt lat="46.36366" lon="6.0111">
        <ele>1354</ele>
        <time>2022-07-07T07:24:22Z</time>
      </trkpt>
      <trkpt lat="46.36362" lon="6.01105">
        <ele>1354</ele>
        <time>2022-07-07T07:24:27Z</time>
      </trkpt>
      <trkpt lat="46.36361" lon="6.01099">
        <ele>1354.2</ele>
        <time>2022-07-07T07:24:33Z</time>
      </trkpt>
      <trkpt lat="46.36361" lon="6.01092">
        <ele>1354.6</ele>
        <time>2022-07-07T07:24:40Z</time>
      </trkpt>
      <trkpt lat="46.36359" lon="6.01086">
        <ele>1354.1</ele>
        <time>2022-07-07T07:24:44Z</time>
      </trkpt>
      <trkpt lat="46.36358" lon="6.01079">
        <ele>1353.8</ele>
        <time>2022-07-07T07:24:48Z</time>
      </trkpt>
      <trkpt lat="46.36356" lon="6.01073">
        <ele>1353.9</ele>
        <time>2022-07-07T07:24:52Z</time>
      </trkpt>
      <trkpt lat="46.36354" lon="6.01065">
        <ele>1354.1</ele>
        <time>2022-07-07T07:24:56Z</time>
      </trkpt>
      <trkpt lat="46.36352" lon="6.01058">
        <ele>1354.6</ele>
        <time>2022-07-07T07:25:00Z</time>
      </trkpt>
      <trkpt lat="46.3635" lon="6.01051">
        <ele>1355.8</ele>
        <time>2022-07-07T07:25:03Z</time>
      </trkpt>
      <trkpt lat="46.36349" lon="6.01043">
        <ele>1358.1</ele>
        <time>2022-07-07T07:25:07Z</time>
      </trkpt>
      <trkpt lat="46.36347" lon="6.01036">
        <ele>1360.6</ele>
        <time>2022-07-07T07:25:11Z</time>
      </trkpt>
      <trkpt lat="46.36344" lon="6.01031">
        <ele>1362.9</ele>
        <time>2022-07-07T07:25:16Z</time>
      </trkpt>
      <trkpt lat="46.36343" lon="6.01024">
        <ele>1364.4</ele>
        <time>2022-07-07T07:25:22Z</time>
      </trkpt>
      <trkpt lat="46.36341" lon="6.01018">
        <ele>1365.5</ele>
        <time>2022-07-07T07:25:26Z</time>
      </trkpt>
      <trkpt lat="46.36339" lon="6.01011">
        <ele>1366.6</ele>
        <time>2022-07-07T07:25:31Z</time>
      </trkpt>
      <trkpt lat="46.36341" lon="6.01004">
        <ele>1368.1</ele>
        <time>2022-07-07T07:25:36Z</time>
      </trkpt>
      <trkpt lat="46.36343" lon="6.00998">
        <ele>1370.6</ele>
        <time>2022-07-07T07:25:41Z</time>
      </trkpt>
      <trkpt lat="46.36343" lon="6.00991">
        <ele>1372.3</ele>
        <time>2022-07-07T07:25:45Z</time>
      </trkpt>
      <trkpt lat="46.36342" lon="6.00984">
        <ele>1374.2</ele>
        <time>2022-07-07T07:25:50Z</time>
      </trkpt>
      <trkpt lat="46.36338" lon="6.00979">
        <ele>1376.3</ele>
        <time>2022-07-07T07:25:57Z</time>
      </trkpt>
      <trkpt lat="46.36334" lon="6.00975">
        <ele>1377.1</ele>
        <time>2022-07-07T07:26:02Z</time>
      </trkpt>
      <trkpt lat="46.36332" lon="6.00969">
        <ele>1377</ele>
        <time>2022-07-07T07:26:08Z</time>
      </trkpt>
      <trkpt lat="46.36327" lon="6.00966">
        <ele>1376.2</ele>
        <time>2022-07-07T07:26:17Z</time>
      </trkpt>
      <trkpt lat="46.36323" lon="6.00965">
        <ele>1376.2</ele>
        <time>2022-07-07T07:26:21Z</time>
      </trkpt>
      <trkpt lat="46.36318" lon="6.00964">
        <ele>1376.6</ele>
        <time>2022-07-07T07:26:25Z</time>
      </trkpt>
      <trkpt lat="46.36312" lon="6.00963">
        <ele>1377.2</ele>
        <time>2022-07-07T07:26:30Z</time>
      </trkpt>
      <trkpt lat="46.36308" lon="6.00961">
        <ele>1377.5</ele>
        <time>2022-07-07T07:26:33Z</time>
      </trkpt>
      <trkpt lat="46.36303" lon="6.00957">
        <ele>1377.5</ele>
        <time>2022-07-07T07:26:37Z</time>
      </trkpt>
      <trkpt lat="46.36298" lon="6.00955">
        <ele>1376.9</ele>
        <time>2022-07-07T07:26:41Z</time>
      </trkpt>
      <trkpt lat="46.36293" lon="6.00952">
        <ele>1377</ele>
        <time>2022-07-07T07:26:47Z</time>
      </trkpt>
      <trkpt lat="46.36291" lon="6.00946">
        <ele>1378.3</ele>
        <time>2022-07-07T07:26:52Z</time>
      </trkpt>
      <trkpt lat="46.36288" lon="6.0094">
        <ele>1378.1</ele>
        <time>2022-07-07T07:26:59Z</time>
      </trkpt>
      <trkpt lat="46.36288" lon="6.00933">
        <ele>1377.3</ele>
        <time>2022-07-07T07:27:05Z</time>
      </trkpt>
      <trkpt lat="46.36287" lon="6.00926">
        <ele>1377.2</ele>
        <time>2022-07-07T07:27:12Z</time>
      </trkpt>
      <trkpt lat="46.36285" lon="6.0092">
        <ele>1377.8</ele>
        <time>2022-07-07T07:27:16Z</time>
      </trkpt>
      <trkpt lat="46.36285" lon="6.00913">
        <ele>1378.5</ele>
        <time>2022-07-07T07:27:20Z</time>
      </trkpt>
      <trkpt lat="46.36284" lon="6.00906">
        <ele>1379.5</ele>
        <time>2022-07-07T07:27:27Z</time>
      </trkpt>
      <trkpt lat="46.36281" lon="6.00901">
        <ele>1380.1</ele>
        <time>2022-07-07T07:27:34Z</time>
      </trkpt>
      <trkpt lat="46.36277" lon="6.00895">
        <ele>1380.5</ele>
        <time>2022-07-07T07:27:38Z</time>
      </trkpt>
      <trkpt lat="46.36274" lon="6.00889">
        <ele>1381</ele>
        <time>2022-07-07T07:27:42Z</time>
      </trkpt>
      <trkpt lat="46.3627" lon="6.00885">
        <ele>1381.7</ele>
        <time>2022-07-07T07:27:46Z</time>
      </trkpt>
      <trkpt lat="46.36265" lon="6.00882">
        <ele>1382.7</ele>
        <time>2022-07-07T07:27:52Z</time>
      </trkpt>
      <trkpt lat="46.36261" lon="6.00879">
        <ele>1383.4</ele>
        <time>2022-07-07T07:27:58Z</time>
      </trkpt>
      <trkpt lat="46.36256" lon="6.00876">
        <ele>1383.8</ele>
        <time>2022-07-07T07:28:02Z</time>
      </trkpt>
      <trkpt lat="46.36251" lon="6.00874">
        <ele>1384.9</ele>
        <time>2022-07-07T07:28:08Z</time>
      </trkpt>
      <trkpt lat="46.36247" lon="6.00869">
        <ele>1385.7</ele>
        <time>2022-07-07T07:28:13Z</time>
      </trkpt>
      <trkpt lat="46.36242" lon="6.00866">
        <ele>1386.2</ele>
        <time>2022-07-07T07:28:17Z</time>
      </trkpt>
      <trkpt lat="46.36238" lon="6.00863">
        <ele>1386.9</ele>
        <time>2022-07-07T07:28:22Z</time>
      </trkpt>
      <trkpt lat="46.36233" lon="6.00861">
        <ele>1387.8</ele>
        <time>2022-07-07T07:28:29Z</time>
      </trkpt>
      <trkpt lat="46.36229" lon="6.00859">
        <ele>1388.1</ele>
        <time>2022-07-07T07:28:34Z</time>
      </trkpt>
      <trkpt lat="46.36225" lon="6.00855">
        <ele>1388.7</ele>
        <time>2022-07-07T07:28:38Z</time>
      </trkpt>
      <trkpt lat="46.36222" lon="6.0085">
        <ele>1389.5</ele>
        <time>2022-07-07T07:28:44Z</time>
      </trkpt>
      <trkpt lat="46.36219" lon="6.00844">
        <ele>1390</ele>
        <time>2022-07-07T07:28:51Z</time>
      </trkpt>
      <trkpt lat="46.36218" lon="6.00837">
        <ele>1390.5</ele>
        <time>2022-07-07T07:28:56Z</time>
      </trkpt>
      <trkpt lat="46.36216" lon="6.00831">
        <ele>1391.2</ele>
        <time>2022-07-07T07:29:01Z</time>
      </trkpt>
      <trkpt lat="46.36216" lon="6.00824">
        <ele>1391.6</ele>
        <time>2022-07-07T07:29:06Z</time>
      </trkpt>
      <trkpt lat="46.36216" lon="6.00816">
        <ele>1392</ele>
        <time>2022-07-07T07:29:11Z</time>
      </trkpt>
      <trkpt lat="46.36215" lon="6.0081">
        <ele>1392.9</ele>
        <time>2022-07-07T07:29:17Z</time>
      </trkpt>
      <trkpt lat="46.36211" lon="6.00805">
        <ele>1393.4</ele>
        <time>2022-07-07T07:29:22Z</time>
      </trkpt>
      <trkpt lat="46.36208" lon="6.00799">
        <ele>1394.2</ele>
        <time>2022-07-07T07:29:27Z</time>
      </trkpt>
      <trkpt lat="46.36205" lon="6.00793">
        <ele>1394.7</ele>
        <time>2022-07-07T07:29:31Z</time>
      </trkpt>
      <trkpt lat="46.36202" lon="6.00788">
        <ele>1395.6</ele>
        <time>2022-07-07T07:29:36Z</time>
      </trkpt>
      <trkpt lat="46.362" lon="6.00782">
        <ele>1396.6</ele>
        <time>2022-07-07T07:29:42Z</time>
      </trkpt>
      <trkpt lat="46.36196" lon="6.00777">
        <ele>1397.1</ele>
        <time>2022-07-07T07:29:47Z</time>
      </trkpt>
      <trkpt lat="46.36192" lon="6.00773">
        <ele>1397.4</ele>
        <time>2022-07-07T07:29:52Z</time>
      </trkpt>
      <trkpt lat="46.36191" lon="6.00766">
        <ele>1397.3</ele>
        <time>2022-07-07T07:30:00Z</time>
      </trkpt>
      <trkpt lat="46.36187" lon="6.0076">
        <ele>1397.5</ele>
        <time>2022-07-07T07:30:05Z</time>
      </trkpt>
      <trkpt lat="46.36183" lon="6.00756">
        <ele>1397.7</ele>
        <time>2022-07-07T07:30:10Z</time>
      </trkpt>
      <trkpt lat="46.36179" lon="6.00752">
        <ele>1398.4</ele>
        <time>2022-07-07T07:30:16Z</time>
      </trkpt>
      <trkpt lat="46.36175" lon="6.00747">
        <ele>1399.2</ele>
        <time>2022-07-07T07:30:21Z</time>
      </trkpt>
      <trkpt lat="46.36172" lon="6.00743">
        <ele>1399.8</ele>
        <time>2022-07-07T07:30:27Z</time>
      </trkpt>
      <trkpt lat="46.36169" lon="6.00737">
        <ele>1399.8</ele>
        <time>2022-07-07T07:30:32Z</time>
      </trkpt>
      <trkpt lat="46.36166" lon="6.00731">
        <ele>1400.1</ele>
        <time>2022-07-07T07:30:37Z</time>
      </trkpt>
      <trkpt lat="46.36161" lon="6.00728">
        <ele>1400.8</ele>
        <time>2022-07-07T07:30:45Z</time>
      </trkpt>
      <trkpt lat="46.36156" lon="6.00728">
        <ele>1401.2</ele>
        <time>2022-07-07T07:30:50Z</time>
      </trkpt>
      <trkpt lat="46.36151" lon="6.00729">
        <ele>1401.5</ele>
        <time>2022-07-07T07:30:54Z</time>
      </trkpt>
      <trkpt lat="46.36148" lon="6.00725">
        <ele>1401.8</ele>
        <time>2022-07-07T07:30:59Z</time>
      </trkpt>
      <trkpt lat="46.36147" lon="6.00717">
        <ele>1402</ele>
        <time>2022-07-07T07:31:04Z</time>
      </trkpt>
      <trkpt lat="46.36144" lon="6.00712">
        <ele>1402.3</ele>
        <time>2022-07-07T07:31:09Z</time>
      </trkpt>
      <trkpt lat="46.36139" lon="6.00711">
        <ele>1402.5</ele>
        <time>2022-07-07T07:31:15Z</time>
      </trkpt>
      <trkpt lat="46.36134" lon="6.00711">
        <ele>1402.4</ele>
        <time>2022-07-07T07:31:19Z</time>
      </trkpt>
      <trkpt lat="46.36129" lon="6.00712">
        <ele>1402.5</ele>
        <time>2022-07-07T07:31:22Z</time>
      </trkpt>
      <trkpt lat="46.36124" lon="6.00713">
        <ele>1402.9</ele>
        <time>2022-07-07T07:31:26Z</time>
      </trkpt>
      <trkpt lat="46.36119" lon="6.00713">
        <ele>1404</ele>
        <time>2022-07-07T07:31:31Z</time>
      </trkpt>
      <trkpt lat="46.36114" lon="6.00712">
        <ele>1405.4</ele>
        <time>2022-07-07T07:31:37Z</time>
      </trkpt>
      <trkpt lat="46.3611" lon="6.00711">
        <ele>1407.2</ele>
        <time>2022-07-07T07:31:43Z</time>
      </trkpt>
      <trkpt lat="46.36105" lon="6.00708">
        <ele>1408.9</ele>
        <time>2022-07-07T07:31:49Z</time>
      </trkpt>
      <trkpt lat="46.36102" lon="6.00703">
        <ele>1410.4</ele>
        <time>2022-07-07T07:31:56Z</time>
      </trkpt>
      <trkpt lat="46.36098" lon="6.00698">
        <ele>1410.8</ele>
        <time>2022-07-07T07:32:01Z</time>
      </trkpt>
      <trkpt lat="46.36095" lon="6.00692">
        <ele>1411.1</ele>
        <time>2022-07-07T07:32:06Z</time>
      </trkpt>
      <trkpt lat="46.36093" lon="6.00687">
        <ele>1411.4</ele>
        <time>2022-07-07T07:32:11Z</time>
      </trkpt>
      <trkpt lat="46.36089" lon="6.00682">
        <ele>1412.4</ele>
        <time>2022-07-07T07:32:17Z</time>
      </trkpt>
      <trkpt lat="46.36086" lon="6.00676">
        <ele>1413.7</ele>
        <time>2022-07-07T07:32:23Z</time>
      </trkpt>
      <trkpt lat="46.36083" lon="6.00669">
        <ele>1414.7</ele>
        <time>2022-07-07T07:32:29Z</time>
      </trkpt>
      <trkpt lat="46.36078" lon="6.00668">
        <ele>1415.3</ele>
        <time>2022-07-07T07:32:34Z</time>
      </trkpt>
      <trkpt lat="46.36073" lon="6.00668">
        <ele>1415.8</ele>
        <time>2022-07-07T07:32:39Z</time>
      </trkpt>
      <trkpt lat="46.36069" lon="6.00668">
        <ele>1415.7</ele>
        <time>2022-07-07T07:32:44Z</time>
      </trkpt>
      <trkpt lat="46.36063" lon="6.00667">
        <ele>1415.6</ele>
        <time>2022-07-07T07:32:49Z</time>
      </trkpt>
      <trkpt lat="46.36059" lon="6.0067">
        <ele>1415.2</ele>
        <time>2022-07-07T07:32:53Z</time>
      </trkpt>
      <trkpt lat="46.36055" lon="6.00675">
        <ele>1415</ele>
        <time>2022-07-07T07:32:57Z</time>
      </trkpt>
      <trkpt lat="46.36051" lon="6.00679">
        <ele>1415.5</ele>
        <time>2022-07-07T07:33:02Z</time>
      </trkpt>
      <trkpt lat="46.36048" lon="6.00685">
        <ele>1416.6</ele>
        <time>2022-07-07T07:33:09Z</time>
      </trkpt>
      <trkpt lat="46.36048" lon="6.00692">
        <ele>1417.1</ele>
        <time>2022-07-07T07:33:13Z</time>
      </trkpt>
      <trkpt lat="46.3605" lon="6.00698">
        <ele>1417.8</ele>
        <time>2022-07-07T07:33:17Z</time>
      </trkpt>
      <trkpt lat="46.36054" lon="6.00704">
        <ele>1418.5</ele>
        <time>2022-07-07T07:33:21Z</time>
      </trkpt>
      <trkpt lat="46.36058" lon="6.00707">
        <ele>1419.3</ele>
        <time>2022-07-07T07:33:25Z</time>
      </trkpt>
      <trkpt lat="46.36064" lon="6.00709">
        <ele>1420.2</ele>
        <time>2022-07-07T07:33:30Z</time>
      </trkpt>
      <trkpt lat="46.36068" lon="6.00712">
        <ele>1421.1</ele>
        <time>2022-07-07T07:33:34Z</time>
      </trkpt>
      <trkpt lat="46.36072" lon="6.00714">
        <ele>1421.8</ele>
        <time>2022-07-07T07:33:38Z</time>
      </trkpt>
      <trkpt lat="46.36076" lon="6.00717">
        <ele>1422.9</ele>
        <time>2022-07-07T07:33:43Z</time>
      </trkpt>
      <trkpt lat="46.36078" lon="6.00724">
        <ele>1424.2</ele>
        <time>2022-07-07T07:33:49Z</time>
      </trkpt>
      <trkpt lat="46.36082" lon="6.00729">
        <ele>1424.7</ele>
        <time>2022-07-07T07:33:55Z</time>
      </trkpt>
      <trkpt lat="46.36084" lon="6.00736">
        <ele>1424.4</ele>
        <time>2022-07-07T07:34:02Z</time>
      </trkpt>
      <trkpt lat="46.36085" lon="6.00743">
        <ele>1424.3</ele>
        <time>2022-07-07T07:34:07Z</time>
      </trkpt>
      <trkpt lat="46.36084" lon="6.0075">
        <ele>1423.9</ele>
        <time>2022-07-07T07:34:12Z</time>
      </trkpt>
      <trkpt lat="46.36082" lon="6.00757">
        <ele>1423.7</ele>
        <time>2022-07-07T07:34:17Z</time>
      </trkpt>
      <trkpt lat="46.36079" lon="6.00763">
        <ele>1423.7</ele>
        <time>2022-07-07T07:34:21Z</time>
      </trkpt>
      <trkpt lat="46.36075" lon="6.00769">
        <ele>1423.7</ele>
        <time>2022-07-07T07:34:26Z</time>
      </trkpt>
      <trkpt lat="46.36072" lon="6.00774">
        <ele>1423.7</ele>
        <time>2022-07-07T07:34:30Z</time>
      </trkpt>
      <trkpt lat="46.36069" lon="6.00779">
        <ele>1423.7</ele>
        <time>2022-07-07T07:34:34Z</time>
      </trkpt>
      <trkpt lat="46.36065" lon="6.00783">
        <ele>1423.4</ele>
        <time>2022-07-07T07:34:38Z</time>
      </trkpt>
      <trkpt lat="46.36061" lon="6.00784">
        <ele>1423.2</ele>
        <time>2022-07-07T07:34:42Z</time>
      </trkpt>
      <trkpt lat="46.36056" lon="6.00785">
        <ele>1423</ele>
        <time>2022-07-07T07:34:46Z</time>
      </trkpt>
      <trkpt lat="46.36052" lon="6.00782">
        <ele>1423.1</ele>
        <time>2022-07-07T07:34:50Z</time>
      </trkpt>
      <trkpt lat="46.36048" lon="6.00779">
        <ele>1423.2</ele>
        <time>2022-07-07T07:34:53Z</time>
      </trkpt>
      <trkpt lat="46.36043" lon="6.00776">
        <ele>1423.4</ele>
        <time>2022-07-07T07:34:57Z</time>
      </trkpt>
      <trkpt lat="46.36039" lon="6.00772">
        <ele>1423.5</ele>
        <time>2022-07-07T07:35:02Z</time>
      </trkpt>
      <trkpt lat="46.36036" lon="6.00767">
        <ele>1423.9</ele>
        <time>2022-07-07T07:35:08Z</time>
      </trkpt>
      <trkpt lat="46.36031" lon="6.00763">
        <ele>1424.2</ele>
        <time>2022-07-07T07:35:13Z</time>
      </trkpt>
      <trkpt lat="46.36026" lon="6.00763">
        <ele>1424.6</ele>
        <time>2022-07-07T07:35:19Z</time>
      </trkpt>
      <trkpt lat="46.36021" lon="6.00765">
        <ele>1424.6</ele>
        <time>2022-07-07T07:35:25Z</time>
      </trkpt>
      <trkpt lat="46.36016" lon="6.00766">
        <ele>1425</ele>
        <time>2022-07-07T07:35:31Z</time>
      </trkpt>
      <trkpt lat="46.36012" lon="6.00764">
        <ele>1425.4</ele>
        <time>2022-07-07T07:35:35Z</time>
      </trkpt>
      <trkpt lat="46.3601" lon="6.00758">
        <ele>1427.5</ele>
        <time>2022-07-07T07:35:43Z</time>
      </trkpt>
      <trkpt lat="46.36006" lon="6.00754">
        <ele>1425.2</ele>
        <time>2022-07-07T07:35:57Z</time>
      </trkpt>
      <trkpt lat="46.36003" lon="6.00749">
        <ele>1425.1</ele>
        <time>2022-07-07T07:36:04Z</time>
      </trkpt>
      <trkpt lat="46.35998" lon="6.00751">
        <ele>1425.6</ele>
        <time>2022-07-07T07:36:11Z</time>
      </trkpt>
      <trkpt lat="46.35993" lon="6.00748">
        <ele>1425.4</ele>
        <time>2022-07-07T07:36:19Z</time>
      </trkpt>
      <trkpt lat="46.35988" lon="6.00748">
        <ele>1425.8</ele>
        <time>2022-07-07T07:36:23Z</time>
      </trkpt>
      <trkpt lat="46.35983" lon="6.00746">
        <ele>1426.5</ele>
        <time>2022-07-07T07:36:28Z</time>
      </trkpt>
      <trkpt lat="46.35979" lon="6.00742">
        <ele>1427.9</ele>
        <time>2022-07-07T07:36:32Z</time>
      </trkpt>
      <trkpt lat="46.35975" lon="6.00736">
        <ele>1430.3</ele>
        <time>2022-07-07T07:36:37Z</time>
      </trkpt>
      <trkpt lat="46.35971" lon="6.00735">
        <ele>1434.9</ele>
        <time>2022-07-07T07:36:46Z</time>
      </trkpt>
      <trkpt lat="46.35968" lon="6.00729">
        <ele>1436</ele>
        <time>2022-07-07T07:36:52Z</time>
      </trkpt>
      <trkpt lat="46.35964" lon="6.00733">
        <ele>1437.6</ele>
        <time>2022-07-07T07:37:00Z</time>
      </trkpt>
      <trkpt lat="46.35959" lon="6.00736">
        <ele>1437.8</ele>
        <time>2022-07-07T07:37:05Z</time>
      </trkpt>
      <trkpt lat="46.35956" lon="6.00741">
        <ele>1437.6</ele>
        <time>2022-07-07T07:37:09Z</time>
      </trkpt>
      <trkpt lat="46.35953" lon="6.00747">
        <ele>1437</ele>
        <time>2022-07-07T07:37:14Z</time>
      </trkpt>
      <trkpt lat="46.35949" lon="6.0075">
        <ele>1436.4</ele>
        <time>2022-07-07T07:37:19Z</time>
      </trkpt>
      <trkpt lat="46.35945" lon="6.00753">
        <ele>1436</ele>
        <time>2022-07-07T07:37:24Z</time>
      </trkpt>
      <trkpt lat="46.35942" lon="6.00759">
        <ele>1435.3</ele>
        <time>2022-07-07T07:37:30Z</time>
      </trkpt>
      <trkpt lat="46.35938" lon="6.00764">
        <ele>1434.6</ele>
        <time>2022-07-07T07:37:45Z</time>
      </trkpt>
      <trkpt lat="46.35934" lon="6.00768">
        <ele>1434.4</ele>
        <time>2022-07-07T07:37:54Z</time>
      </trkpt>
      <trkpt lat="46.35929" lon="6.00769">
        <ele>1434.9</ele>
        <time>2022-07-07T07:38:01Z</time>
      </trkpt>
      <trkpt lat="46.35925" lon="6.00764">
        <ele>1435.7</ele>
        <time>2022-07-07T07:38:09Z</time>
      </trkpt>
      <trkpt lat="46.35926" lon="6.00757">
        <ele>1436.1</ele>
        <time>2022-07-07T07:38:14Z</time>
      </trkpt>
      <trkpt lat="46.35924" lon="6.00751">
        <ele>1436.5</ele>
        <time>2022-07-07T07:38:20Z</time>
      </trkpt>
      <trkpt lat="46.35922" lon="6.00744">
        <ele>1437.3</ele>
        <time>2022-07-07T07:38:26Z</time>
      </trkpt>
      <trkpt lat="46.35917" lon="6.0074">
        <ele>1437.5</ele>
        <time>2022-07-07T07:38:33Z</time>
      </trkpt>
      <trkpt lat="46.35913" lon="6.00739">
        <ele>1437.4</ele>
        <time>2022-07-07T07:38:40Z</time>
      </trkpt>
      <trkpt lat="46.35909" lon="6.00735">
        <ele>1436.9</ele>
        <time>2022-07-07T07:38:51Z</time>
      </trkpt>
      <trkpt lat="46.35904" lon="6.00732">
        <ele>1437.1</ele>
        <time>2022-07-07T07:38:59Z</time>
      </trkpt>
      <trkpt lat="46.35899" lon="6.00731">
        <ele>1437</ele>
        <time>2022-07-07T07:39:03Z</time>
      </trkpt>
      <trkpt lat="46.35894" lon="6.00731">
        <ele>1436.8</ele>
        <time>2022-07-07T07:39:11Z</time>
      </trkpt>
      <trkpt lat="46.3589" lon="6.00728">
        <ele>1437</ele>
        <time>2022-07-07T07:39:18Z</time>
      </trkpt>
      <trkpt lat="46.35891" lon="6.00721">
        <ele>1436.5</ele>
        <time>2022-07-07T07:39:44Z</time>
      </trkpt>
      <trkpt lat="46.35887" lon="6.00719">
        <ele>1437.1</ele>
        <time>2022-07-07T07:39:52Z</time>
      </trkpt>
      <trkpt lat="46.35882" lon="6.00719">
        <ele>1437.5</ele>
        <time>2022-07-07T07:39:56Z</time>
      </trkpt>
      <trkpt lat="46.35877" lon="6.00719">
        <ele>1437.7</ele>
        <time>2022-07-07T07:40:00Z</time>
      </trkpt>
      <trkpt lat="46.35873" lon="6.00717">
        <ele>1437.8</ele>
        <time>2022-07-07T07:40:06Z</time>
      </trkpt>
      <trkpt lat="46.35868" lon="6.00714">
        <ele>1438.5</ele>
        <time>2022-07-07T07:40:12Z</time>
      </trkpt>
      <trkpt lat="46.35864" lon="6.00713">
        <ele>1439.1</ele>
        <time>2022-07-07T07:40:17Z</time>
      </trkpt>
      <trkpt lat="46.35859" lon="6.00712">
        <ele>1440.8</ele>
        <time>2022-07-07T07:40:25Z</time>
      </trkpt>
      <trkpt lat="46.35854" lon="6.00714">
        <ele>1442.2</ele>
        <time>2022-07-07T07:40:33Z</time>
      </trkpt>
      <trkpt lat="46.35849" lon="6.00715">
        <ele>1443.4</ele>
        <time>2022-07-07T07:40:42Z</time>
      </trkpt>
      <trkpt lat="46.35845" lon="6.00716">
        <ele>1444</ele>
        <time>2022-07-07T07:40:49Z</time>
      </trkpt>
      <trkpt lat="46.3584" lon="6.00719">
        <ele>1444.3</ele>
        <time>2022-07-07T07:40:55Z</time>
      </trkpt>
      <trkpt lat="46.35835" lon="6.00722">
        <ele>1444.7</ele>
        <time>2022-07-07T07:40:59Z</time>
      </trkpt>
      <trkpt lat="46.35832" lon="6.00726">
        <ele>1445.1</ele>
        <time>2022-07-07T07:41:04Z</time>
      </trkpt>
      <trkpt lat="46.3583" lon="6.00733">
        <ele>1445.5</ele>
        <time>2022-07-07T07:41:12Z</time>
      </trkpt>
      <trkpt lat="46.3583" lon="6.00739">
        <ele>1445.9</ele>
        <time>2022-07-07T07:41:21Z</time>
      </trkpt>
      <trkpt lat="46.35832" lon="6.00746">
        <ele>1445.8</ele>
        <time>2022-07-07T07:41:28Z</time>
      </trkpt>
      <trkpt lat="46.3583" lon="6.00753">
        <ele>1446</ele>
        <time>2022-07-07T07:41:35Z</time>
      </trkpt>
      <trkpt lat="46.35829" lon="6.00759">
        <ele>1446.6</ele>
        <time>2022-07-07T07:41:43Z</time>
      </trkpt>
      <trkpt lat="46.35825" lon="6.00765">
        <ele>1446.9</ele>
        <time>2022-07-07T07:41:48Z</time>
      </trkpt>
      <trkpt lat="46.35821" lon="6.00768">
        <ele>1447.6</ele>
        <time>2022-07-07T07:41:53Z</time>
      </trkpt>
      <trkpt lat="46.35817" lon="6.00769">
        <ele>1448.2</ele>
        <time>2022-07-07T07:41:59Z</time>
      </trkpt>
      <trkpt lat="46.35813" lon="6.00773">
        <ele>1448.7</ele>
        <time>2022-07-07T07:42:07Z</time>
      </trkpt>
      <trkpt lat="46.3581" lon="6.00779">
        <ele>1448.6</ele>
        <time>2022-07-07T07:42:40Z</time>
      </trkpt>
      <trkpt lat="46.35811" lon="6.00785">
        <ele>1449.2</ele>
        <time>2022-07-07T07:43:34Z</time>
      </trkpt>
      <trkpt lat="46.35811" lon="6.00777">
        <ele>1450.4</ele>
        <time>2022-07-07T07:43:58Z</time>
      </trkpt>
      <trkpt lat="46.35808" lon="6.00782">
        <ele>1452.3</ele>
        <time>2022-07-07T07:44:21Z</time>
      </trkpt>
      <trkpt lat="46.35805" lon="6.00787">
        <ele>1452.4</ele>
        <time>2022-07-07T07:44:29Z</time>
      </trkpt>
      <trkpt lat="46.35803" lon="6.00794">
        <ele>1452.8</ele>
        <time>2022-07-07T07:44:38Z</time>
      </trkpt>
      <trkpt lat="46.358" lon="6.008">
        <ele>1453.3</ele>
        <time>2022-07-07T07:44:43Z</time>
      </trkpt>
      <trkpt lat="46.35797" lon="6.00806">
        <ele>1453.8</ele>
        <time>2022-07-07T07:44:48Z</time>
      </trkpt>
      <trkpt lat="46.35793" lon="6.00811">
        <ele>1454.1</ele>
        <time>2022-07-07T07:44:53Z</time>
      </trkpt>
      <trkpt lat="46.35789" lon="6.00811">
        <ele>1454.9</ele>
        <time>2022-07-07T07:45:00Z</time>
      </trkpt>
      <trkpt lat="46.35789" lon="6.00805">
        <ele>1456</ele>
        <time>2022-07-07T07:46:55Z</time>
      </trkpt>
      <trkpt lat="46.35788" lon="6.00811">
        <ele>1460.7</ele>
        <time>2022-07-07T07:48:05Z</time>
      </trkpt>
      <trkpt lat="46.35783" lon="6.00808">
        <ele>1456.9</ele>
        <time>2022-07-07T07:49:08Z</time>
      </trkpt>
      <trkpt lat="46.35778" lon="6.00807">
        <ele>1456.2</ele>
        <time>2022-07-07T07:49:13Z</time>
      </trkpt>
      <trkpt lat="46.35773" lon="6.00807">
        <ele>1455.9</ele>
        <time>2022-07-07T07:49:19Z</time>
      </trkpt>
      <trkpt lat="46.35768" lon="6.00806">
        <ele>1455.5</ele>
        <time>2022-07-07T07:49:25Z</time>
      </trkpt>
      <trkpt lat="46.35764" lon="6.00801">
        <ele>1455.8</ele>
        <time>2022-07-07T07:49:30Z</time>
      </trkpt>
      <trkpt lat="46.35761" lon="6.00796">
        <ele>1457.1</ele>
        <time>2022-07-07T07:49:36Z</time>
      </trkpt>
      <trkpt lat="46.3576" lon="6.0079">
        <ele>1459.1</ele>
        <time>2022-07-07T07:49:43Z</time>
      </trkpt>
      <trkpt lat="46.35759" lon="6.00783">
        <ele>1460.9</ele>
        <time>2022-07-07T07:49:49Z</time>
      </trkpt>
      <trkpt lat="46.35756" lon="6.00778">
        <ele>1461.8</ele>
        <time>2022-07-07T07:49:54Z</time>
      </trkpt>
      <trkpt lat="46.35751" lon="6.00774">
        <ele>1462.5</ele>
        <time>2022-07-07T07:49:58Z</time>
      </trkpt>
      <trkpt lat="46.35746" lon="6.00771">
        <ele>1462.9</ele>
        <time>2022-07-07T07:50:02Z</time>
      </trkpt>
      <trkpt lat="46.35742" lon="6.00767">
        <ele>1463.3</ele>
        <time>2022-07-07T07:50:08Z</time>
      </trkpt>
      <trkpt lat="46.35738" lon="6.00763">
        <ele>1463.5</ele>
        <time>2022-07-07T07:50:13Z</time>
      </trkpt>
      <trkpt lat="46.35733" lon="6.00758">
        <ele>1463.9</ele>
        <time>2022-07-07T07:50:17Z</time>
      </trkpt>
      <trkpt lat="46.35728" lon="6.00756">
        <ele>1464.6</ele>
        <time>2022-07-07T07:50:21Z</time>
      </trkpt>
      <trkpt lat="46.35723" lon="6.00753">
        <ele>1465.2</ele>
        <time>2022-07-07T07:50:25Z</time>
      </trkpt>
      <trkpt lat="46.35719" lon="6.00748">
        <ele>1465.4</ele>
        <time>2022-07-07T07:50:30Z</time>
      </trkpt>
      <trkpt lat="46.35714" lon="6.00747">
        <ele>1465.1</ele>
        <time>2022-07-07T07:50:35Z</time>
      </trkpt>
      <trkpt lat="46.3571" lon="6.00742">
        <ele>1464.8</ele>
        <time>2022-07-07T07:50:41Z</time>
      </trkpt>
      <trkpt lat="46.35706" lon="6.00738">
        <ele>1464.9</ele>
        <time>2022-07-07T07:50:46Z</time>
      </trkpt>
      <trkpt lat="46.35702" lon="6.00733">
        <ele>1465.2</ele>
        <time>2022-07-07T07:50:51Z</time>
      </trkpt>
      <trkpt lat="46.35698" lon="6.00728">
        <ele>1464.9</ele>
        <time>2022-07-07T07:50:56Z</time>
      </trkpt>
      <trkpt lat="46.35695" lon="6.00723">
        <ele>1464.7</ele>
        <time>2022-07-07T07:51:01Z</time>
      </trkpt>
      <trkpt lat="46.35692" lon="6.00717">
        <ele>1464</ele>
        <time>2022-07-07T07:51:06Z</time>
      </trkpt>
      <trkpt lat="46.35691" lon="6.00711">
        <ele>1463.2</ele>
        <time>2022-07-07T07:51:12Z</time>
      </trkpt>
      <trkpt lat="46.35689" lon="6.00705">
        <ele>1462.2</ele>
        <time>2022-07-07T07:51:17Z</time>
      </trkpt>
      <trkpt lat="46.35685" lon="6.007">
        <ele>1461.1</ele>
        <time>2022-07-07T07:51:22Z</time>
      </trkpt>
      <trkpt lat="46.35684" lon="6.00693">
        <ele>1460.3</ele>
        <time>2022-07-07T07:51:27Z</time>
      </trkpt>
      <trkpt lat="46.35683" lon="6.00687">
        <ele>1459.3</ele>
        <time>2022-07-07T07:51:33Z</time>
      </trkpt>
      <trkpt lat="46.35682" lon="6.00679">
        <ele>1458.9</ele>
        <time>2022-07-07T07:51:38Z</time>
      </trkpt>
      <trkpt lat="46.35682" lon="6.00673">
        <ele>1459.2</ele>
        <time>2022-07-07T07:51:43Z</time>
      </trkpt>
      <trkpt lat="46.35679" lon="6.00667">
        <ele>1459.5</ele>
        <time>2022-07-07T07:51:49Z</time>
      </trkpt>
      <trkpt lat="46.35677" lon="6.0066">
        <ele>1459.8</ele>
        <time>2022-07-07T07:51:55Z</time>
      </trkpt>
      <trkpt lat="46.35676" lon="6.00654">
        <ele>1459.9</ele>
        <time>2022-07-07T07:52:00Z</time>
      </trkpt>
      <trkpt lat="46.35674" lon="6.00646">
        <ele>1460.1</ele>
        <time>2022-07-07T07:52:04Z</time>
      </trkpt>
      <trkpt lat="46.35673" lon="6.00639">
        <ele>1460.8</ele>
        <time>2022-07-07T07:52:08Z</time>
      </trkpt>
      <trkpt lat="46.35673" lon="6.00632">
        <ele>1461.3</ele>
        <time>2022-07-07T07:52:12Z</time>
      </trkpt>
      <trkpt lat="46.35672" lon="6.00625">
        <ele>1462.1</ele>
        <time>2022-07-07T07:52:17Z</time>
      </trkpt>
      <trkpt lat="46.3567" lon="6.00619">
        <ele>1462.9</ele>
        <time>2022-07-07T07:52:23Z</time>
      </trkpt>
      <trkpt lat="46.35667" lon="6.00614">
        <ele>1463.3</ele>
        <time>2022-07-07T07:52:29Z</time>
      </trkpt>
      <trkpt lat="46.35664" lon="6.00608">
        <ele>1463.3</ele>
        <time>2022-07-07T07:52:34Z</time>
      </trkpt>
      <trkpt lat="46.35661" lon="6.00602">
        <ele>1463.1</ele>
        <time>2022-07-07T07:52:39Z</time>
      </trkpt>
      <trkpt lat="46.35658" lon="6.00595">
        <ele>1463.2</ele>
        <time>2022-07-07T07:52:44Z</time>
      </trkpt>
      <trkpt lat="46.35656" lon="6.00589">
        <ele>1462.9</ele>
        <time>2022-07-07T07:52:49Z</time>
      </trkpt>
      <trkpt lat="46.35652" lon="6.00584">
        <ele>1462</ele>
        <time>2022-07-07T07:52:56Z</time>
      </trkpt>
      <trkpt lat="46.35648" lon="6.0058">
        <ele>1461.3</ele>
        <time>2022-07-07T07:53:02Z</time>
      </trkpt>
      <trkpt lat="46.35643" lon="6.00575">
        <ele>1461.1</ele>
        <time>2022-07-07T07:53:07Z</time>
      </trkpt>
      <trkpt lat="46.35639" lon="6.00571">
        <ele>1461</ele>
        <time>2022-07-07T07:53:12Z</time>
      </trkpt>
      <trkpt lat="46.35634" lon="6.00568">
        <ele>1461.2</ele>
        <time>2022-07-07T07:53:17Z</time>
      </trkpt>
      <trkpt lat="46.35631" lon="6.00564">
        <ele>1461.5</ele>
        <time>2022-07-07T07:53:21Z</time>
      </trkpt>
      <trkpt lat="46.35628" lon="6.00557">
        <ele>1462.1</ele>
        <time>2022-07-07T07:53:26Z</time>
      </trkpt>
      <trkpt lat="46.35625" lon="6.00552">
        <ele>1462.9</ele>
        <time>2022-07-07T07:53:31Z</time>
      </trkpt>
      <trkpt lat="46.35621" lon="6.00548">
        <ele>1463.3</ele>
        <time>2022-07-07T07:53:36Z</time>
      </trkpt>
      <trkpt lat="46.35616" lon="6.00546">
        <ele>1463.5</ele>
        <time>2022-07-07T07:53:41Z</time>
      </trkpt>
      <trkpt lat="46.35612" lon="6.00544">
        <ele>1463.3</ele>
        <time>2022-07-07T07:53:47Z</time>
      </trkpt>
      <trkpt lat="46.35607" lon="6.00541">
        <ele>1463.3</ele>
        <time>2022-07-07T07:53:51Z</time>
      </trkpt>
      <trkpt lat="46.35603" lon="6.00539">
        <ele>1463.8</ele>
        <time>2022-07-07T07:53:56Z</time>
      </trkpt>
      <trkpt lat="46.35598" lon="6.00537">
        <ele>1463.9</ele>
        <time>2022-07-07T07:54:02Z</time>
      </trkpt>
      <trkpt lat="46.35593" lon="6.00538">
        <ele>1463.6</ele>
        <time>2022-07-07T07:54:08Z</time>
      </trkpt>
      <trkpt lat="46.35588" lon="6.00538">
        <ele>1463.3</ele>
        <time>2022-07-07T07:54:13Z</time>
      </trkpt>
      <trkpt lat="46.35583" lon="6.00539">
        <ele>1463.3</ele>
        <time>2022-07-07T07:54:18Z</time>
      </trkpt>
      <trkpt lat="46.35579" lon="6.00543">
        <ele>1463.5</ele>
        <time>2022-07-07T07:54:23Z</time>
      </trkpt>
      <trkpt lat="46.35575" lon="6.00547">
        <ele>1463.9</ele>
        <time>2022-07-07T07:54:28Z</time>
      </trkpt>
      <trkpt lat="46.35572" lon="6.00553">
        <ele>1463.6</ele>
        <time>2022-07-07T07:54:34Z</time>
      </trkpt>
      <trkpt lat="46.35567" lon="6.00557">
        <ele>1463.1</ele>
        <time>2022-07-07T07:54:41Z</time>
      </trkpt>
      <trkpt lat="46.35564" lon="6.00563">
        <ele>1462.9</ele>
        <time>2022-07-07T07:54:46Z</time>
      </trkpt>
      <trkpt lat="46.3556" lon="6.00567">
        <ele>1463</ele>
        <time>2022-07-07T07:54:50Z</time>
      </trkpt>
      <trkpt lat="46.35556" lon="6.00572">
        <ele>1463.2</ele>
        <time>2022-07-07T07:54:54Z</time>
      </trkpt>
      <trkpt lat="46.35552" lon="6.00575">
        <ele>1463.5</ele>
        <time>2022-07-07T07:55:01Z</time>
      </trkpt>
      <trkpt lat="46.35547" lon="6.00577">
        <ele>1463.9</ele>
        <time>2022-07-07T07:55:06Z</time>
      </trkpt>
      <trkpt lat="46.35543" lon="6.0058">
        <ele>1464.1</ele>
        <time>2022-07-07T07:55:10Z</time>
      </trkpt>
      <trkpt lat="46.35538" lon="6.00582">
        <ele>1464.8</ele>
        <time>2022-07-07T07:55:15Z</time>
      </trkpt>
      <trkpt lat="46.35533" lon="6.00582">
        <ele>1465.6</ele>
        <time>2022-07-07T07:55:20Z</time>
      </trkpt>
      <trkpt lat="46.35529" lon="6.00582">
        <ele>1466.3</ele>
        <time>2022-07-07T07:55:26Z</time>
      </trkpt>
      <trkpt lat="46.35523" lon="6.00582">
        <ele>1466.9</ele>
        <time>2022-07-07T07:55:32Z</time>
      </trkpt>
      <trkpt lat="46.35518" lon="6.00581">
        <ele>1467.2</ele>
        <time>2022-07-07T07:55:38Z</time>
      </trkpt>
      <trkpt lat="46.35514" lon="6.0058">
        <ele>1467.5</ele>
        <time>2022-07-07T07:55:43Z</time>
      </trkpt>
      <trkpt lat="46.3551" lon="6.00576">
        <ele>1467.7</ele>
        <time>2022-07-07T07:55:48Z</time>
      </trkpt>
      <trkpt lat="46.35507" lon="6.0057">
        <ele>1467.7</ele>
        <time>2022-07-07T07:55:53Z</time>
      </trkpt>
      <trkpt lat="46.35505" lon="6.00563">
        <ele>1467.7</ele>
        <time>2022-07-07T07:55:59Z</time>
      </trkpt>
      <trkpt lat="46.35505" lon="6.00556">
        <ele>1467.5</ele>
        <time>2022-07-07T07:56:05Z</time>
      </trkpt>
      <trkpt lat="46.35507" lon="6.00549">
        <ele>1467.5</ele>
        <time>2022-07-07T07:56:10Z</time>
      </trkpt>
      <trkpt lat="46.35508" lon="6.00542">
        <ele>1468</ele>
        <time>2022-07-07T07:56:14Z</time>
      </trkpt>
      <trkpt lat="46.35509" lon="6.00536">
        <ele>1468.5</ele>
        <time>2022-07-07T07:56:18Z</time>
      </trkpt>
      <trkpt lat="46.35511" lon="6.00529">
        <ele>1469</ele>
        <time>2022-07-07T07:56:23Z</time>
      </trkpt>
      <trkpt lat="46.35513" lon="6.00522">
        <ele>1469.4</ele>
        <time>2022-07-07T07:56:28Z</time>
      </trkpt>
      <trkpt lat="46.35512" lon="6.00515">
        <ele>1469.9</ele>
        <time>2022-07-07T07:56:33Z</time>
      </trkpt>
      <trkpt lat="46.35508" lon="6.0051">
        <ele>1470.4</ele>
        <time>2022-07-07T07:56:39Z</time>
      </trkpt>
      <trkpt lat="46.35503" lon="6.00511">
        <ele>1470.3</ele>
        <time>2022-07-07T07:56:44Z</time>
      </trkpt>
      <trkpt lat="46.35498" lon="6.00514">
        <ele>1470</ele>
        <time>2022-07-07T07:56:48Z</time>
      </trkpt>
      <trkpt lat="46.35494" lon="6.00516">
        <ele>1469.6</ele>
        <time>2022-07-07T07:56:53Z</time>
      </trkpt>
      <trkpt lat="46.35489" lon="6.00517">
        <ele>1469</ele>
        <time>2022-07-07T07:56:58Z</time>
      </trkpt>
      <trkpt lat="46.35484" lon="6.00515">
        <ele>1468.3</ele>
        <time>2022-07-07T07:57:03Z</time>
      </trkpt>
      <trkpt lat="46.35479" lon="6.00513">
        <ele>1467.3</ele>
        <time>2022-07-07T07:57:09Z</time>
      </trkpt>
      <trkpt lat="46.35474" lon="6.0051">
        <ele>1466.8</ele>
        <time>2022-07-07T07:57:14Z</time>
      </trkpt>
      <trkpt lat="46.3547" lon="6.00507">
        <ele>1466.9</ele>
        <time>2022-07-07T07:57:18Z</time>
      </trkpt>
      <trkpt lat="46.35466" lon="6.00504">
        <ele>1467.4</ele>
        <time>2022-07-07T07:57:23Z</time>
      </trkpt>
      <trkpt lat="46.35461" lon="6.00503">
        <ele>1467.6</ele>
        <time>2022-07-07T07:57:28Z</time>
      </trkpt>
      <trkpt lat="46.35457" lon="6.00504">
        <ele>1467.7</ele>
        <time>2022-07-07T07:57:32Z</time>
      </trkpt>
      <trkpt lat="46.35452" lon="6.00505">
        <ele>1467.8</ele>
        <time>2022-07-07T07:57:37Z</time>
      </trkpt>
      <trkpt lat="46.35447" lon="6.00506">
        <ele>1467.6</ele>
        <time>2022-07-07T07:57:42Z</time>
      </trkpt>
      <trkpt lat="46.35441" lon="6.00507">
        <ele>1467.1</ele>
        <time>2022-07-07T07:57:47Z</time>
      </trkpt>
      <trkpt lat="46.35436" lon="6.00507">
        <ele>1466.5</ele>
        <time>2022-07-07T07:57:52Z</time>
      </trkpt>
      <trkpt lat="46.35431" lon="6.00504">
        <ele>1465.9</ele>
        <time>2022-07-07T07:57:57Z</time>
      </trkpt>
      <trkpt lat="46.35428" lon="6.00498">
        <ele>1466.1</ele>
        <time>2022-07-07T07:58:02Z</time>
      </trkpt>
      <trkpt lat="46.35423" lon="6.00494">
        <ele>1466.7</ele>
        <time>2022-07-07T07:58:06Z</time>
      </trkpt>
      <trkpt lat="46.3542" lon="6.00489">
        <ele>1467.5</ele>
        <time>2022-07-07T07:58:11Z</time>
      </trkpt>
      <trkpt lat="46.35417" lon="6.00484">
        <ele>1468.2</ele>
        <time>2022-07-07T07:58:17Z</time>
      </trkpt>
      <trkpt lat="46.35413" lon="6.00479">
        <ele>1468.7</ele>
        <time>2022-07-07T07:58:23Z</time>
      </trkpt>
      <trkpt lat="46.35408" lon="6.00476">
        <ele>1469.4</ele>
        <time>2022-07-07T07:58:28Z</time>
      </trkpt>
      <trkpt lat="46.35403" lon="6.00476">
        <ele>1470</ele>
        <time>2022-07-07T07:58:33Z</time>
      </trkpt>
      <trkpt lat="46.35399" lon="6.00477">
        <ele>1470.5</ele>
        <time>2022-07-07T07:58:38Z</time>
      </trkpt>
      <trkpt lat="46.35394" lon="6.00479">
        <ele>1471.2</ele>
        <time>2022-07-07T07:58:43Z</time>
      </trkpt>
      <trkpt lat="46.35389" lon="6.00482">
        <ele>1472</ele>
        <time>2022-07-07T07:58:47Z</time>
      </trkpt>
      <trkpt lat="46.35384" lon="6.00484">
        <ele>1472.8</ele>
        <time>2022-07-07T07:58:53Z</time>
      </trkpt>
      <trkpt lat="46.3538" lon="6.00488">
        <ele>1473.1</ele>
        <time>2022-07-07T07:58:58Z</time>
      </trkpt>
      <trkpt lat="46.35375" lon="6.00491">
        <ele>1473</ele>
        <time>2022-07-07T07:59:03Z</time>
      </trkpt>
      <trkpt lat="46.3537" lon="6.00494">
        <ele>1473.2</ele>
        <time>2022-07-07T07:59:09Z</time>
      </trkpt>
      <trkpt lat="46.35366" lon="6.00496">
        <ele>1473.7</ele>
        <time>2022-07-07T07:59:15Z</time>
      </trkpt>
      <trkpt lat="46.35361" lon="6.005">
        <ele>1474</ele>
        <time>2022-07-07T07:59:20Z</time>
      </trkpt>
      <trkpt lat="46.35356" lon="6.00503">
        <ele>1473.8</ele>
        <time>2022-07-07T07:59:25Z</time>
      </trkpt>
      <trkpt lat="46.35351" lon="6.00503">
        <ele>1473.4</ele>
        <time>2022-07-07T07:59:30Z</time>
      </trkpt>
      <trkpt lat="46.35347" lon="6.00504">
        <ele>1472.6</ele>
        <time>2022-07-07T07:59:35Z</time>
      </trkpt>
      <trkpt lat="46.35341" lon="6.00503">
        <ele>1472.4</ele>
        <time>2022-07-07T07:59:41Z</time>
      </trkpt>
      <trkpt lat="46.35336" lon="6.00502">
        <ele>1472.6</ele>
        <time>2022-07-07T07:59:46Z</time>
      </trkpt>
      <trkpt lat="46.35333" lon="6.00499">
        <ele>1472.6</ele>
        <time>2022-07-07T07:59:50Z</time>
      </trkpt>
      <trkpt lat="46.35329" lon="6.00493">
        <ele>1472.7</ele>
        <time>2022-07-07T07:59:55Z</time>
      </trkpt>
      <trkpt lat="46.35327" lon="6.00487">
        <ele>1472.4</ele>
        <time>2022-07-07T08:00:00Z</time>
      </trkpt>
      <trkpt lat="46.35324" lon="6.00481">
        <ele>1471.9</ele>
        <time>2022-07-07T08:00:06Z</time>
      </trkpt>
      <trkpt lat="46.35323" lon="6.00473">
        <ele>1471.8</ele>
        <time>2022-07-07T08:00:11Z</time>
      </trkpt>
      <trkpt lat="46.35322" lon="6.00466">
        <ele>1471.7</ele>
        <time>2022-07-07T08:00:16Z</time>
      </trkpt>
      <trkpt lat="46.3532" lon="6.0046">
        <ele>1471.5</ele>
        <time>2022-07-07T08:00:21Z</time>
      </trkpt>
      <trkpt lat="46.35317" lon="6.00453">
        <ele>1471.2</ele>
        <time>2022-07-07T08:00:26Z</time>
      </trkpt>
      <trkpt lat="46.35314" lon="6.00447">
        <ele>1471</ele>
        <time>2022-07-07T08:00:31Z</time>
      </trkpt>
      <trkpt lat="46.3531" lon="6.00443">
        <ele>1471.3</ele>
        <time>2022-07-07T08:00:40Z</time>
      </trkpt>
      <trkpt lat="46.35305" lon="6.00443">
        <ele>1471.1</ele>
        <time>2022-07-07T08:00:46Z</time>
      </trkpt>
      <trkpt lat="46.35301" lon="6.00446">
        <ele>1470.9</ele>
        <time>2022-07-07T08:00:52Z</time>
      </trkpt>
      <trkpt lat="46.35296" lon="6.00448">
        <ele>1471.7</ele>
        <time>2022-07-07T08:00:57Z</time>
      </trkpt>
      <trkpt lat="46.35292" lon="6.00452">
        <ele>1472.7</ele>
        <time>2022-07-07T08:01:01Z</time>
      </trkpt>
      <trkpt lat="46.35287" lon="6.00456">
        <ele>1473.9</ele>
        <time>2022-07-07T08:01:06Z</time>
      </trkpt>
      <trkpt lat="46.35283" lon="6.0046">
        <ele>1474.8</ele>
        <time>2022-07-07T08:01:11Z</time>
      </trkpt>
      <trkpt lat="46.35278" lon="6.00462">
        <ele>1475.2</ele>
        <time>2022-07-07T08:01:16Z</time>
      </trkpt>
      <trkpt lat="46.35274" lon="6.00463">
        <ele>1475.5</ele>
        <time>2022-07-07T08:01:21Z</time>
      </trkpt>
      <trkpt lat="46.35269" lon="6.00464">
        <ele>1475.5</ele>
        <time>2022-07-07T08:01:28Z</time>
      </trkpt>
      <trkpt lat="46.35264" lon="6.00464">
        <ele>1475.1</ele>
        <time>2022-07-07T08:01:34Z</time>
      </trkpt>
      <trkpt lat="46.35259" lon="6.00463">
        <ele>1474.7</ele>
        <time>2022-07-07T08:01:39Z</time>
      </trkpt>
      <trkpt lat="46.35254" lon="6.00462">
        <ele>1474.3</ele>
        <time>2022-07-07T08:01:45Z</time>
      </trkpt>
      <trkpt lat="46.3525" lon="6.00462">
        <ele>1474.5</ele>
        <time>2022-07-07T08:01:51Z</time>
      </trkpt>
      <trkpt lat="46.35245" lon="6.00462">
        <ele>1474.7</ele>
        <time>2022-07-07T08:02:03Z</time>
      </trkpt>
      <trkpt lat="46.3524" lon="6.00466">
        <ele>1474.8</ele>
        <time>2022-07-07T08:02:09Z</time>
      </trkpt>
      <trkpt lat="46.35236" lon="6.0047">
        <ele>1474.7</ele>
        <time>2022-07-07T08:02:14Z</time>
      </trkpt>
      <trkpt lat="46.35231" lon="6.00472">
        <ele>1475</ele>
        <time>2022-07-07T08:02:19Z</time>
      </trkpt>
      <trkpt lat="46.35227" lon="6.00475">
        <ele>1475.2</ele>
        <time>2022-07-07T08:02:25Z</time>
      </trkpt>
      <trkpt lat="46.35223" lon="6.00479">
        <ele>1475.8</ele>
        <time>2022-07-07T08:02:33Z</time>
      </trkpt>
      <trkpt lat="46.35219" lon="6.00483">
        <ele>1476.4</ele>
        <time>2022-07-07T08:02:39Z</time>
      </trkpt>
      <trkpt lat="46.35214" lon="6.00485">
        <ele>1476.9</ele>
        <time>2022-07-07T08:02:46Z</time>
      </trkpt>
      <trkpt lat="46.3521" lon="6.00488">
        <ele>1477.6</ele>
        <time>2022-07-07T08:02:53Z</time>
      </trkpt>
      <trkpt lat="46.35207" lon="6.00492">
        <ele>1478.1</ele>
        <time>2022-07-07T08:03:01Z</time>
      </trkpt>
      <trkpt lat="46.35202" lon="6.00494">
        <ele>1478.3</ele>
        <time>2022-07-07T08:03:07Z</time>
      </trkpt>
      <trkpt lat="46.35198" lon="6.00493">
        <ele>1479.1</ele>
        <time>2022-07-07T08:03:14Z</time>
      </trkpt>
      <trkpt lat="46.35193" lon="6.00495">
        <ele>1480.7</ele>
        <time>2022-07-07T08:03:22Z</time>
      </trkpt>
      <trkpt lat="46.35188" lon="6.00498">
        <ele>1481.8</ele>
        <time>2022-07-07T08:03:29Z</time>
      </trkpt>
      <trkpt lat="46.35183" lon="6.00496">
        <ele>1483.6</ele>
        <time>2022-07-07T08:03:38Z</time>
      </trkpt>
      <trkpt lat="46.35179" lon="6.00493">
        <ele>1485.1</ele>
        <time>2022-07-07T08:03:45Z</time>
      </trkpt>
      <trkpt lat="46.35174" lon="6.00492">
        <ele>1486.9</ele>
        <time>2022-07-07T08:03:56Z</time>
      </trkpt>
      <trkpt lat="46.3517" lon="6.00488">
        <ele>1487.3</ele>
        <time>2022-07-07T08:04:06Z</time>
      </trkpt>
      <trkpt lat="46.35166" lon="6.0049">
        <ele>1488.5</ele>
        <time>2022-07-07T08:04:14Z</time>
      </trkpt>
      <trkpt lat="46.35161" lon="6.00493">
        <ele>1489.8</ele>
        <time>2022-07-07T08:04:21Z</time>
      </trkpt>
      <trkpt lat="46.35156" lon="6.00495">
        <ele>1491.1</ele>
        <time>2022-07-07T08:04:42Z</time>
      </trkpt>
      <trkpt lat="46.35151" lon="6.00495">
        <ele>1489.9</ele>
        <time>2022-07-07T08:04:47Z</time>
      </trkpt>
      <trkpt lat="46.35146" lon="6.00493">
        <ele>1488.9</ele>
        <time>2022-07-07T08:04:54Z</time>
      </trkpt>
      <trkpt lat="46.35141" lon="6.00495">
        <ele>1488.9</ele>
        <time>2022-07-07T08:05:02Z</time>
      </trkpt>
      <trkpt lat="46.35137" lon="6.00499">
        <ele>1488.8</ele>
        <time>2022-07-07T08:05:09Z</time>
      </trkpt>
      <trkpt lat="46.35136" lon="6.00505">
        <ele>1488.9</ele>
        <time>2022-07-07T08:05:25Z</time>
      </trkpt>
      <trkpt lat="46.35132" lon="6.00503">
        <ele>1489</ele>
        <time>2022-07-07T08:05:51Z</time>
      </trkpt>
      <trkpt lat="46.35127" lon="6.00501">
        <ele>1488.6</ele>
        <time>2022-07-07T08:05:57Z</time>
      </trkpt>
      <trkpt lat="46.35122" lon="6.005">
        <ele>1488.2</ele>
        <time>2022-07-07T08:06:04Z</time>
      </trkpt>
      <trkpt lat="46.35118" lon="6.00497">
        <ele>1488.7</ele>
        <time>2022-07-07T08:06:14Z</time>
      </trkpt>
      <trkpt lat="46.35115" lon="6.00492">
        <ele>1489.7</ele>
        <time>2022-07-07T08:06:26Z</time>
      </trkpt>
      <trkpt lat="46.3511" lon="6.00491">
        <ele>1490.1</ele>
        <time>2022-07-07T08:06:33Z</time>
      </trkpt>
      <trkpt lat="46.35106" lon="6.00488">
        <ele>1490.8</ele>
        <time>2022-07-07T08:06:42Z</time>
      </trkpt>
      <trkpt lat="46.35101" lon="6.00485">
        <ele>1491</ele>
        <time>2022-07-07T08:06:48Z</time>
      </trkpt>
      <trkpt lat="46.35098" lon="6.00479">
        <ele>1491.6</ele>
        <time>2022-07-07T08:06:54Z</time>
      </trkpt>
      <trkpt lat="46.35093" lon="6.00476">
        <ele>1491.8</ele>
        <time>2022-07-07T08:07:01Z</time>
      </trkpt>
      <trkpt lat="46.35089" lon="6.00472">
        <ele>1492.6</ele>
        <time>2022-07-07T08:07:07Z</time>
      </trkpt>
      <trkpt lat="46.35084" lon="6.0047">
        <ele>1493.7</ele>
        <time>2022-07-07T08:07:15Z</time>
      </trkpt>
      <trkpt lat="46.3508" lon="6.00472">
        <ele>1495.1</ele>
        <time>2022-07-07T08:07:23Z</time>
      </trkpt>
      <trkpt lat="46.35076" lon="6.00476">
        <ele>1496.6</ele>
        <time>2022-07-07T08:07:31Z</time>
      </trkpt>
      <trkpt lat="46.35071" lon="6.00478">
        <ele>1497.8</ele>
        <time>2022-07-07T08:07:41Z</time>
      </trkpt>
      <trkpt lat="46.35067" lon="6.00475">
        <ele>1498.7</ele>
        <time>2022-07-07T08:07:49Z</time>
      </trkpt>
      <trkpt lat="46.35062" lon="6.00476">
        <ele>1499.7</ele>
        <time>2022-07-07T08:07:56Z</time>
      </trkpt>
      <trkpt lat="46.35057" lon="6.00476">
        <ele>1501.8</ele>
        <time>2022-07-07T08:08:12Z</time>
      </trkpt>
      <trkpt lat="46.35053" lon="6.00477">
        <ele>1502.8</ele>
        <time>2022-07-07T08:08:21Z</time>
      </trkpt>
      <trkpt lat="46.35048" lon="6.00475">
        <ele>1503.9</ele>
        <time>2022-07-07T08:08:33Z</time>
      </trkpt>
      <trkpt lat="46.35043" lon="6.00477">
        <ele>1505.8</ele>
        <time>2022-07-07T08:08:47Z</time>
      </trkpt>
      <trkpt lat="46.35039" lon="6.00473">
        <ele>1506.9</ele>
        <time>2022-07-07T08:09:11Z</time>
      </trkpt>
      <trkpt lat="46.35038" lon="6.00466">
        <ele>1507.5</ele>
        <time>2022-07-07T08:09:19Z</time>
      </trkpt>
      <trkpt lat="46.35035" lon="6.00461">
        <ele>1508.8</ele>
        <time>2022-07-07T08:09:29Z</time>
      </trkpt>
      <trkpt lat="46.35031" lon="6.00457">
        <ele>1510.4</ele>
        <time>2022-07-07T08:10:24Z</time>
      </trkpt>
      <trkpt lat="46.35026" lon="6.00461">
        <ele>1512.2</ele>
        <time>2022-07-07T08:12:26Z</time>
      </trkpt>
      <trkpt lat="46.35023" lon="6.00465">
        <ele>1513.7</ele>
        <time>2022-07-07T08:12:36Z</time>
      </trkpt>
      <trkpt lat="46.35019" lon="6.0046">
        <ele>1514.9</ele>
        <time>2022-07-07T08:12:58Z</time>
      </trkpt>
      <trkpt lat="46.35016" lon="6.00455">
        <ele>1515.1</ele>
        <time>2022-07-07T08:13:12Z</time>
      </trkpt>
      <trkpt lat="46.35014" lon="6.00449">
        <ele>1515.7</ele>
        <time>2022-07-07T08:13:20Z</time>
      </trkpt>
      <trkpt lat="46.35012" lon="6.00442">
        <ele>1516.4</ele>
        <time>2022-07-07T08:13:27Z</time>
      </trkpt>
      <trkpt lat="46.3501" lon="6.00436">
        <ele>1517.3</ele>
        <time>2022-07-07T08:13:36Z</time>
      </trkpt>
      <trkpt lat="46.35005" lon="6.00433">
        <ele>1519.1</ele>
        <time>2022-07-07T08:13:52Z</time>
      </trkpt>
      <trkpt lat="46.35001" lon="6.0043">
        <ele>1520</ele>
        <time>2022-07-07T08:14:07Z</time>
      </trkpt>
      <trkpt lat="46.34997" lon="6.00424">
        <ele>1520.2</ele>
        <time>2022-07-07T08:14:17Z</time>
      </trkpt>
      <trkpt lat="46.34993" lon="6.00421">
        <ele>1521.6</ele>
        <time>2022-07-07T08:14:30Z</time>
      </trkpt>
      <trkpt lat="46.34989" lon="6.00417">
        <ele>1522.2</ele>
        <time>2022-07-07T08:14:38Z</time>
      </trkpt>
      <trkpt lat="46.34984" lon="6.00416">
        <ele>1523</ele>
        <time>2022-07-07T08:14:46Z</time>
      </trkpt>
      <trkpt lat="46.34981" lon="6.0042">
        <ele>1524.5</ele>
        <time>2022-07-07T08:14:55Z</time>
      </trkpt>
      <trkpt lat="46.34976" lon="6.00421">
        <ele>1525.5</ele>
        <time>2022-07-07T08:15:06Z</time>
      </trkpt>
      <trkpt lat="46.34972" lon="6.0042">
        <ele>1526.3</ele>
        <time>2022-07-07T08:15:13Z</time>
      </trkpt>
      <trkpt lat="46.34967" lon="6.0042">
        <ele>1528.2</ele>
        <time>2022-07-07T08:15:28Z</time>
      </trkpt>
      <trkpt lat="46.34962" lon="6.00422">
        <ele>1528.4</ele>
        <time>2022-07-07T08:15:34Z</time>
      </trkpt>
      <trkpt lat="46.34958" lon="6.00422">
        <ele>1529.3</ele>
        <time>2022-07-07T08:15:41Z</time>
      </trkpt>
      <trkpt lat="46.34954" lon="6.00418">
        <ele>1530.6</ele>
        <time>2022-07-07T08:15:56Z</time>
      </trkpt>
      <trkpt lat="46.3495" lon="6.00414">
        <ele>1531.1</ele>
        <time>2022-07-07T08:16:03Z</time>
      </trkpt>
      <trkpt lat="46.34946" lon="6.00412">
        <ele>1532.1</ele>
        <time>2022-07-07T08:16:14Z</time>
      </trkpt>
      <trkpt lat="46.34944" lon="6.00405">
        <ele>1533</ele>
        <time>2022-07-07T08:16:25Z</time>
      </trkpt>
      <trkpt lat="46.34943" lon="6.00398">
        <ele>1534.1</ele>
        <time>2022-07-07T08:16:36Z</time>
      </trkpt>
      <trkpt lat="46.3494" lon="6.00394">
        <ele>1536.8</ele>
        <time>2022-07-07T08:16:52Z</time>
      </trkpt>
      <trkpt lat="46.34935" lon="6.00395">
        <ele>1538</ele>
        <time>2022-07-07T08:17:03Z</time>
      </trkpt>
      <trkpt lat="46.34931" lon="6.00394">
        <ele>1539.4</ele>
        <time>2022-07-07T08:17:17Z</time>
      </trkpt>
      <trkpt lat="46.34927" lon="6.00389">
        <ele>1540.1</ele>
        <time>2022-07-07T08:17:30Z</time>
      </trkpt>
      <trkpt lat="46.34924" lon="6.00384">
        <ele>1541.4</ele>
        <time>2022-07-07T08:17:39Z</time>
      </trkpt>
      <trkpt lat="46.34919" lon="6.00385">
        <ele>1542.9</ele>
        <time>2022-07-07T08:17:47Z</time>
      </trkpt>
      <trkpt lat="46.34914" lon="6.00384">
        <ele>1543.9</ele>
        <time>2022-07-07T08:17:55Z</time>
      </trkpt>
      <trkpt lat="46.34909" lon="6.00385">
        <ele>1544.7</ele>
        <time>2022-07-07T08:18:06Z</time>
      </trkpt>
      <trkpt lat="46.34905" lon="6.00386">
        <ele>1545.4</ele>
        <time>2022-07-07T08:18:15Z</time>
      </trkpt>
      <trkpt lat="46.349" lon="6.00389">
        <ele>1546</ele>
        <time>2022-07-07T08:18:23Z</time>
      </trkpt>
      <trkpt lat="46.34895" lon="6.00389">
        <ele>1546.7</ele>
        <time>2022-07-07T08:18:33Z</time>
      </trkpt>
      <trkpt lat="46.34891" lon="6.00388">
        <ele>1547.8</ele>
        <time>2022-07-07T08:18:42Z</time>
      </trkpt>
      <trkpt lat="46.34887" lon="6.00391">
        <ele>1550</ele>
        <time>2022-07-07T08:18:53Z</time>
      </trkpt>
      <trkpt lat="46.34884" lon="6.00398">
        <ele>1551.7</ele>
        <time>2022-07-07T08:19:01Z</time>
      </trkpt>
      <trkpt lat="46.34882" lon="6.00404">
        <ele>1552</ele>
        <time>2022-07-07T08:19:09Z</time>
      </trkpt>
      <trkpt lat="46.34882" lon="6.00411">
        <ele>1552</ele>
        <time>2022-07-07T08:19:31Z</time>
      </trkpt>
      <trkpt lat="46.3488" lon="6.00418">
        <ele>1552.9</ele>
        <time>2022-07-07T08:19:37Z</time>
      </trkpt>
      <trkpt lat="46.34877" lon="6.00424">
        <ele>1553.1</ele>
        <time>2022-07-07T08:19:42Z</time>
      </trkpt>
      <trkpt lat="46.34873" lon="6.00428">
        <ele>1553.5</ele>
        <time>2022-07-07T08:19:47Z</time>
      </trkpt>
      <trkpt lat="46.3487" lon="6.00433">
        <ele>1553.9</ele>
        <time>2022-07-07T08:19:54Z</time>
      </trkpt>
      <trkpt lat="46.34865" lon="6.00436">
        <ele>1555.6</ele>
        <time>2022-07-07T08:20:06Z</time>
      </trkpt>
      <trkpt lat="46.34862" lon="6.0044">
        <ele>1557.9</ele>
        <time>2022-07-07T08:20:14Z</time>
      </trkpt>
      <trkpt lat="46.3486" lon="6.00446">
        <ele>1559.8</ele>
        <time>2022-07-07T08:20:21Z</time>
      </trkpt>
      <trkpt lat="46.34856" lon="6.00452">
        <ele>1561.5</ele>
        <time>2022-07-07T08:20:29Z</time>
      </trkpt>
      <trkpt lat="46.34856" lon="6.00459">
        <ele>1562.2</ele>
        <time>2022-07-07T08:20:38Z</time>
      </trkpt>
      <trkpt lat="46.34855" lon="6.00465">
        <ele>1562.8</ele>
        <time>2022-07-07T08:20:45Z</time>
      </trkpt>
      <trkpt lat="46.34858" lon="6.00472">
        <ele>1564.2</ele>
        <time>2022-07-07T08:20:52Z</time>
      </trkpt>
      <trkpt lat="46.34858" lon="6.00479">
        <ele>1565.5</ele>
        <time>2022-07-07T08:20:59Z</time>
      </trkpt>
      <trkpt lat="46.3486" lon="6.00485">
        <ele>1566</ele>
        <time>2022-07-07T08:21:07Z</time>
      </trkpt>
      <trkpt lat="46.3486" lon="6.00491">
        <ele>1566.5</ele>
        <time>2022-07-07T08:21:17Z</time>
      </trkpt>
      <trkpt lat="46.34861" lon="6.00498">
        <ele>1567.5</ele>
        <time>2022-07-07T08:21:25Z</time>
      </trkpt>
      <trkpt lat="46.3486" lon="6.00505">
        <ele>1569.7</ele>
        <time>2022-07-07T08:21:43Z</time>
      </trkpt>
      <trkpt lat="46.3486" lon="6.00513">
        <ele>1570.8</ele>
        <time>2022-07-07T08:21:56Z</time>
      </trkpt>
      <trkpt lat="46.3486" lon="6.00519">
        <ele>1570.9</ele>
        <time>2022-07-07T08:22:02Z</time>
      </trkpt>
      <trkpt lat="46.3486" lon="6.00526">
        <ele>1572.9</ele>
        <time>2022-07-07T08:22:51Z</time>
      </trkpt>
      <trkpt lat="46.34858" lon="6.00532">
        <ele>1574</ele>
        <time>2022-07-07T08:22:58Z</time>
      </trkpt>
      <trkpt lat="46.34855" lon="6.00538">
        <ele>1575.7</ele>
        <time>2022-07-07T08:23:07Z</time>
      </trkpt>
      <trkpt lat="46.34853" lon="6.00544">
        <ele>1580.1</ele>
        <time>2022-07-07T08:23:31Z</time>
      </trkpt>
      <trkpt lat="46.34849" lon="6.00547">
        <ele>1583.8</ele>
        <time>2022-07-07T08:23:42Z</time>
      </trkpt>
      <trkpt lat="46.34845" lon="6.00551">
        <ele>1585.1</ele>
        <time>2022-07-07T08:23:51Z</time>
      </trkpt>
      <trkpt lat="46.3484" lon="6.00549">
        <ele>1586.6</ele>
        <time>2022-07-07T08:24:03Z</time>
      </trkpt>
      <trkpt lat="46.34836" lon="6.00552">
        <ele>1588.1</ele>
        <time>2022-07-07T08:24:13Z</time>
      </trkpt>
      <trkpt lat="46.34836" lon="6.0056">
        <ele>1589.3</ele>
        <time>2022-07-07T08:24:22Z</time>
      </trkpt>
      <trkpt lat="46.34836" lon="6.00567">
        <ele>1590.4</ele>
        <time>2022-07-07T08:24:58Z</time>
      </trkpt>
      <trkpt lat="46.34837" lon="6.00574">
        <ele>1589</ele>
        <time>2022-07-07T08:25:39Z</time>
      </trkpt>
      <trkpt lat="46.34837" lon="6.00581">
        <ele>1589.4</ele>
        <time>2022-07-07T08:25:46Z</time>
      </trkpt>
      <trkpt lat="46.34834" lon="6.00587">
        <ele>1590.5</ele>
        <time>2022-07-07T08:25:52Z</time>
      </trkpt>
      <trkpt lat="46.34831" lon="6.00593">
        <ele>1591.8</ele>
        <time>2022-07-07T08:25:59Z</time>
      </trkpt>
      <trkpt lat="46.3483" lon="6.00599">
        <ele>1592.4</ele>
        <time>2022-07-07T08:26:07Z</time>
      </trkpt>
      <trkpt lat="46.34827" lon="6.00605">
        <ele>1592.9</ele>
        <time>2022-07-07T08:26:14Z</time>
      </trkpt>
      <trkpt lat="46.34824" lon="6.00611">
        <ele>1593.9</ele>
        <time>2022-07-07T08:26:22Z</time>
      </trkpt>
      <trkpt lat="46.34822" lon="6.00617">
        <ele>1594.8</ele>
        <time>2022-07-07T08:26:28Z</time>
      </trkpt>
      <trkpt lat="46.34819" lon="6.00623">
        <ele>1598</ele>
        <time>2022-07-07T08:26:44Z</time>
      </trkpt>
      <trkpt lat="46.34815" lon="6.00624">
        <ele>1601.5</ele>
        <time>2022-07-07T08:26:57Z</time>
      </trkpt>
      <trkpt lat="46.3481" lon="6.00627">
        <ele>1603.1</ele>
        <time>2022-07-07T08:27:07Z</time>
      </trkpt>
      <trkpt lat="46.34806" lon="6.0063">
        <ele>1604.6</ele>
        <time>2022-07-07T08:27:18Z</time>
      </trkpt>
      <trkpt lat="46.34807" lon="6.00636">
        <ele>1602.5</ele>
        <time>2022-07-07T08:29:38Z</time>
      </trkpt>
      <trkpt lat="46.34804" lon="6.0063">
        <ele>1601.3</ele>
        <time>2022-07-07T08:32:06Z</time>
      </trkpt>
      <trkpt lat="46.34802" lon="6.00624">
        <ele>1601.5</ele>
        <time>2022-07-07T08:32:16Z</time>
      </trkpt>
      <trkpt lat="46.34799" lon="6.00618">
        <ele>1601.5</ele>
        <time>2022-07-07T08:32:21Z</time>
      </trkpt>
      <trkpt lat="46.34795" lon="6.00613">
        <ele>1601.8</ele>
        <time>2022-07-07T08:32:27Z</time>
      </trkpt>
      <trkpt lat="46.34791" lon="6.0061">
        <ele>1602.2</ele>
        <time>2022-07-07T08:32:34Z</time>
      </trkpt>
      <trkpt lat="46.34787" lon="6.00605">
        <ele>1602.1</ele>
        <time>2022-07-07T08:32:52Z</time>
      </trkpt>
      <trkpt lat="46.34783" lon="6.00602">
        <ele>1602.5</ele>
        <time>2022-07-07T08:32:57Z</time>
      </trkpt>
      <trkpt lat="46.34779" lon="6.00598">
        <ele>1602.3</ele>
        <time>2022-07-07T08:33:03Z</time>
      </trkpt>
      <trkpt lat="46.34774" lon="6.00596">
        <ele>1601.7</ele>
        <time>2022-07-07T08:33:09Z</time>
      </trkpt>
      <trkpt lat="46.34769" lon="6.00595">
        <ele>1601.4</ele>
        <time>2022-07-07T08:33:14Z</time>
      </trkpt>
      <trkpt lat="46.34764" lon="6.00595">
        <ele>1600.2</ele>
        <time>2022-07-07T08:33:22Z</time>
      </trkpt>
      <trkpt lat="46.34759" lon="6.00598">
        <ele>1598.7</ele>
        <time>2022-07-07T08:33:30Z</time>
      </trkpt>
      <trkpt lat="46.34754" lon="6.006">
        <ele>1598.2</ele>
        <time>2022-07-07T08:33:39Z</time>
      </trkpt>
      <trkpt lat="46.3475" lon="6.006">
        <ele>1597.5</ele>
        <time>2022-07-07T08:33:46Z</time>
      </trkpt>
      <trkpt lat="46.34746" lon="6.00597">
        <ele>1595.6</ele>
        <time>2022-07-07T08:33:53Z</time>
      </trkpt>
      <trkpt lat="46.34742" lon="6.00593">
        <ele>1594.6</ele>
        <time>2022-07-07T08:33:59Z</time>
      </trkpt>
      <trkpt lat="46.34739" lon="6.00587">
        <ele>1593.2</ele>
        <time>2022-07-07T08:34:08Z</time>
      </trkpt>
      <trkpt lat="46.34734" lon="6.00586">
        <ele>1592.9</ele>
        <time>2022-07-07T08:34:15Z</time>
      </trkpt>
      <trkpt lat="46.3473" lon="6.00584">
        <ele>1592.6</ele>
        <time>2022-07-07T08:34:22Z</time>
      </trkpt>
      <trkpt lat="46.34726" lon="6.0058">
        <ele>1593.2</ele>
        <time>2022-07-07T08:34:31Z</time>
      </trkpt>
      <trkpt lat="46.34722" lon="6.00577">
        <ele>1592.8</ele>
        <time>2022-07-07T08:34:37Z</time>
      </trkpt>
      <trkpt lat="46.34718" lon="6.00573">
        <ele>1592.5</ele>
        <time>2022-07-07T08:34:44Z</time>
      </trkpt>
      <trkpt lat="46.34713" lon="6.00575">
        <ele>1593.2</ele>
        <time>2022-07-07T08:34:59Z</time>
      </trkpt>
      <trkpt lat="46.34708" lon="6.00576">
        <ele>1595.8</ele>
        <time>2022-07-07T08:35:22Z</time>
      </trkpt>
      <trkpt lat="46.34703" lon="6.00575">
        <ele>1597.3</ele>
        <time>2022-07-07T08:35:48Z</time>
      </trkpt>
      <trkpt lat="46.34699" lon="6.00572">
        <ele>1598.6</ele>
        <time>2022-07-07T08:35:54Z</time>
      </trkpt>
      <trkpt lat="46.34694" lon="6.00569">
        <ele>1599.7</ele>
        <time>2022-07-07T08:35:59Z</time>
      </trkpt>
      <trkpt lat="46.3469" lon="6.00569">
        <ele>1601.1</ele>
        <time>2022-07-07T08:36:05Z</time>
      </trkpt>
      <trkpt lat="46.34685" lon="6.00569">
        <ele>1603</ele>
        <time>2022-07-07T08:36:13Z</time>
      </trkpt>
      <trkpt lat="46.3468" lon="6.0057">
        <ele>1603.9</ele>
        <time>2022-07-07T08:36:18Z</time>
      </trkpt>
      <trkpt lat="46.34676" lon="6.00566">
        <ele>1604.5</ele>
        <time>2022-07-07T08:36:25Z</time>
      </trkpt>
      <trkpt lat="46.34672" lon="6.0056">
        <ele>1604.5</ele>
        <time>2022-07-07T08:36:31Z</time>
      </trkpt>
      <trkpt lat="46.34667" lon="6.00557">
        <ele>1604.4</ele>
        <time>2022-07-07T08:36:36Z</time>
      </trkpt>
      <trkpt lat="46.34663" lon="6.00555">
        <ele>1604.4</ele>
        <time>2022-07-07T08:36:43Z</time>
      </trkpt>
      <trkpt lat="46.34659" lon="6.0055">
        <ele>1604.3</ele>
        <time>2022-07-07T08:36:51Z</time>
      </trkpt>
      <trkpt lat="46.34655" lon="6.00547">
        <ele>1604.2</ele>
        <time>2022-07-07T08:36:56Z</time>
      </trkpt>
      <trkpt lat="46.3465" lon="6.00546">
        <ele>1604.2</ele>
        <time>2022-07-07T08:37:02Z</time>
      </trkpt>
      <trkpt lat="46.34646" lon="6.00543">
        <ele>1604.4</ele>
        <time>2022-07-07T08:37:09Z</time>
      </trkpt>
      <trkpt lat="46.34642" lon="6.00538">
        <ele>1604.5</ele>
        <time>2022-07-07T08:37:15Z</time>
      </trkpt>
      <trkpt lat="46.3464" lon="6.00532">
        <ele>1603.8</ele>
        <time>2022-07-07T08:37:23Z</time>
      </trkpt>
      <trkpt lat="46.34638" lon="6.00526">
        <ele>1602.6</ele>
        <time>2022-07-07T08:37:30Z</time>
      </trkpt>
      <trkpt lat="46.34634" lon="6.00521">
        <ele>1600.8</ele>
        <time>2022-07-07T08:37:37Z</time>
      </trkpt>
      <trkpt lat="46.3463" lon="6.00517">
        <ele>1599.6</ele>
        <time>2022-07-07T08:37:42Z</time>
      </trkpt>
      <trkpt lat="46.34628" lon="6.00511">
        <ele>1599</ele>
        <time>2022-07-07T08:37:48Z</time>
      </trkpt>
      <trkpt lat="46.34627" lon="6.00504">
        <ele>1598.3</ele>
        <time>2022-07-07T08:37:53Z</time>
      </trkpt>
      <trkpt lat="46.34625" lon="6.00496">
        <ele>1597.6</ele>
        <time>2022-07-07T08:37:58Z</time>
      </trkpt>
      <trkpt lat="46.34622" lon="6.0049">
        <ele>1597</ele>
        <time>2022-07-07T08:38:02Z</time>
      </trkpt>
      <trkpt lat="46.34621" lon="6.00484">
        <ele>1596.5</ele>
        <time>2022-07-07T08:38:06Z</time>
      </trkpt>
      <trkpt lat="46.34617" lon="6.00487">
        <ele>1591</ele>
        <time>2022-07-07T08:39:10Z</time>
      </trkpt>
      <trkpt lat="46.34613" lon="6.00491">
        <ele>1591.7</ele>
        <time>2022-07-07T08:39:15Z</time>
      </trkpt>
      <trkpt lat="46.3461" lon="6.00497">
        <ele>1593.1</ele>
        <time>2022-07-07T08:39:20Z</time>
      </trkpt>
      <trkpt lat="46.34606" lon="6.00502">
        <ele>1594.9</ele>
        <time>2022-07-07T08:39:26Z</time>
      </trkpt>
      <trkpt lat="46.34601" lon="6.00501">
        <ele>1596.2</ele>
        <time>2022-07-07T08:39:31Z</time>
      </trkpt>
      <trkpt lat="46.34596" lon="6.005">
        <ele>1597.7</ele>
        <time>2022-07-07T08:39:37Z</time>
      </trkpt>
      <trkpt lat="46.34591" lon="6.00501">
        <ele>1598.4</ele>
        <time>2022-07-07T08:39:43Z</time>
      </trkpt>
      <trkpt lat="46.34586" lon="6.00501">
        <ele>1599.3</ele>
        <time>2022-07-07T08:39:49Z</time>
      </trkpt>
      <trkpt lat="46.34581" lon="6.00502">
        <ele>1600.6</ele>
        <time>2022-07-07T08:39:54Z</time>
      </trkpt>
      <trkpt lat="46.34576" lon="6.00501">
        <ele>1601.5</ele>
        <time>2022-07-07T08:40:01Z</time>
      </trkpt>
      <trkpt lat="46.34571" lon="6.00499">
        <ele>1601.6</ele>
        <time>2022-07-07T08:40:06Z</time>
      </trkpt>
      <trkpt lat="46.34566" lon="6.00501">
        <ele>1602</ele>
        <time>2022-07-07T08:40:21Z</time>
      </trkpt>
      <trkpt lat="46.34561" lon="6.00501">
        <ele>1601.8</ele>
        <time>2022-07-07T08:40:28Z</time>
      </trkpt>
      <trkpt lat="46.34556" lon="6.00501">
        <ele>1601.4</ele>
        <time>2022-07-07T08:40:34Z</time>
      </trkpt>
      <trkpt lat="46.34551" lon="6.00499">
        <ele>1601.7</ele>
        <time>2022-07-07T08:41:02Z</time>
      </trkpt>
      <trkpt lat="46.34547" lon="6.00499">
        <ele>1602.8</ele>
        <time>2022-07-07T08:41:07Z</time>
      </trkpt>
      <trkpt lat="46.34542" lon="6.00497">
        <ele>1603.4</ele>
        <time>2022-07-07T08:41:14Z</time>
      </trkpt>
      <trkpt lat="46.34538" lon="6.00492">
        <ele>1602.9</ele>
        <time>2022-07-07T08:41:22Z</time>
      </trkpt>
      <trkpt lat="46.34533" lon="6.00492">
        <ele>1602.4</ele>
        <time>2022-07-07T08:41:28Z</time>
      </trkpt>
      <trkpt lat="46.3453" lon="6.00496">
        <ele>1602.3</ele>
        <time>2022-07-07T08:41:35Z</time>
      </trkpt>
      <trkpt lat="46.34524" lon="6.00497">
        <ele>1602.1</ele>
        <time>2022-07-07T08:42:10Z</time>
      </trkpt>
      <trkpt lat="46.34519" lon="6.00498">
        <ele>1602.4</ele>
        <time>2022-07-07T08:42:18Z</time>
      </trkpt>
      <trkpt lat="46.34514" lon="6.005">
        <ele>1603.8</ele>
        <time>2022-07-07T08:42:33Z</time>
      </trkpt>
      <trkpt lat="46.34509" lon="6.00503">
        <ele>1605</ele>
        <time>2022-07-07T08:42:49Z</time>
      </trkpt>
      <trkpt lat="46.34504" lon="6.00505">
        <ele>1605.6</ele>
        <time>2022-07-07T08:42:56Z</time>
      </trkpt>
      <trkpt lat="46.34501" lon="6.00498">
        <ele>1604.3</ele>
        <time>2022-07-07T08:43:42Z</time>
      </trkpt>
      <trkpt lat="46.34497" lon="6.00494">
        <ele>1604.6</ele>
        <time>2022-07-07T08:43:47Z</time>
      </trkpt>
      <trkpt lat="46.34492" lon="6.00492">
        <ele>1604.9</ele>
        <time>2022-07-07T08:43:52Z</time>
      </trkpt>
      <trkpt lat="46.34489" lon="6.00488">
        <ele>1605.3</ele>
        <time>2022-07-07T08:43:58Z</time>
      </trkpt>
      <trkpt lat="46.34484" lon="6.00486">
        <ele>1605.5</ele>
        <time>2022-07-07T08:44:04Z</time>
      </trkpt>
      <trkpt lat="46.34479" lon="6.00486">
        <ele>1605.5</ele>
        <time>2022-07-07T08:44:12Z</time>
      </trkpt>
      <trkpt lat="46.34475" lon="6.00489">
        <ele>1606</ele>
        <time>2022-07-07T08:44:18Z</time>
      </trkpt>
      <trkpt lat="46.3447" lon="6.0049">
        <ele>1607.3</ele>
        <time>2022-07-07T08:44:26Z</time>
      </trkpt>
      <trkpt lat="46.34465" lon="6.00493">
        <ele>1609.3</ele>
        <time>2022-07-07T08:44:35Z</time>
      </trkpt>
      <trkpt lat="46.34461" lon="6.00496">
        <ele>1610.1</ele>
        <time>2022-07-07T08:44:41Z</time>
      </trkpt>
      <trkpt lat="46.34456" lon="6.00498">
        <ele>1609.8</ele>
        <time>2022-07-07T08:44:47Z</time>
      </trkpt>
      <trkpt lat="46.34452" lon="6.00501">
        <ele>1609.7</ele>
        <time>2022-07-07T08:44:54Z</time>
      </trkpt>
      <trkpt lat="46.34447" lon="6.00501">
        <ele>1610.2</ele>
        <time>2022-07-07T08:45:01Z</time>
      </trkpt>
      <trkpt lat="46.34442" lon="6.00502">
        <ele>1610.4</ele>
        <time>2022-07-07T08:45:06Z</time>
      </trkpt>
      <trkpt lat="46.34437" lon="6.00503">
        <ele>1610.2</ele>
        <time>2022-07-07T08:45:11Z</time>
      </trkpt>
      <trkpt lat="46.34432" lon="6.00501">
        <ele>1609.7</ele>
        <time>2022-07-07T08:45:16Z</time>
      </trkpt>
      <trkpt lat="46.34428" lon="6.00499">
        <ele>1610.9</ele>
        <time>2022-07-07T08:45:24Z</time>
      </trkpt>
      <trkpt lat="46.34423" lon="6.00497">
        <ele>1611.5</ele>
        <time>2022-07-07T08:45:29Z</time>
      </trkpt>
      <trkpt lat="46.34419" lon="6.00495">
        <ele>1611.6</ele>
        <time>2022-07-07T08:45:34Z</time>
      </trkpt>
      <trkpt lat="46.34414" lon="6.0049">
        <ele>1611.5</ele>
        <time>2022-07-07T08:45:40Z</time>
      </trkpt>
      <trkpt lat="46.3441" lon="6.00486">
        <ele>1611.6</ele>
        <time>2022-07-07T08:45:45Z</time>
      </trkpt>
      <trkpt lat="46.34406" lon="6.0048">
        <ele>1611.9</ele>
        <time>2022-07-07T08:45:51Z</time>
      </trkpt>
      <trkpt lat="46.34402" lon="6.00476">
        <ele>1612</ele>
        <time>2022-07-07T08:45:58Z</time>
      </trkpt>
      <trkpt lat="46.34398" lon="6.00472">
        <ele>1610.7</ele>
        <time>2022-07-07T08:46:08Z</time>
      </trkpt>
      <trkpt lat="46.34394" lon="6.00469">
        <ele>1609.1</ele>
        <time>2022-07-07T08:46:45Z</time>
      </trkpt>
      <trkpt lat="46.34391" lon="6.00464">
        <ele>1608.4</ele>
        <time>2022-07-07T08:46:54Z</time>
      </trkpt>
      <trkpt lat="46.34387" lon="6.00459">
        <ele>1607.7</ele>
        <time>2022-07-07T08:46:59Z</time>
      </trkpt>
      <trkpt lat="46.34383" lon="6.00456">
        <ele>1606.8</ele>
        <time>2022-07-07T08:47:07Z</time>
      </trkpt>
      <trkpt lat="46.34379" lon="6.00452">
        <ele>1606.1</ele>
        <time>2022-07-07T08:47:14Z</time>
      </trkpt>
      <trkpt lat="46.34374" lon="6.00451">
        <ele>1606.1</ele>
        <time>2022-07-07T08:47:24Z</time>
      </trkpt>
      <trkpt lat="46.34369" lon="6.00451">
        <ele>1605.6</ele>
        <time>2022-07-07T08:47:30Z</time>
      </trkpt>
      <trkpt lat="46.34365" lon="6.00453">
        <ele>1603.3</ele>
        <time>2022-07-07T08:47:43Z</time>
      </trkpt>
      <trkpt lat="46.3436" lon="6.00449">
        <ele>1601.5</ele>
        <time>2022-07-07T08:47:51Z</time>
      </trkpt>
      <trkpt lat="46.34357" lon="6.00443">
        <ele>1600</ele>
        <time>2022-07-07T08:47:58Z</time>
      </trkpt>
      <trkpt lat="46.34354" lon="6.00439">
        <ele>1599.4</ele>
        <time>2022-07-07T08:48:05Z</time>
      </trkpt>
      <trkpt lat="46.34353" lon="6.00432">
        <ele>1596.1</ele>
        <time>2022-07-07T08:48:31Z</time>
      </trkpt>
      <trkpt lat="46.34352" lon="6.00425">
        <ele>1595.3</ele>
        <time>2022-07-07T08:48:36Z</time>
      </trkpt>
      <trkpt lat="46.3435" lon="6.00419">
        <ele>1595</ele>
        <time>2022-07-07T08:48:42Z</time>
      </trkpt>
      <trkpt lat="46.34348" lon="6.00413">
        <ele>1595.6</ele>
        <time>2022-07-07T08:48:48Z</time>
      </trkpt>
      <trkpt lat="46.34345" lon="6.00408">
        <ele>1594.9</ele>
        <time>2022-07-07T08:49:00Z</time>
      </trkpt>
      <trkpt lat="46.3434" lon="6.00412">
        <ele>1592.6</ele>
        <time>2022-07-07T08:49:10Z</time>
      </trkpt>
      <trkpt lat="46.34336" lon="6.00415">
        <ele>1590.3</ele>
        <time>2022-07-07T08:49:17Z</time>
      </trkpt>
      <trkpt lat="46.34331" lon="6.00417">
        <ele>1587.9</ele>
        <time>2022-07-07T08:49:26Z</time>
      </trkpt>
      <trkpt lat="46.34326" lon="6.00416">
        <ele>1586.5</ele>
        <time>2022-07-07T08:49:32Z</time>
      </trkpt>
      <trkpt lat="46.34321" lon="6.00417">
        <ele>1585.7</ele>
        <time>2022-07-07T08:49:40Z</time>
      </trkpt>
      <trkpt lat="46.34317" lon="6.00416">
        <ele>1584.5</ele>
        <time>2022-07-07T08:49:56Z</time>
      </trkpt>
      <trkpt lat="46.34312" lon="6.00414">
        <ele>1583.7</ele>
        <time>2022-07-07T08:50:03Z</time>
      </trkpt>
      <trkpt lat="46.34307" lon="6.00411">
        <ele>1583</ele>
        <time>2022-07-07T08:50:10Z</time>
      </trkpt>
      <trkpt lat="46.34303" lon="6.00407">
        <ele>1582.7</ele>
        <time>2022-07-07T08:50:17Z</time>
      </trkpt>
      <trkpt lat="46.34299" lon="6.00404">
        <ele>1582.7</ele>
        <time>2022-07-07T08:50:24Z</time>
      </trkpt>
      <trkpt lat="46.34294" lon="6.00405">
        <ele>1582.9</ele>
        <time>2022-07-07T08:50:35Z</time>
      </trkpt>
      <trkpt lat="46.34289" lon="6.00404">
        <ele>1581.9</ele>
        <time>2022-07-07T08:50:41Z</time>
      </trkpt>
      <trkpt lat="46.34285" lon="6.00406">
        <ele>1581.3</ele>
        <time>2022-07-07T08:50:47Z</time>
      </trkpt>
      <trkpt lat="46.3428" lon="6.00408">
        <ele>1581.3</ele>
        <time>2022-07-07T08:50:53Z</time>
      </trkpt>
      <trkpt lat="46.34275" lon="6.00411">
        <ele>1581.5</ele>
        <time>2022-07-07T08:50:59Z</time>
      </trkpt>
      <trkpt lat="46.34271" lon="6.00413">
        <ele>1580.3</ele>
        <time>2022-07-07T08:51:08Z</time>
      </trkpt>
      <trkpt lat="46.34266" lon="6.00412">
        <ele>1579.6</ele>
        <time>2022-07-07T08:51:17Z</time>
      </trkpt>
      <trkpt lat="46.34262" lon="6.00412">
        <ele>1578.8</ele>
        <time>2022-07-07T08:51:24Z</time>
      </trkpt>
      <trkpt lat="46.34257" lon="6.00411">
        <ele>1576.8</ele>
        <time>2022-07-07T08:51:32Z</time>
      </trkpt>
      <trkpt lat="46.34252" lon="6.00408">
        <ele>1575.5</ele>
        <time>2022-07-07T08:51:38Z</time>
      </trkpt>
      <trkpt lat="46.34247" lon="6.00405">
        <ele>1574.2</ele>
        <time>2022-07-07T08:51:45Z</time>
      </trkpt>
      <trkpt lat="46.34243" lon="6.00404">
        <ele>1573</ele>
        <time>2022-07-07T08:51:50Z</time>
      </trkpt>
      <trkpt lat="46.34238" lon="6.00403">
        <ele>1572.1</ele>
        <time>2022-07-07T08:51:55Z</time>
      </trkpt>
      <trkpt lat="46.34233" lon="6.00402">
        <ele>1571.3</ele>
        <time>2022-07-07T08:52:01Z</time>
      </trkpt>
      <trkpt lat="46.34229" lon="6.004">
        <ele>1570.9</ele>
        <time>2022-07-07T08:52:06Z</time>
      </trkpt>
      <trkpt lat="46.34224" lon="6.00399">
        <ele>1570.7</ele>
        <time>2022-07-07T08:52:11Z</time>
      </trkpt>
      <trkpt lat="46.3422" lon="6.00395">
        <ele>1570.6</ele>
        <time>2022-07-07T08:52:16Z</time>
      </trkpt>
      <trkpt lat="46.34216" lon="6.00392">
        <ele>1570.5</ele>
        <time>2022-07-07T08:52:22Z</time>
      </trkpt>
      <trkpt lat="46.34211" lon="6.0039">
        <ele>1570.9</ele>
        <time>2022-07-07T08:52:27Z</time>
      </trkpt>
      <trkpt lat="46.34206" lon="6.00388">
        <ele>1570.8</ele>
        <time>2022-07-07T08:52:33Z</time>
      </trkpt>
      <trkpt lat="46.34201" lon="6.00386">
        <ele>1569.7</ele>
        <time>2022-07-07T08:52:43Z</time>
      </trkpt>
      <trkpt lat="46.34196" lon="6.00382">
        <ele>1569.5</ele>
        <time>2022-07-07T08:52:49Z</time>
      </trkpt>
      <trkpt lat="46.34192" lon="6.0038">
        <ele>1569</ele>
        <time>2022-07-07T08:52:54Z</time>
      </trkpt>
      <trkpt lat="46.34187" lon="6.00376">
        <ele>1567.3</ele>
        <time>2022-07-07T08:53:00Z</time>
      </trkpt>
      <trkpt lat="46.34184" lon="6.0037">
        <ele>1565.6</ele>
        <time>2022-07-07T08:53:09Z</time>
      </trkpt>
      <trkpt lat="46.34181" lon="6.00365">
        <ele>1564.9</ele>
        <time>2022-07-07T08:53:15Z</time>
      </trkpt>
      <trkpt lat="46.34177" lon="6.0036">
        <ele>1564.7</ele>
        <time>2022-07-07T08:53:22Z</time>
      </trkpt>
      <trkpt lat="46.34173" lon="6.00356">
        <ele>1564.7</ele>
        <time>2022-07-07T08:53:28Z</time>
      </trkpt>
      <trkpt lat="46.34169" lon="6.00352">
        <ele>1564.9</ele>
        <time>2022-07-07T08:53:34Z</time>
      </trkpt>
      <trkpt lat="46.34165" lon="6.00349">
        <ele>1564.9</ele>
        <time>2022-07-07T08:53:41Z</time>
      </trkpt>
      <trkpt lat="46.34161" lon="6.00345">
        <ele>1564.1</ele>
        <time>2022-07-07T08:53:47Z</time>
      </trkpt>
      <trkpt lat="46.34157" lon="6.0034">
        <ele>1562.7</ele>
        <time>2022-07-07T08:53:54Z</time>
      </trkpt>
      <trkpt lat="46.34153" lon="6.00334">
        <ele>1561.8</ele>
        <time>2022-07-07T08:53:58Z</time>
      </trkpt>
      <trkpt lat="46.3415" lon="6.00329">
        <ele>1561.2</ele>
        <time>2022-07-07T08:54:03Z</time>
      </trkpt>
      <trkpt lat="46.34147" lon="6.00324">
        <ele>1560.5</ele>
        <time>2022-07-07T08:54:09Z</time>
      </trkpt>
      <trkpt lat="46.34145" lon="6.00317">
        <ele>1559.5</ele>
        <time>2022-07-07T08:54:14Z</time>
      </trkpt>
      <trkpt lat="46.34144" lon="6.0031">
        <ele>1559.4</ele>
        <time>2022-07-07T08:54:20Z</time>
      </trkpt>
      <trkpt lat="46.3414" lon="6.00305">
        <ele>1560.3</ele>
        <time>2022-07-07T08:54:24Z</time>
      </trkpt>
      <trkpt lat="46.34137" lon="6.00301">
        <ele>1562.1</ele>
        <time>2022-07-07T08:54:29Z</time>
      </trkpt>
      <trkpt lat="46.34134" lon="6.00295">
        <ele>1564.7</ele>
        <time>2022-07-07T08:54:37Z</time>
      </trkpt>
      <trkpt lat="46.34129" lon="6.00294">
        <ele>1566.1</ele>
        <time>2022-07-07T08:54:43Z</time>
      </trkpt>
      <trkpt lat="46.34125" lon="6.00293">
        <ele>1566.9</ele>
        <time>2022-07-07T08:54:50Z</time>
      </trkpt>
      <trkpt lat="46.3412" lon="6.0029">
        <ele>1567.1</ele>
        <time>2022-07-07T08:55:00Z</time>
      </trkpt>
      <trkpt lat="46.34116" lon="6.00292">
        <ele>1568.3</ele>
        <time>2022-07-07T08:55:14Z</time>
      </trkpt>
      <trkpt lat="46.34111" lon="6.00295">
        <ele>1570.4</ele>
        <time>2022-07-07T08:55:23Z</time>
      </trkpt>
      <trkpt lat="46.34107" lon="6.00298">
        <ele>1573.3</ele>
        <time>2022-07-07T08:55:33Z</time>
      </trkpt>
      <trkpt lat="46.34104" lon="6.00293">
        <ele>1575.6</ele>
        <time>2022-07-07T08:55:45Z</time>
      </trkpt>
      <trkpt lat="46.34101" lon="6.00287">
        <ele>1578.4</ele>
        <time>2022-07-07T08:55:55Z</time>
      </trkpt>
      <trkpt lat="46.34096" lon="6.00285">
        <ele>1579.6</ele>
        <time>2022-07-07T08:56:01Z</time>
      </trkpt>
      <trkpt lat="46.34092" lon="6.00285">
        <ele>1580.9</ele>
        <time>2022-07-07T08:56:11Z</time>
      </trkpt>
      <trkpt lat="46.34089" lon="6.0029">
        <ele>1583.2</ele>
        <time>2022-07-07T08:56:28Z</time>
      </trkpt>
      <trkpt lat="46.34085" lon="6.00295">
        <ele>1584.5</ele>
        <time>2022-07-07T08:56:36Z</time>
      </trkpt>
      <trkpt lat="46.34081" lon="6.00299">
        <ele>1586.1</ele>
        <time>2022-07-07T08:56:47Z</time>
      </trkpt>
      <trkpt lat="46.34077" lon="6.00299">
        <ele>1587</ele>
        <time>2022-07-07T08:56:56Z</time>
      </trkpt>
      <trkpt lat="46.34073" lon="6.00303">
        <ele>1588.9</ele>
        <time>2022-07-07T08:57:14Z</time>
      </trkpt>
      <trkpt lat="46.34068" lon="6.00304">
        <ele>1588.1</ele>
        <time>2022-07-07T08:58:13Z</time>
      </trkpt>
      <trkpt lat="46.34063" lon="6.00301">
        <ele>1588.5</ele>
        <time>2022-07-07T08:58:20Z</time>
      </trkpt>
      <trkpt lat="46.34059" lon="6.00299">
        <ele>1588.8</ele>
        <time>2022-07-07T08:58:25Z</time>
      </trkpt>
      <trkpt lat="46.34054" lon="6.00299">
        <ele>1588.6</ele>
        <time>2022-07-07T08:58:30Z</time>
      </trkpt>
      <trkpt lat="46.34049" lon="6.00298">
        <ele>1588.7</ele>
        <time>2022-07-07T08:58:36Z</time>
      </trkpt>
      <trkpt lat="46.34045" lon="6.00296">
        <ele>1588.9</ele>
        <time>2022-07-07T08:58:46Z</time>
      </trkpt>
      <trkpt lat="46.3404" lon="6.00292">
        <ele>1589</ele>
        <time>2022-07-07T08:58:52Z</time>
      </trkpt>
      <trkpt lat="46.34035" lon="6.00291">
        <ele>1589.2</ele>
        <time>2022-07-07T08:58:58Z</time>
      </trkpt>
      <trkpt lat="46.3403" lon="6.0029">
        <ele>1588.9</ele>
        <time>2022-07-07T08:59:05Z</time>
      </trkpt>
      <trkpt lat="46.34026" lon="6.00289">
        <ele>1589.3</ele>
        <time>2022-07-07T08:59:09Z</time>
      </trkpt>
      <trkpt lat="46.34021" lon="6.00289">
        <ele>1590.3</ele>
        <time>2022-07-07T08:59:14Z</time>
      </trkpt>
      <trkpt lat="46.34016" lon="6.00287">
        <ele>1591.5</ele>
        <time>2022-07-07T08:59:19Z</time>
      </trkpt>
      <trkpt lat="46.34011" lon="6.00285">
        <ele>1592.8</ele>
        <time>2022-07-07T08:59:24Z</time>
      </trkpt>
      <trkpt lat="46.34006" lon="6.00284">
        <ele>1593.9</ele>
        <time>2022-07-07T08:59:31Z</time>
      </trkpt>
      <trkpt lat="46.34001" lon="6.00284">
        <ele>1594.8</ele>
        <time>2022-07-07T08:59:37Z</time>
      </trkpt>
      <trkpt lat="46.33996" lon="6.00284">
        <ele>1596.5</ele>
        <time>2022-07-07T08:59:45Z</time>
      </trkpt>
      <trkpt lat="46.33992" lon="6.00284">
        <ele>1597.7</ele>
        <time>2022-07-07T08:59:52Z</time>
      </trkpt>
      <trkpt lat="46.33987" lon="6.00284">
        <ele>1598.8</ele>
        <time>2022-07-07T08:59:59Z</time>
      </trkpt>
      <trkpt lat="46.33982" lon="6.00284">
        <ele>1599.5</ele>
        <time>2022-07-07T09:00:09Z</time>
      </trkpt>
      <trkpt lat="46.33978" lon="6.00285">
        <ele>1600.9</ele>
        <time>2022-07-07T09:00:22Z</time>
      </trkpt>
      <trkpt lat="46.33973" lon="6.00284">
        <ele>1601.5</ele>
        <time>2022-07-07T09:00:29Z</time>
      </trkpt>
      <trkpt lat="46.33969" lon="6.0028">
        <ele>1602.1</ele>
        <time>2022-07-07T09:00:48Z</time>
      </trkpt>
      <trkpt lat="46.33964" lon="6.00281">
        <ele>1602.9</ele>
        <time>2022-07-07T09:00:56Z</time>
      </trkpt>
      <trkpt lat="46.33959" lon="6.00282">
        <ele>1603.1</ele>
        <time>2022-07-07T09:01:03Z</time>
      </trkpt>
      <trkpt lat="46.33954" lon="6.00281">
        <ele>1603.2</ele>
        <time>2022-07-07T09:01:10Z</time>
      </trkpt>
      <trkpt lat="46.33949" lon="6.00281">
        <ele>1603.7</ele>
        <time>2022-07-07T09:01:16Z</time>
      </trkpt>
      <trkpt lat="46.33944" lon="6.00282">
        <ele>1606</ele>
        <time>2022-07-07T09:01:27Z</time>
      </trkpt>
      <trkpt lat="46.3394" lon="6.00286">
        <ele>1608.6</ele>
        <time>2022-07-07T09:01:47Z</time>
      </trkpt>
      <trkpt lat="46.33936" lon="6.00285">
        <ele>1608.9</ele>
        <time>2022-07-07T09:01:53Z</time>
      </trkpt>
      <trkpt lat="46.33931" lon="6.00286">
        <ele>1609</ele>
        <time>2022-07-07T09:01:59Z</time>
      </trkpt>
      <trkpt lat="46.33927" lon="6.0029">
        <ele>1610</ele>
        <time>2022-07-07T09:02:12Z</time>
      </trkpt>
      <trkpt lat="46.33923" lon="6.00289">
        <ele>1610.8</ele>
        <time>2022-07-07T09:02:49Z</time>
      </trkpt>
      <trkpt lat="46.33918" lon="6.00291">
        <ele>1609.4</ele>
        <time>2022-07-07T09:04:00Z</time>
      </trkpt>
      <trkpt lat="46.33915" lon="6.00286">
        <ele>1606.1</ele>
        <time>2022-07-07T09:06:56Z</time>
      </trkpt>
      <trkpt lat="46.33911" lon="6.00282">
        <ele>1605.3</ele>
        <time>2022-07-07T09:07:03Z</time>
      </trkpt>
      <trkpt lat="46.33907" lon="6.0028">
        <ele>1604.5</ele>
        <time>2022-07-07T09:07:09Z</time>
      </trkpt>
      <trkpt lat="46.33903" lon="6.00276">
        <ele>1604</ele>
        <time>2022-07-07T09:07:18Z</time>
      </trkpt>
      <trkpt lat="46.33898" lon="6.00273">
        <ele>1604.2</ele>
        <time>2022-07-07T09:07:27Z</time>
      </trkpt>
      <trkpt lat="46.33894" lon="6.00273">
        <ele>1604.5</ele>
        <time>2022-07-07T09:07:32Z</time>
      </trkpt>
      <trkpt lat="46.33889" lon="6.00271">
        <ele>1605.1</ele>
        <time>2022-07-07T09:07:41Z</time>
      </trkpt>
      <trkpt lat="46.33884" lon="6.00268">
        <ele>1605.4</ele>
        <time>2022-07-07T09:07:47Z</time>
      </trkpt>
      <trkpt lat="46.33881" lon="6.00263">
        <ele>1606.7</ele>
        <time>2022-07-07T09:07:54Z</time>
      </trkpt>
      <trkpt lat="46.33878" lon="6.00258">
        <ele>1607.2</ele>
        <time>2022-07-07T09:08:06Z</time>
      </trkpt>
      <trkpt lat="46.33874" lon="6.00254">
        <ele>1606.5</ele>
        <time>2022-07-07T09:08:12Z</time>
      </trkpt>
      <trkpt lat="46.33869" lon="6.00253">
        <ele>1606.5</ele>
        <time>2022-07-07T09:08:19Z</time>
      </trkpt>
      <trkpt lat="46.33865" lon="6.00251">
        <ele>1605.9</ele>
        <time>2022-07-07T09:08:25Z</time>
      </trkpt>
      <trkpt lat="46.3386" lon="6.00249">
        <ele>1605.3</ele>
        <time>2022-07-07T09:08:31Z</time>
      </trkpt>
      <trkpt lat="46.33856" lon="6.00245">
        <ele>1605.2</ele>
        <time>2022-07-07T09:08:37Z</time>
      </trkpt>
      <trkpt lat="46.33852" lon="6.00241">
        <ele>1605.4</ele>
        <time>2022-07-07T09:08:46Z</time>
      </trkpt>
      <trkpt lat="46.33848" lon="6.00237">
        <ele>1605.5</ele>
        <time>2022-07-07T09:08:54Z</time>
      </trkpt>
      <trkpt lat="46.33844" lon="6.00233">
        <ele>1605.6</ele>
        <time>2022-07-07T09:08:59Z</time>
      </trkpt>
      <trkpt lat="46.33839" lon="6.0023">
        <ele>1605.8</ele>
        <time>2022-07-07T09:09:04Z</time>
      </trkpt>
      <trkpt lat="46.33835" lon="6.00227">
        <ele>1607.3</ele>
        <time>2022-07-07T09:09:19Z</time>
      </trkpt>
      <trkpt lat="46.3383" lon="6.00226">
        <ele>1606.4</ele>
        <time>2022-07-07T09:09:27Z</time>
      </trkpt>
      <trkpt lat="46.33825" lon="6.00227">
        <ele>1605.4</ele>
        <time>2022-07-07T09:09:35Z</time>
      </trkpt>
      <trkpt lat="46.3382" lon="6.00227">
        <ele>1605.3</ele>
        <time>2022-07-07T09:09:42Z</time>
      </trkpt>
      <trkpt lat="46.33815" lon="6.00226">
        <ele>1605.1</ele>
        <time>2022-07-07T09:09:49Z</time>
      </trkpt>
      <trkpt lat="46.3381" lon="6.00226">
        <ele>1605.3</ele>
        <time>2022-07-07T09:09:55Z</time>
      </trkpt>
      <trkpt lat="46.33805" lon="6.00226">
        <ele>1605.3</ele>
        <time>2022-07-07T09:10:02Z</time>
      </trkpt>
      <trkpt lat="46.338" lon="6.00224">
        <ele>1605.4</ele>
        <time>2022-07-07T09:10:09Z</time>
      </trkpt>
      <trkpt lat="46.33795" lon="6.00223">
        <ele>1605.1</ele>
        <time>2022-07-07T09:10:16Z</time>
      </trkpt>
      <trkpt lat="46.3379" lon="6.00221">
        <ele>1605.3</ele>
        <time>2022-07-07T09:10:22Z</time>
      </trkpt>
      <trkpt lat="46.33786" lon="6.00221">
        <ele>1606</ele>
        <time>2022-07-07T09:10:27Z</time>
      </trkpt>
      <trkpt lat="46.33781" lon="6.00221">
        <ele>1606.7</ele>
        <time>2022-07-07T09:10:32Z</time>
      </trkpt>
      <trkpt lat="46.33776" lon="6.00218">
        <ele>1607.7</ele>
        <time>2022-07-07T09:10:39Z</time>
      </trkpt>
      <trkpt lat="46.33771" lon="6.00219">
        <ele>1608.1</ele>
        <time>2022-07-07T09:10:45Z</time>
      </trkpt>
      <trkpt lat="46.33766" lon="6.00218">
        <ele>1608</ele>
        <time>2022-07-07T09:10:52Z</time>
      </trkpt>
      <trkpt lat="46.33761" lon="6.00217">
        <ele>1607.7</ele>
        <time>2022-07-07T09:10:58Z</time>
      </trkpt>
      <trkpt lat="46.33757" lon="6.00214">
        <ele>1607.7</ele>
        <time>2022-07-07T09:11:04Z</time>
      </trkpt>
      <trkpt lat="46.33753" lon="6.0021">
        <ele>1607.9</ele>
        <time>2022-07-07T09:11:10Z</time>
      </trkpt>
      <trkpt lat="46.33748" lon="6.00209">
        <ele>1608.3</ele>
        <time>2022-07-07T09:11:15Z</time>
      </trkpt>
      <trkpt lat="46.33744" lon="6.00206">
        <ele>1607.3</ele>
        <time>2022-07-07T09:11:24Z</time>
      </trkpt>
      <trkpt lat="46.33739" lon="6.00204">
        <ele>1606.1</ele>
        <time>2022-07-07T09:11:30Z</time>
      </trkpt>
      <trkpt lat="46.33734" lon="6.00203">
        <ele>1605.3</ele>
        <time>2022-07-07T09:11:37Z</time>
      </trkpt>
      <trkpt lat="46.33729" lon="6.00201">
        <ele>1605</ele>
        <time>2022-07-07T09:11:42Z</time>
      </trkpt>
      <trkpt lat="46.33724" lon="6.00198">
        <ele>1604.9</ele>
        <time>2022-07-07T09:11:46Z</time>
      </trkpt>
      <trkpt lat="46.3372" lon="6.00197">
        <ele>1605.1</ele>
        <time>2022-07-07T09:11:52Z</time>
      </trkpt>
      <trkpt lat="46.33715" lon="6.00195">
        <ele>1604.9</ele>
        <time>2022-07-07T09:11:58Z</time>
      </trkpt>
      <trkpt lat="46.33709" lon="6.00193">
        <ele>1604.3</ele>
        <time>2022-07-07T09:12:03Z</time>
      </trkpt>
      <trkpt lat="46.33705" lon="6.00192">
        <ele>1603.6</ele>
        <time>2022-07-07T09:12:08Z</time>
      </trkpt>
      <trkpt lat="46.337" lon="6.00192">
        <ele>1604</ele>
        <time>2022-07-07T09:12:15Z</time>
      </trkpt>
      <trkpt lat="46.33695" lon="6.00192">
        <ele>1604.8</ele>
        <time>2022-07-07T09:12:21Z</time>
      </trkpt>
      <trkpt lat="46.33691" lon="6.00192">
        <ele>1605.1</ele>
        <time>2022-07-07T09:12:27Z</time>
      </trkpt>
      <trkpt lat="46.33685" lon="6.0019">
        <ele>1605.6</ele>
        <time>2022-07-07T09:12:34Z</time>
      </trkpt>
      <trkpt lat="46.3368" lon="6.0019">
        <ele>1607.2</ele>
        <time>2022-07-07T09:12:40Z</time>
      </trkpt>
      <trkpt lat="46.33675" lon="6.00188">
        <ele>1608.2</ele>
        <time>2022-07-07T09:12:46Z</time>
      </trkpt>
      <trkpt lat="46.3367" lon="6.00187">
        <ele>1609.1</ele>
        <time>2022-07-07T09:12:52Z</time>
      </trkpt>
      <trkpt lat="46.33665" lon="6.00187">
        <ele>1609.9</ele>
        <time>2022-07-07T09:12:58Z</time>
      </trkpt>
      <trkpt lat="46.33661" lon="6.00188">
        <ele>1610.5</ele>
        <time>2022-07-07T09:13:04Z</time>
      </trkpt>
      <trkpt lat="46.33656" lon="6.00188">
        <ele>1611</ele>
        <time>2022-07-07T09:13:10Z</time>
      </trkpt>
      <trkpt lat="46.33651" lon="6.00187">
        <ele>1610.9</ele>
        <time>2022-07-07T09:13:17Z</time>
      </trkpt>
      <trkpt lat="46.33646" lon="6.00186">
        <ele>1610.2</ele>
        <time>2022-07-07T09:13:23Z</time>
      </trkpt>
      <trkpt lat="46.33641" lon="6.00183">
        <ele>1609.1</ele>
        <time>2022-07-07T09:13:29Z</time>
      </trkpt>
      <trkpt lat="46.33638" lon="6.00179">
        <ele>1608.1</ele>
        <time>2022-07-07T09:13:37Z</time>
      </trkpt>
      <trkpt lat="46.33633" lon="6.00175">
        <ele>1607.9</ele>
        <time>2022-07-07T09:13:44Z</time>
      </trkpt>
      <trkpt lat="46.33629" lon="6.00171">
        <ele>1608.1</ele>
        <time>2022-07-07T09:13:49Z</time>
      </trkpt>
      <trkpt lat="46.33625" lon="6.00167">
        <ele>1608.4</ele>
        <time>2022-07-07T09:13:56Z</time>
      </trkpt>
      <trkpt lat="46.33621" lon="6.00165">
        <ele>1608.1</ele>
        <time>2022-07-07T09:14:01Z</time>
      </trkpt>
      <trkpt lat="46.33616" lon="6.0016">
        <ele>1608.2</ele>
        <time>2022-07-07T09:14:07Z</time>
      </trkpt>
      <trkpt lat="46.33613" lon="6.00155">
        <ele>1608.7</ele>
        <time>2022-07-07T09:14:14Z</time>
      </trkpt>
      <trkpt lat="46.3361" lon="6.0015">
        <ele>1610</ele>
        <time>2022-07-07T09:14:28Z</time>
      </trkpt>
      <trkpt lat="46.33605" lon="6.00147">
        <ele>1609.9</ele>
        <time>2022-07-07T09:14:33Z</time>
      </trkpt>
      <trkpt lat="46.33601" lon="6.00143">
        <ele>1609.6</ele>
        <time>2022-07-07T09:14:39Z</time>
      </trkpt>
      <trkpt lat="46.33596" lon="6.00142">
        <ele>1609</ele>
        <time>2022-07-07T09:15:41Z</time>
      </trkpt>
      <trkpt lat="46.33591" lon="6.0014">
        <ele>1608.5</ele>
        <time>2022-07-07T09:15:48Z</time>
      </trkpt>
      <trkpt lat="46.33587" lon="6.00136">
        <ele>1608.4</ele>
        <time>2022-07-07T09:15:55Z</time>
      </trkpt>
      <trkpt lat="46.33583" lon="6.00133">
        <ele>1607.9</ele>
        <time>2022-07-07T09:16:00Z</time>
      </trkpt>
      <trkpt lat="46.33579" lon="6.0013">
        <ele>1607.6</ele>
        <time>2022-07-07T09:16:09Z</time>
      </trkpt>
      <trkpt lat="46.33575" lon="6.00126">
        <ele>1606.8</ele>
        <time>2022-07-07T09:16:16Z</time>
      </trkpt>
      <trkpt lat="46.3357" lon="6.00124">
        <ele>1606</ele>
        <time>2022-07-07T09:16:22Z</time>
      </trkpt>
      <trkpt lat="46.33565" lon="6.00122">
        <ele>1605.9</ele>
        <time>2022-07-07T09:16:27Z</time>
      </trkpt>
      <trkpt lat="46.33561" lon="6.00122">
        <ele>1606.5</ele>
        <time>2022-07-07T09:16:32Z</time>
      </trkpt>
      <trkpt lat="46.33556" lon="6.00123">
        <ele>1607.5</ele>
        <time>2022-07-07T09:16:37Z</time>
      </trkpt>
      <trkpt lat="46.33551" lon="6.00123">
        <ele>1608.3</ele>
        <time>2022-07-07T09:16:43Z</time>
      </trkpt>
      <trkpt lat="46.33547" lon="6.00119">
        <ele>1608.2</ele>
        <time>2022-07-07T09:16:50Z</time>
      </trkpt>
      <trkpt lat="46.33543" lon="6.00115">
        <ele>1608</ele>
        <time>2022-07-07T09:16:59Z</time>
      </trkpt>
      <trkpt lat="46.33538" lon="6.00111">
        <ele>1607.7</ele>
        <time>2022-07-07T09:17:05Z</time>
      </trkpt>
      <trkpt lat="46.33533" lon="6.0011">
        <ele>1607.9</ele>
        <time>2022-07-07T09:17:10Z</time>
      </trkpt>
      <trkpt lat="46.33528" lon="6.0011">
        <ele>1609.1</ele>
        <time>2022-07-07T09:17:15Z</time>
      </trkpt>
      <trkpt lat="46.33524" lon="6.00108">
        <ele>1610.7</ele>
        <time>2022-07-07T09:17:21Z</time>
      </trkpt>
      <trkpt lat="46.33519" lon="6.00104">
        <ele>1612.3</ele>
        <time>2022-07-07T09:17:29Z</time>
      </trkpt>
      <trkpt lat="46.33515" lon="6.00101">
        <ele>1613.6</ele>
        <time>2022-07-07T09:17:35Z</time>
      </trkpt>
      <trkpt lat="46.3351" lon="6.00098">
        <ele>1614.7</ele>
        <time>2022-07-07T09:17:41Z</time>
      </trkpt>
      <trkpt lat="46.33505" lon="6.00097">
        <ele>1615.8</ele>
        <time>2022-07-07T09:17:49Z</time>
      </trkpt>
      <trkpt lat="46.33501" lon="6.00098">
        <ele>1616.1</ele>
        <time>2022-07-07T09:18:12Z</time>
      </trkpt>
      <trkpt lat="46.33496" lon="6.00096">
        <ele>1615.8</ele>
        <time>2022-07-07T09:18:17Z</time>
      </trkpt>
      <trkpt lat="46.33492" lon="6.00092">
        <ele>1616</ele>
        <time>2022-07-07T09:18:22Z</time>
      </trkpt>
      <trkpt lat="46.33488" lon="6.00089">
        <ele>1617</ele>
        <time>2022-07-07T09:18:28Z</time>
      </trkpt>
      <trkpt lat="46.33483" lon="6.00087">
        <ele>1617.2</ele>
        <time>2022-07-07T09:18:34Z</time>
      </trkpt>
      <trkpt lat="46.33479" lon="6.00085">
        <ele>1617</ele>
        <time>2022-07-07T09:18:39Z</time>
      </trkpt>
      <trkpt lat="46.33474" lon="6.00085">
        <ele>1616.3</ele>
        <time>2022-07-07T09:18:47Z</time>
      </trkpt>
      <trkpt lat="46.33469" lon="6.00083">
        <ele>1615.3</ele>
        <time>2022-07-07T09:19:14Z</time>
      </trkpt>
      <trkpt lat="46.33464" lon="6.00082">
        <ele>1614.9</ele>
        <time>2022-07-07T09:19:22Z</time>
      </trkpt>
      <trkpt lat="46.3346" lon="6.00082">
        <ele>1614.5</ele>
        <time>2022-07-07T09:19:28Z</time>
      </trkpt>
      <trkpt lat="46.33455" lon="6.00081">
        <ele>1612.9</ele>
        <time>2022-07-07T09:19:37Z</time>
      </trkpt>
      <trkpt lat="46.33451" lon="6.0008">
        <ele>1611</ele>
        <time>2022-07-07T09:19:47Z</time>
      </trkpt>
      <trkpt lat="46.33446" lon="6.00078">
        <ele>1608.7</ele>
        <time>2022-07-07T09:20:00Z</time>
      </trkpt>
      <trkpt lat="46.33442" lon="6.00075">
        <ele>1605.8</ele>
        <time>2022-07-07T09:20:17Z</time>
      </trkpt>
      <trkpt lat="46.33437" lon="6.00075">
        <ele>1604.6</ele>
        <time>2022-07-07T09:20:30Z</time>
      </trkpt>
      <trkpt lat="46.33432" lon="6.00075">
        <ele>1603.2</ele>
        <time>2022-07-07T09:20:37Z</time>
      </trkpt>
      <trkpt lat="46.33428" lon="6.00072">
        <ele>1601.8</ele>
        <time>2022-07-07T09:20:42Z</time>
      </trkpt>
      <trkpt lat="46.33423" lon="6.0007">
        <ele>1600.2</ele>
        <time>2022-07-07T09:20:48Z</time>
      </trkpt>
      <trkpt lat="46.33419" lon="6.00068">
        <ele>1599.1</ele>
        <time>2022-07-07T09:20:53Z</time>
      </trkpt>
      <trkpt lat="46.33414" lon="6.00066">
        <ele>1598</ele>
        <time>2022-07-07T09:20:58Z</time>
      </trkpt>
      <trkpt lat="46.33409" lon="6.00063">
        <ele>1596.7</ele>
        <time>2022-07-07T09:21:03Z</time>
      </trkpt>
      <trkpt lat="46.33404" lon="6.0006">
        <ele>1595.3</ele>
        <time>2022-07-07T09:21:09Z</time>
      </trkpt>
      <trkpt lat="46.33399" lon="6.00058">
        <ele>1593.8</ele>
        <time>2022-07-07T09:21:15Z</time>
      </trkpt>
      <trkpt lat="46.33394" lon="6.00057">
        <ele>1593.2</ele>
        <time>2022-07-07T09:21:19Z</time>
      </trkpt>
      <trkpt lat="46.33389" lon="6.00055">
        <ele>1593</ele>
        <time>2022-07-07T09:21:24Z</time>
      </trkpt>
      <trkpt lat="46.33384" lon="6.00053">
        <ele>1592.7</ele>
        <time>2022-07-07T09:21:29Z</time>
      </trkpt>
      <trkpt lat="46.3338" lon="6.00051">
        <ele>1592.8</ele>
        <time>2022-07-07T09:21:34Z</time>
      </trkpt>
      <trkpt lat="46.33376" lon="6.00047">
        <ele>1593.1</ele>
        <time>2022-07-07T09:21:39Z</time>
      </trkpt>
      <trkpt lat="46.33371" lon="6.00044">
        <ele>1594.1</ele>
        <time>2022-07-07T09:21:44Z</time>
      </trkpt>
      <trkpt lat="46.33366" lon="6.00042">
        <ele>1595</ele>
        <time>2022-07-07T09:21:49Z</time>
      </trkpt>
      <trkpt lat="46.33361" lon="6.00041">
        <ele>1596</ele>
        <time>2022-07-07T09:21:54Z</time>
      </trkpt>
      <trkpt lat="46.33357" lon="6.0004">
        <ele>1597.3</ele>
        <time>2022-07-07T09:22:00Z</time>
      </trkpt>
      <trkpt lat="46.33352" lon="6.00038">
        <ele>1598.2</ele>
        <time>2022-07-07T09:22:06Z</time>
      </trkpt>
      <trkpt lat="46.33347" lon="6.00035">
        <ele>1598.5</ele>
        <time>2022-07-07T09:22:13Z</time>
      </trkpt>
      <trkpt lat="46.33342" lon="6.00032">
        <ele>1598.6</ele>
        <time>2022-07-07T09:22:18Z</time>
      </trkpt>
      <trkpt lat="46.33338" lon="6.00029">
        <ele>1599.1</ele>
        <time>2022-07-07T09:22:24Z</time>
      </trkpt>
      <trkpt lat="46.33333" lon="6.00026">
        <ele>1599.5</ele>
        <time>2022-07-07T09:22:30Z</time>
      </trkpt>
      <trkpt lat="46.33329" lon="6.00022">
        <ele>1599.8</ele>
        <time>2022-07-07T09:22:35Z</time>
      </trkpt>
      <trkpt lat="46.33325" lon="6.00019">
        <ele>1600</ele>
        <time>2022-07-07T09:22:40Z</time>
      </trkpt>
      <trkpt lat="46.3332" lon="6.00017">
        <ele>1600.7</ele>
        <time>2022-07-07T09:22:46Z</time>
      </trkpt>
      <trkpt lat="46.33315" lon="6.00014">
        <ele>1601.3</ele>
        <time>2022-07-07T09:22:52Z</time>
      </trkpt>
      <trkpt lat="46.33311" lon="6.00012">
        <ele>1601.2</ele>
        <time>2022-07-07T09:22:58Z</time>
      </trkpt>
      <trkpt lat="46.33307" lon="6.00007">
        <ele>1600.4</ele>
        <time>2022-07-07T09:23:03Z</time>
      </trkpt>
      <trkpt lat="46.33302" lon="6.00006">
        <ele>1599.8</ele>
        <time>2022-07-07T09:23:13Z</time>
      </trkpt>
      <trkpt lat="46.33297" lon="6.00002">
        <ele>1599.6</ele>
        <time>2022-07-07T09:23:26Z</time>
      </trkpt>
      <trkpt lat="46.33293" lon="5.99999">
        <ele>1599.6</ele>
        <time>2022-07-07T09:23:31Z</time>
      </trkpt>
      <trkpt lat="46.33288" lon="5.99997">
        <ele>1599.1</ele>
        <time>2022-07-07T09:23:37Z</time>
      </trkpt>
      <trkpt lat="46.33283" lon="5.99994">
        <ele>1598.5</ele>
        <time>2022-07-07T09:23:44Z</time>
      </trkpt>
      <trkpt lat="46.33279" lon="5.9999">
        <ele>1599</ele>
        <time>2022-07-07T09:23:51Z</time>
      </trkpt>
      <trkpt lat="46.33275" lon="5.99986">
        <ele>1598.4</ele>
        <time>2022-07-07T09:24:04Z</time>
      </trkpt>
      <trkpt lat="46.3327" lon="5.99985">
        <ele>1597.7</ele>
        <time>2022-07-07T09:24:11Z</time>
      </trkpt>
      <trkpt lat="46.33265" lon="5.99983">
        <ele>1594.7</ele>
        <time>2022-07-07T09:24:33Z</time>
      </trkpt>
      <trkpt lat="46.33261" lon="5.9998">
        <ele>1594.3</ele>
        <time>2022-07-07T09:24:46Z</time>
      </trkpt>
      <trkpt lat="46.33256" lon="5.99979">
        <ele>1593.3</ele>
        <time>2022-07-07T09:25:01Z</time>
      </trkpt>
      <trkpt lat="46.33252" lon="5.99983">
        <ele>1590.8</ele>
        <time>2022-07-07T09:25:12Z</time>
      </trkpt>
      <trkpt lat="46.33248" lon="5.9998">
        <ele>1589.4</ele>
        <time>2022-07-07T09:26:17Z</time>
      </trkpt>
      <trkpt lat="46.33244" lon="5.99979">
        <ele>1588.5</ele>
        <time>2022-07-07T09:26:39Z</time>
      </trkpt>
      <trkpt lat="46.33239" lon="5.99978">
        <ele>1584.3</ele>
        <time>2022-07-07T09:26:58Z</time>
      </trkpt>
      <trkpt lat="46.33234" lon="5.99978">
        <ele>1581.8</ele>
        <time>2022-07-07T09:27:06Z</time>
      </trkpt>
      <trkpt lat="46.33229" lon="5.99976">
        <ele>1577.8</ele>
        <time>2022-07-07T09:27:22Z</time>
      </trkpt>
      <trkpt lat="46.33225" lon="5.9998">
        <ele>1577.7</ele>
        <time>2022-07-07T09:27:30Z</time>
      </trkpt>
      <trkpt lat="46.33221" lon="5.9998">
        <ele>1575.9</ele>
        <time>2022-07-07T09:27:45Z</time>
      </trkpt>
      <trkpt lat="46.33219" lon="5.99987">
        <ele>1574.5</ele>
        <time>2022-07-07T09:27:54Z</time>
      </trkpt>
      <trkpt lat="46.33216" lon="5.99983">
        <ele>1571.3</ele>
        <time>2022-07-07T09:28:45Z</time>
      </trkpt>
      <trkpt lat="46.33211" lon="5.99983">
        <ele>1570.3</ele>
        <time>2022-07-07T09:28:58Z</time>
      </trkpt>
      <trkpt lat="46.33207" lon="5.99987">
        <ele>1569.5</ele>
        <time>2022-07-07T09:29:08Z</time>
      </trkpt>
      <trkpt lat="46.33204" lon="5.99993">
        <ele>1567.9</ele>
        <time>2022-07-07T09:29:18Z</time>
      </trkpt>
      <trkpt lat="46.332" lon="5.99989">
        <ele>1565.9</ele>
        <time>2022-07-07T09:29:29Z</time>
      </trkpt>
      <trkpt lat="46.33195" lon="5.99988">
        <ele>1565.5</ele>
        <time>2022-07-07T09:29:43Z</time>
      </trkpt>
      <trkpt lat="46.33192" lon="5.99993">
        <ele>1564.7</ele>
        <time>2022-07-07T09:30:11Z</time>
      </trkpt>
      <trkpt lat="46.33187" lon="5.99993">
        <ele>1564</ele>
        <time>2022-07-07T09:30:18Z</time>
      </trkpt>
      <trkpt lat="46.33183" lon="5.99995">
        <ele>1563.9</ele>
        <time>2022-07-07T09:30:27Z</time>
      </trkpt>
      <trkpt lat="46.33178" lon="5.99996">
        <ele>1563.1</ele>
        <time>2022-07-07T09:30:36Z</time>
      </trkpt>
      <trkpt lat="46.33174" lon="5.99996">
        <ele>1562</ele>
        <time>2022-07-07T09:30:43Z</time>
      </trkpt>
      <trkpt lat="46.33169" lon="5.99997">
        <ele>1561.6</ele>
        <time>2022-07-07T09:30:48Z</time>
      </trkpt>
      <trkpt lat="46.33164" lon="6">
        <ele>1562.5</ele>
        <time>2022-07-07T09:30:53Z</time>
      </trkpt>
      <trkpt lat="46.3316" lon="6">
        <ele>1564.1</ele>
        <time>2022-07-07T09:31:03Z</time>
      </trkpt>
      <trkpt lat="46.33155" lon="5.99999">
        <ele>1563.5</ele>
        <time>2022-07-07T09:31:08Z</time>
      </trkpt>
      <trkpt lat="46.33151" lon="5.99997">
        <ele>1563</ele>
        <time>2022-07-07T09:31:12Z</time>
      </trkpt>
      <trkpt lat="46.33146" lon="5.99997">
        <ele>1562.6</ele>
        <time>2022-07-07T09:31:17Z</time>
      </trkpt>
      <trkpt lat="46.33141" lon="5.99996">
        <ele>1562.6</ele>
        <time>2022-07-07T09:31:22Z</time>
      </trkpt>
      <trkpt lat="46.33137" lon="5.99995">
        <ele>1562.8</ele>
        <time>2022-07-07T09:31:27Z</time>
      </trkpt>
      <trkpt lat="46.33132" lon="5.99993">
        <ele>1563.5</ele>
        <time>2022-07-07T09:31:32Z</time>
      </trkpt>
      <trkpt lat="46.33127" lon="5.99992">
        <ele>1563.6</ele>
        <time>2022-07-07T09:31:38Z</time>
      </trkpt>
      <trkpt lat="46.33122" lon="5.99991">
        <ele>1562.5</ele>
        <time>2022-07-07T09:31:46Z</time>
      </trkpt>
      <trkpt lat="46.33117" lon="5.99992">
        <ele>1561</ele>
        <time>2022-07-07T09:31:54Z</time>
      </trkpt>
      <trkpt lat="46.33113" lon="5.99992">
        <ele>1558.8</ele>
        <time>2022-07-07T09:32:03Z</time>
      </trkpt>
      <trkpt lat="46.33108" lon="5.9999">
        <ele>1555</ele>
        <time>2022-07-07T09:32:17Z</time>
      </trkpt>
      <trkpt lat="46.33104" lon="5.99994">
        <ele>1554.4</ele>
        <time>2022-07-07T09:32:33Z</time>
      </trkpt>
      <trkpt lat="46.33099" lon="5.99995">
        <ele>1554.8</ele>
        <time>2022-07-07T09:32:41Z</time>
      </trkpt>
      <trkpt lat="46.33094" lon="5.99997">
        <ele>1555.3</ele>
        <time>2022-07-07T09:32:50Z</time>
      </trkpt>
      <trkpt lat="46.3309" lon="5.99998">
        <ele>1553.7</ele>
        <time>2022-07-07T09:33:00Z</time>
      </trkpt>
      <trkpt lat="46.33085" lon="5.99998">
        <ele>1552.1</ele>
        <time>2022-07-07T09:33:07Z</time>
      </trkpt>
      <trkpt lat="46.3308" lon="5.99998">
        <ele>1550.2</ele>
        <time>2022-07-07T09:33:15Z</time>
      </trkpt>
      <trkpt lat="46.33076" lon="6">
        <ele>1547.5</ele>
        <time>2022-07-07T09:33:33Z</time>
      </trkpt>
      <trkpt lat="46.33071" lon="6">
        <ele>1547.6</ele>
        <time>2022-07-07T09:33:40Z</time>
      </trkpt>
      <trkpt lat="46.33066" lon="5.99999">
        <ele>1548.2</ele>
        <time>2022-07-07T09:33:50Z</time>
      </trkpt>
      <trkpt lat="46.33061" lon="6.00001">
        <ele>1548.7</ele>
        <time>2022-07-07T09:33:56Z</time>
      </trkpt>
      <trkpt lat="46.33056" lon="6.00003">
        <ele>1550.1</ele>
        <time>2022-07-07T09:34:03Z</time>
      </trkpt>
      <trkpt lat="46.33052" lon="6.00004">
        <ele>1551.3</ele>
        <time>2022-07-07T09:34:12Z</time>
      </trkpt>
      <trkpt lat="46.33047" lon="6.00006">
        <ele>1551.5</ele>
        <time>2022-07-07T09:34:18Z</time>
      </trkpt>
      <trkpt lat="46.33042" lon="6.00008">
        <ele>1552.2</ele>
        <time>2022-07-07T09:34:23Z</time>
      </trkpt>
      <trkpt lat="46.33038" lon="6.00009">
        <ele>1552.3</ele>
        <time>2022-07-07T09:34:29Z</time>
      </trkpt>
      <trkpt lat="46.33033" lon="6.0001">
        <ele>1552.8</ele>
        <time>2022-07-07T09:34:35Z</time>
      </trkpt>
      <trkpt lat="46.33029" lon="6.00011">
        <ele>1553.4</ele>
        <time>2022-07-07T09:34:42Z</time>
      </trkpt>
      <trkpt lat="46.33024" lon="6.00011">
        <ele>1554.1</ele>
        <time>2022-07-07T09:34:48Z</time>
      </trkpt>
      <trkpt lat="46.33019" lon="6.00011">
        <ele>1554.5</ele>
        <time>2022-07-07T09:34:53Z</time>
      </trkpt>
      <trkpt lat="46.33014" lon="6.00012">
        <ele>1555.1</ele>
        <time>2022-07-07T09:35:01Z</time>
      </trkpt>
      <trkpt lat="46.3301" lon="6.00012">
        <ele>1555.6</ele>
        <time>2022-07-07T09:35:09Z</time>
      </trkpt>
      <trkpt lat="46.33005" lon="6.00012">
        <ele>1555.8</ele>
        <time>2022-07-07T09:35:17Z</time>
      </trkpt>
      <trkpt lat="46.33" lon="6.00012">
        <ele>1555.9</ele>
        <time>2022-07-07T09:35:23Z</time>
      </trkpt>
      <trkpt lat="46.32995" lon="6.00011">
        <ele>1556.2</ele>
        <time>2022-07-07T09:35:28Z</time>
      </trkpt>
      <trkpt lat="46.32991" lon="6.00012">
        <ele>1557.3</ele>
        <time>2022-07-07T09:35:33Z</time>
      </trkpt>
      <trkpt lat="46.32986" lon="6.00012">
        <ele>1558.5</ele>
        <time>2022-07-07T09:35:39Z</time>
      </trkpt>
      <trkpt lat="46.3298" lon="6.00013">
        <ele>1560.1</ele>
        <time>2022-07-07T09:35:45Z</time>
      </trkpt>
      <trkpt lat="46.32975" lon="6.00013">
        <ele>1560.8</ele>
        <time>2022-07-07T09:35:49Z</time>
      </trkpt>
      <trkpt lat="46.32971" lon="6.00013">
        <ele>1561.2</ele>
        <time>2022-07-07T09:35:54Z</time>
      </trkpt>
      <trkpt lat="46.32966" lon="6.00014">
        <ele>1561.8</ele>
        <time>2022-07-07T09:36:02Z</time>
      </trkpt>
      <trkpt lat="46.32961" lon="6.00013">
        <ele>1563.8</ele>
        <time>2022-07-07T09:36:13Z</time>
      </trkpt>
      <trkpt lat="46.32957" lon="6.00012">
        <ele>1565.4</ele>
        <time>2022-07-07T09:36:27Z</time>
      </trkpt>
      <trkpt lat="46.32952" lon="6.00011">
        <ele>1567.3</ele>
        <time>2022-07-07T09:36:39Z</time>
      </trkpt>
      <trkpt lat="46.32947" lon="6.00011">
        <ele>1568.6</ele>
        <time>2022-07-07T09:36:50Z</time>
      </trkpt>
      <trkpt lat="46.32943" lon="6.00012">
        <ele>1570.1</ele>
        <time>2022-07-07T09:36:57Z</time>
      </trkpt>
      <trkpt lat="46.32938" lon="6.00013">
        <ele>1572.5</ele>
        <time>2022-07-07T09:37:03Z</time>
      </trkpt>
      <trkpt lat="46.32933" lon="6.00013">
        <ele>1575.5</ele>
        <time>2022-07-07T09:37:11Z</time>
      </trkpt>
      <trkpt lat="46.32928" lon="6.00012">
        <ele>1577.6</ele>
        <time>2022-07-07T09:37:20Z</time>
      </trkpt>
      <trkpt lat="46.32923" lon="6.00013">
        <ele>1579</ele>
        <time>2022-07-07T09:37:29Z</time>
      </trkpt>
      <trkpt lat="46.32919" lon="6.00015">
        <ele>1579.9</ele>
        <time>2022-07-07T09:37:38Z</time>
      </trkpt>
      <trkpt lat="46.32915" lon="6.00012">
        <ele>1580.7</ele>
        <time>2022-07-07T09:37:48Z</time>
      </trkpt>
      <trkpt lat="46.3291" lon="6.00014">
        <ele>1581.8</ele>
        <time>2022-07-07T09:37:59Z</time>
      </trkpt>
      <trkpt lat="46.32905" lon="6.00014">
        <ele>1582.2</ele>
        <time>2022-07-07T09:38:07Z</time>
      </trkpt>
      <trkpt lat="46.32901" lon="6.00017">
        <ele>1581.3</ele>
        <time>2022-07-07T09:38:24Z</time>
      </trkpt>
      <trkpt lat="46.32896" lon="6.00019">
        <ele>1580.4</ele>
        <time>2022-07-07T09:38:39Z</time>
      </trkpt>
      <trkpt lat="46.32892" lon="6.00022">
        <ele>1583.1</ele>
        <time>2022-07-07T09:39:15Z</time>
      </trkpt>
      <trkpt lat="46.32889" lon="6.00026">
        <ele>1584.6</ele>
        <time>2022-07-07T09:39:23Z</time>
      </trkpt>
      <trkpt lat="46.32884" lon="6.00029">
        <ele>1586.5</ele>
        <time>2022-07-07T09:39:30Z</time>
      </trkpt>
      <trkpt lat="46.32881" lon="6.00034">
        <ele>1590.1</ele>
        <time>2022-07-07T09:39:43Z</time>
      </trkpt>
      <trkpt lat="46.32878" lon="6.00038">
        <ele>1591.6</ele>
        <time>2022-07-07T09:39:50Z</time>
      </trkpt>
      <trkpt lat="46.32875" lon="6.00043">
        <ele>1594.8</ele>
        <time>2022-07-07T09:40:36Z</time>
      </trkpt>
      <trkpt lat="46.3287" lon="6.00045">
        <ele>1594.8</ele>
        <time>2022-07-07T09:40:44Z</time>
      </trkpt>
      <trkpt lat="46.32866" lon="6.00046">
        <ele>1596.4</ele>
        <time>2022-07-07T09:40:52Z</time>
      </trkpt>
      <trkpt lat="46.32861" lon="6.00048">
        <ele>1597.1</ele>
        <time>2022-07-07T09:40:59Z</time>
      </trkpt>
      <trkpt lat="46.32857" lon="6.00052">
        <ele>1598.3</ele>
        <time>2022-07-07T09:41:08Z</time>
      </trkpt>
      <trkpt lat="46.32853" lon="6.00054">
        <ele>1603.3</ele>
        <time>2022-07-07T09:42:15Z</time>
      </trkpt>
      <trkpt lat="46.32848" lon="6.00058">
        <ele>1603.8</ele>
        <time>2022-07-07T09:42:22Z</time>
      </trkpt>
      <trkpt lat="46.32844" lon="6.00061">
        <ele>1605.4</ele>
        <time>2022-07-07T09:42:35Z</time>
      </trkpt>
      <trkpt lat="46.32839" lon="6.00063">
        <ele>1607</ele>
        <time>2022-07-07T09:42:50Z</time>
      </trkpt>
      <trkpt lat="46.32834" lon="6.00065">
        <ele>1606.5</ele>
        <time>2022-07-07T09:42:58Z</time>
      </trkpt>
      <trkpt lat="46.3283" lon="6.00067">
        <ele>1604.8</ele>
        <time>2022-07-07T09:43:07Z</time>
      </trkpt>
      <trkpt lat="46.32826" lon="6.0007">
        <ele>1603.6</ele>
        <time>2022-07-07T09:43:13Z</time>
      </trkpt>
      <trkpt lat="46.32821" lon="6.00072">
        <ele>1603</ele>
        <time>2022-07-07T09:43:18Z</time>
      </trkpt>
      <trkpt lat="46.32817" lon="6.00073">
        <ele>1602.4</ele>
        <time>2022-07-07T09:43:24Z</time>
      </trkpt>
      <trkpt lat="46.32812" lon="6.00072">
        <ele>1602</ele>
        <time>2022-07-07T09:43:30Z</time>
      </trkpt>
      <trkpt lat="46.32807" lon="6.00072">
        <ele>1601.4</ele>
        <time>2022-07-07T09:43:35Z</time>
      </trkpt>
      <trkpt lat="46.32802" lon="6.00071">
        <ele>1600.7</ele>
        <time>2022-07-07T09:43:41Z</time>
      </trkpt>
      <trkpt lat="46.32797" lon="6.00072">
        <ele>1599.2</ele>
        <time>2022-07-07T09:43:52Z</time>
      </trkpt>
      <trkpt lat="46.32792" lon="6.00074">
        <ele>1599.3</ele>
        <time>2022-07-07T09:43:58Z</time>
      </trkpt>
      <trkpt lat="46.32787" lon="6.00076">
        <ele>1599.8</ele>
        <time>2022-07-07T09:44:03Z</time>
      </trkpt>
      <trkpt lat="46.32783" lon="6.00079">
        <ele>1600.7</ele>
        <time>2022-07-07T09:44:09Z</time>
      </trkpt>
      <trkpt lat="46.32778" lon="6.00082">
        <ele>1601.5</ele>
        <time>2022-07-07T09:44:15Z</time>
      </trkpt>
      <trkpt lat="46.32774" lon="6.00084">
        <ele>1602.4</ele>
        <time>2022-07-07T09:44:20Z</time>
      </trkpt>
      <trkpt lat="46.3277" lon="6.00086">
        <ele>1603.2</ele>
        <time>2022-07-07T09:44:27Z</time>
      </trkpt>
      <trkpt lat="46.32765" lon="6.00089">
        <ele>1603.8</ele>
        <time>2022-07-07T09:44:35Z</time>
      </trkpt>
      <trkpt lat="46.32761" lon="6.00091">
        <ele>1604.8</ele>
        <time>2022-07-07T09:44:47Z</time>
      </trkpt>
      <trkpt lat="46.32756" lon="6.00094">
        <ele>1605.2</ele>
        <time>2022-07-07T09:44:53Z</time>
      </trkpt>
      <trkpt lat="46.32752" lon="6.00097">
        <ele>1605.6</ele>
        <time>2022-07-07T09:45:00Z</time>
      </trkpt>
      <trkpt lat="46.32747" lon="6.00099">
        <ele>1606.2</ele>
        <time>2022-07-07T09:45:06Z</time>
      </trkpt>
      <trkpt lat="46.32743" lon="6.00104">
        <ele>1606.5</ele>
        <time>2022-07-07T09:45:12Z</time>
      </trkpt>
      <trkpt lat="46.3274" lon="6.00109">
        <ele>1606.5</ele>
        <time>2022-07-07T09:45:19Z</time>
      </trkpt>
      <trkpt lat="46.32736" lon="6.00113">
        <ele>1606.7</ele>
        <time>2022-07-07T09:45:26Z</time>
      </trkpt>
      <trkpt lat="46.32731" lon="6.00115">
        <ele>1607.8</ele>
        <time>2022-07-07T09:45:33Z</time>
      </trkpt>
      <trkpt lat="46.32727" lon="6.00119">
        <ele>1609.2</ele>
        <time>2022-07-07T09:45:40Z</time>
      </trkpt>
      <trkpt lat="46.32725" lon="6.00124">
        <ele>1611.5</ele>
        <time>2022-07-07T09:45:48Z</time>
      </trkpt>
      <trkpt lat="46.32721" lon="6.00128">
        <ele>1613.2</ele>
        <time>2022-07-07T09:45:59Z</time>
      </trkpt>
      <trkpt lat="46.32716" lon="6.0013">
        <ele>1612</ele>
        <time>2022-07-07T09:46:09Z</time>
      </trkpt>
      <trkpt lat="46.32711" lon="6.00131">
        <ele>1609.1</ele>
        <time>2022-07-07T09:46:18Z</time>
      </trkpt>
      <trkpt lat="46.32706" lon="6.00133">
        <ele>1607.2</ele>
        <time>2022-07-07T09:46:24Z</time>
      </trkpt>
      <trkpt lat="46.32702" lon="6.00136">
        <ele>1605.7</ele>
        <time>2022-07-07T09:46:30Z</time>
      </trkpt>
      <trkpt lat="46.32697" lon="6.00138">
        <ele>1603.5</ele>
        <time>2022-07-07T09:46:39Z</time>
      </trkpt>
      <trkpt lat="46.32692" lon="6.00138">
        <ele>1601.4</ele>
        <time>2022-07-07T09:46:48Z</time>
      </trkpt>
      <trkpt lat="46.32687" lon="6.00136">
        <ele>1599.4</ele>
        <time>2022-07-07T09:46:55Z</time>
      </trkpt>
      <trkpt lat="46.32683" lon="6.00136">
        <ele>1598.2</ele>
        <time>2022-07-07T09:47:00Z</time>
      </trkpt>
      <trkpt lat="46.32678" lon="6.00136">
        <ele>1597.8</ele>
        <time>2022-07-07T09:47:04Z</time>
      </trkpt>
      <trkpt lat="46.32673" lon="6.00137">
        <ele>1597.7</ele>
        <time>2022-07-07T09:47:09Z</time>
      </trkpt>
      <trkpt lat="46.32669" lon="6.00138">
        <ele>1597.3</ele>
        <time>2022-07-07T09:47:14Z</time>
      </trkpt>
      <trkpt lat="46.32664" lon="6.00137">
        <ele>1596.3</ele>
        <time>2022-07-07T09:47:22Z</time>
      </trkpt>
      <trkpt lat="46.32659" lon="6.00137">
        <ele>1596.1</ele>
        <time>2022-07-07T09:47:30Z</time>
      </trkpt>
      <trkpt lat="46.32655" lon="6.00136">
        <ele>1595.3</ele>
        <time>2022-07-07T09:47:36Z</time>
      </trkpt>
      <trkpt lat="46.3265" lon="6.00139">
        <ele>1593.7</ele>
        <time>2022-07-07T09:47:44Z</time>
      </trkpt>
      <trkpt lat="46.32646" lon="6.00143">
        <ele>1592.5</ele>
        <time>2022-07-07T09:47:50Z</time>
      </trkpt>
      <trkpt lat="46.32642" lon="6.00146">
        <ele>1591.3</ele>
        <time>2022-07-07T09:47:55Z</time>
      </trkpt>
      <trkpt lat="46.32638" lon="6.0015">
        <ele>1589.7</ele>
        <time>2022-07-07T09:48:01Z</time>
      </trkpt>
      <trkpt lat="46.32633" lon="6.00152">
        <ele>1589.1</ele>
        <time>2022-07-07T09:48:07Z</time>
      </trkpt>
      <trkpt lat="46.32629" lon="6.00154">
        <ele>1588.6</ele>
        <time>2022-07-07T09:48:13Z</time>
      </trkpt>
      <trkpt lat="46.32623" lon="6.00154">
        <ele>1588</ele>
        <time>2022-07-07T09:48:19Z</time>
      </trkpt>
      <trkpt lat="46.32619" lon="6.00152">
        <ele>1587.7</ele>
        <time>2022-07-07T09:48:24Z</time>
      </trkpt>
      <trkpt lat="46.32614" lon="6.00152">
        <ele>1587.5</ele>
        <time>2022-07-07T09:48:29Z</time>
      </trkpt>
      <trkpt lat="46.3261" lon="6.00152">
        <ele>1587.4</ele>
        <time>2022-07-07T09:48:33Z</time>
      </trkpt>
      <trkpt lat="46.32605" lon="6.0015">
        <ele>1587.1</ele>
        <time>2022-07-07T09:48:38Z</time>
      </trkpt>
      <trkpt lat="46.326" lon="6.00149">
        <ele>1586.6</ele>
        <time>2022-07-07T09:48:43Z</time>
      </trkpt>
      <trkpt lat="46.32595" lon="6.00148">
        <ele>1586.5</ele>
        <time>2022-07-07T09:48:49Z</time>
      </trkpt>
      <trkpt lat="46.32591" lon="6.00151">
        <ele>1586.2</ele>
        <time>2022-07-07T09:49:01Z</time>
      </trkpt>
      <trkpt lat="46.32587" lon="6.00148">
        <ele>1586.8</ele>
        <time>2022-07-07T09:49:10Z</time>
      </trkpt>
      <trkpt lat="46.32583" lon="6.00143">
        <ele>1587.4</ele>
        <time>2022-07-07T09:49:16Z</time>
      </trkpt>
      <trkpt lat="46.32579" lon="6.00139">
        <ele>1588.6</ele>
        <time>2022-07-07T09:49:24Z</time>
      </trkpt>
      <trkpt lat="46.32574" lon="6.00138">
        <ele>1589.6</ele>
        <time>2022-07-07T09:49:33Z</time>
      </trkpt>
      <trkpt lat="46.3257" lon="6.00134">
        <ele>1590.3</ele>
        <time>2022-07-07T09:49:42Z</time>
      </trkpt>
      <trkpt lat="46.32566" lon="6.00132">
        <ele>1590.4</ele>
        <time>2022-07-07T09:49:53Z</time>
      </trkpt>
      <trkpt lat="46.32562" lon="6.00129">
        <ele>1590.5</ele>
        <time>2022-07-07T09:50:00Z</time>
      </trkpt>
      <trkpt lat="46.32557" lon="6.00125">
        <ele>1591</ele>
        <time>2022-07-07T09:50:06Z</time>
      </trkpt>
      <trkpt lat="46.32553" lon="6.00125">
        <ele>1591.6</ele>
        <time>2022-07-07T09:50:13Z</time>
      </trkpt>
      <trkpt lat="46.32548" lon="6.00126">
        <ele>1592.5</ele>
        <time>2022-07-07T09:50:20Z</time>
      </trkpt>
      <trkpt lat="46.32543" lon="6.00125">
        <ele>1593.4</ele>
        <time>2022-07-07T09:50:28Z</time>
      </trkpt>
      <trkpt lat="46.32538" lon="6.00125">
        <ele>1594.6</ele>
        <time>2022-07-07T09:50:39Z</time>
      </trkpt>
      <trkpt lat="46.32534" lon="6.00123">
        <ele>1595.5</ele>
        <time>2022-07-07T09:50:46Z</time>
      </trkpt>
      <trkpt lat="46.32529" lon="6.00122">
        <ele>1597</ele>
        <time>2022-07-07T09:50:56Z</time>
      </trkpt>
      <trkpt lat="46.32524" lon="6.00122">
        <ele>1597.6</ele>
        <time>2022-07-07T09:51:02Z</time>
      </trkpt>
      <trkpt lat="46.32519" lon="6.00122">
        <ele>1598</ele>
        <time>2022-07-07T09:51:07Z</time>
      </trkpt>
      <trkpt lat="46.32514" lon="6.0012">
        <ele>1598.9</ele>
        <time>2022-07-07T09:51:13Z</time>
      </trkpt>
      <trkpt lat="46.3251" lon="6.00119">
        <ele>1600</ele>
        <time>2022-07-07T09:51:18Z</time>
      </trkpt>
      <trkpt lat="46.32506" lon="6.00115">
        <ele>1602.6</ele>
        <time>2022-07-07T09:51:27Z</time>
      </trkpt>
      <trkpt lat="46.32502" lon="6.00109">
        <ele>1604.5</ele>
        <time>2022-07-07T09:51:34Z</time>
      </trkpt>
      <trkpt lat="46.32499" lon="6.00104">
        <ele>1606.1</ele>
        <time>2022-07-07T09:51:39Z</time>
      </trkpt>
      <trkpt lat="46.32494" lon="6.00101">
        <ele>1607.8</ele>
        <time>2022-07-07T09:51:46Z</time>
      </trkpt>
      <trkpt lat="46.3249" lon="6.00098">
        <ele>1608.7</ele>
        <time>2022-07-07T09:51:52Z</time>
      </trkpt>
      <trkpt lat="46.32486" lon="6.00094">
        <ele>1609.8</ele>
        <time>2022-07-07T09:51:59Z</time>
      </trkpt>
      <trkpt lat="46.32482" lon="6.00091">
        <ele>1611.1</ele>
        <time>2022-07-07T09:52:05Z</time>
      </trkpt>
      <trkpt lat="46.32478" lon="6.00087">
        <ele>1613</ele>
        <time>2022-07-07T09:52:13Z</time>
      </trkpt>
      <trkpt lat="46.32473" lon="6.00082">
        <ele>1614.1</ele>
        <time>2022-07-07T09:52:19Z</time>
      </trkpt>
      <trkpt lat="46.32471" lon="6.00076">
        <ele>1614.1</ele>
        <time>2022-07-07T09:52:26Z</time>
      </trkpt>
      <trkpt lat="46.32471" lon="6.00068">
        <ele>1614</ele>
        <time>2022-07-07T09:52:32Z</time>
      </trkpt>
      <trkpt lat="46.32471" lon="6.00061">
        <ele>1614.6</ele>
        <time>2022-07-07T09:52:39Z</time>
      </trkpt>
      <trkpt lat="46.3247" lon="6.00054">
        <ele>1615.7</ele>
        <time>2022-07-07T09:52:46Z</time>
      </trkpt>
      <trkpt lat="46.32468" lon="6.00047">
        <ele>1616.8</ele>
        <time>2022-07-07T09:52:52Z</time>
      </trkpt>
      <trkpt lat="46.32468" lon="6.0004">
        <ele>1617.5</ele>
        <time>2022-07-07T09:52:57Z</time>
      </trkpt>
      <trkpt lat="46.32467" lon="6.00033">
        <ele>1618.2</ele>
        <time>2022-07-07T09:53:02Z</time>
      </trkpt>
      <trkpt lat="46.32467" lon="6.00026">
        <ele>1618.8</ele>
        <time>2022-07-07T09:53:09Z</time>
      </trkpt>
      <trkpt lat="46.32465" lon="6.00019">
        <ele>1619.1</ele>
        <time>2022-07-07T09:53:15Z</time>
      </trkpt>
      <trkpt lat="46.32464" lon="6.00012">
        <ele>1619.4</ele>
        <time>2022-07-07T09:53:19Z</time>
      </trkpt>
      <trkpt lat="46.32464" lon="6.00005">
        <ele>1620.2</ele>
        <time>2022-07-07T09:53:25Z</time>
      </trkpt>
      <trkpt lat="46.32464" lon="5.99998">
        <ele>1620.8</ele>
        <time>2022-07-07T09:53:32Z</time>
      </trkpt>
      <trkpt lat="46.32463" lon="5.99992">
        <ele>1620.8</ele>
        <time>2022-07-07T09:53:37Z</time>
      </trkpt>
      <trkpt lat="46.32461" lon="5.99984">
        <ele>1619.9</ele>
        <time>2022-07-07T09:53:44Z</time>
      </trkpt>
      <trkpt lat="46.3246" lon="5.99978">
        <ele>1617</ele>
        <time>2022-07-07T09:55:28Z</time>
      </trkpt>
      <trkpt lat="46.32458" lon="5.99971">
        <ele>1617.3</ele>
        <time>2022-07-07T09:56:11Z</time>
      </trkpt>
      <trkpt lat="46.32455" lon="5.99965">
        <ele>1617.9</ele>
        <time>2022-07-07T09:56:16Z</time>
      </trkpt>
      <trkpt lat="46.32453" lon="5.99958">
        <ele>1617.9</ele>
        <time>2022-07-07T09:56:21Z</time>
      </trkpt>
      <trkpt lat="46.32452" lon="5.99951">
        <ele>1617.8</ele>
        <time>2022-07-07T09:56:26Z</time>
      </trkpt>
      <trkpt lat="46.32451" lon="5.99944">
        <ele>1617.5</ele>
        <time>2022-07-07T09:56:31Z</time>
      </trkpt>
      <trkpt lat="46.3245" lon="5.99938">
        <ele>1617.6</ele>
        <time>2022-07-07T09:56:36Z</time>
      </trkpt>
      <trkpt lat="46.3245" lon="5.9993">
        <ele>1618.4</ele>
        <time>2022-07-07T09:56:42Z</time>
      </trkpt>
      <trkpt lat="46.32449" lon="5.99924">
        <ele>1619</ele>
        <time>2022-07-07T09:56:47Z</time>
      </trkpt>
      <trkpt lat="46.32448" lon="5.99916">
        <ele>1619.3</ele>
        <time>2022-07-07T09:56:52Z</time>
      </trkpt>
      <trkpt lat="46.32446" lon="5.99909">
        <ele>1619.1</ele>
        <time>2022-07-07T09:56:57Z</time>
      </trkpt>
      <trkpt lat="46.32446" lon="5.99902">
        <ele>1618.6</ele>
        <time>2022-07-07T09:57:02Z</time>
      </trkpt>
      <trkpt lat="46.32445" lon="5.99895">
        <ele>1618.9</ele>
        <time>2022-07-07T09:57:06Z</time>
      </trkpt>
      <trkpt lat="46.32444" lon="5.99888">
        <ele>1619.4</ele>
        <time>2022-07-07T09:57:10Z</time>
      </trkpt>
      <trkpt lat="46.32443" lon="5.99882">
        <ele>1619.7</ele>
        <time>2022-07-07T09:57:15Z</time>
      </trkpt>
      <trkpt lat="46.32441" lon="5.99875">
        <ele>1619.5</ele>
        <time>2022-07-07T09:57:20Z</time>
      </trkpt>
      <trkpt lat="46.32441" lon="5.99868">
        <ele>1619.4</ele>
        <time>2022-07-07T09:57:24Z</time>
      </trkpt>
      <trkpt lat="46.32441" lon="5.99861">
        <ele>1619.7</ele>
        <time>2022-07-07T09:57:29Z</time>
      </trkpt>
      <trkpt lat="46.32439" lon="5.99854">
        <ele>1620</ele>
        <time>2022-07-07T09:57:33Z</time>
      </trkpt>
      <trkpt lat="46.32438" lon="5.99848">
        <ele>1620</ele>
        <time>2022-07-07T09:57:37Z</time>
      </trkpt>
      <trkpt lat="46.32436" lon="5.99842">
        <ele>1620.1</ele>
        <time>2022-07-07T09:57:41Z</time>
      </trkpt>
      <trkpt lat="46.32434" lon="5.99835">
        <ele>1620.2</ele>
        <time>2022-07-07T09:57:46Z</time>
      </trkpt>
      <trkpt lat="46.32431" lon="5.9983">
        <ele>1620.3</ele>
        <time>2022-07-07T09:57:54Z</time>
      </trkpt>
      <trkpt lat="46.32428" lon="5.99825">
        <ele>1620.5</ele>
        <time>2022-07-07T09:57:58Z</time>
      </trkpt>
      <trkpt lat="46.32423" lon="5.99821">
        <ele>1620.3</ele>
        <time>2022-07-07T09:58:03Z</time>
      </trkpt>
      <trkpt lat="46.3242" lon="5.99815">
        <ele>1619.6</ele>
        <time>2022-07-07T09:58:08Z</time>
      </trkpt>
      <trkpt lat="46.32418" lon="5.99808">
        <ele>1619.1</ele>
        <time>2022-07-07T09:58:13Z</time>
      </trkpt>
      <trkpt lat="46.32415" lon="5.99804">
        <ele>1618.8</ele>
        <time>2022-07-07T09:58:18Z</time>
      </trkpt>
      <trkpt lat="46.32411" lon="5.99799">
        <ele>1619.3</ele>
        <time>2022-07-07T09:58:23Z</time>
      </trkpt>
      <trkpt lat="46.32407" lon="5.99795">
        <ele>1620.2</ele>
        <time>2022-07-07T09:58:28Z</time>
      </trkpt>
      <trkpt lat="46.32403" lon="5.99792">
        <ele>1620.9</ele>
        <time>2022-07-07T09:58:33Z</time>
      </trkpt>
      <trkpt lat="46.32399" lon="5.99786">
        <ele>1620.9</ele>
        <time>2022-07-07T09:58:38Z</time>
      </trkpt>
      <trkpt lat="46.32397" lon="5.9978">
        <ele>1620.2</ele>
        <time>2022-07-07T09:58:43Z</time>
      </trkpt>
      <trkpt lat="46.32395" lon="5.99772">
        <ele>1620</ele>
        <time>2022-07-07T09:58:50Z</time>
      </trkpt>
      <trkpt lat="46.32394" lon="5.99765">
        <ele>1620.8</ele>
        <time>2022-07-07T09:58:56Z</time>
      </trkpt>
      <trkpt lat="46.32393" lon="5.99758">
        <ele>1621.7</ele>
        <time>2022-07-07T09:59:02Z</time>
      </trkpt>
      <trkpt lat="46.32392" lon="5.99751">
        <ele>1622.6</ele>
        <time>2022-07-07T09:59:09Z</time>
      </trkpt>
      <trkpt lat="46.3239" lon="5.99745">
        <ele>1624.1</ele>
        <time>2022-07-07T09:59:16Z</time>
      </trkpt>
      <trkpt lat="46.32387" lon="5.99739">
        <ele>1625.6</ele>
        <time>2022-07-07T09:59:24Z</time>
      </trkpt>
      <trkpt lat="46.32383" lon="5.99735">
        <ele>1626.5</ele>
        <time>2022-07-07T09:59:30Z</time>
      </trkpt>
      <trkpt lat="46.3238" lon="5.99729">
        <ele>1627.4</ele>
        <time>2022-07-07T09:59:39Z</time>
      </trkpt>
      <trkpt lat="46.32379" lon="5.99722">
        <ele>1628.8</ele>
        <time>2022-07-07T09:59:46Z</time>
      </trkpt>
      <trkpt lat="46.32378" lon="5.99716">
        <ele>1630.7</ele>
        <time>2022-07-07T09:59:51Z</time>
      </trkpt>
      <trkpt lat="46.32375" lon="5.9971">
        <ele>1632.5</ele>
        <time>2022-07-07T09:59:58Z</time>
      </trkpt>
      <trkpt lat="46.32371" lon="5.99707">
        <ele>1633</ele>
        <time>2022-07-07T10:00:12Z</time>
      </trkpt>
      <trkpt lat="46.32367" lon="5.99704">
        <ele>1633.3</ele>
        <time>2022-07-07T10:00:21Z</time>
      </trkpt>
      <trkpt lat="46.32362" lon="5.99701">
        <ele>1636</ele>
        <time>2022-07-07T10:00:34Z</time>
      </trkpt>
      <trkpt lat="46.32358" lon="5.99699">
        <ele>1637.2</ele>
        <time>2022-07-07T10:00:44Z</time>
      </trkpt>
      <trkpt lat="46.32353" lon="5.997">
        <ele>1638.5</ele>
        <time>2022-07-07T10:00:52Z</time>
      </trkpt>
      <trkpt lat="46.32349" lon="5.99702">
        <ele>1640</ele>
        <time>2022-07-07T10:00:59Z</time>
      </trkpt>
      <trkpt lat="46.32344" lon="5.997">
        <ele>1643.8</ele>
        <time>2022-07-07T10:01:14Z</time>
      </trkpt>
      <trkpt lat="46.3234" lon="5.99695">
        <ele>1646.7</ele>
        <time>2022-07-07T10:02:20Z</time>
      </trkpt>
      <trkpt lat="46.32337" lon="5.99691">
        <ele>1646.9</ele>
        <time>2022-07-07T10:02:27Z</time>
      </trkpt>
      <trkpt lat="46.32333" lon="5.99686">
        <ele>1647.7</ele>
        <time>2022-07-07T10:02:35Z</time>
      </trkpt>
      <trkpt lat="46.3233" lon="5.99682">
        <ele>1648.9</ele>
        <time>2022-07-07T10:02:43Z</time>
      </trkpt>
      <trkpt lat="46.32326" lon="5.99677">
        <ele>1650.2</ele>
        <time>2022-07-07T10:02:53Z</time>
      </trkpt>
      <trkpt lat="46.32322" lon="5.99673">
        <ele>1651.4</ele>
        <time>2022-07-07T10:03:00Z</time>
      </trkpt>
      <trkpt lat="46.32319" lon="5.99668">
        <ele>1654.3</ele>
        <time>2022-07-07T10:03:10Z</time>
      </trkpt>
      <trkpt lat="46.32316" lon="5.99662">
        <ele>1656.8</ele>
        <time>2022-07-07T10:03:18Z</time>
      </trkpt>
      <trkpt lat="46.32314" lon="5.99657">
        <ele>1658.9</ele>
        <time>2022-07-07T10:03:25Z</time>
      </trkpt>
      <trkpt lat="46.32311" lon="5.99651">
        <ele>1661.1</ele>
        <time>2022-07-07T10:03:34Z</time>
      </trkpt>
      <trkpt lat="46.32309" lon="5.99646">
        <ele>1661.9</ele>
        <time>2022-07-07T10:03:43Z</time>
      </trkpt>
      <trkpt lat="46.32306" lon="5.9964">
        <ele>1661.5</ele>
        <time>2022-07-07T10:03:50Z</time>
      </trkpt>
      <trkpt lat="46.32304" lon="5.99634">
        <ele>1661.9</ele>
        <time>2022-07-07T10:03:58Z</time>
      </trkpt>
      <trkpt lat="46.32301" lon="5.99628">
        <ele>1662.8</ele>
        <time>2022-07-07T10:04:05Z</time>
      </trkpt>
      <trkpt lat="46.32297" lon="5.99623">
        <ele>1664.1</ele>
        <time>2022-07-07T10:04:15Z</time>
      </trkpt>
      <trkpt lat="46.32294" lon="5.99617">
        <ele>1665.6</ele>
        <time>2022-07-07T10:04:23Z</time>
      </trkpt>
      <trkpt lat="46.32292" lon="5.99611">
        <ele>1667.8</ele>
        <time>2022-07-07T10:04:32Z</time>
      </trkpt>
      <trkpt lat="46.3229" lon="5.99605">
        <ele>1669.2</ele>
        <time>2022-07-07T10:04:42Z</time>
      </trkpt>
      <trkpt lat="46.32286" lon="5.996">
        <ele>1670.4</ele>
        <time>2022-07-07T10:04:55Z</time>
      </trkpt>
      <trkpt lat="46.32283" lon="5.99595">
        <ele>1671.9</ele>
        <time>2022-07-07T10:05:05Z</time>
      </trkpt>
      <trkpt lat="46.3228" lon="5.9959">
        <ele>1673.5</ele>
        <time>2022-07-07T10:05:15Z</time>
      </trkpt>
      <trkpt lat="46.32277" lon="5.99585">
        <ele>1673.9</ele>
        <time>2022-07-07T10:05:23Z</time>
      </trkpt>
      <trkpt lat="46.32274" lon="5.99579">
        <ele>1676</ele>
        <time>2022-07-07T10:05:34Z</time>
      </trkpt>
      <trkpt lat="46.3227" lon="5.99576">
        <ele>1677.8</ele>
        <time>2022-07-07T10:05:47Z</time>
      </trkpt>
      <trkpt lat="46.32267" lon="5.9957">
        <ele>1678.7</ele>
        <time>2022-07-07T10:05:54Z</time>
      </trkpt>
      <trkpt lat="46.32264" lon="5.99566">
        <ele>1680.4</ele>
        <time>2022-07-07T10:06:03Z</time>
      </trkpt>
      <trkpt lat="46.3226" lon="5.99561">
        <ele>1681.8</ele>
        <time>2022-07-07T10:06:09Z</time>
      </trkpt>
      <trkpt lat="46.32257" lon="5.99555">
        <ele>1683.6</ele>
        <time>2022-07-07T10:06:18Z</time>
      </trkpt>
      <trkpt lat="46.32254" lon="5.9955">
        <ele>1684.9</ele>
        <time>2022-07-07T10:06:25Z</time>
      </trkpt>
      <trkpt lat="46.32251" lon="5.99544">
        <ele>1686.6</ele>
        <time>2022-07-07T10:06:31Z</time>
      </trkpt>
      <trkpt lat="46.32247" lon="5.9954">
        <ele>1688.6</ele>
        <time>2022-07-07T10:06:38Z</time>
      </trkpt>
      <trkpt lat="46.32243" lon="5.99542">
        <ele>1691.6</ele>
        <time>2022-07-07T10:06:46Z</time>
      </trkpt>
      <trkpt lat="46.32238" lon="5.9954">
        <ele>1691.7</ele>
        <time>2022-07-07T10:07:11Z</time>
      </trkpt>
      <trkpt lat="46.32234" lon="5.99535">
        <ele>1692.1</ele>
        <time>2022-07-07T10:07:19Z</time>
      </trkpt>
      <trkpt lat="46.32237" lon="5.99541">
        <ele>1691.9</ele>
        <time>2022-07-07T10:10:06Z</time>
      </trkpt>
      <trkpt lat="46.32234" lon="5.99536">
        <ele>1692</ele>
        <time>2022-07-07T10:10:53Z</time>
      </trkpt>
      <trkpt lat="46.3223" lon="5.99533">
        <ele>1691.9</ele>
        <time>2022-07-07T10:11:02Z</time>
      </trkpt>
      <trkpt lat="46.32232" lon="5.99539">
        <ele>1690.8</ele>
        <time>2022-07-07T10:13:21Z</time>
      </trkpt>
      <trkpt lat="46.32237" lon="5.9954">
        <ele>1690</ele>
        <time>2022-07-07T10:15:57Z</time>
      </trkpt>
      <trkpt lat="46.32241" lon="5.99542">
        <ele>1690.1</ele>
        <time>2022-07-07T10:16:03Z</time>
      </trkpt>
      <trkpt lat="46.32246" lon="5.99543">
        <ele>1689</ele>
        <time>2022-07-07T10:16:10Z</time>
      </trkpt>
      <trkpt lat="46.3225" lon="5.99542">
        <ele>1687.5</ele>
        <time>2022-07-07T10:16:16Z</time>
      </trkpt>
      <trkpt lat="46.32255" lon="5.99542">
        <ele>1686.6</ele>
        <time>2022-07-07T10:16:21Z</time>
      </trkpt>
      <trkpt lat="46.3226" lon="5.99541">
        <ele>1686.5</ele>
        <time>2022-07-07T10:16:25Z</time>
      </trkpt>
      <trkpt lat="46.32265" lon="5.9954">
        <ele>1686.1</ele>
        <time>2022-07-07T10:16:30Z</time>
      </trkpt>
      <trkpt lat="46.3227" lon="5.9954">
        <ele>1685.9</ele>
        <time>2022-07-07T10:16:35Z</time>
      </trkpt>
      <trkpt lat="46.32275" lon="5.9954">
        <ele>1685.6</ele>
        <time>2022-07-07T10:16:40Z</time>
      </trkpt>
      <trkpt lat="46.3228" lon="5.99541">
        <ele>1684.7</ele>
        <time>2022-07-07T10:16:45Z</time>
      </trkpt>
      <trkpt lat="46.32285" lon="5.99542">
        <ele>1682.8</ele>
        <time>2022-07-07T10:16:52Z</time>
      </trkpt>
      <trkpt lat="46.3229" lon="5.99544">
        <ele>1680.9</ele>
        <time>2022-07-07T10:16:58Z</time>
      </trkpt>
      <trkpt lat="46.32295" lon="5.99544">
        <ele>1679.2</ele>
        <time>2022-07-07T10:17:04Z</time>
      </trkpt>
      <trkpt lat="46.323" lon="5.99544">
        <ele>1678</ele>
        <time>2022-07-07T10:17:10Z</time>
      </trkpt>
      <trkpt lat="46.32305" lon="5.99545">
        <ele>1677.2</ele>
        <time>2022-07-07T10:17:14Z</time>
      </trkpt>
      <trkpt lat="46.3231" lon="5.99547">
        <ele>1676.3</ele>
        <time>2022-07-07T10:17:20Z</time>
      </trkpt>
      <trkpt lat="46.32315" lon="5.99548">
        <ele>1674.8</ele>
        <time>2022-07-07T10:17:26Z</time>
      </trkpt>
      <trkpt lat="46.3232" lon="5.99552">
        <ele>1672.7</ele>
        <time>2022-07-07T10:17:32Z</time>
      </trkpt>
      <trkpt lat="46.32324" lon="5.99554">
        <ele>1671.4</ele>
        <time>2022-07-07T10:17:38Z</time>
      </trkpt>
      <trkpt lat="46.32329" lon="5.99555">
        <ele>1670.7</ele>
        <time>2022-07-07T10:17:44Z</time>
      </trkpt>
      <trkpt lat="46.32334" lon="5.99559">
        <ele>1669.2</ele>
        <time>2022-07-07T10:17:51Z</time>
      </trkpt>
      <trkpt lat="46.32338" lon="5.9956">
        <ele>1667.4</ele>
        <time>2022-07-07T10:17:57Z</time>
      </trkpt>
      <trkpt lat="46.32343" lon="5.99562">
        <ele>1665.1</ele>
        <time>2022-07-07T10:18:04Z</time>
      </trkpt>
      <trkpt lat="46.32347" lon="5.99562">
        <ele>1663.1</ele>
        <time>2022-07-07T10:18:11Z</time>
      </trkpt>
      <trkpt lat="46.32352" lon="5.99561">
        <ele>1661</ele>
        <time>2022-07-07T10:18:19Z</time>
      </trkpt>
      <trkpt lat="46.32356" lon="5.99557">
        <ele>1658.8</ele>
        <time>2022-07-07T10:18:28Z</time>
      </trkpt>
      <trkpt lat="46.32361" lon="5.99554">
        <ele>1657.1</ele>
        <time>2022-07-07T10:18:35Z</time>
      </trkpt>
      <trkpt lat="46.32365" lon="5.99551">
        <ele>1656</ele>
        <time>2022-07-07T10:18:42Z</time>
      </trkpt>
      <trkpt lat="46.3237" lon="5.9955">
        <ele>1655.2</ele>
        <time>2022-07-07T10:18:55Z</time>
      </trkpt>
      <trkpt lat="46.32375" lon="5.99549">
        <ele>1654.8</ele>
        <time>2022-07-07T10:19:01Z</time>
      </trkpt>
      <trkpt lat="46.32379" lon="5.99548">
        <ele>1653.8</ele>
        <time>2022-07-07T10:19:08Z</time>
      </trkpt>
      <trkpt lat="46.32384" lon="5.99546">
        <ele>1651.9</ele>
        <time>2022-07-07T10:19:15Z</time>
      </trkpt>
      <trkpt lat="46.32388" lon="5.99541">
        <ele>1650</ele>
        <time>2022-07-07T10:19:21Z</time>
      </trkpt>
      <trkpt lat="46.32392" lon="5.99537">
        <ele>1648.1</ele>
        <time>2022-07-07T10:19:28Z</time>
      </trkpt>
      <trkpt lat="46.32395" lon="5.99533">
        <ele>1646.5</ele>
        <time>2022-07-07T10:19:36Z</time>
      </trkpt>
      <trkpt lat="46.324" lon="5.99533">
        <ele>1643.8</ele>
        <time>2022-07-07T10:19:46Z</time>
      </trkpt>
      <trkpt lat="46.32405" lon="5.99533">
        <ele>1641.6</ele>
        <time>2022-07-07T10:19:55Z</time>
      </trkpt>
      <trkpt lat="46.3241" lon="5.99531">
        <ele>1640.3</ele>
        <time>2022-07-07T10:20:01Z</time>
      </trkpt>
      <trkpt lat="46.32414" lon="5.99529">
        <ele>1638.7</ele>
        <time>2022-07-07T10:20:10Z</time>
      </trkpt>
      <trkpt lat="46.32418" lon="5.99533">
        <ele>1635.1</ele>
        <time>2022-07-07T10:21:28Z</time>
      </trkpt>
      <trkpt lat="46.32422" lon="5.99537">
        <ele>1633.2</ele>
        <time>2022-07-07T10:21:44Z</time>
      </trkpt>
      <trkpt lat="46.32427" lon="5.99537">
        <ele>1630.8</ele>
        <time>2022-07-07T10:21:56Z</time>
      </trkpt>
      <trkpt lat="46.32432" lon="5.99535">
        <ele>1629.3</ele>
        <time>2022-07-07T10:22:06Z</time>
      </trkpt>
      <trkpt lat="46.32436" lon="5.99531">
        <ele>1629.5</ele>
        <time>2022-07-07T10:22:12Z</time>
      </trkpt>
      <trkpt lat="46.32441" lon="5.99529">
        <ele>1629.6</ele>
        <time>2022-07-07T10:22:18Z</time>
      </trkpt>
      <trkpt lat="46.32443" lon="5.99535">
        <ele>1627.1</ele>
        <time>2022-07-07T10:22:28Z</time>
      </trkpt>
      <trkpt lat="46.32447" lon="5.99539">
        <ele>1623.7</ele>
        <time>2022-07-07T10:22:38Z</time>
      </trkpt>
      <trkpt lat="46.32452" lon="5.99539">
        <ele>1622.6</ele>
        <time>2022-07-07T10:22:43Z</time>
      </trkpt>
      <trkpt lat="46.32457" lon="5.9954">
        <ele>1619.4</ele>
        <time>2022-07-07T10:22:54Z</time>
      </trkpt>
      <trkpt lat="46.32462" lon="5.99539">
        <ele>1617.7</ele>
        <time>2022-07-07T10:22:59Z</time>
      </trkpt>
      <trkpt lat="46.32466" lon="5.99542">
        <ele>1615.7</ele>
        <time>2022-07-07T10:23:06Z</time>
      </trkpt>
      <trkpt lat="46.32471" lon="5.99542">
        <ele>1614</ele>
        <time>2022-07-07T10:23:13Z</time>
      </trkpt>
      <trkpt lat="46.32475" lon="5.99543">
        <ele>1611.4</ele>
        <time>2022-07-07T10:23:21Z</time>
      </trkpt>
      <trkpt lat="46.32479" lon="5.9954">
        <ele>1610.5</ele>
        <time>2022-07-07T10:23:29Z</time>
      </trkpt>
      <trkpt lat="46.32484" lon="5.99538">
        <ele>1609.4</ele>
        <time>2022-07-07T10:23:35Z</time>
      </trkpt>
      <trkpt lat="46.32489" lon="5.99539">
        <ele>1607.9</ele>
        <time>2022-07-07T10:23:41Z</time>
      </trkpt>
      <trkpt lat="46.32493" lon="5.99538">
        <ele>1606.9</ele>
        <time>2022-07-07T10:23:49Z</time>
      </trkpt>
      <trkpt lat="46.32499" lon="5.99539">
        <ele>1605.5</ele>
        <time>2022-07-07T10:23:55Z</time>
      </trkpt>
      <trkpt lat="46.32503" lon="5.99537">
        <ele>1603.9</ele>
        <time>2022-07-07T10:24:01Z</time>
      </trkpt>
      <trkpt lat="46.32508" lon="5.99536">
        <ele>1602.5</ele>
        <time>2022-07-07T10:24:06Z</time>
      </trkpt>
      <trkpt lat="46.32513" lon="5.99537">
        <ele>1600.7</ele>
        <time>2022-07-07T10:24:12Z</time>
      </trkpt>
      <trkpt lat="46.32517" lon="5.9954">
        <ele>1598.4</ele>
        <time>2022-07-07T10:24:19Z</time>
      </trkpt>
      <trkpt lat="46.32522" lon="5.99542">
        <ele>1596.4</ele>
        <time>2022-07-07T10:24:27Z</time>
      </trkpt>
      <trkpt lat="46.32527" lon="5.99542">
        <ele>1594.7</ele>
        <time>2022-07-07T10:24:35Z</time>
      </trkpt>
      <trkpt lat="46.32531" lon="5.99543">
        <ele>1593.5</ele>
        <time>2022-07-07T10:24:41Z</time>
      </trkpt>
      <trkpt lat="46.32535" lon="5.99547">
        <ele>1591.9</ele>
        <time>2022-07-07T10:24:48Z</time>
      </trkpt>
      <trkpt lat="46.3254" lon="5.99548">
        <ele>1590.8</ele>
        <time>2022-07-07T10:24:55Z</time>
      </trkpt>
      <trkpt lat="46.32545" lon="5.99549">
        <ele>1590.4</ele>
        <time>2022-07-07T10:25:00Z</time>
      </trkpt>
      <trkpt lat="46.3255" lon="5.99549">
        <ele>1590.2</ele>
        <time>2022-07-07T10:25:07Z</time>
      </trkpt>
      <trkpt lat="46.32554" lon="5.99548">
        <ele>1592.1</ele>
        <time>2022-07-07T10:26:34Z</time>
      </trkpt>
      <trkpt lat="46.32559" lon="5.99551">
        <ele>1589.9</ele>
        <time>2022-07-07T10:27:18Z</time>
      </trkpt>
      <trkpt lat="46.32564" lon="5.99554">
        <ele>1590</ele>
        <time>2022-07-07T10:27:22Z</time>
      </trkpt>
      <trkpt lat="46.32568" lon="5.99557">
        <ele>1590.7</ele>
        <time>2022-07-07T10:27:27Z</time>
      </trkpt>
      <trkpt lat="46.32573" lon="5.99561">
        <ele>1591.1</ele>
        <time>2022-07-07T10:27:34Z</time>
      </trkpt>
      <trkpt lat="46.32578" lon="5.99563">
        <ele>1590.6</ele>
        <time>2022-07-07T10:28:08Z</time>
      </trkpt>
      <trkpt lat="46.32582" lon="5.99561">
        <ele>1591.3</ele>
        <time>2022-07-07T10:28:13Z</time>
      </trkpt>
      <trkpt lat="46.32587" lon="5.99558">
        <ele>1591.9</ele>
        <time>2022-07-07T10:28:18Z</time>
      </trkpt>
      <trkpt lat="46.32592" lon="5.99557">
        <ele>1591.7</ele>
        <time>2022-07-07T10:28:23Z</time>
      </trkpt>
      <trkpt lat="46.32597" lon="5.99556">
        <ele>1590.7</ele>
        <time>2022-07-07T10:28:28Z</time>
      </trkpt>
      <trkpt lat="46.32602" lon="5.99555">
        <ele>1589.5</ele>
        <time>2022-07-07T10:28:33Z</time>
      </trkpt>
      <trkpt lat="46.32607" lon="5.99555">
        <ele>1588.7</ele>
        <time>2022-07-07T10:28:38Z</time>
      </trkpt>
      <trkpt lat="46.32613" lon="5.99555">
        <ele>1588</ele>
        <time>2022-07-07T10:28:43Z</time>
      </trkpt>
      <trkpt lat="46.32618" lon="5.99554">
        <ele>1587.3</ele>
        <time>2022-07-07T10:28:48Z</time>
      </trkpt>
      <trkpt lat="46.32623" lon="5.99554">
        <ele>1586.8</ele>
        <time>2022-07-07T10:28:53Z</time>
      </trkpt>
      <trkpt lat="46.32627" lon="5.99556">
        <ele>1586.1</ele>
        <time>2022-07-07T10:28:57Z</time>
      </trkpt>
      <trkpt lat="46.32632" lon="5.99557">
        <ele>1585.9</ele>
        <time>2022-07-07T10:29:01Z</time>
      </trkpt>
      <trkpt lat="46.32637" lon="5.99559">
        <ele>1585.7</ele>
        <time>2022-07-07T10:29:05Z</time>
      </trkpt>
      <trkpt lat="46.32642" lon="5.9956">
        <ele>1585.6</ele>
        <time>2022-07-07T10:29:09Z</time>
      </trkpt>
      <trkpt lat="46.32647" lon="5.9956">
        <ele>1585.6</ele>
        <time>2022-07-07T10:29:14Z</time>
      </trkpt>
      <trkpt lat="46.32652" lon="5.99559">
        <ele>1586.2</ele>
        <time>2022-07-07T10:29:18Z</time>
      </trkpt>
      <trkpt lat="46.32658" lon="5.99558">
        <ele>1586.4</ele>
        <time>2022-07-07T10:29:22Z</time>
      </trkpt>
      <trkpt lat="46.32663" lon="5.99559">
        <ele>1586.1</ele>
        <time>2022-07-07T10:29:26Z</time>
      </trkpt>
      <trkpt lat="46.32667" lon="5.99559">
        <ele>1586.2</ele>
        <time>2022-07-07T10:29:32Z</time>
      </trkpt>
      <trkpt lat="46.32673" lon="5.99558">
        <ele>1586.7</ele>
        <time>2022-07-07T10:29:37Z</time>
      </trkpt>
      <trkpt lat="46.32678" lon="5.99557">
        <ele>1586.8</ele>
        <time>2022-07-07T10:29:42Z</time>
      </trkpt>
      <trkpt lat="46.32683" lon="5.99556">
        <ele>1586.6</ele>
        <time>2022-07-07T10:29:46Z</time>
      </trkpt>
      <trkpt lat="46.32687" lon="5.99556">
        <ele>1586.2</ele>
        <time>2022-07-07T10:29:50Z</time>
      </trkpt>
      <trkpt lat="46.32693" lon="5.99555">
        <ele>1585.1</ele>
        <time>2022-07-07T10:29:56Z</time>
      </trkpt>
      <trkpt lat="46.32697" lon="5.99554">
        <ele>1584.1</ele>
        <time>2022-07-07T10:30:01Z</time>
      </trkpt>
      <trkpt lat="46.32702" lon="5.99553">
        <ele>1583.4</ele>
        <time>2022-07-07T10:30:05Z</time>
      </trkpt>
      <trkpt lat="46.32707" lon="5.99554">
        <ele>1582.5</ele>
        <time>2022-07-07T10:30:09Z</time>
      </trkpt>
      <trkpt lat="46.32711" lon="5.99556">
        <ele>1581.3</ele>
        <time>2022-07-07T10:30:13Z</time>
      </trkpt>
      <trkpt lat="46.32715" lon="5.9956">
        <ele>1579.8</ele>
        <time>2022-07-07T10:30:19Z</time>
      </trkpt>
      <trkpt lat="46.3272" lon="5.99563">
        <ele>1578.7</ele>
        <time>2022-07-07T10:30:24Z</time>
      </trkpt>
      <trkpt lat="46.32725" lon="5.99565">
        <ele>1578</ele>
        <time>2022-07-07T10:30:29Z</time>
      </trkpt>
      <trkpt lat="46.3273" lon="5.99565">
        <ele>1577.8</ele>
        <time>2022-07-07T10:30:33Z</time>
      </trkpt>
      <trkpt lat="46.32735" lon="5.99563">
        <ele>1577.7</ele>
        <time>2022-07-07T10:30:38Z</time>
      </trkpt>
      <trkpt lat="46.3274" lon="5.99562">
        <ele>1577.7</ele>
        <time>2022-07-07T10:30:44Z</time>
      </trkpt>
      <trkpt lat="46.32744" lon="5.99563">
        <ele>1577.4</ele>
        <time>2022-07-07T10:30:49Z</time>
      </trkpt>
      <trkpt lat="46.3275" lon="5.99562">
        <ele>1577.3</ele>
        <time>2022-07-07T10:30:54Z</time>
      </trkpt>
      <trkpt lat="46.32755" lon="5.99561">
        <ele>1576.7</ele>
        <time>2022-07-07T10:31:00Z</time>
      </trkpt>
      <trkpt lat="46.3276" lon="5.99561">
        <ele>1575.9</ele>
        <time>2022-07-07T10:31:05Z</time>
      </trkpt>
      <trkpt lat="46.32764" lon="5.99562">
        <ele>1574.9</ele>
        <time>2022-07-07T10:31:11Z</time>
      </trkpt>
      <trkpt lat="46.32769" lon="5.99561">
        <ele>1574</ele>
        <time>2022-07-07T10:31:17Z</time>
      </trkpt>
      <trkpt lat="46.32774" lon="5.9956">
        <ele>1573.9</ele>
        <time>2022-07-07T10:31:21Z</time>
      </trkpt>
      <trkpt lat="46.32779" lon="5.9956">
        <ele>1573.8</ele>
        <time>2022-07-07T10:31:26Z</time>
      </trkpt>
      <trkpt lat="46.32783" lon="5.99559">
        <ele>1573.3</ele>
        <time>2022-07-07T10:31:31Z</time>
      </trkpt>
      <trkpt lat="46.32789" lon="5.99558">
        <ele>1573.1</ele>
        <time>2022-07-07T10:31:37Z</time>
      </trkpt>
      <trkpt lat="46.32793" lon="5.99555">
        <ele>1572.3</ele>
        <time>2022-07-07T10:31:41Z</time>
      </trkpt>
      <trkpt lat="46.32798" lon="5.99553">
        <ele>1571.6</ele>
        <time>2022-07-07T10:31:45Z</time>
      </trkpt>
      <trkpt lat="46.32803" lon="5.99553">
        <ele>1570.8</ele>
        <time>2022-07-07T10:31:49Z</time>
      </trkpt>
      <trkpt lat="46.32807" lon="5.99554">
        <ele>1570.2</ele>
        <time>2022-07-07T10:31:53Z</time>
      </trkpt>
      <trkpt lat="46.32812" lon="5.99554">
        <ele>1568.8</ele>
        <time>2022-07-07T10:31:58Z</time>
      </trkpt>
      <trkpt lat="46.32817" lon="5.99552">
        <ele>1567.4</ele>
        <time>2022-07-07T10:32:03Z</time>
      </trkpt>
      <trkpt lat="46.32822" lon="5.99552">
        <ele>1565.8</ele>
        <time>2022-07-07T10:32:08Z</time>
      </trkpt>
      <trkpt lat="46.32827" lon="5.99553">
        <ele>1564</ele>
        <time>2022-07-07T10:32:13Z</time>
      </trkpt>
      <trkpt lat="46.32832" lon="5.99554">
        <ele>1562.4</ele>
        <time>2022-07-07T10:32:18Z</time>
      </trkpt>
      <trkpt lat="46.32837" lon="5.99556">
        <ele>1561.3</ele>
        <time>2022-07-07T10:32:23Z</time>
      </trkpt>
      <trkpt lat="46.32842" lon="5.99558">
        <ele>1561</ele>
        <time>2022-07-07T10:32:29Z</time>
      </trkpt>
      <trkpt lat="46.32848" lon="5.9956">
        <ele>1560.9</ele>
        <time>2022-07-07T10:32:35Z</time>
      </trkpt>
      <trkpt lat="46.32853" lon="5.99561">
        <ele>1560.8</ele>
        <time>2022-07-07T10:32:41Z</time>
      </trkpt>
      <trkpt lat="46.32857" lon="5.99559">
        <ele>1559.2</ele>
        <time>2022-07-07T10:32:49Z</time>
      </trkpt>
      <trkpt lat="46.32861" lon="5.99555">
        <ele>1557.1</ele>
        <time>2022-07-07T10:32:56Z</time>
      </trkpt>
      <trkpt lat="46.32866" lon="5.99554">
        <ele>1555.4</ele>
        <time>2022-07-07T10:33:02Z</time>
      </trkpt>
      <trkpt lat="46.3287" lon="5.99552">
        <ele>1554.5</ele>
        <time>2022-07-07T10:33:08Z</time>
      </trkpt>
      <trkpt lat="46.32875" lon="5.99551">
        <ele>1554.3</ele>
        <time>2022-07-07T10:33:13Z</time>
      </trkpt>
      <trkpt lat="46.32879" lon="5.99549">
        <ele>1554.1</ele>
        <time>2022-07-07T10:33:20Z</time>
      </trkpt>
      <trkpt lat="46.32883" lon="5.99546">
        <ele>1553.8</ele>
        <time>2022-07-07T10:33:26Z</time>
      </trkpt>
      <trkpt lat="46.32888" lon="5.99545">
        <ele>1554.2</ele>
        <time>2022-07-07T10:33:35Z</time>
      </trkpt>
      <trkpt lat="46.32893" lon="5.99546">
        <ele>1553.5</ele>
        <time>2022-07-07T10:33:41Z</time>
      </trkpt>
      <trkpt lat="46.32898" lon="5.99545">
        <ele>1552.5</ele>
        <time>2022-07-07T10:33:46Z</time>
      </trkpt>
      <trkpt lat="46.32902" lon="5.99542">
        <ele>1550.6</ele>
        <time>2022-07-07T10:33:52Z</time>
      </trkpt>
      <trkpt lat="46.32907" lon="5.99539">
        <ele>1548.7</ele>
        <time>2022-07-07T10:33:58Z</time>
      </trkpt>
      <trkpt lat="46.32911" lon="5.99537">
        <ele>1546.8</ele>
        <time>2022-07-07T10:34:06Z</time>
      </trkpt>
      <trkpt lat="46.32915" lon="5.99532">
        <ele>1546.2</ele>
        <time>2022-07-07T10:34:12Z</time>
      </trkpt>
      <trkpt lat="46.32919" lon="5.99529">
        <ele>1545</ele>
        <time>2022-07-07T10:34:17Z</time>
      </trkpt>
      <trkpt lat="46.32923" lon="5.99527">
        <ele>1543.3</ele>
        <time>2022-07-07T10:34:21Z</time>
      </trkpt>
      <trkpt lat="46.32928" lon="5.99523">
        <ele>1541</ele>
        <time>2022-07-07T10:34:27Z</time>
      </trkpt>
      <trkpt lat="46.32933" lon="5.99521">
        <ele>1538</ele>
        <time>2022-07-07T10:34:33Z</time>
      </trkpt>
      <trkpt lat="46.32937" lon="5.99516">
        <ele>1534.5</ele>
        <time>2022-07-07T10:34:39Z</time>
      </trkpt>
      <trkpt lat="46.32941" lon="5.99512">
        <ele>1530.4</ele>
        <time>2022-07-07T10:34:45Z</time>
      </trkpt>
      <trkpt lat="46.32946" lon="5.99513">
        <ele>1527.6</ele>
        <time>2022-07-07T10:34:50Z</time>
      </trkpt>
      <trkpt lat="46.3295" lon="5.99515">
        <ele>1526</ele>
        <time>2022-07-07T10:34:59Z</time>
      </trkpt>
      <trkpt lat="46.32955" lon="5.99517">
        <ele>1525.6</ele>
        <time>2022-07-07T10:35:06Z</time>
      </trkpt>
      <trkpt lat="46.32959" lon="5.99519">
        <ele>1525.6</ele>
        <time>2022-07-07T10:35:11Z</time>
      </trkpt>
      <trkpt lat="46.32964" lon="5.99519">
        <ele>1526</ele>
        <time>2022-07-07T10:35:16Z</time>
      </trkpt>
      <trkpt lat="46.3297" lon="5.99519">
        <ele>1525.8</ele>
        <time>2022-07-07T10:35:22Z</time>
      </trkpt>
      <trkpt lat="46.32975" lon="5.9952">
        <ele>1525.3</ele>
        <time>2022-07-07T10:35:28Z</time>
      </trkpt>
      <trkpt lat="46.3298" lon="5.99521">
        <ele>1524.6</ele>
        <time>2022-07-07T10:35:34Z</time>
      </trkpt>
      <trkpt lat="46.32985" lon="5.99522">
        <ele>1524.4</ele>
        <time>2022-07-07T10:35:40Z</time>
      </trkpt>
      <trkpt lat="46.32989" lon="5.99522">
        <ele>1524.6</ele>
        <time>2022-07-07T10:35:48Z</time>
      </trkpt>
      <trkpt lat="46.32994" lon="5.99523">
        <ele>1524.7</ele>
        <time>2022-07-07T10:35:59Z</time>
      </trkpt>
      <trkpt lat="46.32999" lon="5.99526">
        <ele>1524.6</ele>
        <time>2022-07-07T10:36:05Z</time>
      </trkpt>
      <trkpt lat="46.33003" lon="5.99527">
        <ele>1525</ele>
        <time>2022-07-07T10:36:12Z</time>
      </trkpt>
      <trkpt lat="46.33007" lon="5.99531">
        <ele>1526.2</ele>
        <time>2022-07-07T10:36:21Z</time>
      </trkpt>
      <trkpt lat="46.33012" lon="5.99533">
        <ele>1526.8</ele>
        <time>2022-07-07T10:36:26Z</time>
      </trkpt>
      <trkpt lat="46.33017" lon="5.99535">
        <ele>1527.9</ele>
        <time>2022-07-07T10:36:33Z</time>
      </trkpt>
      <trkpt lat="46.33021" lon="5.99536">
        <ele>1528.6</ele>
        <time>2022-07-07T10:36:38Z</time>
      </trkpt>
      <trkpt lat="46.33026" lon="5.99539">
        <ele>1529.1</ele>
        <time>2022-07-07T10:36:43Z</time>
      </trkpt>
      <trkpt lat="46.33031" lon="5.99541">
        <ele>1529.8</ele>
        <time>2022-07-07T10:36:48Z</time>
      </trkpt>
      <trkpt lat="46.33036" lon="5.9954">
        <ele>1530.5</ele>
        <time>2022-07-07T10:36:52Z</time>
      </trkpt>
      <trkpt lat="46.33041" lon="5.9954">
        <ele>1531.2</ele>
        <time>2022-07-07T10:37:01Z</time>
      </trkpt>
      <trkpt lat="46.33046" lon="5.9954">
        <ele>1531.6</ele>
        <time>2022-07-07T10:37:10Z</time>
      </trkpt>
      <trkpt lat="46.33051" lon="5.99542">
        <ele>1531.4</ele>
        <time>2022-07-07T10:37:16Z</time>
      </trkpt>
      <trkpt lat="46.33056" lon="5.99543">
        <ele>1530.7</ele>
        <time>2022-07-07T10:37:22Z</time>
      </trkpt>
      <trkpt lat="46.33061" lon="5.99547">
        <ele>1530</ele>
        <time>2022-07-07T10:37:29Z</time>
      </trkpt>
      <trkpt lat="46.33065" lon="5.9955">
        <ele>1530.4</ele>
        <time>2022-07-07T10:37:35Z</time>
      </trkpt>
      <trkpt lat="46.33069" lon="5.99554">
        <ele>1530.4</ele>
        <time>2022-07-07T10:37:42Z</time>
      </trkpt>
      <trkpt lat="46.33073" lon="5.99558">
        <ele>1529.7</ele>
        <time>2022-07-07T10:37:48Z</time>
      </trkpt>
      <trkpt lat="46.33077" lon="5.99563">
        <ele>1529.2</ele>
        <time>2022-07-07T10:37:54Z</time>
      </trkpt>
      <trkpt lat="46.33081" lon="5.99566">
        <ele>1529.1</ele>
        <time>2022-07-07T10:38:00Z</time>
      </trkpt>
      <trkpt lat="46.33085" lon="5.99571">
        <ele>1528.9</ele>
        <time>2022-07-07T10:38:06Z</time>
      </trkpt>
      <trkpt lat="46.3309" lon="5.99575">
        <ele>1529.3</ele>
        <time>2022-07-07T10:38:11Z</time>
      </trkpt>
      <trkpt lat="46.33094" lon="5.99578">
        <ele>1530.2</ele>
        <time>2022-07-07T10:38:30Z</time>
      </trkpt>
      <trkpt lat="46.33099" lon="5.99579">
        <ele>1532.1</ele>
        <time>2022-07-07T10:41:13Z</time>
      </trkpt>
      <trkpt lat="46.33104" lon="5.99581">
        <ele>1534.2</ele>
        <time>2022-07-07T10:41:18Z</time>
      </trkpt>
      <trkpt lat="46.33109" lon="5.99581">
        <ele>1534.8</ele>
        <time>2022-07-07T10:41:23Z</time>
      </trkpt>
      <trkpt lat="46.33113" lon="5.99581">
        <ele>1535.1</ele>
        <time>2022-07-07T10:41:30Z</time>
      </trkpt>
      <trkpt lat="46.33118" lon="5.99578">
        <ele>1535.4</ele>
        <time>2022-07-07T10:41:36Z</time>
      </trkpt>
      <trkpt lat="46.33122" lon="5.99575">
        <ele>1534.8</ele>
        <time>2022-07-07T10:41:44Z</time>
      </trkpt>
      <trkpt lat="46.33127" lon="5.99573">
        <ele>1533.4</ele>
        <time>2022-07-07T10:41:52Z</time>
      </trkpt>
      <trkpt lat="46.33132" lon="5.99571">
        <ele>1532.5</ele>
        <time>2022-07-07T10:41:58Z</time>
      </trkpt>
      <trkpt lat="46.33137" lon="5.9957">
        <ele>1532.2</ele>
        <time>2022-07-07T10:42:06Z</time>
      </trkpt>
      <trkpt lat="46.33142" lon="5.99569">
        <ele>1532.6</ele>
        <time>2022-07-07T10:42:11Z</time>
      </trkpt>
      <trkpt lat="46.33147" lon="5.99567">
        <ele>1533.2</ele>
        <time>2022-07-07T10:42:15Z</time>
      </trkpt>
      <trkpt lat="46.33151" lon="5.99565">
        <ele>1534</ele>
        <time>2022-07-07T10:42:19Z</time>
      </trkpt>
      <trkpt lat="46.33156" lon="5.99564">
        <ele>1534.7</ele>
        <time>2022-07-07T10:42:25Z</time>
      </trkpt>
      <trkpt lat="46.33161" lon="5.99563">
        <ele>1533.7</ele>
        <time>2022-07-07T10:42:35Z</time>
      </trkpt>
      <trkpt lat="46.33166" lon="5.99563">
        <ele>1532.7</ele>
        <time>2022-07-07T10:42:42Z</time>
      </trkpt>
      <trkpt lat="46.33171" lon="5.99563">
        <ele>1532.5</ele>
        <time>2022-07-07T10:42:49Z</time>
      </trkpt>
      <trkpt lat="46.33176" lon="5.99563">
        <ele>1532.9</ele>
        <time>2022-07-07T10:42:56Z</time>
      </trkpt>
      <trkpt lat="46.33181" lon="5.99563">
        <ele>1532.4</ele>
        <time>2022-07-07T10:43:02Z</time>
      </trkpt>
      <trkpt lat="46.33186" lon="5.99563">
        <ele>1531.9</ele>
        <time>2022-07-07T10:43:10Z</time>
      </trkpt>
      <trkpt lat="46.33191" lon="5.99562">
        <ele>1532.1</ele>
        <time>2022-07-07T10:43:19Z</time>
      </trkpt>
      <trkpt lat="46.33196" lon="5.99563">
        <ele>1532</ele>
        <time>2022-07-07T10:43:24Z</time>
      </trkpt>
      <trkpt lat="46.332" lon="5.99561">
        <ele>1531.5</ele>
        <time>2022-07-07T10:43:30Z</time>
      </trkpt>
      <trkpt lat="46.33204" lon="5.99559">
        <ele>1530.4</ele>
        <time>2022-07-07T10:43:37Z</time>
      </trkpt>
      <trkpt lat="46.33209" lon="5.99557">
        <ele>1529.4</ele>
        <time>2022-07-07T10:43:43Z</time>
      </trkpt>
      <trkpt lat="46.33214" lon="5.99556">
        <ele>1528.9</ele>
        <time>2022-07-07T10:43:49Z</time>
      </trkpt>
      <trkpt lat="46.33219" lon="5.99555">
        <ele>1527.7</ele>
        <time>2022-07-07T10:43:58Z</time>
      </trkpt>
      <trkpt lat="46.33223" lon="5.99553">
        <ele>1526.5</ele>
        <time>2022-07-07T10:44:06Z</time>
      </trkpt>
      <trkpt lat="46.33228" lon="5.99549">
        <ele>1525.9</ele>
        <time>2022-07-07T10:44:12Z</time>
      </trkpt>
      <trkpt lat="46.33232" lon="5.99545">
        <ele>1525.1</ele>
        <time>2022-07-07T10:44:20Z</time>
      </trkpt>
      <trkpt lat="46.33236" lon="5.99541">
        <ele>1524.1</ele>
        <time>2022-07-07T10:44:29Z</time>
      </trkpt>
      <trkpt lat="46.3324" lon="5.99537">
        <ele>1523.4</ele>
        <time>2022-07-07T10:44:36Z</time>
      </trkpt>
      <trkpt lat="46.33245" lon="5.99535">
        <ele>1523.8</ele>
        <time>2022-07-07T10:44:43Z</time>
      </trkpt>
      <trkpt lat="46.3325" lon="5.99535">
        <ele>1524.2</ele>
        <time>2022-07-07T10:44:49Z</time>
      </trkpt>
      <trkpt lat="46.33254" lon="5.99532">
        <ele>1523.9</ele>
        <time>2022-07-07T10:44:57Z</time>
      </trkpt>
      <trkpt lat="46.33259" lon="5.99531">
        <ele>1523.3</ele>
        <time>2022-07-07T10:45:02Z</time>
      </trkpt>
      <trkpt lat="46.33264" lon="5.9953">
        <ele>1521.9</ele>
        <time>2022-07-07T10:45:12Z</time>
      </trkpt>
      <trkpt lat="46.33269" lon="5.99526">
        <ele>1520.9</ele>
        <time>2022-07-07T10:45:17Z</time>
      </trkpt>
      <trkpt lat="46.33274" lon="5.99524">
        <ele>1520.8</ele>
        <time>2022-07-07T10:45:23Z</time>
      </trkpt>
      <trkpt lat="46.33279" lon="5.99524">
        <ele>1519</ele>
        <time>2022-07-07T10:45:46Z</time>
      </trkpt>
      <trkpt lat="46.33284" lon="5.99524">
        <ele>1518.7</ele>
        <time>2022-07-07T10:45:53Z</time>
      </trkpt>
      <trkpt lat="46.33289" lon="5.99523">
        <ele>1518.2</ele>
        <time>2022-07-07T10:45:59Z</time>
      </trkpt>
      <trkpt lat="46.33294" lon="5.99522">
        <ele>1517.5</ele>
        <time>2022-07-07T10:46:08Z</time>
      </trkpt>
      <trkpt lat="46.33298" lon="5.99518">
        <ele>1517.1</ele>
        <time>2022-07-07T10:46:16Z</time>
      </trkpt>
      <trkpt lat="46.33303" lon="5.99516">
        <ele>1518.1</ele>
        <time>2022-07-07T10:46:22Z</time>
      </trkpt>
      <trkpt lat="46.33308" lon="5.99516">
        <ele>1519.1</ele>
        <time>2022-07-07T10:46:28Z</time>
      </trkpt>
      <trkpt lat="46.33313" lon="5.99513">
        <ele>1518.7</ele>
        <time>2022-07-07T10:46:35Z</time>
      </trkpt>
      <trkpt lat="46.33317" lon="5.99511">
        <ele>1517.9</ele>
        <time>2022-07-07T10:46:43Z</time>
      </trkpt>
      <trkpt lat="46.33321" lon="5.99506">
        <ele>1516.1</ele>
        <time>2022-07-07T10:46:52Z</time>
      </trkpt>
      <trkpt lat="46.33325" lon="5.99505">
        <ele>1515.5</ele>
        <time>2022-07-07T10:46:57Z</time>
      </trkpt>
      <trkpt lat="46.3333" lon="5.99506">
        <ele>1515.1</ele>
        <time>2022-07-07T10:47:04Z</time>
      </trkpt>
      <trkpt lat="46.33335" lon="5.99507">
        <ele>1515.1</ele>
        <time>2022-07-07T10:47:10Z</time>
      </trkpt>
      <trkpt lat="46.3334" lon="5.99508">
        <ele>1515.1</ele>
        <time>2022-07-07T10:47:15Z</time>
      </trkpt>
      <trkpt lat="46.33345" lon="5.99511">
        <ele>1514.1</ele>
        <time>2022-07-07T10:47:21Z</time>
      </trkpt>
      <trkpt lat="46.33349" lon="5.99508">
        <ele>1511.8</ele>
        <time>2022-07-07T10:47:29Z</time>
      </trkpt>
      <trkpt lat="46.33353" lon="5.99508">
        <ele>1510.6</ele>
        <time>2022-07-07T10:47:34Z</time>
      </trkpt>
      <trkpt lat="46.33359" lon="5.99505">
        <ele>1510.2</ele>
        <time>2022-07-07T10:47:39Z</time>
      </trkpt>
      <trkpt lat="46.33362" lon="5.99501">
        <ele>1509.5</ele>
        <time>2022-07-07T10:47:44Z</time>
      </trkpt>
      <trkpt lat="46.33367" lon="5.99498">
        <ele>1508.9</ele>
        <time>2022-07-07T10:47:50Z</time>
      </trkpt>
      <trkpt lat="46.33372" lon="5.99497">
        <ele>1507.6</ele>
        <time>2022-07-07T10:47:59Z</time>
      </trkpt>
      <trkpt lat="46.33377" lon="5.99494">
        <ele>1507</ele>
        <time>2022-07-07T10:48:03Z</time>
      </trkpt>
      <trkpt lat="46.33381" lon="5.99492">
        <ele>1506.9</ele>
        <time>2022-07-07T10:48:08Z</time>
      </trkpt>
      <trkpt lat="46.33385" lon="5.99488">
        <ele>1507.2</ele>
        <time>2022-07-07T10:48:18Z</time>
      </trkpt>
      <trkpt lat="46.3339" lon="5.99486">
        <ele>1506.9</ele>
        <time>2022-07-07T10:48:25Z</time>
      </trkpt>
      <trkpt lat="46.33394" lon="5.99483">
        <ele>1506.2</ele>
        <time>2022-07-07T10:48:31Z</time>
      </trkpt>
      <trkpt lat="46.33398" lon="5.99479">
        <ele>1506.4</ele>
        <time>2022-07-07T10:48:36Z</time>
      </trkpt>
      <trkpt lat="46.33401" lon="5.99473">
        <ele>1505.9</ele>
        <time>2022-07-07T10:48:42Z</time>
      </trkpt>
      <trkpt lat="46.33406" lon="5.99469">
        <ele>1505.5</ele>
        <time>2022-07-07T10:48:47Z</time>
      </trkpt>
      <trkpt lat="46.33411" lon="5.99467">
        <ele>1504.7</ele>
        <time>2022-07-07T10:48:53Z</time>
      </trkpt>
      <trkpt lat="46.33415" lon="5.99465">
        <ele>1503.6</ele>
        <time>2022-07-07T10:48:59Z</time>
      </trkpt>
      <trkpt lat="46.33419" lon="5.99462">
        <ele>1503</ele>
        <time>2022-07-07T10:49:04Z</time>
      </trkpt>
      <trkpt lat="46.33424" lon="5.99459">
        <ele>1501.7</ele>
        <time>2022-07-07T10:49:10Z</time>
      </trkpt>
      <trkpt lat="46.33428" lon="5.99456">
        <ele>1502.3</ele>
        <time>2022-07-07T10:49:18Z</time>
      </trkpt>
      <trkpt lat="46.33433" lon="5.99453">
        <ele>1503.8</ele>
        <time>2022-07-07T10:49:22Z</time>
      </trkpt>
      <trkpt lat="46.33438" lon="5.99453">
        <ele>1505.8</ele>
        <time>2022-07-07T10:49:27Z</time>
      </trkpt>
      <trkpt lat="46.33442" lon="5.99451">
        <ele>1506.8</ele>
        <time>2022-07-07T10:49:33Z</time>
      </trkpt>
      <trkpt lat="46.33447" lon="5.99449">
        <ele>1506.3</ele>
        <time>2022-07-07T10:49:38Z</time>
      </trkpt>
      <trkpt lat="46.33451" lon="5.99445">
        <ele>1504.9</ele>
        <time>2022-07-07T10:49:45Z</time>
      </trkpt>
      <trkpt lat="46.33454" lon="5.9944">
        <ele>1504.9</ele>
        <time>2022-07-07T10:49:51Z</time>
      </trkpt>
      <trkpt lat="46.33457" lon="5.99434">
        <ele>1504.7</ele>
        <time>2022-07-07T10:49:56Z</time>
      </trkpt>
      <trkpt lat="46.33462" lon="5.99429">
        <ele>1504.5</ele>
        <time>2022-07-07T10:50:02Z</time>
      </trkpt>
      <trkpt lat="46.33467" lon="5.99429">
        <ele>1504.5</ele>
        <time>2022-07-07T10:50:07Z</time>
      </trkpt>
      <trkpt lat="46.33473" lon="5.99429">
        <ele>1504.3</ele>
        <time>2022-07-07T10:50:12Z</time>
      </trkpt>
      <trkpt lat="46.33477" lon="5.99425">
        <ele>1505</ele>
        <time>2022-07-07T10:50:17Z</time>
      </trkpt>
      <trkpt lat="46.33481" lon="5.99422">
        <ele>1505.1</ele>
        <time>2022-07-07T10:50:22Z</time>
      </trkpt>
      <trkpt lat="46.33485" lon="5.99419">
        <ele>1503.9</ele>
        <time>2022-07-07T10:50:28Z</time>
      </trkpt>
      <trkpt lat="46.3349" lon="5.99417">
        <ele>1502.3</ele>
        <time>2022-07-07T10:50:34Z</time>
      </trkpt>
      <trkpt lat="46.33494" lon="5.99415">
        <ele>1501.2</ele>
        <time>2022-07-07T10:50:40Z</time>
      </trkpt>
      <trkpt lat="46.33499" lon="5.99412">
        <ele>1501</ele>
        <time>2022-07-07T10:50:45Z</time>
      </trkpt>
      <trkpt lat="46.33503" lon="5.99407">
        <ele>1501.4</ele>
        <time>2022-07-07T10:50:51Z</time>
      </trkpt>
      <trkpt lat="46.33505" lon="5.99401">
        <ele>1502.2</ele>
        <time>2022-07-07T10:50:56Z</time>
      </trkpt>
      <trkpt lat="46.33509" lon="5.99398">
        <ele>1502.4</ele>
        <time>2022-07-07T10:51:01Z</time>
      </trkpt>
      <trkpt lat="46.33515" lon="5.99398">
        <ele>1502.1</ele>
        <time>2022-07-07T10:51:06Z</time>
      </trkpt>
      <trkpt lat="46.3352" lon="5.99396">
        <ele>1501.6</ele>
        <time>2022-07-07T10:51:11Z</time>
      </trkpt>
      <trkpt lat="46.33523" lon="5.99391">
        <ele>1501</ele>
        <time>2022-07-07T10:51:17Z</time>
      </trkpt>
      <trkpt lat="46.33525" lon="5.99385">
        <ele>1501.6</ele>
        <time>2022-07-07T10:51:28Z</time>
      </trkpt>
      <trkpt lat="46.33529" lon="5.9938">
        <ele>1502.5</ele>
        <time>2022-07-07T10:51:33Z</time>
      </trkpt>
      <trkpt lat="46.33533" lon="5.99375">
        <ele>1502.8</ele>
        <time>2022-07-07T10:51:39Z</time>
      </trkpt>
      <trkpt lat="46.33537" lon="5.99371">
        <ele>1502.6</ele>
        <time>2022-07-07T10:51:44Z</time>
      </trkpt>
      <trkpt lat="46.33542" lon="5.99371">
        <ele>1502</ele>
        <time>2022-07-07T10:51:50Z</time>
      </trkpt>
      <trkpt lat="46.33547" lon="5.99367">
        <ele>1501.4</ele>
        <time>2022-07-07T10:51:56Z</time>
      </trkpt>
      <trkpt lat="46.33552" lon="5.99367">
        <ele>1501.5</ele>
        <time>2022-07-07T10:52:01Z</time>
      </trkpt>
      <trkpt lat="46.33557" lon="5.99369">
        <ele>1502.2</ele>
        <time>2022-07-07T10:52:07Z</time>
      </trkpt>
      <trkpt lat="46.33561" lon="5.99372">
        <ele>1502.2</ele>
        <time>2022-07-07T10:52:12Z</time>
      </trkpt>
      <trkpt lat="46.33565" lon="5.99369">
        <ele>1500.9</ele>
        <time>2022-07-07T10:52:22Z</time>
      </trkpt>
      <trkpt lat="46.33567" lon="5.99363">
        <ele>1499.2</ele>
        <time>2022-07-07T10:52:32Z</time>
      </trkpt>
      <trkpt lat="46.33564" lon="5.99356">
        <ele>1497.7</ele>
        <time>2022-07-07T10:52:39Z</time>
      </trkpt>
      <trkpt lat="46.33564" lon="5.9935">
        <ele>1496.6</ele>
        <time>2022-07-07T10:52:46Z</time>
      </trkpt>
      <trkpt lat="46.33567" lon="5.99343">
        <ele>1495.9</ele>
        <time>2022-07-07T10:52:53Z</time>
      </trkpt>
      <trkpt lat="46.33564" lon="5.99349">
        <ele>1505.6</ele>
        <time>2022-07-07T11:41:47Z</time>
      </trkpt>
      <trkpt lat="46.33563" lon="5.99342">
        <ele>1501</ele>
        <time>2022-07-07T11:41:54Z</time>
      </trkpt>
      <trkpt lat="46.33563" lon="5.99333">
        <ele>1492.4</ele>
        <time>2022-07-07T11:52:47Z</time>
      </trkpt>
      <trkpt lat="46.33562" lon="5.99341">
        <ele>1494</ele>
        <time>2022-07-07T11:52:52Z</time>
      </trkpt>
      <trkpt lat="46.33561" lon="5.99349">
        <ele>1502.2</ele>
        <time>2022-07-07T12:01:45Z</time>
      </trkpt>
      <trkpt lat="46.33562" lon="5.99356">
        <ele>1500</ele>
        <time>2022-07-07T12:01:51Z</time>
      </trkpt>
      <trkpt lat="46.33561" lon="5.99349">
        <ele>1500.9</ele>
        <time>2022-07-07T12:02:07Z</time>
      </trkpt>
      <trkpt lat="46.33561" lon="5.99342">
        <ele>1499.8</ele>
        <time>2022-07-07T12:02:20Z</time>
      </trkpt>
      <trkpt lat="46.33556" lon="5.99343">
        <ele>1499.9</ele>
        <time>2022-07-07T12:04:58Z</time>
      </trkpt>
      <trkpt lat="46.33559" lon="5.99338">
        <ele>1500.4</ele>
        <time>2022-07-07T12:05:44Z</time>
      </trkpt>
      <trkpt lat="46.3356" lon="5.99346">
        <ele>1500.9</ele>
        <time>2022-07-07T12:06:08Z</time>
      </trkpt>
      <trkpt lat="46.33561" lon="5.99352">
        <ele>1501.2</ele>
        <time>2022-07-07T12:07:17Z</time>
      </trkpt>
      <trkpt lat="46.33564" lon="5.99359">
        <ele>1500.9</ele>
        <time>2022-07-07T12:07:25Z</time>
      </trkpt>
      <trkpt lat="46.33566" lon="5.99364">
        <ele>1501</ele>
        <time>2022-07-07T12:07:30Z</time>
      </trkpt>
      <trkpt lat="46.33569" lon="5.99369">
        <ele>1501.5</ele>
        <time>2022-07-07T12:07:35Z</time>
      </trkpt>
      <trkpt lat="46.33571" lon="5.99376">
        <ele>1502.4</ele>
        <time>2022-07-07T12:08:22Z</time>
      </trkpt>
      <trkpt lat="46.33572" lon="5.99383">
        <ele>1502.8</ele>
        <time>2022-07-07T12:08:27Z</time>
      </trkpt>
      <trkpt lat="46.33572" lon="5.99391">
        <ele>1504</ele>
        <time>2022-07-07T12:08:32Z</time>
      </trkpt>
      <trkpt lat="46.33573" lon="5.99398">
        <ele>1505.3</ele>
        <time>2022-07-07T12:08:37Z</time>
      </trkpt>
      <trkpt lat="46.33574" lon="5.99404">
        <ele>1506.4</ele>
        <time>2022-07-07T12:08:42Z</time>
      </trkpt>
      <trkpt lat="46.33576" lon="5.99412">
        <ele>1507.5</ele>
        <time>2022-07-07T12:08:48Z</time>
      </trkpt>
      <trkpt lat="46.33578" lon="5.99418">
        <ele>1507.9</ele>
        <time>2022-07-07T12:08:53Z</time>
      </trkpt>
      <trkpt lat="46.3358" lon="5.99424">
        <ele>1508.3</ele>
        <time>2022-07-07T12:08:58Z</time>
      </trkpt>
      <trkpt lat="46.33582" lon="5.99431">
        <ele>1508.2</ele>
        <time>2022-07-07T12:09:03Z</time>
      </trkpt>
      <trkpt lat="46.33584" lon="5.99437">
        <ele>1507.4</ele>
        <time>2022-07-07T12:09:08Z</time>
      </trkpt>
      <trkpt lat="46.33586" lon="5.99443">
        <ele>1506.1</ele>
        <time>2022-07-07T12:09:13Z</time>
      </trkpt>
      <trkpt lat="46.33588" lon="5.9945">
        <ele>1504.9</ele>
        <time>2022-07-07T12:09:20Z</time>
      </trkpt>
      <trkpt lat="46.3359" lon="5.99457">
        <ele>1504.2</ele>
        <time>2022-07-07T12:09:25Z</time>
      </trkpt>
      <trkpt lat="46.33593" lon="5.99463">
        <ele>1503.7</ele>
        <time>2022-07-07T12:09:30Z</time>
      </trkpt>
      <trkpt lat="46.33595" lon="5.9947">
        <ele>1503.7</ele>
        <time>2022-07-07T12:09:35Z</time>
      </trkpt>
      <trkpt lat="46.33597" lon="5.99476">
        <ele>1504.1</ele>
        <time>2022-07-07T12:09:40Z</time>
      </trkpt>
      <trkpt lat="46.33599" lon="5.99482">
        <ele>1504.5</ele>
        <time>2022-07-07T12:09:45Z</time>
      </trkpt>
      <trkpt lat="46.33601" lon="5.99488">
        <ele>1504.6</ele>
        <time>2022-07-07T12:09:51Z</time>
      </trkpt>
      <trkpt lat="46.33605" lon="5.99493">
        <ele>1504</ele>
        <time>2022-07-07T12:09:56Z</time>
      </trkpt>
      <trkpt lat="46.3361" lon="5.99496">
        <ele>1503.8</ele>
        <time>2022-07-07T12:10:02Z</time>
      </trkpt>
      <trkpt lat="46.33614" lon="5.99499">
        <ele>1504.1</ele>
        <time>2022-07-07T12:10:07Z</time>
      </trkpt>
      <trkpt lat="46.33619" lon="5.99502">
        <ele>1504.9</ele>
        <time>2022-07-07T12:10:13Z</time>
      </trkpt>
      <trkpt lat="46.33624" lon="5.99504">
        <ele>1505.9</ele>
        <time>2022-07-07T12:10:18Z</time>
      </trkpt>
      <trkpt lat="46.33629" lon="5.99506">
        <ele>1506.1</ele>
        <time>2022-07-07T12:10:24Z</time>
      </trkpt>
      <trkpt lat="46.33634" lon="5.99509">
        <ele>1506.2</ele>
        <time>2022-07-07T12:10:29Z</time>
      </trkpt>
      <trkpt lat="46.33638" lon="5.99512">
        <ele>1506.4</ele>
        <time>2022-07-07T12:10:34Z</time>
      </trkpt>
      <trkpt lat="46.33642" lon="5.99516">
        <ele>1506.7</ele>
        <time>2022-07-07T12:10:40Z</time>
      </trkpt>
      <trkpt lat="46.33646" lon="5.9952">
        <ele>1506.3</ele>
        <time>2022-07-07T12:10:46Z</time>
      </trkpt>
      <trkpt lat="46.3365" lon="5.99523">
        <ele>1506.1</ele>
        <time>2022-07-07T12:10:51Z</time>
      </trkpt>
      <trkpt lat="46.33654" lon="5.99526">
        <ele>1505.6</ele>
        <time>2022-07-07T12:10:57Z</time>
      </trkpt>
      <trkpt lat="46.33659" lon="5.99529">
        <ele>1504.8</ele>
        <time>2022-07-07T12:11:03Z</time>
      </trkpt>
      <trkpt lat="46.33663" lon="5.99531">
        <ele>1504.9</ele>
        <time>2022-07-07T12:11:08Z</time>
      </trkpt>
      <trkpt lat="46.33668" lon="5.99531">
        <ele>1505.3</ele>
        <time>2022-07-07T12:11:13Z</time>
      </trkpt>
      <trkpt lat="46.33673" lon="5.9953">
        <ele>1505.8</ele>
        <time>2022-07-07T12:11:17Z</time>
      </trkpt>
      <trkpt lat="46.33678" lon="5.99529">
        <ele>1506.4</ele>
        <time>2022-07-07T12:11:21Z</time>
      </trkpt>
      <trkpt lat="46.33681" lon="5.99523">
        <ele>1505.6</ele>
        <time>2022-07-07T12:11:28Z</time>
      </trkpt>
      <trkpt lat="46.33684" lon="5.99518">
        <ele>1504.9</ele>
        <time>2022-07-07T12:11:33Z</time>
      </trkpt>
      <trkpt lat="46.33687" lon="5.99523">
        <ele>1500.8</ele>
        <time>2022-07-07T12:12:00Z</time>
      </trkpt>
      <trkpt lat="46.33692" lon="5.99524">
        <ele>1500.8</ele>
        <time>2022-07-07T12:12:11Z</time>
      </trkpt>
      <trkpt lat="46.33698" lon="5.99523">
        <ele>1500.9</ele>
        <time>2022-07-07T12:12:16Z</time>
      </trkpt>
      <trkpt lat="46.33702" lon="5.99522">
        <ele>1501.5</ele>
        <time>2022-07-07T12:12:21Z</time>
      </trkpt>
      <trkpt lat="46.33707" lon="5.99521">
        <ele>1502.2</ele>
        <time>2022-07-07T12:12:28Z</time>
      </trkpt>
      <trkpt lat="46.33712" lon="5.99521">
        <ele>1502.8</ele>
        <time>2022-07-07T12:12:33Z</time>
      </trkpt>
      <trkpt lat="46.33716" lon="5.99521">
        <ele>1504.1</ele>
        <time>2022-07-07T12:12:39Z</time>
      </trkpt>
      <trkpt lat="46.33721" lon="5.99522">
        <ele>1505.3</ele>
        <time>2022-07-07T12:12:46Z</time>
      </trkpt>
      <trkpt lat="46.33726" lon="5.99524">
        <ele>1505.3</ele>
        <time>2022-07-07T12:12:52Z</time>
      </trkpt>
      <trkpt lat="46.33729" lon="5.99528">
        <ele>1505.6</ele>
        <time>2022-07-07T12:12:58Z</time>
      </trkpt>
      <trkpt lat="46.33733" lon="5.99532">
        <ele>1506</ele>
        <time>2022-07-07T12:13:04Z</time>
      </trkpt>
      <trkpt lat="46.33738" lon="5.99534">
        <ele>1506.6</ele>
        <time>2022-07-07T12:13:11Z</time>
      </trkpt>
      <trkpt lat="46.33743" lon="5.99535">
        <ele>1507.4</ele>
        <time>2022-07-07T12:13:16Z</time>
      </trkpt>
      <trkpt lat="46.33748" lon="5.99536">
        <ele>1509.2</ele>
        <time>2022-07-07T12:13:21Z</time>
      </trkpt>
      <trkpt lat="46.33753" lon="5.99537">
        <ele>1509</ele>
        <time>2022-07-07T12:13:30Z</time>
      </trkpt>
      <trkpt lat="46.33757" lon="5.9954">
        <ele>1507.6</ele>
        <time>2022-07-07T12:13:36Z</time>
      </trkpt>
      <trkpt lat="46.33762" lon="5.99542">
        <ele>1506.7</ele>
        <time>2022-07-07T12:13:42Z</time>
      </trkpt>
      <trkpt lat="46.33767" lon="5.99543">
        <ele>1507.2</ele>
        <time>2022-07-07T12:13:48Z</time>
      </trkpt>
      <trkpt lat="46.33771" lon="5.99545">
        <ele>1507.2</ele>
        <time>2022-07-07T12:14:02Z</time>
      </trkpt>
      <trkpt lat="46.33776" lon="5.99548">
        <ele>1507</ele>
        <time>2022-07-07T12:14:08Z</time>
      </trkpt>
      <trkpt lat="46.3378" lon="5.99552">
        <ele>1507.3</ele>
        <time>2022-07-07T12:14:16Z</time>
      </trkpt>
      <trkpt lat="46.33783" lon="5.99558">
        <ele>1507.7</ele>
        <time>2022-07-07T12:14:22Z</time>
      </trkpt>
      <trkpt lat="46.33787" lon="5.99563">
        <ele>1508.7</ele>
        <time>2022-07-07T12:14:27Z</time>
      </trkpt>
      <trkpt lat="46.3379" lon="5.99568">
        <ele>1509.8</ele>
        <time>2022-07-07T12:14:33Z</time>
      </trkpt>
      <trkpt lat="46.33794" lon="5.99573">
        <ele>1510.7</ele>
        <time>2022-07-07T12:14:39Z</time>
      </trkpt>
      <trkpt lat="46.33796" lon="5.99579">
        <ele>1511.8</ele>
        <time>2022-07-07T12:14:44Z</time>
      </trkpt>
      <trkpt lat="46.33797" lon="5.99586">
        <ele>1513.2</ele>
        <time>2022-07-07T12:14:49Z</time>
      </trkpt>
      <trkpt lat="46.33797" lon="5.99592">
        <ele>1514.6</ele>
        <time>2022-07-07T12:14:56Z</time>
      </trkpt>
      <trkpt lat="46.33798" lon="5.99599">
        <ele>1514.6</ele>
        <time>2022-07-07T12:15:02Z</time>
      </trkpt>
      <trkpt lat="46.33801" lon="5.99605">
        <ele>1514.3</ele>
        <time>2022-07-07T12:15:08Z</time>
      </trkpt>
      <trkpt lat="46.33804" lon="5.99611">
        <ele>1513.6</ele>
        <time>2022-07-07T12:15:15Z</time>
      </trkpt>
      <trkpt lat="46.33807" lon="5.99615">
        <ele>1512.7</ele>
        <time>2022-07-07T12:15:21Z</time>
      </trkpt>
      <trkpt lat="46.33811" lon="5.99621">
        <ele>1512.1</ele>
        <time>2022-07-07T12:15:29Z</time>
      </trkpt>
      <trkpt lat="46.33814" lon="5.99626">
        <ele>1512</ele>
        <time>2022-07-07T12:15:35Z</time>
      </trkpt>
      <trkpt lat="46.33817" lon="5.99632">
        <ele>1511.5</ele>
        <time>2022-07-07T12:15:43Z</time>
      </trkpt>
      <trkpt lat="46.3382" lon="5.99637">
        <ele>1511.8</ele>
        <time>2022-07-07T12:15:49Z</time>
      </trkpt>
      <trkpt lat="46.33824" lon="5.99642">
        <ele>1511.8</ele>
        <time>2022-07-07T12:15:56Z</time>
      </trkpt>
      <trkpt lat="46.33828" lon="5.99647">
        <ele>1511.9</ele>
        <time>2022-07-07T12:16:03Z</time>
      </trkpt>
      <trkpt lat="46.33832" lon="5.99651">
        <ele>1512.3</ele>
        <time>2022-07-07T12:16:09Z</time>
      </trkpt>
      <trkpt lat="46.33837" lon="5.99654">
        <ele>1512.2</ele>
        <time>2022-07-07T12:16:15Z</time>
      </trkpt>
      <trkpt lat="46.33842" lon="5.99654">
        <ele>1512.1</ele>
        <time>2022-07-07T12:16:21Z</time>
      </trkpt>
      <trkpt lat="46.33846" lon="5.99656">
        <ele>1512.6</ele>
        <time>2022-07-07T12:16:29Z</time>
      </trkpt>
      <trkpt lat="46.33851" lon="5.99659">
        <ele>1512.2</ele>
        <time>2022-07-07T12:16:36Z</time>
      </trkpt>
      <trkpt lat="46.33855" lon="5.99664">
        <ele>1511.7</ele>
        <time>2022-07-07T12:16:42Z</time>
      </trkpt>
      <trkpt lat="46.33858" lon="5.9967">
        <ele>1511.7</ele>
        <time>2022-07-07T12:16:47Z</time>
      </trkpt>
      <trkpt lat="46.33861" lon="5.99676">
        <ele>1512</ele>
        <time>2022-07-07T12:16:53Z</time>
      </trkpt>
      <trkpt lat="46.33863" lon="5.99683">
        <ele>1511.2</ele>
        <time>2022-07-07T12:17:00Z</time>
      </trkpt>
      <trkpt lat="46.33866" lon="5.99689">
        <ele>1510.5</ele>
        <time>2022-07-07T12:17:05Z</time>
      </trkpt>
      <trkpt lat="46.33868" lon="5.99695">
        <ele>1510.4</ele>
        <time>2022-07-07T12:17:10Z</time>
      </trkpt>
      <trkpt lat="46.33871" lon="5.99702">
        <ele>1509.6</ele>
        <time>2022-07-07T12:17:17Z</time>
      </trkpt>
      <trkpt lat="46.33872" lon="5.99709">
        <ele>1509.3</ele>
        <time>2022-07-07T12:17:23Z</time>
      </trkpt>
      <trkpt lat="46.33873" lon="5.99716">
        <ele>1509.1</ele>
        <time>2022-07-07T12:17:29Z</time>
      </trkpt>
      <trkpt lat="46.33875" lon="5.99724">
        <ele>1508.8</ele>
        <time>2022-07-07T12:17:35Z</time>
      </trkpt>
      <trkpt lat="46.33876" lon="5.99731">
        <ele>1508.5</ele>
        <time>2022-07-07T12:17:42Z</time>
      </trkpt>
      <trkpt lat="46.33878" lon="5.99738">
        <ele>1508.4</ele>
        <time>2022-07-07T12:17:48Z</time>
      </trkpt>
      <trkpt lat="46.33881" lon="5.99743">
        <ele>1508.8</ele>
        <time>2022-07-07T12:17:52Z</time>
      </trkpt>
      <trkpt lat="46.33884" lon="5.99748">
        <ele>1509.4</ele>
        <time>2022-07-07T12:17:58Z</time>
      </trkpt>
      <trkpt lat="46.33889" lon="5.99747">
        <ele>1509.7</ele>
        <time>2022-07-07T12:18:04Z</time>
      </trkpt>
      <trkpt lat="46.33894" lon="5.99749">
        <ele>1510.1</ele>
        <time>2022-07-07T12:18:11Z</time>
      </trkpt>
      <trkpt lat="46.33898" lon="5.99747">
        <ele>1510</ele>
        <time>2022-07-07T12:18:17Z</time>
      </trkpt>
      <trkpt lat="46.33902" lon="5.99742">
        <ele>1509.5</ele>
        <time>2022-07-07T12:18:22Z</time>
      </trkpt>
      <trkpt lat="46.33907" lon="5.99739">
        <ele>1508.6</ele>
        <time>2022-07-07T12:18:27Z</time>
      </trkpt>
      <trkpt lat="46.33912" lon="5.99738">
        <ele>1508</ele>
        <time>2022-07-07T12:18:33Z</time>
      </trkpt>
      <trkpt lat="46.33916" lon="5.99736">
        <ele>1507.3</ele>
        <time>2022-07-07T12:18:40Z</time>
      </trkpt>
      <trkpt lat="46.33921" lon="5.99736">
        <ele>1507.3</ele>
        <time>2022-07-07T12:18:45Z</time>
      </trkpt>
      <trkpt lat="46.33926" lon="5.99735">
        <ele>1507.5</ele>
        <time>2022-07-07T12:18:51Z</time>
      </trkpt>
      <trkpt lat="46.33931" lon="5.99734">
        <ele>1507.7</ele>
        <time>2022-07-07T12:18:58Z</time>
      </trkpt>
      <trkpt lat="46.33935" lon="5.99731">
        <ele>1508.1</ele>
        <time>2022-07-07T12:19:03Z</time>
      </trkpt>
      <trkpt lat="46.3394" lon="5.99729">
        <ele>1508.4</ele>
        <time>2022-07-07T12:19:09Z</time>
      </trkpt>
      <trkpt lat="46.33945" lon="5.99729">
        <ele>1508.4</ele>
        <time>2022-07-07T12:19:16Z</time>
      </trkpt>
      <trkpt lat="46.3395" lon="5.99728">
        <ele>1508.2</ele>
        <time>2022-07-07T12:19:22Z</time>
      </trkpt>
      <trkpt lat="46.33955" lon="5.99725">
        <ele>1508.1</ele>
        <time>2022-07-07T12:19:27Z</time>
      </trkpt>
      <trkpt lat="46.33959" lon="5.99722">
        <ele>1508.3</ele>
        <time>2022-07-07T12:19:34Z</time>
      </trkpt>
      <trkpt lat="46.33964" lon="5.99719">
        <ele>1511.1</ele>
        <time>2022-07-07T12:19:48Z</time>
      </trkpt>
      <trkpt lat="46.33968" lon="5.99715">
        <ele>1511.3</ele>
        <time>2022-07-07T12:19:57Z</time>
      </trkpt>
      <trkpt lat="46.33972" lon="5.99714">
        <ele>1511.7</ele>
        <time>2022-07-07T12:20:04Z</time>
      </trkpt>
      <trkpt lat="46.33976" lon="5.99718">
        <ele>1514.5</ele>
        <time>2022-07-07T12:20:43Z</time>
      </trkpt>
      <trkpt lat="46.3398" lon="5.99722">
        <ele>1514.5</ele>
        <time>2022-07-07T12:20:51Z</time>
      </trkpt>
      <trkpt lat="46.33985" lon="5.99725">
        <ele>1514.3</ele>
        <time>2022-07-07T12:20:59Z</time>
      </trkpt>
      <trkpt lat="46.33989" lon="5.99729">
        <ele>1513.7</ele>
        <time>2022-07-07T12:21:09Z</time>
      </trkpt>
      <trkpt lat="46.33993" lon="5.99732">
        <ele>1513.9</ele>
        <time>2022-07-07T12:21:14Z</time>
      </trkpt>
      <trkpt lat="46.33997" lon="5.99736">
        <ele>1514</ele>
        <time>2022-07-07T12:21:21Z</time>
      </trkpt>
      <trkpt lat="46.34002" lon="5.99738">
        <ele>1513.5</ele>
        <time>2022-07-07T12:21:29Z</time>
      </trkpt>
      <trkpt lat="46.34007" lon="5.9974">
        <ele>1513.6</ele>
        <time>2022-07-07T12:21:36Z</time>
      </trkpt>
      <trkpt lat="46.34011" lon="5.99743">
        <ele>1515.3</ele>
        <time>2022-07-07T12:21:41Z</time>
      </trkpt>
      <trkpt lat="46.34015" lon="5.99745">
        <ele>1518</ele>
        <time>2022-07-07T12:21:47Z</time>
      </trkpt>
      <trkpt lat="46.3402" lon="5.99747">
        <ele>1520</ele>
        <time>2022-07-07T12:21:52Z</time>
      </trkpt>
      <trkpt lat="46.34024" lon="5.99749">
        <ele>1520.6</ele>
        <time>2022-07-07T12:21:58Z</time>
      </trkpt>
      <trkpt lat="46.34028" lon="5.99752">
        <ele>1520</ele>
        <time>2022-07-07T12:22:05Z</time>
      </trkpt>
      <trkpt lat="46.34033" lon="5.99755">
        <ele>1519.1</ele>
        <time>2022-07-07T12:22:12Z</time>
      </trkpt>
      <trkpt lat="46.34037" lon="5.99757">
        <ele>1519.6</ele>
        <time>2022-07-07T12:22:18Z</time>
      </trkpt>
      <trkpt lat="46.34041" lon="5.99762">
        <ele>1520.5</ele>
        <time>2022-07-07T12:22:24Z</time>
      </trkpt>
      <trkpt lat="46.34046" lon="5.99763">
        <ele>1520.8</ele>
        <time>2022-07-07T12:22:32Z</time>
      </trkpt>
      <trkpt lat="46.34051" lon="5.99764">
        <ele>1520.5</ele>
        <time>2022-07-07T12:22:37Z</time>
      </trkpt>
      <trkpt lat="46.34056" lon="5.99761">
        <ele>1519.6</ele>
        <time>2022-07-07T12:22:42Z</time>
      </trkpt>
      <trkpt lat="46.34059" lon="5.99755">
        <ele>1518</ele>
        <time>2022-07-07T12:22:49Z</time>
      </trkpt>
      <trkpt lat="46.34061" lon="5.9975">
        <ele>1517.4</ele>
        <time>2022-07-07T12:22:56Z</time>
      </trkpt>
      <trkpt lat="46.34066" lon="5.99749">
        <ele>1516.9</ele>
        <time>2022-07-07T12:23:03Z</time>
      </trkpt>
      <trkpt lat="46.3407" lon="5.99747">
        <ele>1516.8</ele>
        <time>2022-07-07T12:23:15Z</time>
      </trkpt>
      <trkpt lat="46.34072" lon="5.99739">
        <ele>1515.7</ele>
        <time>2022-07-07T12:23:23Z</time>
      </trkpt>
      <trkpt lat="46.34072" lon="5.99733">
        <ele>1515.6</ele>
        <time>2022-07-07T12:23:28Z</time>
      </trkpt>
      <trkpt lat="46.34075" lon="5.99727">
        <ele>1516.9</ele>
        <time>2022-07-07T12:23:41Z</time>
      </trkpt>
      <trkpt lat="46.34078" lon="5.99723">
        <ele>1517.6</ele>
        <time>2022-07-07T12:23:56Z</time>
      </trkpt>
      <trkpt lat="46.34079" lon="5.99716">
        <ele>1517.4</ele>
        <time>2022-07-07T12:24:04Z</time>
      </trkpt>
      <trkpt lat="46.3408" lon="5.99709">
        <ele>1516.5</ele>
        <time>2022-07-07T12:24:11Z</time>
      </trkpt>
      <trkpt lat="46.34082" lon="5.99703">
        <ele>1515.4</ele>
        <time>2022-07-07T12:24:18Z</time>
      </trkpt>
      <trkpt lat="46.34084" lon="5.99697">
        <ele>1514.2</ele>
        <time>2022-07-07T12:24:25Z</time>
      </trkpt>
      <trkpt lat="46.34084" lon="5.99689">
        <ele>1513.2</ele>
        <time>2022-07-07T12:24:32Z</time>
      </trkpt>
      <trkpt lat="46.34087" lon="5.99684">
        <ele>1511.5</ele>
        <time>2022-07-07T12:24:40Z</time>
      </trkpt>
      <trkpt lat="46.34089" lon="5.99677">
        <ele>1510.4</ele>
        <time>2022-07-07T12:24:46Z</time>
      </trkpt>
      <trkpt lat="46.34092" lon="5.99672">
        <ele>1509</ele>
        <time>2022-07-07T12:24:56Z</time>
      </trkpt>
      <trkpt lat="46.34094" lon="5.99665">
        <ele>1508.8</ele>
        <time>2022-07-07T12:25:03Z</time>
      </trkpt>
      <trkpt lat="46.34095" lon="5.99658">
        <ele>1508.5</ele>
        <time>2022-07-07T12:25:11Z</time>
      </trkpt>
      <trkpt lat="46.34098" lon="5.99653">
        <ele>1507.7</ele>
        <time>2022-07-07T12:25:18Z</time>
      </trkpt>
      <trkpt lat="46.341" lon="5.99646">
        <ele>1506.6</ele>
        <time>2022-07-07T12:25:24Z</time>
      </trkpt>
      <trkpt lat="46.34102" lon="5.9964">
        <ele>1505.4</ele>
        <time>2022-07-07T12:25:31Z</time>
      </trkpt>
      <trkpt lat="46.34105" lon="5.99634">
        <ele>1504</ele>
        <time>2022-07-07T12:25:39Z</time>
      </trkpt>
      <trkpt lat="46.34108" lon="5.99629">
        <ele>1503.3</ele>
        <time>2022-07-07T12:25:44Z</time>
      </trkpt>
      <trkpt lat="46.34111" lon="5.99624">
        <ele>1502</ele>
        <time>2022-07-07T12:25:51Z</time>
      </trkpt>
      <trkpt lat="46.34113" lon="5.99618">
        <ele>1500</ele>
        <time>2022-07-07T12:25:59Z</time>
      </trkpt>
      <trkpt lat="46.34116" lon="5.99611">
        <ele>1497.4</ele>
        <time>2022-07-07T12:26:12Z</time>
      </trkpt>
      <trkpt lat="46.3412" lon="5.99608">
        <ele>1496.4</ele>
        <time>2022-07-07T12:26:18Z</time>
      </trkpt>
      <trkpt lat="46.34125" lon="5.99606">
        <ele>1495.8</ele>
        <time>2022-07-07T12:26:26Z</time>
      </trkpt>
      <trkpt lat="46.34127" lon="5.99612">
        <ele>1494.1</ele>
        <time>2022-07-07T12:27:00Z</time>
      </trkpt>
      <trkpt lat="46.34131" lon="5.99614">
        <ele>1493.3</ele>
        <time>2022-07-07T12:27:06Z</time>
      </trkpt>
      <trkpt lat="46.34135" lon="5.99617">
        <ele>1492.7</ele>
        <time>2022-07-07T12:27:14Z</time>
      </trkpt>
      <trkpt lat="46.3414" lon="5.99617">
        <ele>1491.6</ele>
        <time>2022-07-07T12:27:21Z</time>
      </trkpt>
      <trkpt lat="46.34146" lon="5.9962">
        <ele>1490.9</ele>
        <time>2022-07-07T12:27:26Z</time>
      </trkpt>
      <trkpt lat="46.34149" lon="5.99624">
        <ele>1491</ele>
        <time>2022-07-07T12:27:30Z</time>
      </trkpt>
      <trkpt lat="46.34154" lon="5.99626">
        <ele>1490.5</ele>
        <time>2022-07-07T12:27:36Z</time>
      </trkpt>
      <trkpt lat="46.34159" lon="5.99628">
        <ele>1489.4</ele>
        <time>2022-07-07T12:27:41Z</time>
      </trkpt>
      <trkpt lat="46.34164" lon="5.99629">
        <ele>1487.9</ele>
        <time>2022-07-07T12:27:47Z</time>
      </trkpt>
      <trkpt lat="46.34168" lon="5.99632">
        <ele>1486.9</ele>
        <time>2022-07-07T12:27:53Z</time>
      </trkpt>
      <trkpt lat="46.34172" lon="5.99637">
        <ele>1486.4</ele>
        <time>2022-07-07T12:27:59Z</time>
      </trkpt>
      <trkpt lat="46.34176" lon="5.99637">
        <ele>1485.3</ele>
        <time>2022-07-07T12:28:07Z</time>
      </trkpt>
      <trkpt lat="46.34179" lon="5.99643">
        <ele>1485.6</ele>
        <time>2022-07-07T12:28:36Z</time>
      </trkpt>
      <trkpt lat="46.34181" lon="5.99635">
        <ele>1483.6</ele>
        <time>2022-07-07T12:29:00Z</time>
      </trkpt>
      <trkpt lat="46.34184" lon="5.9963">
        <ele>1483.3</ele>
        <time>2022-07-07T12:29:03Z</time>
      </trkpt>
      <trkpt lat="46.34189" lon="5.99624">
        <ele>1482.8</ele>
        <time>2022-07-07T12:29:07Z</time>
      </trkpt>
      <trkpt lat="46.34192" lon="5.9962">
        <ele>1482.3</ele>
        <time>2022-07-07T12:29:11Z</time>
      </trkpt>
      <trkpt lat="46.34197" lon="5.99621">
        <ele>1481.5</ele>
        <time>2022-07-07T12:29:16Z</time>
      </trkpt>
      <trkpt lat="46.34201" lon="5.99624">
        <ele>1481.2</ele>
        <time>2022-07-07T12:29:21Z</time>
      </trkpt>
      <trkpt lat="46.34206" lon="5.99626">
        <ele>1481.3</ele>
        <time>2022-07-07T12:29:25Z</time>
      </trkpt>
      <trkpt lat="46.34212" lon="5.99629">
        <ele>1480.8</ele>
        <time>2022-07-07T12:29:29Z</time>
      </trkpt>
      <trkpt lat="46.34217" lon="5.99629">
        <ele>1480.7</ele>
        <time>2022-07-07T12:29:32Z</time>
      </trkpt>
      <trkpt lat="46.34222" lon="5.9963">
        <ele>1480.6</ele>
        <time>2022-07-07T12:29:36Z</time>
      </trkpt>
      <trkpt lat="46.34226" lon="5.99629">
        <ele>1479.7</ele>
        <time>2022-07-07T12:29:41Z</time>
      </trkpt>
      <trkpt lat="46.34231" lon="5.99624">
        <ele>1477.7</ele>
        <time>2022-07-07T12:29:46Z</time>
      </trkpt>
      <trkpt lat="46.34234" lon="5.99617">
        <ele>1476.2</ele>
        <time>2022-07-07T12:29:50Z</time>
      </trkpt>
      <trkpt lat="46.34237" lon="5.9961">
        <ele>1475.6</ele>
        <time>2022-07-07T12:29:54Z</time>
      </trkpt>
      <trkpt lat="46.3424" lon="5.99606">
        <ele>1475.2</ele>
        <time>2022-07-07T12:29:59Z</time>
      </trkpt>
      <trkpt lat="46.34245" lon="5.99604">
        <ele>1474.9</ele>
        <time>2022-07-07T12:30:04Z</time>
      </trkpt>
      <trkpt lat="46.3425" lon="5.99605">
        <ele>1474.2</ele>
        <time>2022-07-07T12:30:08Z</time>
      </trkpt>
      <trkpt lat="46.34255" lon="5.99606">
        <ele>1473.1</ele>
        <time>2022-07-07T12:30:12Z</time>
      </trkpt>
      <trkpt lat="46.34259" lon="5.9961">
        <ele>1472</ele>
        <time>2022-07-07T12:30:16Z</time>
      </trkpt>
      <trkpt lat="46.34264" lon="5.99613">
        <ele>1471.2</ele>
        <time>2022-07-07T12:30:19Z</time>
      </trkpt>
      <trkpt lat="46.34268" lon="5.99616">
        <ele>1470.4</ele>
        <time>2022-07-07T12:30:22Z</time>
      </trkpt>
      <trkpt lat="46.34272" lon="5.9962">
        <ele>1469.7</ele>
        <time>2022-07-07T12:30:25Z</time>
      </trkpt>
      <trkpt lat="46.34276" lon="5.99623">
        <ele>1469</ele>
        <time>2022-07-07T12:30:28Z</time>
      </trkpt>
      <trkpt lat="46.34281" lon="5.99625">
        <ele>1468.5</ele>
        <time>2022-07-07T12:30:34Z</time>
      </trkpt>
      <trkpt lat="46.34286" lon="5.99626">
        <ele>1469.1</ele>
        <time>2022-07-07T12:30:38Z</time>
      </trkpt>
      <trkpt lat="46.34291" lon="5.99625">
        <ele>1469.7</ele>
        <time>2022-07-07T12:30:42Z</time>
      </trkpt>
      <trkpt lat="46.34296" lon="5.99625">
        <ele>1469.9</ele>
        <time>2022-07-07T12:30:47Z</time>
      </trkpt>
      <trkpt lat="46.34302" lon="5.99625">
        <ele>1469.5</ele>
        <time>2022-07-07T12:30:51Z</time>
      </trkpt>
      <trkpt lat="46.34307" lon="5.99624">
        <ele>1469.2</ele>
        <time>2022-07-07T12:30:54Z</time>
      </trkpt>
      <trkpt lat="46.34312" lon="5.99623">
        <ele>1469</ele>
        <time>2022-07-07T12:30:57Z</time>
      </trkpt>
      <trkpt lat="46.34317" lon="5.99621">
        <ele>1469</ele>
        <time>2022-07-07T12:31:00Z</time>
      </trkpt>
      <trkpt lat="46.34321" lon="5.99619">
        <ele>1469.3</ele>
        <time>2022-07-07T12:31:04Z</time>
      </trkpt>
      <trkpt lat="46.34326" lon="5.99618">
        <ele>1470.2</ele>
        <time>2022-07-07T12:31:09Z</time>
      </trkpt>
      <trkpt lat="46.3433" lon="5.99615">
        <ele>1471.3</ele>
        <time>2022-07-07T12:31:16Z</time>
      </trkpt>
      <trkpt lat="46.34335" lon="5.99614">
        <ele>1471.3</ele>
        <time>2022-07-07T12:31:21Z</time>
      </trkpt>
      <trkpt lat="46.34339" lon="5.99615">
        <ele>1471</ele>
        <time>2022-07-07T12:31:25Z</time>
      </trkpt>
      <trkpt lat="46.34344" lon="5.9962">
        <ele>1470.5</ele>
        <time>2022-07-07T12:31:31Z</time>
      </trkpt>
      <trkpt lat="46.34347" lon="5.99625">
        <ele>1470.7</ele>
        <time>2022-07-07T12:31:35Z</time>
      </trkpt>
      <trkpt lat="46.34351" lon="5.9963">
        <ele>1471.3</ele>
        <time>2022-07-07T12:31:38Z</time>
      </trkpt>
      <trkpt lat="46.34356" lon="5.99635">
        <ele>1472.8</ele>
        <time>2022-07-07T12:31:42Z</time>
      </trkpt>
      <trkpt lat="46.3436" lon="5.99639">
        <ele>1474.4</ele>
        <time>2022-07-07T12:31:46Z</time>
      </trkpt>
      <trkpt lat="46.34364" lon="5.99641">
        <ele>1477.2</ele>
        <time>2022-07-07T12:31:53Z</time>
      </trkpt>
      <trkpt lat="46.34369" lon="5.99644">
        <ele>1479.3</ele>
        <time>2022-07-07T12:31:59Z</time>
      </trkpt>
      <trkpt lat="46.34374" lon="5.99648">
        <ele>1480.4</ele>
        <time>2022-07-07T12:32:03Z</time>
      </trkpt>
      <trkpt lat="46.34377" lon="5.99654">
        <ele>1480.9</ele>
        <time>2022-07-07T12:32:09Z</time>
      </trkpt>
      <trkpt lat="46.34379" lon="5.9966">
        <ele>1480.2</ele>
        <time>2022-07-07T12:32:16Z</time>
      </trkpt>
      <trkpt lat="46.3438" lon="5.99667">
        <ele>1479.5</ele>
        <time>2022-07-07T12:32:21Z</time>
      </trkpt>
      <trkpt lat="46.34381" lon="5.99674">
        <ele>1479.7</ele>
        <time>2022-07-07T12:32:26Z</time>
      </trkpt>
      <trkpt lat="46.34382" lon="5.99681">
        <ele>1480.4</ele>
        <time>2022-07-07T12:32:31Z</time>
      </trkpt>
      <trkpt lat="46.34383" lon="5.99687">
        <ele>1480.6</ele>
        <time>2022-07-07T12:32:37Z</time>
      </trkpt>
      <trkpt lat="46.34386" lon="5.99693">
        <ele>1480.9</ele>
        <time>2022-07-07T12:32:44Z</time>
      </trkpt>
      <trkpt lat="46.3439" lon="5.99697">
        <ele>1481.5</ele>
        <time>2022-07-07T12:32:52Z</time>
      </trkpt>
      <trkpt lat="46.34394" lon="5.99701">
        <ele>1481.4</ele>
        <time>2022-07-07T12:32:56Z</time>
      </trkpt>
      <trkpt lat="46.34397" lon="5.99706">
        <ele>1481.3</ele>
        <time>2022-07-07T12:33:00Z</time>
      </trkpt>
      <trkpt lat="46.34398" lon="5.99715">
        <ele>1480.7</ele>
        <time>2022-07-07T12:33:10Z</time>
      </trkpt>
      <trkpt lat="46.34399" lon="5.99721">
        <ele>1480.9</ele>
        <time>2022-07-07T12:33:14Z</time>
      </trkpt>
      <trkpt lat="46.34399" lon="5.99729">
        <ele>1481.3</ele>
        <time>2022-07-07T12:33:18Z</time>
      </trkpt>
      <trkpt lat="46.34398" lon="5.99737">
        <ele>1481.7</ele>
        <time>2022-07-07T12:33:23Z</time>
      </trkpt>
      <trkpt lat="46.34395" lon="5.99742">
        <ele>1482.8</ele>
        <time>2022-07-07T12:33:30Z</time>
      </trkpt>
      <trkpt lat="46.34393" lon="5.99748">
        <ele>1483.7</ele>
        <time>2022-07-07T12:33:38Z</time>
      </trkpt>
      <trkpt lat="46.34388" lon="5.99749">
        <ele>1481.9</ele>
        <time>2022-07-07T12:33:45Z</time>
      </trkpt>
      <trkpt lat="46.34384" lon="5.99753">
        <ele>1480.7</ele>
        <time>2022-07-07T12:33:50Z</time>
      </trkpt>
      <trkpt lat="46.3438" lon="5.99757">
        <ele>1480.7</ele>
        <time>2022-07-07T12:33:54Z</time>
      </trkpt>
      <trkpt lat="46.34376" lon="5.99759">
        <ele>1480.8</ele>
        <time>2022-07-07T12:33:59Z</time>
      </trkpt>
      <trkpt lat="46.34371" lon="5.99759">
        <ele>1480.7</ele>
        <time>2022-07-07T12:34:04Z</time>
      </trkpt>
      <trkpt lat="46.34367" lon="5.99763">
        <ele>1480.8</ele>
        <time>2022-07-07T12:34:08Z</time>
      </trkpt>
      <trkpt lat="46.34363" lon="5.99768">
        <ele>1481.1</ele>
        <time>2022-07-07T12:34:12Z</time>
      </trkpt>
      <trkpt lat="46.34361" lon="5.99775">
        <ele>1481.8</ele>
        <time>2022-07-07T12:34:16Z</time>
      </trkpt>
      <trkpt lat="46.34358" lon="5.99781">
        <ele>1482.9</ele>
        <time>2022-07-07T12:34:21Z</time>
      </trkpt>
      <trkpt lat="46.34357" lon="5.99788">
        <ele>1484.5</ele>
        <time>2022-07-07T12:34:26Z</time>
      </trkpt>
      <trkpt lat="46.34357" lon="5.99794">
        <ele>1486.2</ele>
        <time>2022-07-07T12:34:31Z</time>
      </trkpt>
      <trkpt lat="46.34355" lon="5.998">
        <ele>1487.8</ele>
        <time>2022-07-07T12:34:37Z</time>
      </trkpt>
      <trkpt lat="46.34358" lon="5.99806">
        <ele>1489.1</ele>
        <time>2022-07-07T12:34:45Z</time>
      </trkpt>
      <trkpt lat="46.34363" lon="5.99809">
        <ele>1489.3</ele>
        <time>2022-07-07T12:34:50Z</time>
      </trkpt>
      <trkpt lat="46.34367" lon="5.99812">
        <ele>1489.7</ele>
        <time>2022-07-07T12:34:56Z</time>
      </trkpt>
      <trkpt lat="46.34371" lon="5.99812">
        <ele>1490.3</ele>
        <time>2022-07-07T12:35:00Z</time>
      </trkpt>
      <trkpt lat="46.34376" lon="5.99813">
        <ele>1491</ele>
        <time>2022-07-07T12:35:04Z</time>
      </trkpt>
      <trkpt lat="46.34381" lon="5.99814">
        <ele>1491.8</ele>
        <time>2022-07-07T12:35:10Z</time>
      </trkpt>
      <trkpt lat="46.34386" lon="5.99815">
        <ele>1492.5</ele>
        <time>2022-07-07T12:35:16Z</time>
      </trkpt>
      <trkpt lat="46.3439" lon="5.99819">
        <ele>1492.8</ele>
        <time>2022-07-07T12:35:19Z</time>
      </trkpt>
      <trkpt lat="46.34394" lon="5.99823">
        <ele>1493.1</ele>
        <time>2022-07-07T12:35:22Z</time>
      </trkpt>
      <trkpt lat="46.34398" lon="5.99828">
        <ele>1494.2</ele>
        <time>2022-07-07T12:35:26Z</time>
      </trkpt>
      <trkpt lat="46.34401" lon="5.99833">
        <ele>1493.9</ele>
        <time>2022-07-07T12:35:35Z</time>
      </trkpt>
      <trkpt lat="46.34405" lon="5.99838">
        <ele>1492.3</ele>
        <time>2022-07-07T12:35:43Z</time>
      </trkpt>
      <trkpt lat="46.34409" lon="5.9984">
        <ele>1491.4</ele>
        <time>2022-07-07T12:35:50Z</time>
      </trkpt>
      <trkpt lat="46.34415" lon="5.99842">
        <ele>1491.9</ele>
        <time>2022-07-07T12:35:55Z</time>
      </trkpt>
      <trkpt lat="46.34421" lon="5.99844">
        <ele>1492.3</ele>
        <time>2022-07-07T12:35:59Z</time>
      </trkpt>
      <trkpt lat="46.34425" lon="5.99845">
        <ele>1492.8</ele>
        <time>2022-07-07T12:36:02Z</time>
      </trkpt>
      <trkpt lat="46.3443" lon="5.99846">
        <ele>1493.6</ele>
        <time>2022-07-07T12:36:05Z</time>
      </trkpt>
      <trkpt lat="46.34434" lon="5.99847">
        <ele>1494.4</ele>
        <time>2022-07-07T12:36:08Z</time>
      </trkpt>
      <trkpt lat="46.34436" lon="5.99839">
        <ele>1494.8</ele>
        <time>2022-07-07T12:36:19Z</time>
      </trkpt>
      <trkpt lat="46.34441" lon="5.99837">
        <ele>1495</ele>
        <time>2022-07-07T12:36:24Z</time>
      </trkpt>
      <trkpt lat="46.34446" lon="5.99838">
        <ele>1495.1</ele>
        <time>2022-07-07T12:36:27Z</time>
      </trkpt>
      <trkpt lat="46.3445" lon="5.99839">
        <ele>1495.9</ele>
        <time>2022-07-07T12:36:32Z</time>
      </trkpt>
      <trkpt lat="46.34456" lon="5.99839">
        <ele>1497.3</ele>
        <time>2022-07-07T12:36:37Z</time>
      </trkpt>
      <trkpt lat="46.3446" lon="5.99837">
        <ele>1499.2</ele>
        <time>2022-07-07T12:36:47Z</time>
      </trkpt>
      <trkpt lat="46.34466" lon="5.99839">
        <ele>1499.9</ele>
        <time>2022-07-07T12:36:51Z</time>
      </trkpt>
      <trkpt lat="46.3447" lon="5.99838">
        <ele>1500.9</ele>
        <time>2022-07-07T12:36:59Z</time>
      </trkpt>
      <trkpt lat="46.34469" lon="5.99831">
        <ele>1503.3</ele>
        <time>2022-07-07T12:37:58Z</time>
      </trkpt>
      <trkpt lat="46.34473" lon="5.99833">
        <ele>1503.2</ele>
        <time>2022-07-07T12:38:08Z</time>
      </trkpt>
      <trkpt lat="46.34476" lon="5.99839">
        <ele>1502.3</ele>
        <time>2022-07-07T12:38:15Z</time>
      </trkpt>
      <trkpt lat="46.3448" lon="5.99843">
        <ele>1501</ele>
        <time>2022-07-07T12:38:24Z</time>
      </trkpt>
      <trkpt lat="46.34476" lon="5.9984">
        <ele>1497.5</ele>
        <time>2022-07-07T12:38:43Z</time>
      </trkpt>
      <trkpt lat="46.3448" lon="5.99835">
        <ele>1494.8</ele>
        <time>2022-07-07T12:39:35Z</time>
      </trkpt>
      <trkpt lat="46.34483" lon="5.9983">
        <ele>1509.3</ele>
        <time>2022-07-07T12:41:27Z</time>
      </trkpt>
      <trkpt lat="46.34488" lon="5.99831">
        <ele>1508.4</ele>
        <time>2022-07-07T12:41:34Z</time>
      </trkpt>
      <trkpt lat="46.34491" lon="5.99825">
        <ele>1507.9</ele>
        <time>2022-07-07T12:41:47Z</time>
      </trkpt>
      <trkpt lat="46.34495" lon="5.99823">
        <ele>1507</ele>
        <time>2022-07-07T12:41:51Z</time>
      </trkpt>
      <trkpt lat="46.34501" lon="5.99822">
        <ele>1505.9</ele>
        <time>2022-07-07T12:41:56Z</time>
      </trkpt>
      <trkpt lat="46.34505" lon="5.99821">
        <ele>1505.4</ele>
        <time>2022-07-07T12:41:59Z</time>
      </trkpt>
      <trkpt lat="46.34511" lon="5.99822">
        <ele>1504.4</ele>
        <time>2022-07-07T12:42:04Z</time>
      </trkpt>
      <trkpt lat="46.34516" lon="5.99821">
        <ele>1502.8</ele>
        <time>2022-07-07T12:42:10Z</time>
      </trkpt>
      <trkpt lat="46.3452" lon="5.99821">
        <ele>1501.9</ele>
        <time>2022-07-07T12:42:14Z</time>
      </trkpt>
      <trkpt lat="46.34525" lon="5.99821">
        <ele>1500.9</ele>
        <time>2022-07-07T12:42:19Z</time>
      </trkpt>
      <trkpt lat="46.3453" lon="5.99819">
        <ele>1501</ele>
        <time>2022-07-07T12:42:26Z</time>
      </trkpt>
      <trkpt lat="46.34534" lon="5.99816">
        <ele>1501.8</ele>
        <time>2022-07-07T12:42:34Z</time>
      </trkpt>
      <trkpt lat="46.34539" lon="5.99815">
        <ele>1502.4</ele>
        <time>2022-07-07T12:42:39Z</time>
      </trkpt>
      <trkpt lat="46.34544" lon="5.99816">
        <ele>1502.7</ele>
        <time>2022-07-07T12:42:44Z</time>
      </trkpt>
      <trkpt lat="46.34549" lon="5.99818">
        <ele>1502.6</ele>
        <time>2022-07-07T12:42:49Z</time>
      </trkpt>
      <trkpt lat="46.34554" lon="5.99819">
        <ele>1502.5</ele>
        <time>2022-07-07T12:42:54Z</time>
      </trkpt>
      <trkpt lat="46.34559" lon="5.99821">
        <ele>1502.5</ele>
        <time>2022-07-07T12:43:00Z</time>
      </trkpt>
      <trkpt lat="46.34564" lon="5.99821">
        <ele>1502.6</ele>
        <time>2022-07-07T12:43:06Z</time>
      </trkpt>
      <trkpt lat="46.34569" lon="5.99822">
        <ele>1502.6</ele>
        <time>2022-07-07T12:43:10Z</time>
      </trkpt>
      <trkpt lat="46.34573" lon="5.99824">
        <ele>1502.8</ele>
        <time>2022-07-07T12:43:17Z</time>
      </trkpt>
      <trkpt lat="46.34578" lon="5.99827">
        <ele>1502.3</ele>
        <time>2022-07-07T12:43:24Z</time>
      </trkpt>
      <trkpt lat="46.34583" lon="5.9983">
        <ele>1502.6</ele>
        <time>2022-07-07T12:43:29Z</time>
      </trkpt>
      <trkpt lat="46.34587" lon="5.99834">
        <ele>1503.9</ele>
        <time>2022-07-07T12:43:35Z</time>
      </trkpt>
      <trkpt lat="46.34591" lon="5.99838">
        <ele>1505</ele>
        <time>2022-07-07T12:43:41Z</time>
      </trkpt>
      <trkpt lat="46.34596" lon="5.99841">
        <ele>1504.7</ele>
        <time>2022-07-07T12:43:46Z</time>
      </trkpt>
      <trkpt lat="46.346" lon="5.99845">
        <ele>1504.8</ele>
        <time>2022-07-07T12:43:50Z</time>
      </trkpt>
      <trkpt lat="46.34605" lon="5.99848">
        <ele>1504.5</ele>
        <time>2022-07-07T12:43:55Z</time>
      </trkpt>
      <trkpt lat="46.34609" lon="5.99851">
        <ele>1504.1</ele>
        <time>2022-07-07T12:44:00Z</time>
      </trkpt>
      <trkpt lat="46.34613" lon="5.99856">
        <ele>1504.5</ele>
        <time>2022-07-07T12:44:05Z</time>
      </trkpt>
      <trkpt lat="46.34617" lon="5.99861">
        <ele>1506</ele>
        <time>2022-07-07T12:44:09Z</time>
      </trkpt>
      <trkpt lat="46.34622" lon="5.99866">
        <ele>1508</ele>
        <time>2022-07-07T12:44:13Z</time>
      </trkpt>
      <trkpt lat="46.34625" lon="5.9987">
        <ele>1509.7</ele>
        <time>2022-07-07T12:44:17Z</time>
      </trkpt>
      <trkpt lat="46.34627" lon="5.99877">
        <ele>1511.3</ele>
        <time>2022-07-07T12:44:23Z</time>
      </trkpt>
      <trkpt lat="46.34629" lon="5.99883">
        <ele>1512.5</ele>
        <time>2022-07-07T12:44:31Z</time>
      </trkpt>
      <trkpt lat="46.34629" lon="5.9989">
        <ele>1513.3</ele>
        <time>2022-07-07T12:44:37Z</time>
      </trkpt>
      <trkpt lat="46.3463" lon="5.99896">
        <ele>1513.4</ele>
        <time>2022-07-07T12:44:42Z</time>
      </trkpt>
      <trkpt lat="46.34632" lon="5.99902">
        <ele>1513.4</ele>
        <time>2022-07-07T12:44:46Z</time>
      </trkpt>
      <trkpt lat="46.34636" lon="5.9991">
        <ele>1513.6</ele>
        <time>2022-07-07T12:44:50Z</time>
      </trkpt>
      <trkpt lat="46.34637" lon="5.99916">
        <ele>1513.9</ele>
        <time>2022-07-07T12:44:53Z</time>
      </trkpt>
      <trkpt lat="46.3464" lon="5.99922">
        <ele>1514.1</ele>
        <time>2022-07-07T12:44:58Z</time>
      </trkpt>
      <trkpt lat="46.34641" lon="5.99929">
        <ele>1513.8</ele>
        <time>2022-07-07T12:45:03Z</time>
      </trkpt>
      <trkpt lat="46.34643" lon="5.99936">
        <ele>1512.7</ele>
        <time>2022-07-07T12:45:09Z</time>
      </trkpt>
      <trkpt lat="46.34645" lon="5.99942">
        <ele>1511.7</ele>
        <time>2022-07-07T12:45:15Z</time>
      </trkpt>
      <trkpt lat="46.34649" lon="5.99948">
        <ele>1510.3</ele>
        <time>2022-07-07T12:45:21Z</time>
      </trkpt>
      <trkpt lat="46.34652" lon="5.99954">
        <ele>1509.4</ele>
        <time>2022-07-07T12:45:26Z</time>
      </trkpt>
      <trkpt lat="46.34656" lon="5.99958">
        <ele>1508.7</ele>
        <time>2022-07-07T12:45:32Z</time>
      </trkpt>
      <trkpt lat="46.3466" lon="5.99962">
        <ele>1508.7</ele>
        <time>2022-07-07T12:45:36Z</time>
      </trkpt>
      <trkpt lat="46.34663" lon="5.99967">
        <ele>1508.1</ele>
        <time>2022-07-07T12:45:46Z</time>
      </trkpt>
      <trkpt lat="46.34665" lon="5.99974">
        <ele>1508.9</ele>
        <time>2022-07-07T12:45:54Z</time>
      </trkpt>
      <trkpt lat="46.3467" lon="5.99977">
        <ele>1508.8</ele>
        <time>2022-07-07T12:46:00Z</time>
      </trkpt>
      <trkpt lat="46.34675" lon="5.99975">
        <ele>1508.4</ele>
        <time>2022-07-07T12:46:04Z</time>
      </trkpt>
      <trkpt lat="46.34679" lon="5.99976">
        <ele>1508.4</ele>
        <time>2022-07-07T12:46:07Z</time>
      </trkpt>
      <trkpt lat="46.34684" lon="5.99979">
        <ele>1508.3</ele>
        <time>2022-07-07T12:46:10Z</time>
      </trkpt>
      <trkpt lat="46.34689" lon="5.99982">
        <ele>1508.1</ele>
        <time>2022-07-07T12:46:14Z</time>
      </trkpt>
      <trkpt lat="46.34693" lon="5.99987">
        <ele>1508.2</ele>
        <time>2022-07-07T12:46:19Z</time>
      </trkpt>
      <trkpt lat="46.34695" lon="5.99993">
        <ele>1507.7</ele>
        <time>2022-07-07T12:46:25Z</time>
      </trkpt>
      <trkpt lat="46.34699" lon="5.99996">
        <ele>1506.9</ele>
        <time>2022-07-07T12:46:30Z</time>
      </trkpt>
      <trkpt lat="46.34704" lon="5.99995">
        <ele>1506</ele>
        <time>2022-07-07T12:46:34Z</time>
      </trkpt>
      <trkpt lat="46.34709" lon="5.99993">
        <ele>1505</ele>
        <time>2022-07-07T12:46:39Z</time>
      </trkpt>
      <trkpt lat="46.34714" lon="5.99988">
        <ele>1504.6</ele>
        <time>2022-07-07T12:46:44Z</time>
      </trkpt>
      <trkpt lat="46.34717" lon="5.99984">
        <ele>1504.3</ele>
        <time>2022-07-07T12:46:49Z</time>
      </trkpt>
      <trkpt lat="46.34722" lon="5.9998">
        <ele>1504.2</ele>
        <time>2022-07-07T12:46:54Z</time>
      </trkpt>
      <trkpt lat="46.34725" lon="5.99975">
        <ele>1504.1</ele>
        <time>2022-07-07T12:46:59Z</time>
      </trkpt>
      <trkpt lat="46.3473" lon="5.99971">
        <ele>1502.8</ele>
        <time>2022-07-07T12:47:05Z</time>
      </trkpt>
      <trkpt lat="46.34735" lon="5.9997">
        <ele>1500.6</ele>
        <time>2022-07-07T12:47:11Z</time>
      </trkpt>
      <trkpt lat="46.3474" lon="5.99969">
        <ele>1498.9</ele>
        <time>2022-07-07T12:47:16Z</time>
      </trkpt>
      <trkpt lat="46.34745" lon="5.9997">
        <ele>1498</ele>
        <time>2022-07-07T12:47:20Z</time>
      </trkpt>
      <trkpt lat="46.3475" lon="5.99968">
        <ele>1497.8</ele>
        <time>2022-07-07T12:47:24Z</time>
      </trkpt>
      <trkpt lat="46.34755" lon="5.99967">
        <ele>1497.8</ele>
        <time>2022-07-07T12:47:28Z</time>
      </trkpt>
      <trkpt lat="46.3476" lon="5.99966">
        <ele>1497.6</ele>
        <time>2022-07-07T12:47:34Z</time>
      </trkpt>
      <trkpt lat="46.34764" lon="5.99964">
        <ele>1497.5</ele>
        <time>2022-07-07T12:47:39Z</time>
      </trkpt>
      <trkpt lat="46.34769" lon="5.99962">
        <ele>1497.4</ele>
        <time>2022-07-07T12:47:43Z</time>
      </trkpt>
      <trkpt lat="46.34774" lon="5.99961">
        <ele>1497.4</ele>
        <time>2022-07-07T12:47:47Z</time>
      </trkpt>
      <trkpt lat="46.34779" lon="5.99961">
        <ele>1498.1</ele>
        <time>2022-07-07T12:47:52Z</time>
      </trkpt>
      <trkpt lat="46.34784" lon="5.99962">
        <ele>1498.4</ele>
        <time>2022-07-07T12:47:57Z</time>
      </trkpt>
      <trkpt lat="46.34789" lon="5.9996">
        <ele>1498.7</ele>
        <time>2022-07-07T12:48:02Z</time>
      </trkpt>
      <trkpt lat="46.34794" lon="5.99961">
        <ele>1498.6</ele>
        <time>2022-07-07T12:48:06Z</time>
      </trkpt>
      <trkpt lat="46.34799" lon="5.99962">
        <ele>1498.9</ele>
        <time>2022-07-07T12:48:10Z</time>
      </trkpt>
      <trkpt lat="46.34804" lon="5.99961">
        <ele>1499.2</ele>
        <time>2022-07-07T12:48:14Z</time>
      </trkpt>
      <trkpt lat="46.34809" lon="5.99962">
        <ele>1499.2</ele>
        <time>2022-07-07T12:48:19Z</time>
      </trkpt>
      <trkpt lat="46.34814" lon="5.99962">
        <ele>1498.7</ele>
        <time>2022-07-07T12:48:24Z</time>
      </trkpt>
      <trkpt lat="46.34818" lon="5.99964">
        <ele>1498.3</ele>
        <time>2022-07-07T12:48:29Z</time>
      </trkpt>
      <trkpt lat="46.34822" lon="5.99968">
        <ele>1497.9</ele>
        <time>2022-07-07T12:48:33Z</time>
      </trkpt>
      <trkpt lat="46.34827" lon="5.99972">
        <ele>1497.3</ele>
        <time>2022-07-07T12:48:37Z</time>
      </trkpt>
      <trkpt lat="46.34831" lon="5.99976">
        <ele>1496.9</ele>
        <time>2022-07-07T12:48:41Z</time>
      </trkpt>
      <trkpt lat="46.34834" lon="5.99982">
        <ele>1496.5</ele>
        <time>2022-07-07T12:48:46Z</time>
      </trkpt>
      <trkpt lat="46.34834" lon="5.99989">
        <ele>1496</ele>
        <time>2022-07-07T12:48:53Z</time>
      </trkpt>
      <trkpt lat="46.34837" lon="5.99994">
        <ele>1496.9</ele>
        <time>2022-07-07T12:49:01Z</time>
      </trkpt>
      <trkpt lat="46.34837" lon="6.00002">
        <ele>1496.5</ele>
        <time>2022-07-07T12:49:08Z</time>
      </trkpt>
      <trkpt lat="46.34836" lon="6.00009">
        <ele>1496</ele>
        <time>2022-07-07T12:49:11Z</time>
      </trkpt>
      <trkpt lat="46.34836" lon="6.00016">
        <ele>1495.1</ele>
        <time>2022-07-07T12:49:14Z</time>
      </trkpt>
      <trkpt lat="46.34836" lon="6.00022">
        <ele>1493.7</ele>
        <time>2022-07-07T12:49:19Z</time>
      </trkpt>
      <trkpt lat="46.34836" lon="6.0003">
        <ele>1492.6</ele>
        <time>2022-07-07T12:49:25Z</time>
      </trkpt>
      <trkpt lat="46.34837" lon="6.00037">
        <ele>1492.3</ele>
        <time>2022-07-07T12:49:30Z</time>
      </trkpt>
      <trkpt lat="46.34837" lon="6.00043">
        <ele>1492.5</ele>
        <time>2022-07-07T12:49:35Z</time>
      </trkpt>
      <trkpt lat="46.34839" lon="6.0005">
        <ele>1492.5</ele>
        <time>2022-07-07T12:49:41Z</time>
      </trkpt>
      <trkpt lat="46.34843" lon="6.00054">
        <ele>1492.5</ele>
        <time>2022-07-07T12:49:47Z</time>
      </trkpt>
      <trkpt lat="46.34848" lon="6.00055">
        <ele>1492.9</ele>
        <time>2022-07-07T12:49:52Z</time>
      </trkpt>
      <trkpt lat="46.34853" lon="6.00054">
        <ele>1493.1</ele>
        <time>2022-07-07T12:49:56Z</time>
      </trkpt>
      <trkpt lat="46.34858" lon="6.00054">
        <ele>1493.4</ele>
        <time>2022-07-07T12:50:00Z</time>
      </trkpt>
      <trkpt lat="46.34863" lon="6.00054">
        <ele>1493.9</ele>
        <time>2022-07-07T12:50:04Z</time>
      </trkpt>
      <trkpt lat="46.34868" lon="6.00054">
        <ele>1494.1</ele>
        <time>2022-07-07T12:50:08Z</time>
      </trkpt>
      <trkpt lat="46.34873" lon="6.00053">
        <ele>1493.8</ele>
        <time>2022-07-07T12:50:13Z</time>
      </trkpt>
      <trkpt lat="46.34878" lon="6.00052">
        <ele>1494.3</ele>
        <time>2022-07-07T12:50:18Z</time>
      </trkpt>
      <trkpt lat="46.34883" lon="6.00051">
        <ele>1494.3</ele>
        <time>2022-07-07T12:50:25Z</time>
      </trkpt>
      <trkpt lat="46.34887" lon="6.00052">
        <ele>1493.6</ele>
        <time>2022-07-07T12:50:30Z</time>
      </trkpt>
      <trkpt lat="46.34893" lon="6.00052">
        <ele>1492.6</ele>
        <time>2022-07-07T12:50:35Z</time>
      </trkpt>
      <trkpt lat="46.34897" lon="6.0005">
        <ele>1492.1</ele>
        <time>2022-07-07T12:50:40Z</time>
      </trkpt>
      <trkpt lat="46.34902" lon="6.00049">
        <ele>1491.9</ele>
        <time>2022-07-07T12:50:44Z</time>
      </trkpt>
      <trkpt lat="46.34907" lon="6.00048">
        <ele>1491.7</ele>
        <time>2022-07-07T12:50:49Z</time>
      </trkpt>
      <trkpt lat="46.34912" lon="6.00046">
        <ele>1491.1</ele>
        <time>2022-07-07T12:50:55Z</time>
      </trkpt>
      <trkpt lat="46.34917" lon="6.00045">
        <ele>1490.4</ele>
        <time>2022-07-07T12:51:00Z</time>
      </trkpt>
      <trkpt lat="46.34922" lon="6.00047">
        <ele>1490.3</ele>
        <time>2022-07-07T12:51:04Z</time>
      </trkpt>
      <trkpt lat="46.34926" lon="6.00051">
        <ele>1490.4</ele>
        <time>2022-07-07T12:51:08Z</time>
      </trkpt>
      <trkpt lat="46.34929" lon="6.00056">
        <ele>1490.7</ele>
        <time>2022-07-07T12:51:14Z</time>
      </trkpt>
      <trkpt lat="46.34933" lon="6.00061">
        <ele>1491</ele>
        <time>2022-07-07T12:51:19Z</time>
      </trkpt>
      <trkpt lat="46.34937" lon="6.00066">
        <ele>1491.2</ele>
        <time>2022-07-07T12:51:24Z</time>
      </trkpt>
      <trkpt lat="46.34941" lon="6.00069">
        <ele>1491.1</ele>
        <time>2022-07-07T12:51:29Z</time>
      </trkpt>
      <trkpt lat="46.34946" lon="6.00073">
        <ele>1490.8</ele>
        <time>2022-07-07T12:51:34Z</time>
      </trkpt>
      <trkpt lat="46.34951" lon="6.00075">
        <ele>1490.3</ele>
        <time>2022-07-07T12:51:39Z</time>
      </trkpt>
      <trkpt lat="46.34955" lon="6.00077">
        <ele>1489.5</ele>
        <time>2022-07-07T12:51:45Z</time>
      </trkpt>
      <trkpt lat="46.3496" lon="6.00076">
        <ele>1488.7</ele>
        <time>2022-07-07T12:51:50Z</time>
      </trkpt>
      <trkpt lat="46.34966" lon="6.00075">
        <ele>1488.4</ele>
        <time>2022-07-07T12:51:55Z</time>
      </trkpt>
      <trkpt lat="46.3497" lon="6.00075">
        <ele>1487.7</ele>
        <time>2022-07-07T12:51:59Z</time>
      </trkpt>
      <trkpt lat="46.34975" lon="6.00076">
        <ele>1486.5</ele>
        <time>2022-07-07T12:52:04Z</time>
      </trkpt>
      <trkpt lat="46.3498" lon="6.00079">
        <ele>1485.6</ele>
        <time>2022-07-07T12:52:10Z</time>
      </trkpt>
      <trkpt lat="46.34984" lon="6.00082">
        <ele>1485.1</ele>
        <time>2022-07-07T12:52:15Z</time>
      </trkpt>
      <trkpt lat="46.34988" lon="6.00087">
        <ele>1484.9</ele>
        <time>2022-07-07T12:52:20Z</time>
      </trkpt>
      <trkpt lat="46.34992" lon="6.00092">
        <ele>1484.5</ele>
        <time>2022-07-07T12:52:26Z</time>
      </trkpt>
      <trkpt lat="46.34997" lon="6.00093">
        <ele>1484.5</ele>
        <time>2022-07-07T12:52:30Z</time>
      </trkpt>
      <trkpt lat="46.35001" lon="6.00095">
        <ele>1484.7</ele>
        <time>2022-07-07T12:52:34Z</time>
      </trkpt>
      <trkpt lat="46.35006" lon="6.00096">
        <ele>1485.3</ele>
        <time>2022-07-07T12:52:38Z</time>
      </trkpt>
      <trkpt lat="46.35011" lon="6.00098">
        <ele>1485.6</ele>
        <time>2022-07-07T12:52:42Z</time>
      </trkpt>
      <trkpt lat="46.35015" lon="6.001">
        <ele>1485.5</ele>
        <time>2022-07-07T12:52:46Z</time>
      </trkpt>
      <trkpt lat="46.3502" lon="6.00103">
        <ele>1485.5</ele>
        <time>2022-07-07T12:52:51Z</time>
      </trkpt>
      <trkpt lat="46.35022" lon="6.00109">
        <ele>1485.4</ele>
        <time>2022-07-07T12:53:00Z</time>
      </trkpt>
      <trkpt lat="46.35027" lon="6.00113">
        <ele>1485.2</ele>
        <time>2022-07-07T12:54:56Z</time>
      </trkpt>
      <trkpt lat="46.35031" lon="6.00117">
        <ele>1487.8</ele>
        <time>2022-07-07T12:56:40Z</time>
      </trkpt>
      <trkpt lat="46.35035" lon="6.00121">
        <ele>1489.4</ele>
        <time>2022-07-07T12:56:44Z</time>
      </trkpt>
      <trkpt lat="46.35038" lon="6.00128">
        <ele>1490.4</ele>
        <time>2022-07-07T12:56:52Z</time>
      </trkpt>
      <trkpt lat="46.35038" lon="6.00134">
        <ele>1490.1</ele>
        <time>2022-07-07T12:56:57Z</time>
      </trkpt>
      <trkpt lat="46.35041" lon="6.0014">
        <ele>1489.3</ele>
        <time>2022-07-07T12:57:03Z</time>
      </trkpt>
      <trkpt lat="46.35043" lon="6.00147">
        <ele>1489.2</ele>
        <time>2022-07-07T12:57:08Z</time>
      </trkpt>
      <trkpt lat="46.35043" lon="6.00154">
        <ele>1489</ele>
        <time>2022-07-07T12:57:14Z</time>
      </trkpt>
      <trkpt lat="46.35043" lon="6.00161">
        <ele>1488.4</ele>
        <time>2022-07-07T12:57:20Z</time>
      </trkpt>
      <trkpt lat="46.35043" lon="6.00167">
        <ele>1488.2</ele>
        <time>2022-07-07T12:57:25Z</time>
      </trkpt>
      <trkpt lat="46.35042" lon="6.00174">
        <ele>1487.1</ele>
        <time>2022-07-07T12:57:32Z</time>
      </trkpt>
      <trkpt lat="46.35043" lon="6.00182">
        <ele>1486.3</ele>
        <time>2022-07-07T12:57:37Z</time>
      </trkpt>
      <trkpt lat="46.35042" lon="6.0019">
        <ele>1484.9</ele>
        <time>2022-07-07T12:57:42Z</time>
      </trkpt>
      <trkpt lat="46.35042" lon="6.00198">
        <ele>1484.5</ele>
        <time>2022-07-07T12:57:46Z</time>
      </trkpt>
      <trkpt lat="46.35042" lon="6.00205">
        <ele>1484.5</ele>
        <time>2022-07-07T12:57:50Z</time>
      </trkpt>
      <trkpt lat="46.35043" lon="6.00212">
        <ele>1484.4</ele>
        <time>2022-07-07T12:57:55Z</time>
      </trkpt>
      <trkpt lat="46.35043" lon="6.00219">
        <ele>1484.5</ele>
        <time>2022-07-07T12:58:00Z</time>
      </trkpt>
      <trkpt lat="46.35044" lon="6.00227">
        <ele>1484.1</ele>
        <time>2022-07-07T12:58:05Z</time>
      </trkpt>
      <trkpt lat="46.35046" lon="6.00235">
        <ele>1484.3</ele>
        <time>2022-07-07T12:58:10Z</time>
      </trkpt>
      <trkpt lat="46.35047" lon="6.00242">
        <ele>1485.2</ele>
        <time>2022-07-07T12:58:15Z</time>
      </trkpt>
      <trkpt lat="46.35048" lon="6.00249">
        <ele>1485.9</ele>
        <time>2022-07-07T12:58:20Z</time>
      </trkpt>
      <trkpt lat="46.35049" lon="6.00256">
        <ele>1486</ele>
        <time>2022-07-07T12:58:27Z</time>
      </trkpt>
      <trkpt lat="46.35051" lon="6.00262">
        <ele>1485.7</ele>
        <time>2022-07-07T12:58:31Z</time>
      </trkpt>
      <trkpt lat="46.35055" lon="6.00267">
        <ele>1485.6</ele>
        <time>2022-07-07T12:58:36Z</time>
      </trkpt>
      <trkpt lat="46.35058" lon="6.00272">
        <ele>1485.6</ele>
        <time>2022-07-07T12:58:40Z</time>
      </trkpt>
      <trkpt lat="46.35062" lon="6.00278">
        <ele>1485.5</ele>
        <time>2022-07-07T12:58:44Z</time>
      </trkpt>
      <trkpt lat="46.35066" lon="6.00282">
        <ele>1485.1</ele>
        <time>2022-07-07T12:58:49Z</time>
      </trkpt>
      <trkpt lat="46.3507" lon="6.00285">
        <ele>1484.6</ele>
        <time>2022-07-07T12:58:54Z</time>
      </trkpt>
      <trkpt lat="46.35074" lon="6.0029">
        <ele>1485</ele>
        <time>2022-07-07T12:58:59Z</time>
      </trkpt>
      <trkpt lat="46.35078" lon="6.00295">
        <ele>1485.2</ele>
        <time>2022-07-07T12:59:04Z</time>
      </trkpt>
      <trkpt lat="46.35081" lon="6.003">
        <ele>1485.5</ele>
        <time>2022-07-07T12:59:09Z</time>
      </trkpt>
      <trkpt lat="46.35086" lon="6.00303">
        <ele>1485.3</ele>
        <time>2022-07-07T12:59:15Z</time>
      </trkpt>
      <trkpt lat="46.35091" lon="6.00304">
        <ele>1484.9</ele>
        <time>2022-07-07T12:59:20Z</time>
      </trkpt>
      <trkpt lat="46.35096" lon="6.00303">
        <ele>1485</ele>
        <time>2022-07-07T12:59:25Z</time>
      </trkpt>
      <trkpt lat="46.35102" lon="6.00303">
        <ele>1485.3</ele>
        <time>2022-07-07T12:59:30Z</time>
      </trkpt>
      <trkpt lat="46.35107" lon="6.00303">
        <ele>1485.6</ele>
        <time>2022-07-07T12:59:35Z</time>
      </trkpt>
      <trkpt lat="46.35112" lon="6.00306">
        <ele>1486.2</ele>
        <time>2022-07-07T12:59:40Z</time>
      </trkpt>
      <trkpt lat="46.35116" lon="6.0031">
        <ele>1485.9</ele>
        <time>2022-07-07T12:59:47Z</time>
      </trkpt>
      <trkpt lat="46.3512" lon="6.00314">
        <ele>1484.7</ele>
        <time>2022-07-07T12:59:53Z</time>
      </trkpt>
      <trkpt lat="46.35124" lon="6.00318">
        <ele>1483.7</ele>
        <time>2022-07-07T12:59:58Z</time>
      </trkpt>
      <trkpt lat="46.35128" lon="6.00322">
        <ele>1483.4</ele>
        <time>2022-07-07T13:00:03Z</time>
      </trkpt>
      <trkpt lat="46.35132" lon="6.00326">
        <ele>1483.1</ele>
        <time>2022-07-07T13:00:08Z</time>
      </trkpt>
      <trkpt lat="46.35136" lon="6.00331">
        <ele>1482.9</ele>
        <time>2022-07-07T13:00:14Z</time>
      </trkpt>
      <trkpt lat="46.35139" lon="6.00334">
        <ele>1482.2</ele>
        <time>2022-07-07T13:00:19Z</time>
      </trkpt>
      <trkpt lat="46.35143" lon="6.00339">
        <ele>1481.8</ele>
        <time>2022-07-07T13:00:25Z</time>
      </trkpt>
      <trkpt lat="46.35148" lon="6.00343">
        <ele>1482.2</ele>
        <time>2022-07-07T13:00:30Z</time>
      </trkpt>
      <trkpt lat="46.35151" lon="6.00347">
        <ele>1482.7</ele>
        <time>2022-07-07T13:00:37Z</time>
      </trkpt>
      <trkpt lat="46.35152" lon="6.00354">
        <ele>1482.9</ele>
        <time>2022-07-07T13:00:45Z</time>
      </trkpt>
      <trkpt lat="46.35149" lon="6.00349">
        <ele>1483.5</ele>
        <time>2022-07-07T13:00:54Z</time>
      </trkpt>
      <trkpt lat="46.35144" lon="6.00347">
        <ele>1483.4</ele>
        <time>2022-07-07T13:01:01Z</time>
      </trkpt>
      <trkpt lat="46.3514" lon="6.00351">
        <ele>1484.2</ele>
        <time>2022-07-07T13:01:09Z</time>
      </trkpt>
      <trkpt lat="46.35136" lon="6.00353">
        <ele>1484.6</ele>
        <time>2022-07-07T13:01:16Z</time>
      </trkpt>
      <trkpt lat="46.35131" lon="6.00354">
        <ele>1484.7</ele>
        <time>2022-07-07T13:01:24Z</time>
      </trkpt>
      <trkpt lat="46.35126" lon="6.00353">
        <ele>1485.2</ele>
        <time>2022-07-07T13:01:32Z</time>
      </trkpt>
      <trkpt lat="46.35122" lon="6.00357">
        <ele>1485.8</ele>
        <time>2022-07-07T13:01:38Z</time>
      </trkpt>
      <trkpt lat="46.35119" lon="6.00362">
        <ele>1486.3</ele>
        <time>2022-07-07T13:01:43Z</time>
      </trkpt>
      <trkpt lat="46.35118" lon="6.0037">
        <ele>1486.2</ele>
        <time>2022-07-07T13:01:48Z</time>
      </trkpt>
      <trkpt lat="46.3512" lon="6.00376">
        <ele>1485.6</ele>
        <time>2022-07-07T13:01:55Z</time>
      </trkpt>
      <trkpt lat="46.35123" lon="6.00382">
        <ele>1485.6</ele>
        <time>2022-07-07T13:02:01Z</time>
      </trkpt>
      <trkpt lat="46.35125" lon="6.00389">
        <ele>1485.7</ele>
        <time>2022-07-07T13:02:06Z</time>
      </trkpt>
      <trkpt lat="46.35128" lon="6.00395">
        <ele>1485.7</ele>
        <time>2022-07-07T13:02:11Z</time>
      </trkpt>
      <trkpt lat="46.35132" lon="6.00398">
        <ele>1485.7</ele>
        <time>2022-07-07T13:02:16Z</time>
      </trkpt>
      <trkpt lat="46.35136" lon="6.00403">
        <ele>1486</ele>
        <time>2022-07-07T13:02:23Z</time>
      </trkpt>
      <trkpt lat="46.3514" lon="6.00406">
        <ele>1486.2</ele>
        <time>2022-07-07T13:02:29Z</time>
      </trkpt>
      <trkpt lat="46.35143" lon="6.00411">
        <ele>1486.4</ele>
        <time>2022-07-07T13:02:34Z</time>
      </trkpt>
      <trkpt lat="46.35147" lon="6.00416">
        <ele>1486.1</ele>
        <time>2022-07-07T13:02:41Z</time>
      </trkpt>
      <trkpt lat="46.35152" lon="6.00421">
        <ele>1485.3</ele>
        <time>2022-07-07T13:02:47Z</time>
      </trkpt>
      <trkpt lat="46.35154" lon="6.00426">
        <ele>1484.7</ele>
        <time>2022-07-07T13:03:49Z</time>
      </trkpt>
      <trkpt lat="46.35157" lon="6.00431">
        <ele>1484.3</ele>
        <time>2022-07-07T13:03:56Z</time>
      </trkpt>
      <trkpt lat="46.35162" lon="6.00435">
        <ele>1483.9</ele>
        <time>2022-07-07T13:04:02Z</time>
      </trkpt>
      <trkpt lat="46.35165" lon="6.0044">
        <ele>1483.9</ele>
        <time>2022-07-07T13:04:09Z</time>
      </trkpt>
      <trkpt lat="46.35169" lon="6.00444">
        <ele>1483.9</ele>
        <time>2022-07-07T13:04:18Z</time>
      </trkpt>
      <trkpt lat="46.35174" lon="6.00447">
        <ele>1483.6</ele>
        <time>2022-07-07T13:04:24Z</time>
      </trkpt>
      <trkpt lat="46.35178" lon="6.00448">
        <ele>1483.7</ele>
        <time>2022-07-07T13:04:30Z</time>
      </trkpt>
      <trkpt lat="46.35183" lon="6.00449">
        <ele>1485.2</ele>
        <time>2022-07-07T13:04:38Z</time>
      </trkpt>
      <trkpt lat="46.35188" lon="6.0045">
        <ele>1485.9</ele>
        <time>2022-07-07T13:04:44Z</time>
      </trkpt>
      <trkpt lat="46.35192" lon="6.00453">
        <ele>1484.4</ele>
        <time>2022-07-07T13:04:51Z</time>
      </trkpt>
      <trkpt lat="46.35196" lon="6.00458">
        <ele>1481.1</ele>
        <time>2022-07-07T13:05:00Z</time>
      </trkpt>
      <trkpt lat="46.35199" lon="6.00463">
        <ele>1479.8</ele>
        <time>2022-07-07T13:05:06Z</time>
      </trkpt>
      <trkpt lat="46.35204" lon="6.00466">
        <ele>1479.4</ele>
        <time>2022-07-07T13:05:11Z</time>
      </trkpt>
      <trkpt lat="46.35208" lon="6.00469">
        <ele>1479.2</ele>
        <time>2022-07-07T13:05:16Z</time>
      </trkpt>
      <trkpt lat="46.35211" lon="6.00475">
        <ele>1478.7</ele>
        <time>2022-07-07T13:05:21Z</time>
      </trkpt>
      <trkpt lat="46.35215" lon="6.0048">
        <ele>1478</ele>
        <time>2022-07-07T13:05:28Z</time>
      </trkpt>
      <trkpt lat="46.3522" lon="6.0048">
        <ele>1477.1</ele>
        <time>2022-07-07T13:05:57Z</time>
      </trkpt>
      <trkpt lat="46.35225" lon="6.00475">
        <ele>1475.3</ele>
        <time>2022-07-07T13:06:07Z</time>
      </trkpt>
      <trkpt lat="46.35229" lon="6.00474">
        <ele>1472.8</ele>
        <time>2022-07-07T13:06:15Z</time>
      </trkpt>
      <trkpt lat="46.35233" lon="6.0047">
        <ele>1471.3</ele>
        <time>2022-07-07T13:06:23Z</time>
      </trkpt>
      <trkpt lat="46.35237" lon="6.00466">
        <ele>1474.3</ele>
        <time>2022-07-07T13:06:48Z</time>
      </trkpt>
      <trkpt lat="46.35241" lon="6.00462">
        <ele>1476.2</ele>
        <time>2022-07-07T13:06:59Z</time>
      </trkpt>
      <trkpt lat="46.35243" lon="6.00456">
        <ele>1475.2</ele>
        <time>2022-07-07T13:07:13Z</time>
      </trkpt>
      <trkpt lat="46.35241" lon="6.00462">
        <ele>1475.5</ele>
        <time>2022-07-07T13:07:34Z</time>
      </trkpt>
      <trkpt lat="46.35246" lon="6.00463">
        <ele>1473.4</ele>
        <time>2022-07-07T13:07:49Z</time>
      </trkpt>
      <trkpt lat="46.35247" lon="6.00457">
        <ele>1473.5</ele>
        <time>2022-07-07T13:11:27Z</time>
      </trkpt>
      <trkpt lat="46.35252" lon="6.00461">
        <ele>1473</ele>
        <time>2022-07-07T13:12:39Z</time>
      </trkpt>
      <trkpt lat="46.35257" lon="6.00461">
        <ele>1473</ele>
        <time>2022-07-07T13:12:45Z</time>
      </trkpt>
      <trkpt lat="46.35262" lon="6.00462">
        <ele>1473.7</ele>
        <time>2022-07-07T13:12:50Z</time>
      </trkpt>
      <trkpt lat="46.35267" lon="6.00462">
        <ele>1474.8</ele>
        <time>2022-07-07T13:12:55Z</time>
      </trkpt>
      <trkpt lat="46.35272" lon="6.00462">
        <ele>1475.3</ele>
        <time>2022-07-07T13:13:00Z</time>
      </trkpt>
      <trkpt lat="46.35277" lon="6.00461">
        <ele>1474.5</ele>
        <time>2022-07-07T13:13:06Z</time>
      </trkpt>
      <trkpt lat="46.35282" lon="6.00459">
        <ele>1473.8</ele>
        <time>2022-07-07T13:13:13Z</time>
      </trkpt>
      <trkpt lat="46.35286" lon="6.00456">
        <ele>1473.3</ele>
        <time>2022-07-07T13:13:18Z</time>
      </trkpt>
      <trkpt lat="46.35291" lon="6.00454">
        <ele>1472.4</ele>
        <time>2022-07-07T13:13:23Z</time>
      </trkpt>
      <trkpt lat="46.35294" lon="6.00449">
        <ele>1471.3</ele>
        <time>2022-07-07T13:13:28Z</time>
      </trkpt>
      <trkpt lat="46.35298" lon="6.00445">
        <ele>1470.6</ele>
        <time>2022-07-07T13:13:33Z</time>
      </trkpt>
      <trkpt lat="46.35303" lon="6.00441">
        <ele>1469.9</ele>
        <time>2022-07-07T13:13:38Z</time>
      </trkpt>
      <trkpt lat="46.35307" lon="6.00441">
        <ele>1469.9</ele>
        <time>2022-07-07T13:13:44Z</time>
      </trkpt>
      <trkpt lat="46.35312" lon="6.00444">
        <ele>1470.1</ele>
        <time>2022-07-07T13:13:50Z</time>
      </trkpt>
      <trkpt lat="46.35315" lon="6.00449">
        <ele>1470.2</ele>
        <time>2022-07-07T13:13:55Z</time>
      </trkpt>
      <trkpt lat="46.35318" lon="6.00455">
        <ele>1470</ele>
        <time>2022-07-07T13:14:00Z</time>
      </trkpt>
      <trkpt lat="46.3532" lon="6.00462">
        <ele>1470</ele>
        <time>2022-07-07T13:14:05Z</time>
      </trkpt>
      <trkpt lat="46.35321" lon="6.00469">
        <ele>1470.5</ele>
        <time>2022-07-07T13:14:09Z</time>
      </trkpt>
      <trkpt lat="46.35323" lon="6.00476">
        <ele>1471.1</ele>
        <time>2022-07-07T13:14:14Z</time>
      </trkpt>
      <trkpt lat="46.35325" lon="6.00483">
        <ele>1471.5</ele>
        <time>2022-07-07T13:14:19Z</time>
      </trkpt>
      <trkpt lat="46.35327" lon="6.0049">
        <ele>1471.6</ele>
        <time>2022-07-07T13:14:24Z</time>
      </trkpt>
      <trkpt lat="46.35329" lon="6.00496">
        <ele>1472.1</ele>
        <time>2022-07-07T13:14:28Z</time>
      </trkpt>
      <trkpt lat="46.35333" lon="6.00501">
        <ele>1472.6</ele>
        <time>2022-07-07T13:14:33Z</time>
      </trkpt>
      <trkpt lat="46.35338" lon="6.00505">
        <ele>1472.3</ele>
        <time>2022-07-07T13:14:37Z</time>
      </trkpt>
      <trkpt lat="46.35342" lon="6.00505">
        <ele>1472.1</ele>
        <time>2022-07-07T13:14:41Z</time>
      </trkpt>
      <trkpt lat="46.35347" lon="6.00505">
        <ele>1472</ele>
        <time>2022-07-07T13:14:45Z</time>
      </trkpt>
      <trkpt lat="46.35352" lon="6.00504">
        <ele>1472.3</ele>
        <time>2022-07-07T13:14:50Z</time>
      </trkpt>
      <trkpt lat="46.35358" lon="6.00503">
        <ele>1472.2</ele>
        <time>2022-07-07T13:14:55Z</time>
      </trkpt>
      <trkpt lat="46.35362" lon="6.005">
        <ele>1472</ele>
        <time>2022-07-07T13:14:59Z</time>
      </trkpt>
      <trkpt lat="46.35366" lon="6.00497">
        <ele>1472</ele>
        <time>2022-07-07T13:15:03Z</time>
      </trkpt>
      <trkpt lat="46.3537" lon="6.00494">
        <ele>1471.7</ele>
        <time>2022-07-07T13:15:08Z</time>
      </trkpt>
      <trkpt lat="46.35375" lon="6.00492">
        <ele>1470.9</ele>
        <time>2022-07-07T13:15:14Z</time>
      </trkpt>
      <trkpt lat="46.3538" lon="6.0049">
        <ele>1470.4</ele>
        <time>2022-07-07T13:15:18Z</time>
      </trkpt>
      <trkpt lat="46.35385" lon="6.00486">
        <ele>1469.9</ele>
        <time>2022-07-07T13:15:23Z</time>
      </trkpt>
      <trkpt lat="46.35389" lon="6.00483">
        <ele>1469.7</ele>
        <time>2022-07-07T13:15:27Z</time>
      </trkpt>
      <trkpt lat="46.35394" lon="6.0048">
        <ele>1469.9</ele>
        <time>2022-07-07T13:15:32Z</time>
      </trkpt>
      <trkpt lat="46.35399" lon="6.00478">
        <ele>1469.8</ele>
        <time>2022-07-07T13:15:38Z</time>
      </trkpt>
      <trkpt lat="46.35404" lon="6.00477">
        <ele>1469.3</ele>
        <time>2022-07-07T13:15:43Z</time>
      </trkpt>
      <trkpt lat="46.35408" lon="6.00478">
        <ele>1468.7</ele>
        <time>2022-07-07T13:15:47Z</time>
      </trkpt>
      <trkpt lat="46.35413" lon="6.0048">
        <ele>1467.7</ele>
        <time>2022-07-07T13:15:52Z</time>
      </trkpt>
      <trkpt lat="46.35416" lon="6.00485">
        <ele>1466</ele>
        <time>2022-07-07T13:15:59Z</time>
      </trkpt>
      <trkpt lat="46.3542" lon="6.0049">
        <ele>1466</ele>
        <time>2022-07-07T13:16:03Z</time>
      </trkpt>
      <trkpt lat="46.35424" lon="6.00494">
        <ele>1466.9</ele>
        <time>2022-07-07T13:16:07Z</time>
      </trkpt>
      <trkpt lat="46.35429" lon="6.00497">
        <ele>1468.5</ele>
        <time>2022-07-07T13:16:13Z</time>
      </trkpt>
      <trkpt lat="46.35434" lon="6.00499">
        <ele>1468.9</ele>
        <time>2022-07-07T13:16:17Z</time>
      </trkpt>
      <trkpt lat="46.35439" lon="6.005">
        <ele>1469.3</ele>
        <time>2022-07-07T13:16:21Z</time>
      </trkpt>
      <trkpt lat="46.35444" lon="6.005">
        <ele>1469.7</ele>
        <time>2022-07-07T13:16:25Z</time>
      </trkpt>
      <trkpt lat="46.35449" lon="6.00499">
        <ele>1469.8</ele>
        <time>2022-07-07T13:16:30Z</time>
      </trkpt>
      <trkpt lat="46.35453" lon="6.005">
        <ele>1469.3</ele>
        <time>2022-07-07T13:16:34Z</time>
      </trkpt>
      <trkpt lat="46.35458" lon="6.005">
        <ele>1468.9</ele>
        <time>2022-07-07T13:16:39Z</time>
      </trkpt>
      <trkpt lat="46.35463" lon="6.005">
        <ele>1468.4</ele>
        <time>2022-07-07T13:16:45Z</time>
      </trkpt>
      <trkpt lat="46.35468" lon="6.00502">
        <ele>1468.7</ele>
        <time>2022-07-07T13:16:49Z</time>
      </trkpt>
      <trkpt lat="46.35473" lon="6.00504">
        <ele>1469.4</ele>
        <time>2022-07-07T13:16:53Z</time>
      </trkpt>
      <trkpt lat="46.35477" lon="6.00507">
        <ele>1469.8</ele>
        <time>2022-07-07T13:16:57Z</time>
      </trkpt>
      <trkpt lat="46.35481" lon="6.00508">
        <ele>1469.8</ele>
        <time>2022-07-07T13:17:01Z</time>
      </trkpt>
      <trkpt lat="46.35486" lon="6.0051">
        <ele>1469.6</ele>
        <time>2022-07-07T13:17:07Z</time>
      </trkpt>
      <trkpt lat="46.35491" lon="6.00509">
        <ele>1470</ele>
        <time>2022-07-07T13:17:12Z</time>
      </trkpt>
      <trkpt lat="46.35497" lon="6.00509">
        <ele>1470.3</ele>
        <time>2022-07-07T13:17:17Z</time>
      </trkpt>
      <trkpt lat="46.35502" lon="6.00509">
        <ele>1470.8</ele>
        <time>2022-07-07T13:17:22Z</time>
      </trkpt>
      <trkpt lat="46.35507" lon="6.0051">
        <ele>1471.5</ele>
        <time>2022-07-07T13:17:27Z</time>
      </trkpt>
      <trkpt lat="46.35511" lon="6.00511">
        <ele>1472.3</ele>
        <time>2022-07-07T13:17:31Z</time>
      </trkpt>
      <trkpt lat="46.35515" lon="6.00517">
        <ele>1472.7</ele>
        <time>2022-07-07T13:17:36Z</time>
      </trkpt>
      <trkpt lat="46.35514" lon="6.00525">
        <ele>1472.7</ele>
        <time>2022-07-07T13:17:41Z</time>
      </trkpt>
      <trkpt lat="46.35512" lon="6.00533">
        <ele>1472.2</ele>
        <time>2022-07-07T13:17:46Z</time>
      </trkpt>
      <trkpt lat="46.35509" lon="6.00539">
        <ele>1472.5</ele>
        <time>2022-07-07T13:17:50Z</time>
      </trkpt>
      <trkpt lat="46.35506" lon="6.00545">
        <ele>1472.6</ele>
        <time>2022-07-07T13:17:53Z</time>
      </trkpt>
      <trkpt lat="46.35504" lon="6.00552">
        <ele>1472.9</ele>
        <time>2022-07-07T13:17:57Z</time>
      </trkpt>
      <trkpt lat="46.35505" lon="6.00559">
        <ele>1472.5</ele>
        <time>2022-07-07T13:18:03Z</time>
      </trkpt>
      <trkpt lat="46.35506" lon="6.00565">
        <ele>1471.8</ele>
        <time>2022-07-07T13:18:07Z</time>
      </trkpt>
      <trkpt lat="46.3551" lon="6.0057">
        <ele>1471.2</ele>
        <time>2022-07-07T13:18:11Z</time>
      </trkpt>
      <trkpt lat="46.35515" lon="6.00574">
        <ele>1470.8</ele>
        <time>2022-07-07T13:18:15Z</time>
      </trkpt>
      <trkpt lat="46.35519" lon="6.00578">
        <ele>1470</ele>
        <time>2022-07-07T13:18:20Z</time>
      </trkpt>
      <trkpt lat="46.35524" lon="6.00581">
        <ele>1469.3</ele>
        <time>2022-07-07T13:18:25Z</time>
      </trkpt>
      <trkpt lat="46.35529" lon="6.00582">
        <ele>1468.8</ele>
        <time>2022-07-07T13:18:30Z</time>
      </trkpt>
      <trkpt lat="46.35534" lon="6.00583">
        <ele>1469.1</ele>
        <time>2022-07-07T13:18:35Z</time>
      </trkpt>
      <trkpt lat="46.35539" lon="6.00582">
        <ele>1468.9</ele>
        <time>2022-07-07T13:18:39Z</time>
      </trkpt>
      <trkpt lat="46.35544" lon="6.00582">
        <ele>1469.1</ele>
        <time>2022-07-07T13:18:43Z</time>
      </trkpt>
      <trkpt lat="46.35548" lon="6.00579">
        <ele>1469.2</ele>
        <time>2022-07-07T13:18:47Z</time>
      </trkpt>
      <trkpt lat="46.35553" lon="6.00576">
        <ele>1469.4</ele>
        <time>2022-07-07T13:18:51Z</time>
      </trkpt>
      <trkpt lat="46.35558" lon="6.00573">
        <ele>1469.4</ele>
        <time>2022-07-07T13:18:55Z</time>
      </trkpt>
      <trkpt lat="46.35562" lon="6.0057">
        <ele>1469.4</ele>
        <time>2022-07-07T13:18:59Z</time>
      </trkpt>
      <trkpt lat="46.35566" lon="6.00566">
        <ele>1469.4</ele>
        <time>2022-07-07T13:19:04Z</time>
      </trkpt>
      <trkpt lat="46.35569" lon="6.0056">
        <ele>1469.3</ele>
        <time>2022-07-07T13:19:09Z</time>
      </trkpt>
      <trkpt lat="46.35572" lon="6.00554">
        <ele>1469.1</ele>
        <time>2022-07-07T13:19:13Z</time>
      </trkpt>
      <trkpt lat="46.35575" lon="6.00548">
        <ele>1469.1</ele>
        <time>2022-07-07T13:19:17Z</time>
      </trkpt>
      <trkpt lat="46.3558" lon="6.00544">
        <ele>1468.1</ele>
        <time>2022-07-07T13:19:22Z</time>
      </trkpt>
      <trkpt lat="46.35584" lon="6.00542">
        <ele>1466.1</ele>
        <time>2022-07-07T13:19:27Z</time>
      </trkpt>
      <trkpt lat="46.35589" lon="6.00539">
        <ele>1464.6</ele>
        <time>2022-07-07T13:19:32Z</time>
      </trkpt>
      <trkpt lat="46.35593" lon="6.00537">
        <ele>1463.1</ele>
        <time>2022-07-07T13:19:39Z</time>
      </trkpt>
      <trkpt lat="46.35599" lon="6.00538">
        <ele>1462.4</ele>
        <time>2022-07-07T13:19:46Z</time>
      </trkpt>
      <trkpt lat="46.35603" lon="6.00539">
        <ele>1462.2</ele>
        <time>2022-07-07T13:19:50Z</time>
      </trkpt>
      <trkpt lat="46.35609" lon="6.0054">
        <ele>1461.7</ele>
        <time>2022-07-07T13:19:55Z</time>
      </trkpt>
      <trkpt lat="46.35613" lon="6.00542">
        <ele>1461</ele>
        <time>2022-07-07T13:19:59Z</time>
      </trkpt>
      <trkpt lat="46.35618" lon="6.00545">
        <ele>1460</ele>
        <time>2022-07-07T13:20:04Z</time>
      </trkpt>
      <trkpt lat="46.35623" lon="6.00549">
        <ele>1459.6</ele>
        <time>2022-07-07T13:20:09Z</time>
      </trkpt>
      <trkpt lat="46.35626" lon="6.00553">
        <ele>1460</ele>
        <time>2022-07-07T13:20:14Z</time>
      </trkpt>
      <trkpt lat="46.3563" lon="6.00557">
        <ele>1460.1</ele>
        <time>2022-07-07T13:20:18Z</time>
      </trkpt>
      <trkpt lat="46.35633" lon="6.00562">
        <ele>1460.2</ele>
        <time>2022-07-07T13:20:22Z</time>
      </trkpt>
      <trkpt lat="46.35636" lon="6.00567">
        <ele>1460.2</ele>
        <time>2022-07-07T13:20:27Z</time>
      </trkpt>
      <trkpt lat="46.3564" lon="6.00572">
        <ele>1461</ele>
        <time>2022-07-07T13:20:31Z</time>
      </trkpt>
      <trkpt lat="46.35643" lon="6.00577">
        <ele>1462.5</ele>
        <time>2022-07-07T13:20:37Z</time>
      </trkpt>
      <trkpt lat="46.35646" lon="6.00583">
        <ele>1464</ele>
        <time>2022-07-07T13:20:43Z</time>
      </trkpt>
      <trkpt lat="46.35651" lon="6.00589">
        <ele>1464.5</ele>
        <time>2022-07-07T13:20:47Z</time>
      </trkpt>
      <trkpt lat="46.35655" lon="6.00594">
        <ele>1465.2</ele>
        <time>2022-07-07T13:20:51Z</time>
      </trkpt>
      <trkpt lat="46.3566" lon="6.00597">
        <ele>1465.5</ele>
        <time>2022-07-07T13:20:54Z</time>
      </trkpt>
      <trkpt lat="46.35664" lon="6.00602">
        <ele>1465.7</ele>
        <time>2022-07-07T13:20:58Z</time>
      </trkpt>
      <trkpt lat="46.35667" lon="6.00608">
        <ele>1466.2</ele>
        <time>2022-07-07T13:21:02Z</time>
      </trkpt>
      <trkpt lat="46.35669" lon="6.00614">
        <ele>1466.4</ele>
        <time>2022-07-07T13:21:06Z</time>
      </trkpt>
      <trkpt lat="46.35672" lon="6.00621">
        <ele>1466.4</ele>
        <time>2022-07-07T13:21:11Z</time>
      </trkpt>
      <trkpt lat="46.35672" lon="6.00628">
        <ele>1465.8</ele>
        <time>2022-07-07T13:21:16Z</time>
      </trkpt>
      <trkpt lat="46.35671" lon="6.00634">
        <ele>1465.4</ele>
        <time>2022-07-07T13:21:19Z</time>
      </trkpt>
      <trkpt lat="46.35671" lon="6.00641">
        <ele>1464.8</ele>
        <time>2022-07-07T13:21:23Z</time>
      </trkpt>
      <trkpt lat="46.35674" lon="6.00647">
        <ele>1464.5</ele>
        <time>2022-07-07T13:21:27Z</time>
      </trkpt>
      <trkpt lat="46.35677" lon="6.00654">
        <ele>1464.4</ele>
        <time>2022-07-07T13:21:32Z</time>
      </trkpt>
      <trkpt lat="46.35679" lon="6.00661">
        <ele>1464.1</ele>
        <time>2022-07-07T13:21:37Z</time>
      </trkpt>
      <trkpt lat="46.3568" lon="6.00669">
        <ele>1463.3</ele>
        <time>2022-07-07T13:21:42Z</time>
      </trkpt>
      <trkpt lat="46.35681" lon="6.00676">
        <ele>1462</ele>
        <time>2022-07-07T13:21:47Z</time>
      </trkpt>
      <trkpt lat="46.35682" lon="6.00682">
        <ele>1461</ele>
        <time>2022-07-07T13:21:52Z</time>
      </trkpt>
      <trkpt lat="46.35683" lon="6.00689">
        <ele>1460</ele>
        <time>2022-07-07T13:21:57Z</time>
      </trkpt>
      <trkpt lat="46.35686" lon="6.00695">
        <ele>1458.9</ele>
        <time>2022-07-07T13:22:02Z</time>
      </trkpt>
      <trkpt lat="46.35687" lon="6.00701">
        <ele>1457.8</ele>
        <time>2022-07-07T13:22:06Z</time>
      </trkpt>
      <trkpt lat="46.35688" lon="6.00709">
        <ele>1456.8</ele>
        <time>2022-07-07T13:22:10Z</time>
      </trkpt>
      <trkpt lat="46.3569" lon="6.00715">
        <ele>1456.5</ele>
        <time>2022-07-07T13:22:13Z</time>
      </trkpt>
      <trkpt lat="46.35693" lon="6.00722">
        <ele>1456.8</ele>
        <time>2022-07-07T13:22:17Z</time>
      </trkpt>
      <trkpt lat="46.35696" lon="6.00728">
        <ele>1457.3</ele>
        <time>2022-07-07T13:22:22Z</time>
      </trkpt>
      <trkpt lat="46.35699" lon="6.00733">
        <ele>1457.8</ele>
        <time>2022-07-07T13:22:26Z</time>
      </trkpt>
      <trkpt lat="46.35704" lon="6.00738">
        <ele>1458.6</ele>
        <time>2022-07-07T13:22:30Z</time>
      </trkpt>
      <trkpt lat="46.35708" lon="6.00742">
        <ele>1459.9</ele>
        <time>2022-07-07T13:22:34Z</time>
      </trkpt>
      <trkpt lat="46.35709" lon="6.00749">
        <ele>1460.6</ele>
        <time>2022-07-07T13:22:38Z</time>
      </trkpt>
      <trkpt lat="46.35713" lon="6.00754">
        <ele>1460.6</ele>
        <time>2022-07-07T13:22:43Z</time>
      </trkpt>
      <trkpt lat="46.35717" lon="6.00756">
        <ele>1460.6</ele>
        <time>2022-07-07T13:22:47Z</time>
      </trkpt>
      <trkpt lat="46.35722" lon="6.0076">
        <ele>1460.8</ele>
        <time>2022-07-07T13:22:52Z</time>
      </trkpt>
      <trkpt lat="46.35726" lon="6.00763">
        <ele>1461</ele>
        <time>2022-07-07T13:22:57Z</time>
      </trkpt>
      <trkpt lat="46.35731" lon="6.00765">
        <ele>1461.3</ele>
        <time>2022-07-07T13:23:01Z</time>
      </trkpt>
      <trkpt lat="46.35736" lon="6.00766">
        <ele>1461.6</ele>
        <time>2022-07-07T13:23:05Z</time>
      </trkpt>
      <trkpt lat="46.35741" lon="6.00765">
        <ele>1461.6</ele>
        <time>2022-07-07T13:23:09Z</time>
      </trkpt>
      <trkpt lat="46.35746" lon="6.00767">
        <ele>1461.7</ele>
        <time>2022-07-07T13:23:13Z</time>
      </trkpt>
      <trkpt lat="46.35751" lon="6.00773">
        <ele>1462.1</ele>
        <time>2022-07-07T13:23:17Z</time>
      </trkpt>
      <trkpt lat="46.35753" lon="6.00779">
        <ele>1462.5</ele>
        <time>2022-07-07T13:23:21Z</time>
      </trkpt>
      <trkpt lat="46.35756" lon="6.00786">
        <ele>1462.7</ele>
        <time>2022-07-07T13:23:26Z</time>
      </trkpt>
      <trkpt lat="46.35757" lon="6.00793">
        <ele>1462.1</ele>
        <time>2022-07-07T13:23:31Z</time>
      </trkpt>
      <trkpt lat="46.35761" lon="6.00798">
        <ele>1461.4</ele>
        <time>2022-07-07T13:23:35Z</time>
      </trkpt>
      <trkpt lat="46.35765" lon="6.00802">
        <ele>1460.9</ele>
        <time>2022-07-07T13:23:39Z</time>
      </trkpt>
      <trkpt lat="46.35769" lon="6.00804">
        <ele>1460.3</ele>
        <time>2022-07-07T13:23:44Z</time>
      </trkpt>
      <trkpt lat="46.35774" lon="6.00805">
        <ele>1459.9</ele>
        <time>2022-07-07T13:23:49Z</time>
      </trkpt>
      <trkpt lat="46.35778" lon="6.00806">
        <ele>1459.6</ele>
        <time>2022-07-07T13:23:54Z</time>
      </trkpt>
      <trkpt lat="46.35783" lon="6.00808">
        <ele>1459.2</ele>
        <time>2022-07-07T13:23:58Z</time>
      </trkpt>
      <trkpt lat="46.35789" lon="6.00808">
        <ele>1459</ele>
        <time>2022-07-07T13:24:02Z</time>
      </trkpt>
      <trkpt lat="46.35793" lon="6.00809">
        <ele>1459</ele>
        <time>2022-07-07T13:24:06Z</time>
      </trkpt>
      <trkpt lat="46.35799" lon="6.0081">
        <ele>1458.9</ele>
        <time>2022-07-07T13:24:11Z</time>
      </trkpt>
      <trkpt lat="46.35804" lon="6.00812">
        <ele>1458.8</ele>
        <time>2022-07-07T13:24:15Z</time>
      </trkpt>
      <trkpt lat="46.35809" lon="6.00813">
        <ele>1458.9</ele>
        <time>2022-07-07T13:24:19Z</time>
      </trkpt>
      <trkpt lat="46.35808" lon="6.00806">
        <ele>1457.6</ele>
        <time>2022-07-07T13:24:44Z</time>
      </trkpt>
      <trkpt lat="46.35808" lon="6.00799">
        <ele>1456.7</ele>
        <time>2022-07-07T13:24:56Z</time>
      </trkpt>
      <trkpt lat="46.35809" lon="6.00792">
        <ele>1456.5</ele>
        <time>2022-07-07T13:25:02Z</time>
      </trkpt>
      <trkpt lat="46.35809" lon="6.00784">
        <ele>1455</ele>
        <time>2022-07-07T13:25:09Z</time>
      </trkpt>
      <trkpt lat="46.3581" lon="6.00777">
        <ele>1454.2</ele>
        <time>2022-07-07T13:25:14Z</time>
      </trkpt>
      <trkpt lat="46.35811" lon="6.0077">
        <ele>1454</ele>
        <time>2022-07-07T13:25:20Z</time>
      </trkpt>
      <trkpt lat="46.35815" lon="6.00765">
        <ele>1453.9</ele>
        <time>2022-07-07T13:25:27Z</time>
      </trkpt>
      <trkpt lat="46.35818" lon="6.00761">
        <ele>1453.9</ele>
        <time>2022-07-07T13:25:32Z</time>
      </trkpt>
      <trkpt lat="46.35821" lon="6.00754">
        <ele>1453.8</ele>
        <time>2022-07-07T13:25:39Z</time>
      </trkpt>
      <trkpt lat="46.35825" lon="6.0075">
        <ele>1453.4</ele>
        <time>2022-07-07T13:25:44Z</time>
      </trkpt>
      <trkpt lat="46.35829" lon="6.00745">
        <ele>1452.9</ele>
        <time>2022-07-07T13:25:49Z</time>
      </trkpt>
      <trkpt lat="46.35832" lon="6.00739">
        <ele>1452.2</ele>
        <time>2022-07-07T13:25:55Z</time>
      </trkpt>
      <trkpt lat="46.35834" lon="6.00733">
        <ele>1450.7</ele>
        <time>2022-07-07T13:26:01Z</time>
      </trkpt>
      <trkpt lat="46.35835" lon="6.00726">
        <ele>1449.2</ele>
        <time>2022-07-07T13:26:06Z</time>
      </trkpt>
      <trkpt lat="46.35837" lon="6.0072">
        <ele>1448.1</ele>
        <time>2022-07-07T13:26:10Z</time>
      </trkpt>
      <trkpt lat="46.3584" lon="6.00714">
        <ele>1447</ele>
        <time>2022-07-07T13:26:16Z</time>
      </trkpt>
      <trkpt lat="46.35844" lon="6.00709">
        <ele>1446.6</ele>
        <time>2022-07-07T13:26:21Z</time>
      </trkpt>
      <trkpt lat="46.35849" lon="6.00708">
        <ele>1446.8</ele>
        <time>2022-07-07T13:26:26Z</time>
      </trkpt>
      <trkpt lat="46.35854" lon="6.00707">
        <ele>1447.1</ele>
        <time>2022-07-07T13:26:31Z</time>
      </trkpt>
      <trkpt lat="46.35859" lon="6.00708">
        <ele>1447</ele>
        <time>2022-07-07T13:26:37Z</time>
      </trkpt>
      <trkpt lat="46.35864" lon="6.00709">
        <ele>1446</ele>
        <time>2022-07-07T13:26:43Z</time>
      </trkpt>
      <trkpt lat="46.35869" lon="6.00711">
        <ele>1445.3</ele>
        <time>2022-07-07T13:26:48Z</time>
      </trkpt>
      <trkpt lat="46.35873" lon="6.00714">
        <ele>1445.3</ele>
        <time>2022-07-07T13:26:53Z</time>
      </trkpt>
      <trkpt lat="46.35877" lon="6.00718">
        <ele>1444.5</ele>
        <time>2022-07-07T13:27:02Z</time>
      </trkpt>
      <trkpt lat="46.35882" lon="6.00718">
        <ele>1443.6</ele>
        <time>2022-07-07T13:27:06Z</time>
      </trkpt>
      <trkpt lat="46.35886" lon="6.00723">
        <ele>1442.3</ele>
        <time>2022-07-07T13:27:11Z</time>
      </trkpt>
      <trkpt lat="46.3589" lon="6.00728">
        <ele>1440.8</ele>
        <time>2022-07-07T13:27:17Z</time>
      </trkpt>
      <trkpt lat="46.35895" lon="6.0073">
        <ele>1440</ele>
        <time>2022-07-07T13:27:22Z</time>
      </trkpt>
      <trkpt lat="46.359" lon="6.0073">
        <ele>1439.3</ele>
        <time>2022-07-07T13:27:27Z</time>
      </trkpt>
      <trkpt lat="46.35905" lon="6.00732">
        <ele>1439.2</ele>
        <time>2022-07-07T13:27:32Z</time>
      </trkpt>
      <trkpt lat="46.35909" lon="6.00734">
        <ele>1440</ele>
        <time>2022-07-07T13:27:39Z</time>
      </trkpt>
      <trkpt lat="46.35914" lon="6.00736">
        <ele>1440.4</ele>
        <time>2022-07-07T13:27:43Z</time>
      </trkpt>
      <trkpt lat="46.35918" lon="6.00741">
        <ele>1440</ele>
        <time>2022-07-07T13:27:49Z</time>
      </trkpt>
      <trkpt lat="46.35922" lon="6.00745">
        <ele>1438.5</ele>
        <time>2022-07-07T13:27:55Z</time>
      </trkpt>
      <trkpt lat="46.35924" lon="6.00752">
        <ele>1437.4</ele>
        <time>2022-07-07T13:28:00Z</time>
      </trkpt>
      <trkpt lat="46.35924" lon="6.00759">
        <ele>1436.9</ele>
        <time>2022-07-07T13:28:06Z</time>
      </trkpt>
      <trkpt lat="46.35926" lon="6.00765">
        <ele>1437.7</ele>
        <time>2022-07-07T13:28:11Z</time>
      </trkpt>
      <trkpt lat="46.3593" lon="6.00762">
        <ele>1439.9</ele>
        <time>2022-07-07T13:28:21Z</time>
      </trkpt>
      <trkpt lat="46.35935" lon="6.00763">
        <ele>1439.7</ele>
        <time>2022-07-07T13:28:33Z</time>
      </trkpt>
      <trkpt lat="46.3594" lon="6.00759">
        <ele>1438.5</ele>
        <time>2022-07-07T13:28:42Z</time>
      </trkpt>
      <trkpt lat="46.35943" lon="6.00754">
        <ele>1437.2</ele>
        <time>2022-07-07T13:28:48Z</time>
      </trkpt>
      <trkpt lat="46.35947" lon="6.00749">
        <ele>1436.3</ele>
        <time>2022-07-07T13:28:53Z</time>
      </trkpt>
      <trkpt lat="46.35951" lon="6.00745">
        <ele>1436.2</ele>
        <time>2022-07-07T13:28:58Z</time>
      </trkpt>
      <trkpt lat="46.35955" lon="6.00741">
        <ele>1437.5</ele>
        <time>2022-07-07T13:29:03Z</time>
      </trkpt>
      <trkpt lat="46.35959" lon="6.00737">
        <ele>1438.6</ele>
        <time>2022-07-07T13:29:07Z</time>
      </trkpt>
      <trkpt lat="46.35963" lon="6.00734">
        <ele>1438.6</ele>
        <time>2022-07-07T13:29:13Z</time>
      </trkpt>
      <trkpt lat="46.35968" lon="6.00732">
        <ele>1438.7</ele>
        <time>2022-07-07T13:29:19Z</time>
      </trkpt>
      <trkpt lat="46.35974" lon="6.00733">
        <ele>1437.7</ele>
        <time>2022-07-07T13:29:24Z</time>
      </trkpt>
      <trkpt lat="46.35978" lon="6.00734">
        <ele>1436.4</ele>
        <time>2022-07-07T13:29:30Z</time>
      </trkpt>
      <trkpt lat="46.3598" lon="6.00741">
        <ele>1434.9</ele>
        <time>2022-07-07T13:29:38Z</time>
      </trkpt>
      <trkpt lat="46.35984" lon="6.00746">
        <ele>1434.8</ele>
        <time>2022-07-07T13:29:42Z</time>
      </trkpt>
      <trkpt lat="46.35988" lon="6.0075">
        <ele>1434.7</ele>
        <time>2022-07-07T13:29:46Z</time>
      </trkpt>
      <trkpt lat="46.35992" lon="6.00752">
        <ele>1434.4</ele>
        <time>2022-07-07T13:29:50Z</time>
      </trkpt>
      <trkpt lat="46.35997" lon="6.00751">
        <ele>1434.3</ele>
        <time>2022-07-07T13:29:54Z</time>
      </trkpt>
      <trkpt lat="46.36002" lon="6.00749">
        <ele>1434.1</ele>
        <time>2022-07-07T13:29:58Z</time>
      </trkpt>
      <trkpt lat="46.36007" lon="6.00749">
        <ele>1433.8</ele>
        <time>2022-07-07T13:30:03Z</time>
      </trkpt>
      <trkpt lat="46.36012" lon="6.00751">
        <ele>1432.7</ele>
        <time>2022-07-07T13:30:09Z</time>
      </trkpt>
      <trkpt lat="46.36015" lon="6.00756">
        <ele>1432.2</ele>
        <time>2022-07-07T13:30:14Z</time>
      </trkpt>
      <trkpt lat="46.36019" lon="6.0076">
        <ele>1432</ele>
        <time>2022-07-07T13:30:19Z</time>
      </trkpt>
      <trkpt lat="46.36022" lon="6.00766">
        <ele>1432.4</ele>
        <time>2022-07-07T13:30:24Z</time>
      </trkpt>
      <trkpt lat="46.36027" lon="6.00764">
        <ele>1431.3</ele>
        <time>2022-07-07T13:30:51Z</time>
      </trkpt>
      <trkpt lat="46.36022" lon="6.00768">
        <ele>1429.9</ele>
        <time>2022-07-07T13:31:07Z</time>
      </trkpt>
      <trkpt lat="46.36028" lon="6.00767">
        <ele>1435</ele>
        <time>2022-07-07T13:31:50Z</time>
      </trkpt>
      <trkpt lat="46.36022" lon="6.00771">
        <ele>1439.9</ele>
        <time>2022-07-07T13:32:20Z</time>
      </trkpt>
      <trkpt lat="46.36018" lon="6.00775">
        <ele>1441.2</ele>
        <time>2022-07-07T13:32:24Z</time>
      </trkpt>
      <trkpt lat="46.36021" lon="6.00769">
        <ele>1443</ele>
        <time>2022-07-07T13:32:43Z</time>
      </trkpt>
      <trkpt lat="46.36026" lon="6.00767">
        <ele>1442</ele>
        <time>2022-07-07T13:32:49Z</time>
      </trkpt>
      <trkpt lat="46.36031" lon="6.00765">
        <ele>1440</ele>
        <time>2022-07-07T13:32:55Z</time>
      </trkpt>
      <trkpt lat="46.36036" lon="6.00766">
        <ele>1437.2</ele>
        <time>2022-07-07T13:33:00Z</time>
      </trkpt>
      <trkpt lat="46.36041" lon="6.00768">
        <ele>1434</ele>
        <time>2022-07-07T13:33:06Z</time>
      </trkpt>
      <trkpt lat="46.36044" lon="6.00772">
        <ele>1430.4</ele>
        <time>2022-07-07T13:33:13Z</time>
      </trkpt>
      <trkpt lat="46.36048" lon="6.00777">
        <ele>1427.6</ele>
        <time>2022-07-07T13:33:19Z</time>
      </trkpt>
      <trkpt lat="46.36052" lon="6.00778">
        <ele>1425.3</ele>
        <time>2022-07-07T13:33:24Z</time>
      </trkpt>
      <trkpt lat="46.36057" lon="6.00779">
        <ele>1424.1</ele>
        <time>2022-07-07T13:33:29Z</time>
      </trkpt>
      <trkpt lat="46.36062" lon="6.0078">
        <ele>1423.6</ele>
        <time>2022-07-07T13:33:34Z</time>
      </trkpt>
      <trkpt lat="46.36066" lon="6.00776">
        <ele>1422.8</ele>
        <time>2022-07-07T13:33:42Z</time>
      </trkpt>
      <trkpt lat="46.3607" lon="6.00772">
        <ele>1422.5</ele>
        <time>2022-07-07T13:33:47Z</time>
      </trkpt>
      <trkpt lat="46.36074" lon="6.00768">
        <ele>1422</ele>
        <time>2022-07-07T13:33:52Z</time>
      </trkpt>
      <trkpt lat="46.36078" lon="6.00762">
        <ele>1421.2</ele>
        <time>2022-07-07T13:33:57Z</time>
      </trkpt>
      <trkpt lat="46.3608" lon="6.00756">
        <ele>1420.9</ele>
        <time>2022-07-07T13:34:01Z</time>
      </trkpt>
      <trkpt lat="46.3608" lon="6.0075">
        <ele>1421.1</ele>
        <time>2022-07-07T13:34:05Z</time>
      </trkpt>
      <trkpt lat="46.3608" lon="6.00742">
        <ele>1421.8</ele>
        <time>2022-07-07T13:34:10Z</time>
      </trkpt>
      <trkpt lat="46.36079" lon="6.00735">
        <ele>1423.1</ele>
        <time>2022-07-07T13:34:14Z</time>
      </trkpt>
      <trkpt lat="46.36077" lon="6.00729">
        <ele>1424.3</ele>
        <time>2022-07-07T13:34:18Z</time>
      </trkpt>
      <trkpt lat="46.36074" lon="6.00724">
        <ele>1425.5</ele>
        <time>2022-07-07T13:34:23Z</time>
      </trkpt>
      <trkpt lat="46.3607" lon="6.00718">
        <ele>1425.5</ele>
        <time>2022-07-07T13:34:29Z</time>
      </trkpt>
      <trkpt lat="46.36067" lon="6.00712">
        <ele>1425.1</ele>
        <time>2022-07-07T13:34:35Z</time>
      </trkpt>
      <trkpt lat="46.36063" lon="6.00709">
        <ele>1424.6</ele>
        <time>2022-07-07T13:34:40Z</time>
      </trkpt>
      <trkpt lat="46.3606" lon="6.00704">
        <ele>1424.2</ele>
        <time>2022-07-07T13:34:47Z</time>
      </trkpt>
      <trkpt lat="46.36055" lon="6.00699">
        <ele>1423.9</ele>
        <time>2022-07-07T13:34:52Z</time>
      </trkpt>
      <trkpt lat="46.36053" lon="6.00692">
        <ele>1423</ele>
        <time>2022-07-07T13:34:57Z</time>
      </trkpt>
      <trkpt lat="46.36053" lon="6.00685">
        <ele>1421.8</ele>
        <time>2022-07-07T13:35:01Z</time>
      </trkpt>
      <trkpt lat="46.36053" lon="6.00678">
        <ele>1420.1</ele>
        <time>2022-07-07T13:35:07Z</time>
      </trkpt>
      <trkpt lat="46.36057" lon="6.00673">
        <ele>1418.8</ele>
        <time>2022-07-07T13:35:13Z</time>
      </trkpt>
      <trkpt lat="46.36062" lon="6.0067">
        <ele>1418.3</ele>
        <time>2022-07-07T13:35:17Z</time>
      </trkpt>
      <trkpt lat="46.36067" lon="6.00668">
        <ele>1418.2</ele>
        <time>2022-07-07T13:35:21Z</time>
      </trkpt>
      <trkpt lat="46.36072" lon="6.00669">
        <ele>1418.3</ele>
        <time>2022-07-07T13:35:25Z</time>
      </trkpt>
      <trkpt lat="46.36077" lon="6.00671">
        <ele>1418.6</ele>
        <time>2022-07-07T13:35:30Z</time>
      </trkpt>
      <trkpt lat="46.36081" lon="6.00676">
        <ele>1418.8</ele>
        <time>2022-07-07T13:35:35Z</time>
      </trkpt>
      <trkpt lat="46.36086" lon="6.00679">
        <ele>1418.9</ele>
        <time>2022-07-07T13:35:39Z</time>
      </trkpt>
      <trkpt lat="46.3609" lon="6.00682">
        <ele>1419.1</ele>
        <time>2022-07-07T13:35:43Z</time>
      </trkpt>
      <trkpt lat="46.36094" lon="6.00687">
        <ele>1418.9</ele>
        <time>2022-07-07T13:35:48Z</time>
      </trkpt>
      <trkpt lat="46.36098" lon="6.00692">
        <ele>1418.2</ele>
        <time>2022-07-07T13:35:53Z</time>
      </trkpt>
      <trkpt lat="46.36102" lon="6.00696">
        <ele>1417.9</ele>
        <time>2022-07-07T13:35:57Z</time>
      </trkpt>
      <trkpt lat="46.36108" lon="6.00699">
        <ele>1417.9</ele>
        <time>2022-07-07T13:36:01Z</time>
      </trkpt>
      <trkpt lat="46.36112" lon="6.00703">
        <ele>1418.1</ele>
        <time>2022-07-07T13:36:05Z</time>
      </trkpt>
      <trkpt lat="46.36116" lon="6.00706">
        <ele>1418.5</ele>
        <time>2022-07-07T13:36:09Z</time>
      </trkpt>
      <trkpt lat="46.36121" lon="6.00708">
        <ele>1418.4</ele>
        <time>2022-07-07T13:36:13Z</time>
      </trkpt>
      <trkpt lat="46.36126" lon="6.00712">
        <ele>1418.4</ele>
        <time>2022-07-07T13:36:17Z</time>
      </trkpt>
      <trkpt lat="46.3613" lon="6.00714">
        <ele>1418.2</ele>
        <time>2022-07-07T13:36:21Z</time>
      </trkpt>
      <trkpt lat="46.36136" lon="6.00714">
        <ele>1417.5</ele>
        <time>2022-07-07T13:36:27Z</time>
      </trkpt>
      <trkpt lat="46.3614" lon="6.00711">
        <ele>1417.2</ele>
        <time>2022-07-07T13:36:31Z</time>
      </trkpt>
      <trkpt lat="46.36145" lon="6.00709">
        <ele>1416.6</ele>
        <time>2022-07-07T13:36:37Z</time>
      </trkpt>
      <trkpt lat="46.36149" lon="6.00711">
        <ele>1415.8</ele>
        <time>2022-07-07T13:36:42Z</time>
      </trkpt>
      <trkpt lat="46.36152" lon="6.00716">
        <ele>1414.3</ele>
        <time>2022-07-07T13:36:48Z</time>
      </trkpt>
      <trkpt lat="46.36156" lon="6.00721">
        <ele>1412.8</ele>
        <time>2022-07-07T13:36:53Z</time>
      </trkpt>
      <trkpt lat="46.36159" lon="6.00726">
        <ele>1410.9</ele>
        <time>2022-07-07T13:36:58Z</time>
      </trkpt>
      <trkpt lat="46.36162" lon="6.00732">
        <ele>1409</ele>
        <time>2022-07-07T13:37:03Z</time>
      </trkpt>
      <trkpt lat="46.36166" lon="6.00737">
        <ele>1407.6</ele>
        <time>2022-07-07T13:37:08Z</time>
      </trkpt>
      <trkpt lat="46.3617" lon="6.0074">
        <ele>1406.9</ele>
        <time>2022-07-07T13:37:11Z</time>
      </trkpt>
      <trkpt lat="46.36173" lon="6.00745">
        <ele>1405.5</ele>
        <time>2022-07-07T13:37:16Z</time>
      </trkpt>
      <trkpt lat="46.36176" lon="6.00752">
        <ele>1403.8</ele>
        <time>2022-07-07T13:37:22Z</time>
      </trkpt>
      <trkpt lat="46.3618" lon="6.00756">
        <ele>1403.1</ele>
        <time>2022-07-07T13:37:26Z</time>
      </trkpt>
      <trkpt lat="46.36185" lon="6.00759">
        <ele>1402.8</ele>
        <time>2022-07-07T13:37:29Z</time>
      </trkpt>
      <trkpt lat="46.36189" lon="6.00764">
        <ele>1402.7</ele>
        <time>2022-07-07T13:37:33Z</time>
      </trkpt>
      <trkpt lat="46.36193" lon="6.00769">
        <ele>1402.3</ele>
        <time>2022-07-07T13:37:38Z</time>
      </trkpt>
      <trkpt lat="46.36196" lon="6.00776">
        <ele>1401.5</ele>
        <time>2022-07-07T13:37:43Z</time>
      </trkpt>
      <trkpt lat="46.362" lon="6.00781">
        <ele>1400.7</ele>
        <time>2022-07-07T13:37:47Z</time>
      </trkpt>
      <trkpt lat="46.36204" lon="6.00786">
        <ele>1400.3</ele>
        <time>2022-07-07T13:37:51Z</time>
      </trkpt>
      <trkpt lat="46.36207" lon="6.00792">
        <ele>1400.1</ele>
        <time>2022-07-07T13:37:55Z</time>
      </trkpt>
      <trkpt lat="46.36209" lon="6.00799">
        <ele>1399.8</ele>
        <time>2022-07-07T13:38:00Z</time>
      </trkpt>
      <trkpt lat="46.36212" lon="6.00805">
        <ele>1399.5</ele>
        <time>2022-07-07T13:38:05Z</time>
      </trkpt>
      <trkpt lat="46.36214" lon="6.00812">
        <ele>1398.8</ele>
        <time>2022-07-07T13:38:10Z</time>
      </trkpt>
      <trkpt lat="46.36216" lon="6.00818">
        <ele>1398</ele>
        <time>2022-07-07T13:38:15Z</time>
      </trkpt>
      <trkpt lat="46.36217" lon="6.00825">
        <ele>1397.2</ele>
        <time>2022-07-07T13:38:20Z</time>
      </trkpt>
      <trkpt lat="46.36218" lon="6.00832">
        <ele>1396.7</ele>
        <time>2022-07-07T13:38:24Z</time>
      </trkpt>
      <trkpt lat="46.36219" lon="6.00839">
        <ele>1396.3</ele>
        <time>2022-07-07T13:38:28Z</time>
      </trkpt>
      <trkpt lat="46.36221" lon="6.00846">
        <ele>1396.2</ele>
        <time>2022-07-07T13:38:33Z</time>
      </trkpt>
      <trkpt lat="46.36223" lon="6.00852">
        <ele>1396.5</ele>
        <time>2022-07-07T13:38:38Z</time>
      </trkpt>
      <trkpt lat="46.36226" lon="6.00858">
        <ele>1396.8</ele>
        <time>2022-07-07T13:38:43Z</time>
      </trkpt>
      <trkpt lat="46.36231" lon="6.00861">
        <ele>1396.6</ele>
        <time>2022-07-07T13:38:47Z</time>
      </trkpt>
      <trkpt lat="46.36236" lon="6.00863">
        <ele>1395.8</ele>
        <time>2022-07-07T13:38:51Z</time>
      </trkpt>
      <trkpt lat="46.3624" lon="6.00866">
        <ele>1395.1</ele>
        <time>2022-07-07T13:38:55Z</time>
      </trkpt>
      <trkpt lat="46.36243" lon="6.0087">
        <ele>1394.6</ele>
        <time>2022-07-07T13:38:59Z</time>
      </trkpt>
      <trkpt lat="46.36248" lon="6.00872">
        <ele>1393.2</ele>
        <time>2022-07-07T13:39:06Z</time>
      </trkpt>
      <trkpt lat="46.36252" lon="6.00875">
        <ele>1391</ele>
        <time>2022-07-07T13:39:12Z</time>
      </trkpt>
      <trkpt lat="46.36255" lon="6.0088">
        <ele>1388.8</ele>
        <time>2022-07-07T13:39:17Z</time>
      </trkpt>
      <trkpt lat="46.36259" lon="6.00884">
        <ele>1386.3</ele>
        <time>2022-07-07T13:39:22Z</time>
      </trkpt>
      <trkpt lat="46.36264" lon="6.00888">
        <ele>1383.8</ele>
        <time>2022-07-07T13:39:28Z</time>
      </trkpt>
      <trkpt lat="46.36269" lon="6.00893">
        <ele>1382.6</ele>
        <time>2022-07-07T13:39:33Z</time>
      </trkpt>
      <trkpt lat="46.36272" lon="6.00896">
        <ele>1382</ele>
        <time>2022-07-07T13:39:37Z</time>
      </trkpt>
      <trkpt lat="46.36276" lon="6.00901">
        <ele>1381.5</ele>
        <time>2022-07-07T13:39:41Z</time>
      </trkpt>
      <trkpt lat="46.3628" lon="6.00905">
        <ele>1381.2</ele>
        <time>2022-07-07T13:39:46Z</time>
      </trkpt>
      <trkpt lat="46.36282" lon="6.00912">
        <ele>1381.2</ele>
        <time>2022-07-07T13:39:51Z</time>
      </trkpt>
      <trkpt lat="46.36284" lon="6.00918">
        <ele>1381.3</ele>
        <time>2022-07-07T13:39:55Z</time>
      </trkpt>
      <trkpt lat="46.36286" lon="6.00925">
        <ele>1381.4</ele>
        <time>2022-07-07T13:40:00Z</time>
      </trkpt>
      <trkpt lat="46.36288" lon="6.0093">
        <ele>1381.2</ele>
        <time>2022-07-07T13:40:04Z</time>
      </trkpt>
      <trkpt lat="46.3629" lon="6.00937">
        <ele>1379.7</ele>
        <time>2022-07-07T13:40:10Z</time>
      </trkpt>
      <trkpt lat="46.36292" lon="6.00943">
        <ele>1378.3</ele>
        <time>2022-07-07T13:40:15Z</time>
      </trkpt>
      <trkpt lat="46.36296" lon="6.00948">
        <ele>1377.2</ele>
        <time>2022-07-07T13:40:19Z</time>
      </trkpt>
      <trkpt lat="46.363" lon="6.00953">
        <ele>1376.1</ele>
        <time>2022-07-07T13:40:24Z</time>
      </trkpt>
      <trkpt lat="46.36303" lon="6.00958">
        <ele>1373.8</ele>
        <time>2022-07-07T13:40:32Z</time>
      </trkpt>
      <trkpt lat="46.36308" lon="6.0096">
        <ele>1371.5</ele>
        <time>2022-07-07T13:40:39Z</time>
      </trkpt>
      <trkpt lat="46.36313" lon="6.00964">
        <ele>1370.3</ele>
        <time>2022-07-07T13:40:44Z</time>
      </trkpt>
      <trkpt lat="46.36318" lon="6.00965">
        <ele>1370</ele>
        <time>2022-07-07T13:40:48Z</time>
      </trkpt>
      <trkpt lat="46.36323" lon="6.00968">
        <ele>1369.8</ele>
        <time>2022-07-07T13:40:52Z</time>
      </trkpt>
      <trkpt lat="46.36328" lon="6.0097">
        <ele>1370</ele>
        <time>2022-07-07T13:40:56Z</time>
      </trkpt>
      <trkpt lat="46.36332" lon="6.00974">
        <ele>1370.2</ele>
        <time>2022-07-07T13:41:00Z</time>
      </trkpt>
      <trkpt lat="46.36336" lon="6.00977">
        <ele>1370.5</ele>
        <time>2022-07-07T13:41:04Z</time>
      </trkpt>
      <trkpt lat="46.3634" lon="6.00984">
        <ele>1370.9</ele>
        <time>2022-07-07T13:41:08Z</time>
      </trkpt>
      <trkpt lat="46.36341" lon="6.00992">
        <ele>1371.5</ele>
        <time>2022-07-07T13:41:12Z</time>
      </trkpt>
      <trkpt lat="46.36342" lon="6.00999">
        <ele>1372.2</ele>
        <time>2022-07-07T13:41:16Z</time>
      </trkpt>
      <trkpt lat="46.36342" lon="6.01006">
        <ele>1372.9</ele>
        <time>2022-07-07T13:41:21Z</time>
      </trkpt>
      <trkpt lat="46.36342" lon="6.01013">
        <ele>1373</ele>
        <time>2022-07-07T13:41:26Z</time>
      </trkpt>
      <trkpt lat="46.36342" lon="6.0102">
        <ele>1373.4</ele>
        <time>2022-07-07T13:41:29Z</time>
      </trkpt>
      <trkpt lat="46.36344" lon="6.01027">
        <ele>1373.9</ele>
        <time>2022-07-07T13:41:33Z</time>
      </trkpt>
      <trkpt lat="46.36345" lon="6.01034">
        <ele>1373.9</ele>
        <time>2022-07-07T13:41:38Z</time>
      </trkpt>
      <trkpt lat="46.36346" lon="6.0104">
        <ele>1373.5</ele>
        <time>2022-07-07T13:41:43Z</time>
      </trkpt>
      <trkpt lat="46.36349" lon="6.01047">
        <ele>1372.5</ele>
        <time>2022-07-07T13:41:49Z</time>
      </trkpt>
      <trkpt lat="46.3635" lon="6.01054">
        <ele>1371.9</ele>
        <time>2022-07-07T13:41:53Z</time>
      </trkpt>
      <trkpt lat="46.36352" lon="6.0106">
        <ele>1371.4</ele>
        <time>2022-07-07T13:41:58Z</time>
      </trkpt>
      <trkpt lat="46.36355" lon="6.01067">
        <ele>1371.1</ele>
        <time>2022-07-07T13:42:03Z</time>
      </trkpt>
      <trkpt lat="46.36358" lon="6.01072">
        <ele>1371</ele>
        <time>2022-07-07T13:42:07Z</time>
      </trkpt>
      <trkpt lat="46.36359" lon="6.01079">
        <ele>1370.8</ele>
        <time>2022-07-07T13:42:11Z</time>
      </trkpt>
      <trkpt lat="46.3636" lon="6.01086">
        <ele>1370.8</ele>
        <time>2022-07-07T13:42:14Z</time>
      </trkpt>
      <trkpt lat="46.36361" lon="6.01093">
        <ele>1370.6</ele>
        <time>2022-07-07T13:42:18Z</time>
      </trkpt>
      <trkpt lat="46.36363" lon="6.01098">
        <ele>1370.5</ele>
        <time>2022-07-07T13:42:24Z</time>
      </trkpt>
      <trkpt lat="46.36367" lon="6.01104">
        <ele>1369.9</ele>
        <time>2022-07-07T13:42:30Z</time>
      </trkpt>
      <trkpt lat="46.3637" lon="6.01109">
        <ele>1369.5</ele>
        <time>2022-07-07T13:42:35Z</time>
      </trkpt>
      <trkpt lat="46.36373" lon="6.01113">
        <ele>1368.8</ele>
        <time>2022-07-07T13:42:40Z</time>
      </trkpt>
      <trkpt lat="46.36378" lon="6.01115">
        <ele>1367.5</ele>
        <time>2022-07-07T13:42:45Z</time>
      </trkpt>
      <trkpt lat="46.36382" lon="6.01118">
        <ele>1366.8</ele>
        <time>2022-07-07T13:42:48Z</time>
      </trkpt>
      <trkpt lat="46.36387" lon="6.01122">
        <ele>1366.1</ele>
        <time>2022-07-07T13:42:52Z</time>
      </trkpt>
      <trkpt lat="46.3639" lon="6.01127">
        <ele>1365</ele>
        <time>2022-07-07T13:42:57Z</time>
      </trkpt>
      <trkpt lat="46.36393" lon="6.01133">
        <ele>1364.1</ele>
        <time>2022-07-07T13:43:01Z</time>
      </trkpt>
      <trkpt lat="46.36396" lon="6.01137">
        <ele>1363.1</ele>
        <time>2022-07-07T13:43:05Z</time>
      </trkpt>
      <trkpt lat="46.364" lon="6.01142">
        <ele>1362.4</ele>
        <time>2022-07-07T13:43:09Z</time>
      </trkpt>
      <trkpt lat="46.36403" lon="6.01147">
        <ele>1362.1</ele>
        <time>2022-07-07T13:43:14Z</time>
      </trkpt>
      <trkpt lat="46.36407" lon="6.01152">
        <ele>1362.3</ele>
        <time>2022-07-07T13:43:19Z</time>
      </trkpt>
      <trkpt lat="46.36412" lon="6.01155">
        <ele>1362.7</ele>
        <time>2022-07-07T13:43:25Z</time>
      </trkpt>
      <trkpt lat="46.36416" lon="6.01159">
        <ele>1363</ele>
        <time>2022-07-07T13:43:30Z</time>
      </trkpt>
      <trkpt lat="46.3642" lon="6.01164">
        <ele>1363.8</ele>
        <time>2022-07-07T13:43:35Z</time>
      </trkpt>
      <trkpt lat="46.36423" lon="6.01169">
        <ele>1364.4</ele>
        <time>2022-07-07T13:43:39Z</time>
      </trkpt>
      <trkpt lat="46.36427" lon="6.01173">
        <ele>1364.8</ele>
        <time>2022-07-07T13:43:44Z</time>
      </trkpt>
      <trkpt lat="46.36431" lon="6.01177">
        <ele>1364.8</ele>
        <time>2022-07-07T13:43:48Z</time>
      </trkpt>
      <trkpt lat="46.36435" lon="6.01182">
        <ele>1364.9</ele>
        <time>2022-07-07T13:43:52Z</time>
      </trkpt>
      <trkpt lat="46.36439" lon="6.01185">
        <ele>1365.6</ele>
        <time>2022-07-07T13:43:56Z</time>
      </trkpt>
      <trkpt lat="46.36444" lon="6.01188">
        <ele>1365.3</ele>
        <time>2022-07-07T13:44:01Z</time>
      </trkpt>
      <trkpt lat="46.36448" lon="6.01188">
        <ele>1363.7</ele>
        <time>2022-07-07T13:44:07Z</time>
      </trkpt>
      <trkpt lat="46.36454" lon="6.01187">
        <ele>1362.5</ele>
        <time>2022-07-07T13:44:12Z</time>
      </trkpt>
      <trkpt lat="46.36458" lon="6.01183">
        <ele>1361.7</ele>
        <time>2022-07-07T13:44:16Z</time>
      </trkpt>
      <trkpt lat="46.36461" lon="6.01177">
        <ele>1360.7</ele>
        <time>2022-07-07T13:44:21Z</time>
      </trkpt>
      <trkpt lat="46.36463" lon="6.0117">
        <ele>1359.1</ele>
        <time>2022-07-07T13:44:28Z</time>
      </trkpt>
      <trkpt lat="46.36465" lon="6.01163">
        <ele>1356.9</ele>
        <time>2022-07-07T13:44:34Z</time>
      </trkpt>
      <trkpt lat="46.36467" lon="6.01156">
        <ele>1354.8</ele>
        <time>2022-07-07T13:44:39Z</time>
      </trkpt>
      <trkpt lat="46.36471" lon="6.01151">
        <ele>1353.4</ele>
        <time>2022-07-07T13:44:44Z</time>
      </trkpt>
      <trkpt lat="46.36476" lon="6.01147">
        <ele>1352.7</ele>
        <time>2022-07-07T13:44:49Z</time>
      </trkpt>
      <trkpt lat="46.36481" lon="6.01149">
        <ele>1352.4</ele>
        <time>2022-07-07T13:44:53Z</time>
      </trkpt>
      <trkpt lat="46.36485" lon="6.01153">
        <ele>1351.6</ele>
        <time>2022-07-07T13:44:57Z</time>
      </trkpt>
      <trkpt lat="46.36489" lon="6.01159">
        <ele>1350.6</ele>
        <time>2022-07-07T13:45:01Z</time>
      </trkpt>
      <trkpt lat="46.36492" lon="6.01164">
        <ele>1349.7</ele>
        <time>2022-07-07T13:45:05Z</time>
      </trkpt>
      <trkpt lat="46.36494" lon="6.01169">
        <ele>1349.3</ele>
        <time>2022-07-07T13:45:08Z</time>
      </trkpt>
      <trkpt lat="46.36495" lon="6.01178">
        <ele>1349.1</ele>
        <time>2022-07-07T13:45:12Z</time>
      </trkpt>
      <trkpt lat="46.36498" lon="6.01185">
        <ele>1349.5</ele>
        <time>2022-07-07T13:45:16Z</time>
      </trkpt>
      <trkpt lat="46.365" lon="6.01191">
        <ele>1350</ele>
        <time>2022-07-07T13:45:20Z</time>
      </trkpt>
      <trkpt lat="46.36503" lon="6.01196">
        <ele>1350.7</ele>
        <time>2022-07-07T13:45:24Z</time>
      </trkpt>
      <trkpt lat="46.36506" lon="6.01202">
        <ele>1351.2</ele>
        <time>2022-07-07T13:45:28Z</time>
      </trkpt>
      <trkpt lat="46.3651" lon="6.01205">
        <ele>1350.9</ele>
        <time>2022-07-07T13:45:34Z</time>
      </trkpt>
      <trkpt lat="46.36514" lon="6.01207">
        <ele>1349.6</ele>
        <time>2022-07-07T13:45:40Z</time>
      </trkpt>
      <trkpt lat="46.3652" lon="6.01209">
        <ele>1348.2</ele>
        <time>2022-07-07T13:45:46Z</time>
      </trkpt>
      <trkpt lat="46.36524" lon="6.0121">
        <ele>1347.1</ele>
        <time>2022-07-07T13:45:51Z</time>
      </trkpt>
      <trkpt lat="46.36529" lon="6.01212">
        <ele>1346.1</ele>
        <time>2022-07-07T13:45:57Z</time>
      </trkpt>
      <trkpt lat="46.36534" lon="6.01214">
        <ele>1344.8</ele>
        <time>2022-07-07T13:46:02Z</time>
      </trkpt>
      <trkpt lat="46.36538" lon="6.01219">
        <ele>1344.1</ele>
        <time>2022-07-07T13:46:06Z</time>
      </trkpt>
      <trkpt lat="46.3654" lon="6.01225">
        <ele>1343.6</ele>
        <time>2022-07-07T13:46:10Z</time>
      </trkpt>
      <trkpt lat="46.36539" lon="6.01233">
        <ele>1343.5</ele>
        <time>2022-07-07T13:46:14Z</time>
      </trkpt>
      <trkpt lat="46.36539" lon="6.01241">
        <ele>1343.5</ele>
        <time>2022-07-07T13:46:18Z</time>
      </trkpt>
      <trkpt lat="46.36538" lon="6.01248">
        <ele>1343.9</ele>
        <time>2022-07-07T13:46:21Z</time>
      </trkpt>
      <trkpt lat="46.36538" lon="6.01255">
        <ele>1344.3</ele>
        <time>2022-07-07T13:46:25Z</time>
      </trkpt>
      <trkpt lat="46.36537" lon="6.01262">
        <ele>1344.5</ele>
        <time>2022-07-07T13:46:29Z</time>
      </trkpt>
      <trkpt lat="46.36538" lon="6.0127">
        <ele>1344.7</ele>
        <time>2022-07-07T13:46:38Z</time>
      </trkpt>
      <trkpt lat="46.36538" lon="6.01277">
        <ele>1344.1</ele>
        <time>2022-07-07T13:46:43Z</time>
      </trkpt>
      <trkpt lat="46.36539" lon="6.01284">
        <ele>1343.5</ele>
        <time>2022-07-07T13:46:47Z</time>
      </trkpt>
      <trkpt lat="46.3654" lon="6.01291">
        <ele>1343.6</ele>
        <time>2022-07-07T13:46:53Z</time>
      </trkpt>
      <trkpt lat="46.36541" lon="6.01299">
        <ele>1344.1</ele>
        <time>2022-07-07T13:46:58Z</time>
      </trkpt>
      <trkpt lat="46.36542" lon="6.01307">
        <ele>1344.1</ele>
        <time>2022-07-07T13:47:03Z</time>
      </trkpt>
      <trkpt lat="46.36543" lon="6.01314">
        <ele>1343.4</ele>
        <time>2022-07-07T13:47:08Z</time>
      </trkpt>
      <trkpt lat="46.36544" lon="6.01321">
        <ele>1343</ele>
        <time>2022-07-07T13:47:12Z</time>
      </trkpt>
      <trkpt lat="46.36545" lon="6.01328">
        <ele>1342.7</ele>
        <time>2022-07-07T13:47:17Z</time>
      </trkpt>
      <trkpt lat="46.36545" lon="6.01336">
        <ele>1342.5</ele>
        <time>2022-07-07T13:47:21Z</time>
      </trkpt>
      <trkpt lat="46.36545" lon="6.01344">
        <ele>1342.1</ele>
        <time>2022-07-07T13:47:25Z</time>
      </trkpt>
      <trkpt lat="46.36545" lon="6.01352">
        <ele>1341.6</ele>
        <time>2022-07-07T13:47:29Z</time>
      </trkpt>
      <trkpt lat="46.36545" lon="6.0136">
        <ele>1341.6</ele>
        <time>2022-07-07T13:47:33Z</time>
      </trkpt>
      <trkpt lat="46.36546" lon="6.01367">
        <ele>1342</ele>
        <time>2022-07-07T13:47:37Z</time>
      </trkpt>
      <trkpt lat="46.36547" lon="6.01374">
        <ele>1342.6</ele>
        <time>2022-07-07T13:47:41Z</time>
      </trkpt>
      <trkpt lat="46.36549" lon="6.01381">
        <ele>1343.5</ele>
        <time>2022-07-07T13:47:47Z</time>
      </trkpt>
      <trkpt lat="46.36553" lon="6.01386">
        <ele>1344.6</ele>
        <time>2022-07-07T13:47:52Z</time>
      </trkpt>
      <trkpt lat="46.36557" lon="6.01391">
        <ele>1345.6</ele>
        <time>2022-07-07T13:47:57Z</time>
      </trkpt>
      <trkpt lat="46.36561" lon="6.01397">
        <ele>1346.5</ele>
        <time>2022-07-07T13:48:02Z</time>
      </trkpt>
      <trkpt lat="46.36564" lon="6.01402">
        <ele>1347.2</ele>
        <time>2022-07-07T13:48:06Z</time>
      </trkpt>
      <trkpt lat="46.36567" lon="6.01409">
        <ele>1347.8</ele>
        <time>2022-07-07T13:48:11Z</time>
      </trkpt>
      <trkpt lat="46.36569" lon="6.01415">
        <ele>1348.5</ele>
        <time>2022-07-07T13:48:15Z</time>
      </trkpt>
      <trkpt lat="46.36572" lon="6.01422">
        <ele>1349.3</ele>
        <time>2022-07-07T13:48:19Z</time>
      </trkpt>
      <trkpt lat="46.36575" lon="6.01428">
        <ele>1349.6</ele>
        <time>2022-07-07T13:48:24Z</time>
      </trkpt>
      <trkpt lat="46.36577" lon="6.01434">
        <ele>1340.1</ele>
        <time>2022-07-07T13:48:59Z</time>
      </trkpt>
      <trkpt lat="46.36578" lon="6.01441">
        <ele>1338</ele>
        <time>2022-07-07T13:49:20Z</time>
      </trkpt>
      <trkpt lat="46.36581" lon="6.01446">
        <ele>1336.3</ele>
        <time>2022-07-07T13:49:27Z</time>
      </trkpt>
      <trkpt lat="46.36584" lon="6.01451">
        <ele>1334.3</ele>
        <time>2022-07-07T13:49:34Z</time>
      </trkpt>
      <trkpt lat="46.36586" lon="6.01458">
        <ele>1333.7</ele>
        <time>2022-07-07T13:49:39Z</time>
      </trkpt>
      <trkpt lat="46.36589" lon="6.01463">
        <ele>1333.9</ele>
        <time>2022-07-07T13:49:44Z</time>
      </trkpt>
      <trkpt lat="46.36594" lon="6.01467">
        <ele>1334.2</ele>
        <time>2022-07-07T13:49:50Z</time>
      </trkpt>
      <trkpt lat="46.36599" lon="6.01468">
        <ele>1334.2</ele>
        <time>2022-07-07T13:49:55Z</time>
      </trkpt>
      <trkpt lat="46.36603" lon="6.01471">
        <ele>1333.4</ele>
        <time>2022-07-07T13:50:01Z</time>
      </trkpt>
      <trkpt lat="46.36607" lon="6.01474">
        <ele>1333.6</ele>
        <time>2022-07-07T13:50:06Z</time>
      </trkpt>
      <trkpt lat="46.36612" lon="6.01475">
        <ele>1334.4</ele>
        <time>2022-07-07T13:50:14Z</time>
      </trkpt>
      <trkpt lat="46.36617" lon="6.01474">
        <ele>1335.1</ele>
        <time>2022-07-07T13:50:20Z</time>
      </trkpt>
      <trkpt lat="46.36621" lon="6.01474">
        <ele>1335.3</ele>
        <time>2022-07-07T13:50:26Z</time>
      </trkpt>
      <trkpt lat="46.36626" lon="6.01473">
        <ele>1335.5</ele>
        <time>2022-07-07T13:50:31Z</time>
      </trkpt>
      <trkpt lat="46.3663" lon="6.01472">
        <ele>1335.5</ele>
        <time>2022-07-07T13:50:36Z</time>
      </trkpt>
      <trkpt lat="46.36635" lon="6.01469">
        <ele>1334.2</ele>
        <time>2022-07-07T13:50:42Z</time>
      </trkpt>
      <trkpt lat="46.3664" lon="6.01468">
        <ele>1332.6</ele>
        <time>2022-07-07T13:50:48Z</time>
      </trkpt>
      <trkpt lat="46.36645" lon="6.01467">
        <ele>1331.1</ele>
        <time>2022-07-07T13:50:54Z</time>
      </trkpt>
      <trkpt lat="46.3665" lon="6.01466">
        <ele>1329.9</ele>
        <time>2022-07-07T13:51:00Z</time>
      </trkpt>
      <trkpt lat="46.36655" lon="6.01465">
        <ele>1329.4</ele>
        <time>2022-07-07T13:51:06Z</time>
      </trkpt>
      <trkpt lat="46.3666" lon="6.01464">
        <ele>1329.5</ele>
        <time>2022-07-07T13:51:11Z</time>
      </trkpt>
      <trkpt lat="46.36665" lon="6.01463">
        <ele>1330.1</ele>
        <time>2022-07-07T13:51:18Z</time>
      </trkpt>
      <trkpt lat="46.36669" lon="6.01463">
        <ele>1331.3</ele>
        <time>2022-07-07T13:51:25Z</time>
      </trkpt>
      <trkpt lat="46.36674" lon="6.01459">
        <ele>1332.4</ele>
        <time>2022-07-07T13:51:31Z</time>
      </trkpt>
      <trkpt lat="46.36678" lon="6.01456">
        <ele>1332.7</ele>
        <time>2022-07-07T13:51:36Z</time>
      </trkpt>
      <trkpt lat="46.36683" lon="6.01454">
        <ele>1332.9</ele>
        <time>2022-07-07T13:51:42Z</time>
      </trkpt>
      <trkpt lat="46.36687" lon="6.01451">
        <ele>1332.9</ele>
        <time>2022-07-07T13:51:47Z</time>
      </trkpt>
      <trkpt lat="46.36691" lon="6.01448">
        <ele>1332.3</ele>
        <time>2022-07-07T13:51:52Z</time>
      </trkpt>
      <trkpt lat="46.36694" lon="6.01442">
        <ele>1331</ele>
        <time>2022-07-07T13:51:58Z</time>
      </trkpt>
      <trkpt lat="46.36697" lon="6.01437">
        <ele>1330.2</ele>
        <time>2022-07-07T13:52:04Z</time>
      </trkpt>
      <trkpt lat="46.367" lon="6.01432">
        <ele>1329.1</ele>
        <time>2022-07-07T13:52:26Z</time>
      </trkpt>
      <trkpt lat="46.367" lon="6.01425">
        <ele>1328.9</ele>
        <time>2022-07-07T13:52:31Z</time>
      </trkpt>
      <trkpt lat="46.36702" lon="6.01417">
        <ele>1327.9</ele>
        <time>2022-07-07T13:52:36Z</time>
      </trkpt>
      <trkpt lat="46.36704" lon="6.01412">
        <ele>1327.7</ele>
        <time>2022-07-07T13:52:40Z</time>
      </trkpt>
      <trkpt lat="46.36707" lon="6.01406">
        <ele>1327.9</ele>
        <time>2022-07-07T13:52:44Z</time>
      </trkpt>
      <trkpt lat="46.36709" lon="6.014">
        <ele>1328.3</ele>
        <time>2022-07-07T13:52:48Z</time>
      </trkpt>
      <trkpt lat="46.3671" lon="6.01393">
        <ele>1329.3</ele>
        <time>2022-07-07T13:52:54Z</time>
      </trkpt>
      <trkpt lat="46.36707" lon="6.01387">
        <ele>1329.8</ele>
        <time>2022-07-07T13:53:00Z</time>
      </trkpt>
      <trkpt lat="46.36705" lon="6.0138">
        <ele>1329.5</ele>
        <time>2022-07-07T13:53:05Z</time>
      </trkpt>
      <trkpt lat="46.36701" lon="6.01375">
        <ele>1329.4</ele>
        <time>2022-07-07T13:53:09Z</time>
      </trkpt>
      <trkpt lat="46.36698" lon="6.0137">
        <ele>1329.2</ele>
        <time>2022-07-07T13:53:13Z</time>
      </trkpt>
      <trkpt lat="46.36696" lon="6.01363">
        <ele>1328.7</ele>
        <time>2022-07-07T13:53:17Z</time>
      </trkpt>
      <trkpt lat="46.36696" lon="6.01355">
        <ele>1328.6</ele>
        <time>2022-07-07T13:53:21Z</time>
      </trkpt>
      <trkpt lat="46.36698" lon="6.01347">
        <ele>1328.8</ele>
        <time>2022-07-07T13:53:25Z</time>
      </trkpt>
      <trkpt lat="46.36699" lon="6.01339">
        <ele>1328.9</ele>
        <time>2022-07-07T13:53:29Z</time>
      </trkpt>
      <trkpt lat="46.36698" lon="6.01332">
        <ele>1329.6</ele>
        <time>2022-07-07T13:53:34Z</time>
      </trkpt>
      <trkpt lat="46.36697" lon="6.01324">
        <ele>1329.6</ele>
        <time>2022-07-07T13:53:39Z</time>
      </trkpt>
      <trkpt lat="46.36697" lon="6.01316">
        <ele>1328.8</ele>
        <time>2022-07-07T13:53:45Z</time>
      </trkpt>
      <trkpt lat="46.36698" lon="6.01309">
        <ele>1328</ele>
        <time>2022-07-07T13:53:51Z</time>
      </trkpt>
      <trkpt lat="46.36695" lon="6.01302">
        <ele>1327.7</ele>
        <time>2022-07-07T13:53:57Z</time>
      </trkpt>
      <trkpt lat="46.36692" lon="6.01296">
        <ele>1326.9</ele>
        <time>2022-07-07T13:54:02Z</time>
      </trkpt>
      <trkpt lat="46.36689" lon="6.01289">
        <ele>1325.4</ele>
        <time>2022-07-07T13:54:06Z</time>
      </trkpt>
      <trkpt lat="46.36685" lon="6.01284">
        <ele>1323.9</ele>
        <time>2022-07-07T13:54:10Z</time>
      </trkpt>
      <trkpt lat="46.36683" lon="6.01277">
        <ele>1322.2</ele>
        <time>2022-07-07T13:54:15Z</time>
      </trkpt>
      <trkpt lat="46.36679" lon="6.01271">
        <ele>1321.5</ele>
        <time>2022-07-07T13:54:19Z</time>
      </trkpt>
      <trkpt lat="46.36675" lon="6.01266">
        <ele>1321.1</ele>
        <time>2022-07-07T13:54:23Z</time>
      </trkpt>
      <trkpt lat="46.36671" lon="6.01261">
        <ele>1321.6</ele>
        <time>2022-07-07T13:54:28Z</time>
      </trkpt>
      <trkpt lat="46.36668" lon="6.01256">
        <ele>1321.5</ele>
        <time>2022-07-07T13:54:33Z</time>
      </trkpt>
      <trkpt lat="46.36664" lon="6.0125">
        <ele>1320.9</ele>
        <time>2022-07-07T13:54:38Z</time>
      </trkpt>
      <trkpt lat="46.3666" lon="6.01247">
        <ele>1320.7</ele>
        <time>2022-07-07T13:54:42Z</time>
      </trkpt>
      <trkpt lat="46.36656" lon="6.01243">
        <ele>1321</ele>
        <time>2022-07-07T13:54:48Z</time>
      </trkpt>
      <trkpt lat="46.36653" lon="6.01237">
        <ele>1321.2</ele>
        <time>2022-07-07T13:54:53Z</time>
      </trkpt>
      <trkpt lat="46.36653" lon="6.0123">
        <ele>1321.7</ele>
        <time>2022-07-07T13:54:58Z</time>
      </trkpt>
      <trkpt lat="46.36653" lon="6.01224">
        <ele>1323.4</ele>
        <time>2022-07-07T13:55:31Z</time>
      </trkpt>
      <trkpt lat="46.36657" lon="6.01219">
        <ele>1322.3</ele>
        <time>2022-07-07T13:55:39Z</time>
      </trkpt>
      <trkpt lat="46.36656" lon="6.01212">
        <ele>1321.2</ele>
        <time>2022-07-07T13:55:44Z</time>
      </trkpt>
      <trkpt lat="46.36655" lon="6.01204">
        <ele>1320.6</ele>
        <time>2022-07-07T13:55:48Z</time>
      </trkpt>
      <trkpt lat="46.36654" lon="6.01196">
        <ele>1320.5</ele>
        <time>2022-07-07T13:55:52Z</time>
      </trkpt>
      <trkpt lat="46.36653" lon="6.01189">
        <ele>1320.7</ele>
        <time>2022-07-07T13:55:56Z</time>
      </trkpt>
      <trkpt lat="46.36653" lon="6.01181">
        <ele>1321.2</ele>
        <time>2022-07-07T13:56:01Z</time>
      </trkpt>
      <trkpt lat="46.36654" lon="6.01173">
        <ele>1321.2</ele>
        <time>2022-07-07T13:56:06Z</time>
      </trkpt>
      <trkpt lat="46.36656" lon="6.01166">
        <ele>1321.7</ele>
        <time>2022-07-07T13:56:11Z</time>
      </trkpt>
      <trkpt lat="46.3666" lon="6.01164">
        <ele>1325.8</ele>
        <time>2022-07-07T13:56:51Z</time>
      </trkpt>
      <trkpt lat="46.36665" lon="6.01165">
        <ele>1327.8</ele>
        <time>2022-07-07T13:56:55Z</time>
      </trkpt>
      <trkpt lat="46.3667" lon="6.01164">
        <ele>1330.2</ele>
        <time>2022-07-07T13:57:03Z</time>
      </trkpt>
      <trkpt lat="46.36669" lon="6.01157">
        <ele>1329.1</ele>
        <time>2022-07-07T13:57:26Z</time>
      </trkpt>
      <trkpt lat="46.36667" lon="6.01151">
        <ele>1328.9</ele>
        <time>2022-07-07T13:57:37Z</time>
      </trkpt>
      <trkpt lat="46.36666" lon="6.01144">
        <ele>1329.6</ele>
        <time>2022-07-07T13:57:41Z</time>
      </trkpt>
      <trkpt lat="46.36665" lon="6.01153">
        <ele>1329.5</ele>
        <time>2022-07-07T13:58:11Z</time>
      </trkpt>
      <trkpt lat="46.36664" lon="6.01159">
        <ele>1328.5</ele>
        <time>2022-07-07T13:58:15Z</time>
      </trkpt>
      <trkpt lat="46.3666" lon="6.01163">
        <ele>1328.2</ele>
        <time>2022-07-07T13:58:22Z</time>
      </trkpt>
      <trkpt lat="46.36655" lon="6.01163">
        <ele>1327</ele>
        <time>2022-07-07T13:59:04Z</time>
      </trkpt>
      <trkpt lat="46.36659" lon="6.01166">
        <ele>1327.3</ele>
        <time>2022-07-07T14:00:07Z</time>
      </trkpt>
      <trkpt lat="46.36658" lon="6.01173">
        <ele>1326.4</ele>
        <time>2022-07-07T14:00:13Z</time>
      </trkpt>
      <trkpt lat="46.36657" lon="6.0118">
        <ele>1326.1</ele>
        <time>2022-07-07T14:00:18Z</time>
      </trkpt>
      <trkpt lat="46.36657" lon="6.01187">
        <ele>1325.9</ele>
        <time>2022-07-07T14:00:23Z</time>
      </trkpt>
      <trkpt lat="46.36657" lon="6.01195">
        <ele>1326.5</ele>
        <time>2022-07-07T14:00:29Z</time>
      </trkpt>
      <trkpt lat="46.36657" lon="6.01202">
        <ele>1327.3</ele>
        <time>2022-07-07T14:00:34Z</time>
      </trkpt>
      <trkpt lat="46.36658" lon="6.01208">
        <ele>1328</ele>
        <time>2022-07-07T14:00:38Z</time>
      </trkpt>
      <trkpt lat="46.36658" lon="6.01215">
        <ele>1328.9</ele>
        <time>2022-07-07T14:00:42Z</time>
      </trkpt>
      <trkpt lat="46.36657" lon="6.01222">
        <ele>1329.3</ele>
        <time>2022-07-07T14:00:47Z</time>
      </trkpt>
      <trkpt lat="46.36655" lon="6.01229">
        <ele>1329.4</ele>
        <time>2022-07-07T14:00:52Z</time>
      </trkpt>
      <trkpt lat="46.36654" lon="6.01237">
        <ele>1329.4</ele>
        <time>2022-07-07T14:00:56Z</time>
      </trkpt>
      <trkpt lat="46.36654" lon="6.01243">
        <ele>1329.1</ele>
        <time>2022-07-07T14:01:00Z</time>
      </trkpt>
      <trkpt lat="46.36655" lon="6.0125">
        <ele>1328.2</ele>
        <time>2022-07-07T14:01:06Z</time>
      </trkpt>
      <trkpt lat="46.36659" lon="6.01255">
        <ele>1328.4</ele>
        <time>2022-07-07T14:01:14Z</time>
      </trkpt>
      <trkpt lat="46.36662" lon="6.01259">
        <ele>1328.3</ele>
        <time>2022-07-07T14:01:20Z</time>
      </trkpt>
      <trkpt lat="46.36667" lon="6.01262">
        <ele>1328.3</ele>
        <time>2022-07-07T14:01:25Z</time>
      </trkpt>
      <trkpt lat="46.36672" lon="6.01265">
        <ele>1328.2</ele>
        <time>2022-07-07T14:01:30Z</time>
      </trkpt>
      <trkpt lat="46.36676" lon="6.01269">
        <ele>1328.9</ele>
        <time>2022-07-07T14:01:37Z</time>
      </trkpt>
      <trkpt lat="46.36678" lon="6.01276">
        <ele>1329.5</ele>
        <time>2022-07-07T14:01:46Z</time>
      </trkpt>
      <trkpt lat="46.36681" lon="6.0128">
        <ele>1329.6</ele>
        <time>2022-07-07T14:01:54Z</time>
      </trkpt>
      <trkpt lat="46.36685" lon="6.01279">
        <ele>1328.7</ele>
        <time>2022-07-07T14:02:01Z</time>
      </trkpt>
      <trkpt lat="46.36688" lon="6.01285">
        <ele>1322.7</ele>
        <time>2022-07-07T14:02:34Z</time>
      </trkpt>
      <trkpt lat="46.36683" lon="6.01284">
        <ele>1317.7</ele>
        <time>2022-07-07T14:02:48Z</time>
      </trkpt>
      <trkpt lat="46.36681" lon="6.01275">
        <ele>1315.8</ele>
        <time>2022-07-07T14:03:20Z</time>
      </trkpt>
      <trkpt lat="46.36682" lon="6.01269">
        <ele>1317</ele>
        <time>2022-07-07T14:03:24Z</time>
      </trkpt>
      <trkpt lat="46.36683" lon="6.01276">
        <ele>1320.3</ele>
        <time>2022-07-07T14:03:40Z</time>
      </trkpt>
      <trkpt lat="46.36686" lon="6.01283">
        <ele>1320.8</ele>
        <time>2022-07-07T14:03:47Z</time>
      </trkpt>
      <trkpt lat="46.36688" lon="6.01289">
        <ele>1321.8</ele>
        <time>2022-07-07T14:03:52Z</time>
      </trkpt>
      <trkpt lat="46.36692" lon="6.01294">
        <ele>1323.8</ele>
        <time>2022-07-07T14:03:58Z</time>
      </trkpt>
      <trkpt lat="46.36694" lon="6.01301">
        <ele>1324.9</ele>
        <time>2022-07-07T14:04:03Z</time>
      </trkpt>
      <trkpt lat="46.36696" lon="6.01307">
        <ele>1325.8</ele>
        <time>2022-07-07T14:04:08Z</time>
      </trkpt>
      <trkpt lat="46.36697" lon="6.01314">
        <ele>1327.2</ele>
        <time>2022-07-07T14:04:13Z</time>
      </trkpt>
      <trkpt lat="46.36699" lon="6.01321">
        <ele>1328.4</ele>
        <time>2022-07-07T14:04:18Z</time>
      </trkpt>
      <trkpt lat="46.36698" lon="6.01327">
        <ele>1329.3</ele>
        <time>2022-07-07T14:04:23Z</time>
      </trkpt>
      <trkpt lat="46.36698" lon="6.01334">
        <ele>1330.2</ele>
        <time>2022-07-07T14:04:28Z</time>
      </trkpt>
      <trkpt lat="46.36698" lon="6.01342">
        <ele>1331.4</ele>
        <time>2022-07-07T14:04:33Z</time>
      </trkpt>
      <trkpt lat="46.367" lon="6.01349">
        <ele>1332.5</ele>
        <time>2022-07-07T14:04:39Z</time>
      </trkpt>
      <trkpt lat="46.36702" lon="6.01355">
        <ele>1333</ele>
        <time>2022-07-07T14:04:43Z</time>
      </trkpt>
      <trkpt lat="46.36705" lon="6.01361">
        <ele>1333.6</ele>
        <time>2022-07-07T14:04:47Z</time>
      </trkpt>
      <trkpt lat="46.36707" lon="6.01367">
        <ele>1334.2</ele>
        <time>2022-07-07T14:04:51Z</time>
      </trkpt>
      <trkpt lat="46.3671" lon="6.01373">
        <ele>1334.8</ele>
        <time>2022-07-07T14:04:56Z</time>
      </trkpt>
      <trkpt lat="46.36711" lon="6.0138">
        <ele>1335</ele>
        <time>2022-07-07T14:05:01Z</time>
      </trkpt>
      <trkpt lat="46.36711" lon="6.01387">
        <ele>1333.7</ele>
        <time>2022-07-07T14:05:07Z</time>
      </trkpt>
      <trkpt lat="46.3671" lon="6.01394">
        <ele>1332</ele>
        <time>2022-07-07T14:05:13Z</time>
      </trkpt>
      <trkpt lat="46.36709" lon="6.01401">
        <ele>1331.1</ele>
        <time>2022-07-07T14:05:18Z</time>
      </trkpt>
      <trkpt lat="46.3671" lon="6.01407">
        <ele>1330.7</ele>
        <time>2022-07-07T14:05:23Z</time>
      </trkpt>
      <trkpt lat="46.36708" lon="6.01415">
        <ele>1330.5</ele>
        <time>2022-07-07T14:05:28Z</time>
      </trkpt>
      <trkpt lat="46.36707" lon="6.01422">
        <ele>1330.6</ele>
        <time>2022-07-07T14:05:32Z</time>
      </trkpt>
      <trkpt lat="46.36706" lon="6.01429">
        <ele>1330.9</ele>
        <time>2022-07-07T14:05:36Z</time>
      </trkpt>
      <trkpt lat="46.36704" lon="6.01436">
        <ele>1330.4</ele>
        <time>2022-07-07T14:05:42Z</time>
      </trkpt>
      <trkpt lat="46.36704" lon="6.01443">
        <ele>1329.4</ele>
        <time>2022-07-07T14:05:48Z</time>
      </trkpt>
      <trkpt lat="46.36708" lon="6.01449">
        <ele>1328.1</ele>
        <time>2022-07-07T14:05:53Z</time>
      </trkpt>
      <trkpt lat="46.36712" lon="6.01451">
        <ele>1326.5</ele>
        <time>2022-07-07T14:05:58Z</time>
      </trkpt>
      <trkpt lat="46.36715" lon="6.01457">
        <ele>1324.5</ele>
        <time>2022-07-07T14:06:05Z</time>
      </trkpt>
      <trkpt lat="46.36718" lon="6.01462">
        <ele>1322.9</ele>
        <time>2022-07-07T14:06:11Z</time>
      </trkpt>
      <trkpt lat="46.36721" lon="6.01469">
        <ele>1322.1</ele>
        <time>2022-07-07T14:06:16Z</time>
      </trkpt>
      <trkpt lat="46.36723" lon="6.01475">
        <ele>1322</ele>
        <time>2022-07-07T14:06:21Z</time>
      </trkpt>
      <trkpt lat="46.36725" lon="6.01481">
        <ele>1321.8</ele>
        <time>2022-07-07T14:06:26Z</time>
      </trkpt>
      <trkpt lat="46.36727" lon="6.01487">
        <ele>1321.3</ele>
        <time>2022-07-07T14:06:31Z</time>
      </trkpt>
      <trkpt lat="46.36729" lon="6.01495">
        <ele>1320.9</ele>
        <time>2022-07-07T14:06:37Z</time>
      </trkpt>
      <trkpt lat="46.36731" lon="6.01501">
        <ele>1320.1</ele>
        <time>2022-07-07T14:06:42Z</time>
      </trkpt>
      <trkpt lat="46.36732" lon="6.01508">
        <ele>1319.1</ele>
        <time>2022-07-07T14:06:47Z</time>
      </trkpt>
      <trkpt lat="46.36734" lon="6.01514">
        <ele>1318.5</ele>
        <time>2022-07-07T14:06:52Z</time>
      </trkpt>
      <trkpt lat="46.36735" lon="6.01521">
        <ele>1317.9</ele>
        <time>2022-07-07T14:06:58Z</time>
      </trkpt>
      <trkpt lat="46.36736" lon="6.01529">
        <ele>1316.9</ele>
        <time>2022-07-07T14:07:04Z</time>
      </trkpt>
      <trkpt lat="46.36736" lon="6.01535">
        <ele>1316</ele>
        <time>2022-07-07T14:07:10Z</time>
      </trkpt>
      <trkpt lat="46.36735" lon="6.01542">
        <ele>1317.3</ele>
        <time>2022-07-07T14:07:50Z</time>
      </trkpt>
      <trkpt lat="46.3673" lon="6.01544">
        <ele>1323.3</ele>
        <time>2022-07-07T14:09:12Z</time>
      </trkpt>
      <trkpt lat="46.3673" lon="6.01551">
        <ele>1322.1</ele>
        <time>2022-07-07T14:09:34Z</time>
      </trkpt>
      <trkpt lat="46.36733" lon="6.01557">
        <ele>1322.1</ele>
        <time>2022-07-07T14:09:38Z</time>
      </trkpt>
      <trkpt lat="46.36735" lon="6.01563">
        <ele>1322.1</ele>
        <time>2022-07-07T14:09:44Z</time>
      </trkpt>
      <trkpt lat="46.36737" lon="6.0157">
        <ele>1322.3</ele>
        <time>2022-07-07T14:09:50Z</time>
      </trkpt>
      <trkpt lat="46.36738" lon="6.01577">
        <ele>1323.1</ele>
        <time>2022-07-07T14:09:54Z</time>
      </trkpt>
      <trkpt lat="46.36741" lon="6.01583">
        <ele>1324.3</ele>
        <time>2022-07-07T14:09:58Z</time>
      </trkpt>
      <trkpt lat="46.36741" lon="6.0159">
        <ele>1325.7</ele>
        <time>2022-07-07T14:10:04Z</time>
      </trkpt>
      <trkpt lat="46.3674" lon="6.01597">
        <ele>1326</ele>
        <time>2022-07-07T14:10:10Z</time>
      </trkpt>
      <trkpt lat="46.36738" lon="6.01605">
        <ele>1325.4</ele>
        <time>2022-07-07T14:10:15Z</time>
      </trkpt>
      <trkpt lat="46.36737" lon="6.01612">
        <ele>1325</ele>
        <time>2022-07-07T14:10:20Z</time>
      </trkpt>
      <trkpt lat="46.36737" lon="6.01619">
        <ele>1324.9</ele>
        <time>2022-07-07T14:10:24Z</time>
      </trkpt>
      <trkpt lat="46.36738" lon="6.01626">
        <ele>1324.8</ele>
        <time>2022-07-07T14:10:30Z</time>
      </trkpt>
      <trkpt lat="46.36738" lon="6.01633">
        <ele>1324.9</ele>
        <time>2022-07-07T14:10:36Z</time>
      </trkpt>
      <trkpt lat="46.36742" lon="6.01637">
        <ele>1325</ele>
        <time>2022-07-07T14:10:42Z</time>
      </trkpt>
      <trkpt lat="46.36746" lon="6.0164">
        <ele>1325.1</ele>
        <time>2022-07-07T14:10:47Z</time>
      </trkpt>
      <trkpt lat="46.3675" lon="6.01641">
        <ele>1325.3</ele>
        <time>2022-07-07T14:10:52Z</time>
      </trkpt>
      <trkpt lat="46.36755" lon="6.01643">
        <ele>1325.2</ele>
        <time>2022-07-07T14:10:58Z</time>
      </trkpt>
      <trkpt lat="46.36759" lon="6.01649">
        <ele>1323</ele>
        <time>2022-07-07T14:11:17Z</time>
      </trkpt>
      <trkpt lat="46.36763" lon="6.01654">
        <ele>1323.4</ele>
        <time>2022-07-07T14:11:22Z</time>
      </trkpt>
    </trkseg>
  </trk>
</gpx>